<?xml version="1.0" encoding="UTF-8" standalone="no" ?>
<gpx xmlns="http://www.topografix.com/GPX/1/1" xmlns:xsi="http://www.w3.org/2001/XMLSchema-instance" xsi:schemaLocation="http://www.topografix.com/GPX/1/1 http://www.topografix.com/GPX/1/1/gpx.xsd" version="1.1" creator="VisuGPX - https://www.visugpx.com">
  <metadata>
    <name>Autour de Romage</name>
    <desc><![CDATA[belle balade autour de Romage à la pause déjeuner !]]></desc>
  </metadata>
  <trk>
    <name><![CDATA[Autour de Romage_1]]></name>
    <trkseg>
      <trkpt lat="45.14954" lon="5.75409">
        <ele>268</ele>
        <time>2019-05-24T10:23:38.080Z</time>
      </trkpt>
      <trkpt lat="45.14939" lon="5.75412">
        <ele>271</ele>
        <time>2019-05-24T10:23:39.080Z</time>
      </trkpt>
      <trkpt lat="45.1494" lon="5.75418">
        <ele>269</ele>
        <time>2019-05-24T10:23:40.080Z</time>
      </trkpt>
      <trkpt lat="45.14939" lon="5.75421">
        <ele>269</ele>
        <time>2019-05-24T10:23:41.080Z</time>
      </trkpt>
      <trkpt lat="45.14936" lon="5.75424">
        <ele>271</ele>
        <time>2019-05-24T10:23:42.080Z</time>
      </trkpt>
      <trkpt lat="45.14936" lon="5.75427">
        <ele>271</ele>
        <time>2019-05-24T10:23:43.080Z</time>
      </trkpt>
      <trkpt lat="45.14933" lon="5.75428">
        <ele>267</ele>
        <time>2019-05-24T10:23:44.080Z</time>
      </trkpt>
      <trkpt lat="45.14939" lon="5.75429">
        <ele>271</ele>
        <time>2019-05-24T10:23:45.080Z</time>
      </trkpt>
      <trkpt lat="45.14943" lon="5.75431">
        <ele>271</ele>
        <time>2019-05-24T10:23:46.080Z</time>
      </trkpt>
      <trkpt lat="45.14952" lon="5.75432">
        <ele>273</ele>
        <time>2019-05-24T10:23:47.080Z</time>
      </trkpt>
      <trkpt lat="45.14955" lon="5.75435">
        <ele>274</ele>
        <time>2019-05-24T10:23:48.080Z</time>
      </trkpt>
      <trkpt lat="45.14956" lon="5.75437">
        <ele>279</ele>
        <time>2019-05-24T10:23:49.080Z</time>
      </trkpt>
      <trkpt lat="45.14957" lon="5.75439">
        <ele>282</ele>
        <time>2019-05-24T10:23:50.080Z</time>
      </trkpt>
      <trkpt lat="45.14958" lon="5.75439">
        <ele>284</ele>
        <time>2019-05-24T10:23:51.080Z</time>
      </trkpt>
      <trkpt lat="45.14959" lon="5.7544">
        <ele>286</ele>
        <time>2019-05-24T10:23:52.080Z</time>
      </trkpt>
      <trkpt lat="45.1496" lon="5.75442">
        <ele>286</ele>
        <time>2019-05-24T10:23:53.080Z</time>
      </trkpt>
      <trkpt lat="45.14962" lon="5.75445">
        <ele>286</ele>
        <time>2019-05-24T10:23:55.080Z</time>
      </trkpt>
      <trkpt lat="45.14963" lon="5.75445">
        <ele>287</ele>
        <time>2019-05-24T10:23:56.080Z</time>
      </trkpt>
      <trkpt lat="45.14963" lon="5.75447">
        <ele>287</ele>
        <time>2019-05-24T10:23:57.080Z</time>
      </trkpt>
      <trkpt lat="45.14963" lon="5.75448">
        <ele>286</ele>
        <time>2019-05-24T10:23:58.080Z</time>
      </trkpt>
      <trkpt lat="45.14963" lon="5.7545">
        <ele>283</ele>
        <time>2019-05-24T10:23:59.080Z</time>
      </trkpt>
      <trkpt lat="45.14963" lon="5.75451">
        <ele>288</ele>
        <time>2019-05-24T10:24:00.080Z</time>
      </trkpt>
      <trkpt lat="45.14963" lon="5.75453">
        <ele>290</ele>
        <time>2019-05-24T10:24:01.080Z</time>
      </trkpt>
      <trkpt lat="45.14964" lon="5.75455">
        <ele>295</ele>
        <time>2019-05-24T10:24:02.080Z</time>
      </trkpt>
      <trkpt lat="45.14964" lon="5.75456">
        <ele>296</ele>
        <time>2019-05-24T10:24:03.080Z</time>
      </trkpt>
      <trkpt lat="45.14965" lon="5.75458">
        <ele>297</ele>
        <time>2019-05-24T10:24:04.080Z</time>
      </trkpt>
      <trkpt lat="45.14966" lon="5.7546">
        <ele>295</ele>
        <time>2019-05-24T10:24:05.080Z</time>
      </trkpt>
      <trkpt lat="45.14966" lon="5.75462">
        <ele>297</ele>
        <time>2019-05-24T10:24:06.080Z</time>
      </trkpt>
      <trkpt lat="45.14966" lon="5.75464">
        <ele>298</ele>
        <time>2019-05-24T10:24:07.080Z</time>
      </trkpt>
      <trkpt lat="45.14965" lon="5.75465">
        <ele>297</ele>
        <time>2019-05-24T10:24:08.080Z</time>
      </trkpt>
      <trkpt lat="45.14965" lon="5.75466">
        <ele>298</ele>
        <time>2019-05-24T10:24:09.080Z</time>
      </trkpt>
      <trkpt lat="45.14965" lon="5.75467">
        <ele>299</ele>
        <time>2019-05-24T10:24:10.080Z</time>
      </trkpt>
      <trkpt lat="45.14965" lon="5.75468">
        <ele>300</ele>
        <time>2019-05-24T10:24:11.080Z</time>
      </trkpt>
      <trkpt lat="45.14966" lon="5.75468">
        <ele>312</ele>
        <time>2019-05-24T10:24:12.080Z</time>
      </trkpt>
      <trkpt lat="45.14967" lon="5.7547">
        <ele>312</ele>
        <time>2019-05-24T10:24:13.080Z</time>
      </trkpt>
      <trkpt lat="45.14969" lon="5.75471">
        <ele>312</ele>
        <time>2019-05-24T10:24:14.080Z</time>
      </trkpt>
      <trkpt lat="45.1497" lon="5.75473">
        <ele>311</ele>
        <time>2019-05-24T10:24:15.080Z</time>
      </trkpt>
      <trkpt lat="45.14971" lon="5.75474">
        <ele>310</ele>
        <time>2019-05-24T10:24:16.080Z</time>
      </trkpt>
      <trkpt lat="45.14971" lon="5.75475">
        <ele>312</ele>
        <time>2019-05-24T10:24:17.080Z</time>
      </trkpt>
      <trkpt lat="45.14972" lon="5.75475">
        <ele>312</ele>
        <time>2019-05-24T10:24:18.080Z</time>
      </trkpt>
      <trkpt lat="45.14973" lon="5.75474">
        <ele>312</ele>
        <time>2019-05-24T10:24:19.080Z</time>
      </trkpt>
      <trkpt lat="45.14974" lon="5.75474">
        <ele>313</ele>
        <time>2019-05-24T10:24:20.080Z</time>
      </trkpt>
      <trkpt lat="45.14975" lon="5.75473">
        <ele>314</ele>
        <time>2019-05-24T10:24:21.080Z</time>
      </trkpt>
      <trkpt lat="45.14976" lon="5.75473">
        <ele>314</ele>
        <time>2019-05-24T10:24:22.080Z</time>
      </trkpt>
      <trkpt lat="45.14977" lon="5.75473">
        <ele>314</ele>
        <time>2019-05-24T10:24:23.080Z</time>
      </trkpt>
      <trkpt lat="45.14978" lon="5.75474">
        <ele>312</ele>
        <time>2019-05-24T10:24:24.080Z</time>
      </trkpt>
      <trkpt lat="45.14979" lon="5.75473">
        <ele>311</ele>
        <time>2019-05-24T10:24:25.080Z</time>
      </trkpt>
      <trkpt lat="45.1498" lon="5.75473">
        <ele>311</ele>
        <time>2019-05-24T10:24:26.080Z</time>
      </trkpt>
      <trkpt lat="45.14981" lon="5.75473">
        <ele>311</ele>
        <time>2019-05-24T10:24:27.080Z</time>
      </trkpt>
      <trkpt lat="45.14981" lon="5.75472">
        <ele>310</ele>
        <time>2019-05-24T10:24:28.080Z</time>
      </trkpt>
      <trkpt lat="45.14983" lon="5.75472">
        <ele>308</ele>
        <time>2019-05-24T10:24:29.080Z</time>
      </trkpt>
      <trkpt lat="45.14983" lon="5.75471">
        <ele>308</ele>
        <time>2019-05-24T10:24:30.080Z</time>
      </trkpt>
      <trkpt lat="45.14984" lon="5.7547">
        <ele>309</ele>
        <time>2019-05-24T10:24:31.080Z</time>
      </trkpt>
      <trkpt lat="45.14986" lon="5.75469">
        <ele>307</ele>
        <time>2019-05-24T10:24:32.080Z</time>
      </trkpt>
      <trkpt lat="45.14987" lon="5.75469">
        <ele>305</ele>
        <time>2019-05-24T10:24:33.080Z</time>
      </trkpt>
      <trkpt lat="45.14988" lon="5.75469">
        <ele>304</ele>
        <time>2019-05-24T10:24:34.080Z</time>
      </trkpt>
      <trkpt lat="45.14989" lon="5.75469">
        <ele>306</ele>
        <time>2019-05-24T10:24:35.080Z</time>
      </trkpt>
      <trkpt lat="45.1499" lon="5.75468">
        <ele>307</ele>
        <time>2019-05-24T10:24:36.080Z</time>
      </trkpt>
      <trkpt lat="45.14992" lon="5.75468">
        <ele>307</ele>
        <time>2019-05-24T10:24:37.080Z</time>
      </trkpt>
      <trkpt lat="45.14993" lon="5.75468">
        <ele>306</ele>
        <time>2019-05-24T10:24:38.080Z</time>
      </trkpt>
      <trkpt lat="45.14994" lon="5.75469">
        <ele>304</ele>
        <time>2019-05-24T10:24:39.080Z</time>
      </trkpt>
      <trkpt lat="45.14996" lon="5.75469">
        <ele>302</ele>
        <time>2019-05-24T10:24:40.080Z</time>
      </trkpt>
      <trkpt lat="45.14997" lon="5.75471">
        <ele>300</ele>
        <time>2019-05-24T10:24:41.080Z</time>
      </trkpt>
      <trkpt lat="45.14999" lon="5.75473">
        <ele>297</ele>
        <time>2019-05-24T10:24:42.080Z</time>
      </trkpt>
      <trkpt lat="45.14999" lon="5.75475">
        <ele>293</ele>
        <time>2019-05-24T10:24:43.080Z</time>
      </trkpt>
      <trkpt lat="45.15" lon="5.75477">
        <ele>292</ele>
        <time>2019-05-24T10:24:44.080Z</time>
      </trkpt>
      <trkpt lat="45.15" lon="5.75479">
        <ele>289</ele>
        <time>2019-05-24T10:24:45.080Z</time>
      </trkpt>
      <trkpt lat="45.15" lon="5.75482">
        <ele>284</ele>
        <time>2019-05-24T10:24:46.080Z</time>
      </trkpt>
      <trkpt lat="45.15" lon="5.75485">
        <ele>282</ele>
        <time>2019-05-24T10:24:47.080Z</time>
      </trkpt>
      <trkpt lat="45.14999" lon="5.75487">
        <ele>282</ele>
        <time>2019-05-24T10:24:48.080Z</time>
      </trkpt>
      <trkpt lat="45.14998" lon="5.7549">
        <ele>282</ele>
        <time>2019-05-24T10:24:49.080Z</time>
      </trkpt>
      <trkpt lat="45.14997" lon="5.75493">
        <ele>282</ele>
        <time>2019-05-24T10:24:50.080Z</time>
      </trkpt>
      <trkpt lat="45.14996" lon="5.75495">
        <ele>281</ele>
        <time>2019-05-24T10:24:51.080Z</time>
      </trkpt>
      <trkpt lat="45.14995" lon="5.75498">
        <ele>279</ele>
        <time>2019-05-24T10:24:52.080Z</time>
      </trkpt>
      <trkpt lat="45.14993" lon="5.75501">
        <ele>279</ele>
        <time>2019-05-24T10:24:53.080Z</time>
      </trkpt>
      <trkpt lat="45.14992" lon="5.75504">
        <ele>279</ele>
        <time>2019-05-24T10:24:54.080Z</time>
      </trkpt>
      <trkpt lat="45.14991" lon="5.75506">
        <ele>278</ele>
        <time>2019-05-24T10:24:55.080Z</time>
      </trkpt>
      <trkpt lat="45.1499" lon="5.75509">
        <ele>278</ele>
        <time>2019-05-24T10:24:56.080Z</time>
      </trkpt>
      <trkpt lat="45.14988" lon="5.75512">
        <ele>279</ele>
        <time>2019-05-24T10:24:57.080Z</time>
      </trkpt>
      <trkpt lat="45.14987" lon="5.75514">
        <ele>279</ele>
        <time>2019-05-24T10:24:58.080Z</time>
      </trkpt>
      <trkpt lat="45.14986" lon="5.75516">
        <ele>280</ele>
        <time>2019-05-24T10:24:59.080Z</time>
      </trkpt>
      <trkpt lat="45.14985" lon="5.75519">
        <ele>279</ele>
        <time>2019-05-24T10:25:00.080Z</time>
      </trkpt>
      <trkpt lat="45.14983" lon="5.75521">
        <ele>279</ele>
        <time>2019-05-24T10:25:01.080Z</time>
      </trkpt>
      <trkpt lat="45.14982" lon="5.75523">
        <ele>279</ele>
        <time>2019-05-24T10:25:02.080Z</time>
      </trkpt>
      <trkpt lat="45.1498" lon="5.75525">
        <ele>279</ele>
        <time>2019-05-24T10:25:03.080Z</time>
      </trkpt>
      <trkpt lat="45.14979" lon="5.75527">
        <ele>279</ele>
        <time>2019-05-24T10:25:04.080Z</time>
      </trkpt>
      <trkpt lat="45.14978" lon="5.7553">
        <ele>279</ele>
        <time>2019-05-24T10:25:05.080Z</time>
      </trkpt>
      <trkpt lat="45.14977" lon="5.75532">
        <ele>279</ele>
        <time>2019-05-24T10:25:06.080Z</time>
      </trkpt>
      <trkpt lat="45.14975" lon="5.75534">
        <ele>278</ele>
        <time>2019-05-24T10:25:07.080Z</time>
      </trkpt>
      <trkpt lat="45.14974" lon="5.75535">
        <ele>279</ele>
        <time>2019-05-24T10:25:08.080Z</time>
      </trkpt>
      <trkpt lat="45.14972" lon="5.75537">
        <ele>280</ele>
        <time>2019-05-24T10:25:09.080Z</time>
      </trkpt>
      <trkpt lat="45.1497" lon="5.75538">
        <ele>281</ele>
        <time>2019-05-24T10:25:10.080Z</time>
      </trkpt>
      <trkpt lat="45.14969" lon="5.75539">
        <ele>282</ele>
        <time>2019-05-24T10:25:11.080Z</time>
      </trkpt>
      <trkpt lat="45.14967" lon="5.7554">
        <ele>281</ele>
        <time>2019-05-24T10:25:12.080Z</time>
      </trkpt>
      <trkpt lat="45.14966" lon="5.75541">
        <ele>282</ele>
        <time>2019-05-24T10:25:13.080Z</time>
      </trkpt>
      <trkpt lat="45.14964" lon="5.75543">
        <ele>284</ele>
        <time>2019-05-24T10:25:14.080Z</time>
      </trkpt>
      <trkpt lat="45.14963" lon="5.75544">
        <ele>286</ele>
        <time>2019-05-24T10:25:15.080Z</time>
      </trkpt>
      <trkpt lat="45.14962" lon="5.75545">
        <ele>289</ele>
        <time>2019-05-24T10:25:16.080Z</time>
      </trkpt>
      <trkpt lat="45.14961" lon="5.75546">
        <ele>291</ele>
        <time>2019-05-24T10:25:17.080Z</time>
      </trkpt>
      <trkpt lat="45.1496" lon="5.75547">
        <ele>297</ele>
        <time>2019-05-24T10:25:18.080Z</time>
      </trkpt>
      <trkpt lat="45.1496" lon="5.75548">
        <ele>299</ele>
        <time>2019-05-24T10:25:19.080Z</time>
      </trkpt>
      <trkpt lat="45.14959" lon="5.75549">
        <ele>300</ele>
        <time>2019-05-24T10:25:20.080Z</time>
      </trkpt>
      <trkpt lat="45.14958" lon="5.75551">
        <ele>299</ele>
        <time>2019-05-24T10:25:21.080Z</time>
      </trkpt>
      <trkpt lat="45.14957" lon="5.75553">
        <ele>293</ele>
        <time>2019-05-24T10:25:22.080Z</time>
      </trkpt>
      <trkpt lat="45.14955" lon="5.75555">
        <ele>291</ele>
        <time>2019-05-24T10:25:23.080Z</time>
      </trkpt>
      <trkpt lat="45.14954" lon="5.75557">
        <ele>291</ele>
        <time>2019-05-24T10:25:24.080Z</time>
      </trkpt>
      <trkpt lat="45.14954" lon="5.75559">
        <ele>291</ele>
        <time>2019-05-24T10:25:25.080Z</time>
      </trkpt>
      <trkpt lat="45.14953" lon="5.75561">
        <ele>291</ele>
        <time>2019-05-24T10:25:26.080Z</time>
      </trkpt>
      <trkpt lat="45.14953" lon="5.75563">
        <ele>291</ele>
        <time>2019-05-24T10:25:27.080Z</time>
      </trkpt>
      <trkpt lat="45.14953" lon="5.75565">
        <ele>292</ele>
        <time>2019-05-24T10:25:28.080Z</time>
      </trkpt>
      <trkpt lat="45.14952" lon="5.75568">
        <ele>293</ele>
        <time>2019-05-24T10:25:29.080Z</time>
      </trkpt>
      <trkpt lat="45.14952" lon="5.7557">
        <ele>293</ele>
        <time>2019-05-24T10:25:30.080Z</time>
      </trkpt>
      <trkpt lat="45.14952" lon="5.75571">
        <ele>299</ele>
        <time>2019-05-24T10:25:31.080Z</time>
      </trkpt>
      <trkpt lat="45.14952" lon="5.75573">
        <ele>303</ele>
        <time>2019-05-24T10:25:32.080Z</time>
      </trkpt>
      <trkpt lat="45.14952" lon="5.75574">
        <ele>308</ele>
        <time>2019-05-24T10:25:33.080Z</time>
      </trkpt>
      <trkpt lat="45.14952" lon="5.75576">
        <ele>309</ele>
        <time>2019-05-24T10:25:34.080Z</time>
      </trkpt>
      <trkpt lat="45.14951" lon="5.75577">
        <ele>308</ele>
        <time>2019-05-24T10:25:35.080Z</time>
      </trkpt>
      <trkpt lat="45.1495" lon="5.75579">
        <ele>306</ele>
        <time>2019-05-24T10:25:36.080Z</time>
      </trkpt>
      <trkpt lat="45.1495" lon="5.75581">
        <ele>305</ele>
        <time>2019-05-24T10:25:37.080Z</time>
      </trkpt>
      <trkpt lat="45.1495" lon="5.75584">
        <ele>305</ele>
        <time>2019-05-24T10:25:38.080Z</time>
      </trkpt>
      <trkpt lat="45.1495" lon="5.75587">
        <ele>304</ele>
        <time>2019-05-24T10:25:39.080Z</time>
      </trkpt>
      <trkpt lat="45.14949" lon="5.7559">
        <ele>302</ele>
        <time>2019-05-24T10:25:40.080Z</time>
      </trkpt>
      <trkpt lat="45.14949" lon="5.75592">
        <ele>302</ele>
        <time>2019-05-24T10:25:41.080Z</time>
      </trkpt>
      <trkpt lat="45.14948" lon="5.75594">
        <ele>303</ele>
        <time>2019-05-24T10:25:42.080Z</time>
      </trkpt>
      <trkpt lat="45.14948" lon="5.75597">
        <ele>302</ele>
        <time>2019-05-24T10:25:43.080Z</time>
      </trkpt>
      <trkpt lat="45.14947" lon="5.756">
        <ele>301</ele>
        <time>2019-05-24T10:25:44.080Z</time>
      </trkpt>
      <trkpt lat="45.14947" lon="5.75604">
        <ele>301</ele>
        <time>2019-05-24T10:25:45.080Z</time>
      </trkpt>
      <trkpt lat="45.14947" lon="5.75606">
        <ele>304</ele>
        <time>2019-05-24T10:25:46.080Z</time>
      </trkpt>
      <trkpt lat="45.14948" lon="5.75609">
        <ele>304</ele>
        <time>2019-05-24T10:25:47.080Z</time>
      </trkpt>
      <trkpt lat="45.14948" lon="5.75612">
        <ele>304</ele>
        <time>2019-05-24T10:25:48.080Z</time>
      </trkpt>
      <trkpt lat="45.14949" lon="5.75615">
        <ele>303</ele>
        <time>2019-05-24T10:25:49.080Z</time>
      </trkpt>
      <trkpt lat="45.14949" lon="5.75618">
        <ele>301</ele>
        <time>2019-05-24T10:25:50.080Z</time>
      </trkpt>
      <trkpt lat="45.1495" lon="5.75621">
        <ele>300</ele>
        <time>2019-05-24T10:25:51.080Z</time>
      </trkpt>
      <trkpt lat="45.1495" lon="5.75623">
        <ele>300</ele>
        <time>2019-05-24T10:25:52.080Z</time>
      </trkpt>
      <trkpt lat="45.1495" lon="5.75625">
        <ele>302</ele>
        <time>2019-05-24T10:25:53.080Z</time>
      </trkpt>
      <trkpt lat="45.1495" lon="5.75627">
        <ele>304</ele>
        <time>2019-05-24T10:25:54.080Z</time>
      </trkpt>
      <trkpt lat="45.14949" lon="5.75629">
        <ele>303</ele>
        <time>2019-05-24T10:25:55.080Z</time>
      </trkpt>
      <trkpt lat="45.14949" lon="5.75631">
        <ele>307</ele>
        <time>2019-05-24T10:25:56.080Z</time>
      </trkpt>
      <trkpt lat="45.14948" lon="5.75634">
        <ele>307</ele>
        <time>2019-05-24T10:25:57.080Z</time>
      </trkpt>
      <trkpt lat="45.14947" lon="5.75636">
        <ele>306</ele>
        <time>2019-05-24T10:25:58.080Z</time>
      </trkpt>
      <trkpt lat="45.14947" lon="5.75638">
        <ele>307</ele>
        <time>2019-05-24T10:25:59.080Z</time>
      </trkpt>
      <trkpt lat="45.14946" lon="5.7564">
        <ele>306</ele>
        <time>2019-05-24T10:26:00.080Z</time>
      </trkpt>
      <trkpt lat="45.14946" lon="5.75643">
        <ele>305</ele>
        <time>2019-05-24T10:26:01.080Z</time>
      </trkpt>
      <trkpt lat="45.14947" lon="5.75645">
        <ele>306</ele>
        <time>2019-05-24T10:26:02.080Z</time>
      </trkpt>
      <trkpt lat="45.14948" lon="5.75647">
        <ele>310</ele>
        <time>2019-05-24T10:26:03.080Z</time>
      </trkpt>
      <trkpt lat="45.14948" lon="5.75649">
        <ele>312</ele>
        <time>2019-05-24T10:26:04.080Z</time>
      </trkpt>
      <trkpt lat="45.14948" lon="5.75651">
        <ele>318</ele>
        <time>2019-05-24T10:26:05.080Z</time>
      </trkpt>
      <trkpt lat="45.14949" lon="5.75653">
        <ele>319</ele>
        <time>2019-05-24T10:26:06.080Z</time>
      </trkpt>
      <trkpt lat="45.1495" lon="5.75655">
        <ele>320</ele>
        <time>2019-05-24T10:26:07.080Z</time>
      </trkpt>
      <trkpt lat="45.14951" lon="5.75658">
        <ele>319</ele>
        <time>2019-05-24T10:26:08.080Z</time>
      </trkpt>
      <trkpt lat="45.14951" lon="5.7566">
        <ele>319</ele>
        <time>2019-05-24T10:26:09.080Z</time>
      </trkpt>
      <trkpt lat="45.14952" lon="5.75662">
        <ele>318</ele>
        <time>2019-05-24T10:26:10.080Z</time>
      </trkpt>
      <trkpt lat="45.14953" lon="5.75664">
        <ele>319</ele>
        <time>2019-05-24T10:26:11.080Z</time>
      </trkpt>
      <trkpt lat="45.14954" lon="5.75666">
        <ele>319</ele>
        <time>2019-05-24T10:26:12.080Z</time>
      </trkpt>
      <trkpt lat="45.14955" lon="5.75668">
        <ele>321</ele>
        <time>2019-05-24T10:26:13.080Z</time>
      </trkpt>
      <trkpt lat="45.14955" lon="5.75669">
        <ele>323</ele>
        <time>2019-05-24T10:26:14.080Z</time>
      </trkpt>
      <trkpt lat="45.14956" lon="5.75671">
        <ele>324</ele>
        <time>2019-05-24T10:26:15.080Z</time>
      </trkpt>
      <trkpt lat="45.14958" lon="5.75673">
        <ele>323</ele>
        <time>2019-05-24T10:26:16.080Z</time>
      </trkpt>
      <trkpt lat="45.14959" lon="5.75676">
        <ele>321</ele>
        <time>2019-05-24T10:26:17.080Z</time>
      </trkpt>
      <trkpt lat="45.14959" lon="5.75678">
        <ele>320</ele>
        <time>2019-05-24T10:26:18.080Z</time>
      </trkpt>
      <trkpt lat="45.1496" lon="5.7568">
        <ele>318</ele>
        <time>2019-05-24T10:26:19.080Z</time>
      </trkpt>
      <trkpt lat="45.1496" lon="5.75682">
        <ele>319</ele>
        <time>2019-05-24T10:26:20.080Z</time>
      </trkpt>
      <trkpt lat="45.14961" lon="5.75684">
        <ele>321</ele>
        <time>2019-05-24T10:26:21.080Z</time>
      </trkpt>
      <trkpt lat="45.14962" lon="5.75685">
        <ele>325</ele>
        <time>2019-05-24T10:26:22.080Z</time>
      </trkpt>
      <trkpt lat="45.14962" lon="5.75686">
        <ele>328</ele>
        <time>2019-05-24T10:26:23.080Z</time>
      </trkpt>
      <trkpt lat="45.14962" lon="5.75688">
        <ele>328</ele>
        <time>2019-05-24T10:26:24.080Z</time>
      </trkpt>
      <trkpt lat="45.14962" lon="5.7569">
        <ele>328</ele>
        <time>2019-05-24T10:26:25.080Z</time>
      </trkpt>
      <trkpt lat="45.14962" lon="5.75692">
        <ele>328</ele>
        <time>2019-05-24T10:26:26.080Z</time>
      </trkpt>
      <trkpt lat="45.14962" lon="5.75694">
        <ele>328</ele>
        <time>2019-05-24T10:26:27.080Z</time>
      </trkpt>
      <trkpt lat="45.14962" lon="5.75697">
        <ele>327</ele>
        <time>2019-05-24T10:26:28.080Z</time>
      </trkpt>
      <trkpt lat="45.14963" lon="5.757">
        <ele>328</ele>
        <time>2019-05-24T10:26:29.080Z</time>
      </trkpt>
      <trkpt lat="45.14963" lon="5.75702">
        <ele>332</ele>
        <time>2019-05-24T10:26:30.080Z</time>
      </trkpt>
      <trkpt lat="45.14963" lon="5.75704">
        <ele>332</ele>
        <time>2019-05-24T10:26:31.080Z</time>
      </trkpt>
      <trkpt lat="45.14964" lon="5.75706">
        <ele>329</ele>
        <time>2019-05-24T10:26:32.080Z</time>
      </trkpt>
      <trkpt lat="45.14964" lon="5.75708">
        <ele>326</ele>
        <time>2019-05-24T10:26:33.080Z</time>
      </trkpt>
      <trkpt lat="45.14964" lon="5.75711">
        <ele>325</ele>
        <time>2019-05-24T10:26:34.080Z</time>
      </trkpt>
      <trkpt lat="45.14963" lon="5.75713">
        <ele>325</ele>
        <time>2019-05-24T10:26:35.080Z</time>
      </trkpt>
      <trkpt lat="45.14963" lon="5.75716">
        <ele>324</ele>
        <time>2019-05-24T10:26:36.080Z</time>
      </trkpt>
      <trkpt lat="45.14964" lon="5.75718">
        <ele>324</ele>
        <time>2019-05-24T10:26:37.080Z</time>
      </trkpt>
      <trkpt lat="45.14964" lon="5.75721">
        <ele>323</ele>
        <time>2019-05-24T10:26:38.080Z</time>
      </trkpt>
      <trkpt lat="45.14964" lon="5.75723">
        <ele>320</ele>
        <time>2019-05-24T10:26:39.080Z</time>
      </trkpt>
      <trkpt lat="45.14965" lon="5.75726">
        <ele>318</ele>
        <time>2019-05-24T10:26:40.080Z</time>
      </trkpt>
      <trkpt lat="45.14966" lon="5.75728">
        <ele>315</ele>
        <time>2019-05-24T10:26:41.080Z</time>
      </trkpt>
      <trkpt lat="45.14966" lon="5.75731">
        <ele>312</ele>
        <time>2019-05-24T10:26:42.080Z</time>
      </trkpt>
      <trkpt lat="45.14966" lon="5.75734">
        <ele>310</ele>
        <time>2019-05-24T10:26:43.080Z</time>
      </trkpt>
      <trkpt lat="45.14967" lon="5.75737">
        <ele>310</ele>
        <time>2019-05-24T10:26:44.080Z</time>
      </trkpt>
      <trkpt lat="45.14968" lon="5.7574">
        <ele>311</ele>
        <time>2019-05-24T10:26:45.080Z</time>
      </trkpt>
      <trkpt lat="45.14968" lon="5.75743">
        <ele>313</ele>
        <time>2019-05-24T10:26:46.080Z</time>
      </trkpt>
      <trkpt lat="45.14968" lon="5.75746">
        <ele>317</ele>
        <time>2019-05-24T10:26:47.080Z</time>
      </trkpt>
      <trkpt lat="45.14968" lon="5.75748">
        <ele>321</ele>
        <time>2019-05-24T10:26:48.080Z</time>
      </trkpt>
      <trkpt lat="45.14968" lon="5.75751">
        <ele>325</ele>
        <time>2019-05-24T10:26:49.080Z</time>
      </trkpt>
      <trkpt lat="45.14969" lon="5.75753">
        <ele>328</ele>
        <time>2019-05-24T10:26:50.080Z</time>
      </trkpt>
      <trkpt lat="45.14969" lon="5.75756">
        <ele>328</ele>
        <time>2019-05-24T10:26:51.080Z</time>
      </trkpt>
      <trkpt lat="45.1497" lon="5.75758">
        <ele>328</ele>
        <time>2019-05-24T10:26:52.080Z</time>
      </trkpt>
      <trkpt lat="45.1497" lon="5.75761">
        <ele>327</ele>
        <time>2019-05-24T10:26:53.080Z</time>
      </trkpt>
      <trkpt lat="45.1497" lon="5.75763">
        <ele>325</ele>
        <time>2019-05-24T10:26:54.080Z</time>
      </trkpt>
      <trkpt lat="45.1497" lon="5.75765">
        <ele>324</ele>
        <time>2019-05-24T10:26:55.080Z</time>
      </trkpt>
      <trkpt lat="45.14971" lon="5.75768">
        <ele>324</ele>
        <time>2019-05-24T10:26:56.080Z</time>
      </trkpt>
      <trkpt lat="45.14971" lon="5.75771">
        <ele>327</ele>
        <time>2019-05-24T10:26:57.080Z</time>
      </trkpt>
      <trkpt lat="45.14971" lon="5.75773">
        <ele>330</ele>
        <time>2019-05-24T10:26:58.080Z</time>
      </trkpt>
      <trkpt lat="45.1497" lon="5.75776">
        <ele>330</ele>
        <time>2019-05-24T10:26:59.080Z</time>
      </trkpt>
      <trkpt lat="45.1497" lon="5.75779">
        <ele>329</ele>
        <time>2019-05-24T10:27:00.080Z</time>
      </trkpt>
      <trkpt lat="45.14969" lon="5.75781">
        <ele>329</ele>
        <time>2019-05-24T10:27:01.080Z</time>
      </trkpt>
      <trkpt lat="45.14969" lon="5.75783">
        <ele>329</ele>
        <time>2019-05-24T10:27:02.080Z</time>
      </trkpt>
      <trkpt lat="45.14968" lon="5.75785">
        <ele>333</ele>
        <time>2019-05-24T10:27:03.080Z</time>
      </trkpt>
      <trkpt lat="45.14968" lon="5.75787">
        <ele>333</ele>
        <time>2019-05-24T10:27:04.080Z</time>
      </trkpt>
      <trkpt lat="45.14968" lon="5.7579">
        <ele>332</ele>
        <time>2019-05-24T10:27:05.080Z</time>
      </trkpt>
      <trkpt lat="45.14968" lon="5.75792">
        <ele>332</ele>
        <time>2019-05-24T10:27:06.080Z</time>
      </trkpt>
      <trkpt lat="45.14968" lon="5.75795">
        <ele>332</ele>
        <time>2019-05-24T10:27:07.080Z</time>
      </trkpt>
      <trkpt lat="45.14968" lon="5.75798">
        <ele>331</ele>
        <time>2019-05-24T10:27:08.080Z</time>
      </trkpt>
      <trkpt lat="45.14967" lon="5.75801">
        <ele>328</ele>
        <time>2019-05-24T10:27:09.080Z</time>
      </trkpt>
      <trkpt lat="45.14967" lon="5.75803">
        <ele>333</ele>
        <time>2019-05-24T10:27:10.080Z</time>
      </trkpt>
      <trkpt lat="45.14966" lon="5.75806">
        <ele>332</ele>
        <time>2019-05-24T10:27:11.080Z</time>
      </trkpt>
      <trkpt lat="45.14966" lon="5.75809">
        <ele>331</ele>
        <time>2019-05-24T10:27:12.080Z</time>
      </trkpt>
      <trkpt lat="45.14965" lon="5.75812">
        <ele>330</ele>
        <time>2019-05-24T10:27:13.080Z</time>
      </trkpt>
      <trkpt lat="45.14965" lon="5.75814">
        <ele>330</ele>
        <time>2019-05-24T10:27:14.080Z</time>
      </trkpt>
      <trkpt lat="45.14964" lon="5.75817">
        <ele>329</ele>
        <time>2019-05-24T10:27:15.080Z</time>
      </trkpt>
      <trkpt lat="45.14964" lon="5.7582">
        <ele>327</ele>
        <time>2019-05-24T10:27:16.080Z</time>
      </trkpt>
      <trkpt lat="45.14964" lon="5.75824">
        <ele>327</ele>
        <time>2019-05-24T10:27:17.080Z</time>
      </trkpt>
      <trkpt lat="45.14964" lon="5.75826">
        <ele>327</ele>
        <time>2019-05-24T10:27:18.080Z</time>
      </trkpt>
      <trkpt lat="45.14964" lon="5.75829">
        <ele>328</ele>
        <time>2019-05-24T10:27:19.080Z</time>
      </trkpt>
      <trkpt lat="45.14964" lon="5.75832">
        <ele>328</ele>
        <time>2019-05-24T10:27:20.080Z</time>
      </trkpt>
      <trkpt lat="45.14964" lon="5.75834">
        <ele>329</ele>
        <time>2019-05-24T10:27:21.080Z</time>
      </trkpt>
      <trkpt lat="45.14963" lon="5.75836">
        <ele>331</ele>
        <time>2019-05-24T10:27:22.080Z</time>
      </trkpt>
      <trkpt lat="45.14963" lon="5.75838">
        <ele>330</ele>
        <time>2019-05-24T10:27:23.080Z</time>
      </trkpt>
      <trkpt lat="45.14964" lon="5.75841">
        <ele>330</ele>
        <time>2019-05-24T10:27:24.080Z</time>
      </trkpt>
      <trkpt lat="45.14964" lon="5.75843">
        <ele>332</ele>
        <time>2019-05-24T10:27:25.080Z</time>
      </trkpt>
      <trkpt lat="45.14963" lon="5.75845">
        <ele>334</ele>
        <time>2019-05-24T10:27:26.080Z</time>
      </trkpt>
      <trkpt lat="45.14963" lon="5.75848">
        <ele>337</ele>
        <time>2019-05-24T10:27:27.080Z</time>
      </trkpt>
      <trkpt lat="45.14963" lon="5.7585">
        <ele>337</ele>
        <time>2019-05-24T10:27:28.080Z</time>
      </trkpt>
      <trkpt lat="45.14962" lon="5.75853">
        <ele>335</ele>
        <time>2019-05-24T10:27:29.080Z</time>
      </trkpt>
      <trkpt lat="45.1496" lon="5.75855">
        <ele>334</ele>
        <time>2019-05-24T10:27:30.080Z</time>
      </trkpt>
      <trkpt lat="45.1496" lon="5.75857">
        <ele>333</ele>
        <time>2019-05-24T10:27:31.080Z</time>
      </trkpt>
      <trkpt lat="45.14959" lon="5.7586">
        <ele>332</ele>
        <time>2019-05-24T10:27:32.080Z</time>
      </trkpt>
      <trkpt lat="45.14959" lon="5.75862">
        <ele>331</ele>
        <time>2019-05-24T10:27:33.080Z</time>
      </trkpt>
      <trkpt lat="45.14958" lon="5.75865">
        <ele>332</ele>
        <time>2019-05-24T10:27:34.080Z</time>
      </trkpt>
      <trkpt lat="45.14958" lon="5.75868">
        <ele>330</ele>
        <time>2019-05-24T10:27:35.080Z</time>
      </trkpt>
      <trkpt lat="45.14958" lon="5.75871">
        <ele>329</ele>
        <time>2019-05-24T10:27:36.080Z</time>
      </trkpt>
      <trkpt lat="45.14958" lon="5.75874">
        <ele>329</ele>
        <time>2019-05-24T10:27:37.080Z</time>
      </trkpt>
      <trkpt lat="45.14958" lon="5.75876">
        <ele>330</ele>
        <time>2019-05-24T10:27:38.080Z</time>
      </trkpt>
      <trkpt lat="45.14958" lon="5.75879">
        <ele>331</ele>
        <time>2019-05-24T10:27:39.080Z</time>
      </trkpt>
      <trkpt lat="45.14958" lon="5.75881">
        <ele>331</ele>
        <time>2019-05-24T10:27:40.080Z</time>
      </trkpt>
      <trkpt lat="45.14958" lon="5.75883">
        <ele>330</ele>
        <time>2019-05-24T10:27:41.080Z</time>
      </trkpt>
      <trkpt lat="45.14958" lon="5.75885">
        <ele>331</ele>
        <time>2019-05-24T10:27:42.080Z</time>
      </trkpt>
      <trkpt lat="45.14958" lon="5.75887">
        <ele>333</ele>
        <time>2019-05-24T10:27:43.080Z</time>
      </trkpt>
      <trkpt lat="45.14957" lon="5.7589">
        <ele>333</ele>
        <time>2019-05-24T10:27:44.080Z</time>
      </trkpt>
      <trkpt lat="45.14957" lon="5.75892">
        <ele>334</ele>
        <time>2019-05-24T10:27:45.080Z</time>
      </trkpt>
      <trkpt lat="45.14956" lon="5.75895">
        <ele>334</ele>
        <time>2019-05-24T10:27:46.080Z</time>
      </trkpt>
      <trkpt lat="45.14956" lon="5.75897">
        <ele>333</ele>
        <time>2019-05-24T10:27:47.080Z</time>
      </trkpt>
      <trkpt lat="45.14957" lon="5.759">
        <ele>333</ele>
        <time>2019-05-24T10:27:48.080Z</time>
      </trkpt>
      <trkpt lat="45.14957" lon="5.75903">
        <ele>332</ele>
        <time>2019-05-24T10:27:49.080Z</time>
      </trkpt>
      <trkpt lat="45.14957" lon="5.75906">
        <ele>333</ele>
        <time>2019-05-24T10:27:50.080Z</time>
      </trkpt>
      <trkpt lat="45.14957" lon="5.75908">
        <ele>332</ele>
        <time>2019-05-24T10:27:51.080Z</time>
      </trkpt>
      <trkpt lat="45.14957" lon="5.75911">
        <ele>330</ele>
        <time>2019-05-24T10:27:52.080Z</time>
      </trkpt>
      <trkpt lat="45.14957" lon="5.75913">
        <ele>330</ele>
        <time>2019-05-24T10:27:53.080Z</time>
      </trkpt>
      <trkpt lat="45.14957" lon="5.75916">
        <ele>331</ele>
        <time>2019-05-24T10:27:54.080Z</time>
      </trkpt>
      <trkpt lat="45.14957" lon="5.75919">
        <ele>331</ele>
        <time>2019-05-24T10:27:55.080Z</time>
      </trkpt>
      <trkpt lat="45.14957" lon="5.75921">
        <ele>331</ele>
        <time>2019-05-24T10:27:56.080Z</time>
      </trkpt>
      <trkpt lat="45.14956" lon="5.75924">
        <ele>331</ele>
        <time>2019-05-24T10:27:57.080Z</time>
      </trkpt>
      <trkpt lat="45.14956" lon="5.75926">
        <ele>333</ele>
        <time>2019-05-24T10:27:58.080Z</time>
      </trkpt>
      <trkpt lat="45.14956" lon="5.75929">
        <ele>333</ele>
        <time>2019-05-24T10:27:59.080Z</time>
      </trkpt>
      <trkpt lat="45.14956" lon="5.75931">
        <ele>331</ele>
        <time>2019-05-24T10:28:00.080Z</time>
      </trkpt>
      <trkpt lat="45.14956" lon="5.75934">
        <ele>330</ele>
        <time>2019-05-24T10:28:01.080Z</time>
      </trkpt>
      <trkpt lat="45.14957" lon="5.75937">
        <ele>329</ele>
        <time>2019-05-24T10:28:02.080Z</time>
      </trkpt>
      <trkpt lat="45.14958" lon="5.75939">
        <ele>330</ele>
        <time>2019-05-24T10:28:03.080Z</time>
      </trkpt>
      <trkpt lat="45.14959" lon="5.75942">
        <ele>330</ele>
        <time>2019-05-24T10:28:04.080Z</time>
      </trkpt>
      <trkpt lat="45.14959" lon="5.75944">
        <ele>331</ele>
        <time>2019-05-24T10:28:05.080Z</time>
      </trkpt>
      <trkpt lat="45.14959" lon="5.75947">
        <ele>331</ele>
        <time>2019-05-24T10:28:06.080Z</time>
      </trkpt>
      <trkpt lat="45.14959" lon="5.75949">
        <ele>333</ele>
        <time>2019-05-24T10:28:07.080Z</time>
      </trkpt>
      <trkpt lat="45.1496" lon="5.75951">
        <ele>339</ele>
        <time>2019-05-24T10:28:08.080Z</time>
      </trkpt>
      <trkpt lat="45.1496" lon="5.75954">
        <ele>338</ele>
        <time>2019-05-24T10:28:09.080Z</time>
      </trkpt>
      <trkpt lat="45.1496" lon="5.75956">
        <ele>336</ele>
        <time>2019-05-24T10:28:10.080Z</time>
      </trkpt>
      <trkpt lat="45.1496" lon="5.75958">
        <ele>337</ele>
        <time>2019-05-24T10:28:11.080Z</time>
      </trkpt>
      <trkpt lat="45.1496" lon="5.75961">
        <ele>337</ele>
        <time>2019-05-24T10:28:12.080Z</time>
      </trkpt>
      <trkpt lat="45.14961" lon="5.75963">
        <ele>335</ele>
        <time>2019-05-24T10:28:13.080Z</time>
      </trkpt>
      <trkpt lat="45.14961" lon="5.75966">
        <ele>335</ele>
        <time>2019-05-24T10:28:14.080Z</time>
      </trkpt>
      <trkpt lat="45.14961" lon="5.75968">
        <ele>333</ele>
        <time>2019-05-24T10:28:15.080Z</time>
      </trkpt>
      <trkpt lat="45.14961" lon="5.75971">
        <ele>332</ele>
        <time>2019-05-24T10:28:16.080Z</time>
      </trkpt>
      <trkpt lat="45.14962" lon="5.75973">
        <ele>332</ele>
        <time>2019-05-24T10:28:17.080Z</time>
      </trkpt>
      <trkpt lat="45.14962" lon="5.75976">
        <ele>333</ele>
        <time>2019-05-24T10:28:18.080Z</time>
      </trkpt>
      <trkpt lat="45.14962" lon="5.75978">
        <ele>333</ele>
        <time>2019-05-24T10:28:19.080Z</time>
      </trkpt>
      <trkpt lat="45.14962" lon="5.7598">
        <ele>335</ele>
        <time>2019-05-24T10:28:20.080Z</time>
      </trkpt>
      <trkpt lat="45.14962" lon="5.75983">
        <ele>335</ele>
        <time>2019-05-24T10:28:21.080Z</time>
      </trkpt>
      <trkpt lat="45.14962" lon="5.75985">
        <ele>338</ele>
        <time>2019-05-24T10:28:22.080Z</time>
      </trkpt>
      <trkpt lat="45.14963" lon="5.75988">
        <ele>344</ele>
        <time>2019-05-24T10:28:23.080Z</time>
      </trkpt>
      <trkpt lat="45.14963" lon="5.7599">
        <ele>343</ele>
        <time>2019-05-24T10:28:24.080Z</time>
      </trkpt>
      <trkpt lat="45.14964" lon="5.75993">
        <ele>343</ele>
        <time>2019-05-24T10:28:25.080Z</time>
      </trkpt>
      <trkpt lat="45.14964" lon="5.75996">
        <ele>343</ele>
        <time>2019-05-24T10:28:26.080Z</time>
      </trkpt>
      <trkpt lat="45.14964" lon="5.75998">
        <ele>344</ele>
        <time>2019-05-24T10:28:27.080Z</time>
      </trkpt>
      <trkpt lat="45.14964" lon="5.76001">
        <ele>345</ele>
        <time>2019-05-24T10:28:28.080Z</time>
      </trkpt>
      <trkpt lat="45.14964" lon="5.76004">
        <ele>343</ele>
        <time>2019-05-24T10:28:29.080Z</time>
      </trkpt>
      <trkpt lat="45.14965" lon="5.76006">
        <ele>342</ele>
        <time>2019-05-24T10:28:30.080Z</time>
      </trkpt>
      <trkpt lat="45.14965" lon="5.76009">
        <ele>338</ele>
        <time>2019-05-24T10:28:31.080Z</time>
      </trkpt>
      <trkpt lat="45.14966" lon="5.76011">
        <ele>340</ele>
        <time>2019-05-24T10:28:32.080Z</time>
      </trkpt>
      <trkpt lat="45.14966" lon="5.76013">
        <ele>342</ele>
        <time>2019-05-24T10:28:33.080Z</time>
      </trkpt>
      <trkpt lat="45.14966" lon="5.76015">
        <ele>343</ele>
        <time>2019-05-24T10:28:34.080Z</time>
      </trkpt>
      <trkpt lat="45.14966" lon="5.76018">
        <ele>343</ele>
        <time>2019-05-24T10:28:35.080Z</time>
      </trkpt>
      <trkpt lat="45.14966" lon="5.76021">
        <ele>348</ele>
        <time>2019-05-24T10:28:36.080Z</time>
      </trkpt>
      <trkpt lat="45.14966" lon="5.76023">
        <ele>346</ele>
        <time>2019-05-24T10:28:37.080Z</time>
      </trkpt>
      <trkpt lat="45.14965" lon="5.76026">
        <ele>346</ele>
        <time>2019-05-24T10:28:38.080Z</time>
      </trkpt>
      <trkpt lat="45.14964" lon="5.76029">
        <ele>342</ele>
        <time>2019-05-24T10:28:39.080Z</time>
      </trkpt>
      <trkpt lat="45.14963" lon="5.76032">
        <ele>341</ele>
        <time>2019-05-24T10:28:40.080Z</time>
      </trkpt>
      <trkpt lat="45.14963" lon="5.76035">
        <ele>343</ele>
        <time>2019-05-24T10:28:41.080Z</time>
      </trkpt>
      <trkpt lat="45.14963" lon="5.76038">
        <ele>343</ele>
        <time>2019-05-24T10:28:42.080Z</time>
      </trkpt>
      <trkpt lat="45.14963" lon="5.76041">
        <ele>344</ele>
        <time>2019-05-24T10:28:43.080Z</time>
      </trkpt>
      <trkpt lat="45.14963" lon="5.76044">
        <ele>343</ele>
        <time>2019-05-24T10:28:44.080Z</time>
      </trkpt>
      <trkpt lat="45.14963" lon="5.76047">
        <ele>343</ele>
        <time>2019-05-24T10:28:45.080Z</time>
      </trkpt>
      <trkpt lat="45.14963" lon="5.7605">
        <ele>342</ele>
        <time>2019-05-24T10:28:46.080Z</time>
      </trkpt>
      <trkpt lat="45.14962" lon="5.76053">
        <ele>343</ele>
        <time>2019-05-24T10:28:47.080Z</time>
      </trkpt>
      <trkpt lat="45.14961" lon="5.76056">
        <ele>343</ele>
        <time>2019-05-24T10:28:48.080Z</time>
      </trkpt>
      <trkpt lat="45.14961" lon="5.76059">
        <ele>343</ele>
        <time>2019-05-24T10:28:49.080Z</time>
      </trkpt>
      <trkpt lat="45.1496" lon="5.76062">
        <ele>345</ele>
        <time>2019-05-24T10:28:50.080Z</time>
      </trkpt>
      <trkpt lat="45.1496" lon="5.76064">
        <ele>348</ele>
        <time>2019-05-24T10:28:51.080Z</time>
      </trkpt>
      <trkpt lat="45.1496" lon="5.76067">
        <ele>348</ele>
        <time>2019-05-24T10:28:52.080Z</time>
      </trkpt>
      <trkpt lat="45.14959" lon="5.7607">
        <ele>347</ele>
        <time>2019-05-24T10:28:53.080Z</time>
      </trkpt>
      <trkpt lat="45.14959" lon="5.76073">
        <ele>347</ele>
        <time>2019-05-24T10:28:54.080Z</time>
      </trkpt>
      <trkpt lat="45.1496" lon="5.76076">
        <ele>348</ele>
        <time>2019-05-24T10:28:55.080Z</time>
      </trkpt>
      <trkpt lat="45.1496" lon="5.76079">
        <ele>348</ele>
        <time>2019-05-24T10:28:56.080Z</time>
      </trkpt>
      <trkpt lat="45.1496" lon="5.76082">
        <ele>348</ele>
        <time>2019-05-24T10:28:57.080Z</time>
      </trkpt>
      <trkpt lat="45.14959" lon="5.76085">
        <ele>346</ele>
        <time>2019-05-24T10:28:58.080Z</time>
      </trkpt>
      <trkpt lat="45.14959" lon="5.76088">
        <ele>349</ele>
        <time>2019-05-24T10:28:59.080Z</time>
      </trkpt>
      <trkpt lat="45.14958" lon="5.7609">
        <ele>348</ele>
        <time>2019-05-24T10:29:00.080Z</time>
      </trkpt>
      <trkpt lat="45.14957" lon="5.76092">
        <ele>347</ele>
        <time>2019-05-24T10:29:01.080Z</time>
      </trkpt>
      <trkpt lat="45.14956" lon="5.76095">
        <ele>348</ele>
        <time>2019-05-24T10:29:02.080Z</time>
      </trkpt>
      <trkpt lat="45.14955" lon="5.76097">
        <ele>349</ele>
        <time>2019-05-24T10:29:03.080Z</time>
      </trkpt>
      <trkpt lat="45.14954" lon="5.761">
        <ele>348</ele>
        <time>2019-05-24T10:29:04.080Z</time>
      </trkpt>
      <trkpt lat="45.14953" lon="5.76102">
        <ele>344</ele>
        <time>2019-05-24T10:29:05.080Z</time>
      </trkpt>
      <trkpt lat="45.14952" lon="5.76104">
        <ele>342</ele>
        <time>2019-05-24T10:29:06.080Z</time>
      </trkpt>
      <trkpt lat="45.1495" lon="5.76106">
        <ele>341</ele>
        <time>2019-05-24T10:29:07.080Z</time>
      </trkpt>
      <trkpt lat="45.14949" lon="5.76108">
        <ele>341</ele>
        <time>2019-05-24T10:29:08.080Z</time>
      </trkpt>
      <trkpt lat="45.14947" lon="5.7611">
        <ele>341</ele>
        <time>2019-05-24T10:29:09.080Z</time>
      </trkpt>
      <trkpt lat="45.14946" lon="5.76112">
        <ele>341</ele>
        <time>2019-05-24T10:29:10.080Z</time>
      </trkpt>
      <trkpt lat="45.14944" lon="5.76115">
        <ele>341</ele>
        <time>2019-05-24T10:29:11.080Z</time>
      </trkpt>
      <trkpt lat="45.14943" lon="5.76118">
        <ele>341</ele>
        <time>2019-05-24T10:29:12.080Z</time>
      </trkpt>
      <trkpt lat="45.14942" lon="5.76121">
        <ele>342</ele>
        <time>2019-05-24T10:29:13.080Z</time>
      </trkpt>
      <trkpt lat="45.14942" lon="5.76124">
        <ele>343</ele>
        <time>2019-05-24T10:29:14.080Z</time>
      </trkpt>
      <trkpt lat="45.14941" lon="5.76126">
        <ele>341</ele>
        <time>2019-05-24T10:29:15.080Z</time>
      </trkpt>
      <trkpt lat="45.1494" lon="5.76129">
        <ele>340</ele>
        <time>2019-05-24T10:29:16.080Z</time>
      </trkpt>
      <trkpt lat="45.1494" lon="5.76131">
        <ele>341</ele>
        <time>2019-05-24T10:29:17.080Z</time>
      </trkpt>
      <trkpt lat="45.1494" lon="5.76134">
        <ele>340</ele>
        <time>2019-05-24T10:29:18.080Z</time>
      </trkpt>
      <trkpt lat="45.14941" lon="5.76136">
        <ele>341</ele>
        <time>2019-05-24T10:29:19.080Z</time>
      </trkpt>
      <trkpt lat="45.1494" lon="5.76139">
        <ele>340</ele>
        <time>2019-05-24T10:29:20.080Z</time>
      </trkpt>
      <trkpt lat="45.1494" lon="5.7614">
        <ele>338</ele>
        <time>2019-05-24T10:29:21.080Z</time>
      </trkpt>
      <trkpt lat="45.14938" lon="5.76143">
        <ele>338</ele>
        <time>2019-05-24T10:29:22.080Z</time>
      </trkpt>
      <trkpt lat="45.14938" lon="5.76145">
        <ele>337</ele>
        <time>2019-05-24T10:29:23.080Z</time>
      </trkpt>
      <trkpt lat="45.14937" lon="5.76147">
        <ele>339</ele>
        <time>2019-05-24T10:29:24.080Z</time>
      </trkpt>
      <trkpt lat="45.14936" lon="5.76148">
        <ele>339</ele>
        <time>2019-05-24T10:29:25.080Z</time>
      </trkpt>
      <trkpt lat="45.14935" lon="5.76149">
        <ele>340</ele>
        <time>2019-05-24T10:29:26.080Z</time>
      </trkpt>
      <trkpt lat="45.14934" lon="5.76151">
        <ele>340</ele>
        <time>2019-05-24T10:29:27.080Z</time>
      </trkpt>
      <trkpt lat="45.14933" lon="5.76153">
        <ele>341</ele>
        <time>2019-05-24T10:29:28.080Z</time>
      </trkpt>
      <trkpt lat="45.14933" lon="5.76155">
        <ele>345</ele>
        <time>2019-05-24T10:29:29.080Z</time>
      </trkpt>
      <trkpt lat="45.14932" lon="5.76157">
        <ele>347</ele>
        <time>2019-05-24T10:29:30.080Z</time>
      </trkpt>
      <trkpt lat="45.14932" lon="5.76157">
        <ele>347</ele>
        <time>2019-05-24T10:29:31.080Z</time>
      </trkpt>
      <trkpt lat="45.14931" lon="5.76159">
        <ele>348</ele>
        <time>2019-05-24T10:29:32.080Z</time>
      </trkpt>
      <trkpt lat="45.1493" lon="5.76161">
        <ele>348</ele>
        <time>2019-05-24T10:29:33.080Z</time>
      </trkpt>
      <trkpt lat="45.1493" lon="5.76164">
        <ele>349</ele>
        <time>2019-05-24T10:29:34.080Z</time>
      </trkpt>
      <trkpt lat="45.14929" lon="5.76166">
        <ele>351</ele>
        <time>2019-05-24T10:29:35.080Z</time>
      </trkpt>
      <trkpt lat="45.14929" lon="5.76168">
        <ele>352</ele>
        <time>2019-05-24T10:29:36.080Z</time>
      </trkpt>
      <trkpt lat="45.14928" lon="5.7617">
        <ele>347</ele>
        <time>2019-05-24T10:29:37.080Z</time>
      </trkpt>
      <trkpt lat="45.14927" lon="5.76172">
        <ele>349</ele>
        <time>2019-05-24T10:29:38.080Z</time>
      </trkpt>
      <trkpt lat="45.14926" lon="5.76174">
        <ele>349</ele>
        <time>2019-05-24T10:29:39.080Z</time>
      </trkpt>
      <trkpt lat="45.14926" lon="5.76177">
        <ele>351</ele>
        <time>2019-05-24T10:29:40.080Z</time>
      </trkpt>
      <trkpt lat="45.14926" lon="5.76177">
        <ele>351</ele>
        <time>2019-05-24T10:29:41.080Z</time>
      </trkpt>
      <trkpt lat="45.14926" lon="5.76179">
        <ele>352</ele>
        <time>2019-05-24T10:29:42.080Z</time>
      </trkpt>
      <trkpt lat="45.14926" lon="5.76181">
        <ele>355</ele>
        <time>2019-05-24T10:29:43.080Z</time>
      </trkpt>
      <trkpt lat="45.14926" lon="5.76183">
        <ele>353</ele>
        <time>2019-05-24T10:29:44.080Z</time>
      </trkpt>
      <trkpt lat="45.14925" lon="5.76186">
        <ele>351</ele>
        <time>2019-05-24T10:29:45.080Z</time>
      </trkpt>
      <trkpt lat="45.14925" lon="5.76188">
        <ele>351</ele>
        <time>2019-05-24T10:29:46.080Z</time>
      </trkpt>
      <trkpt lat="45.14925" lon="5.7619">
        <ele>353</ele>
        <time>2019-05-24T10:29:47.080Z</time>
      </trkpt>
      <trkpt lat="45.14924" lon="5.76192">
        <ele>356</ele>
        <time>2019-05-24T10:29:48.080Z</time>
      </trkpt>
      <trkpt lat="45.14924" lon="5.76194">
        <ele>358</ele>
        <time>2019-05-24T10:29:49.080Z</time>
      </trkpt>
      <trkpt lat="45.14924" lon="5.76196">
        <ele>363</ele>
        <time>2019-05-24T10:29:50.080Z</time>
      </trkpt>
      <trkpt lat="45.14924" lon="5.76196">
        <ele>363</ele>
        <time>2019-05-24T10:29:51.080Z</time>
      </trkpt>
      <trkpt lat="45.14924" lon="5.76198">
        <ele>367</ele>
        <time>2019-05-24T10:29:52.080Z</time>
      </trkpt>
      <trkpt lat="45.14924" lon="5.762">
        <ele>366</ele>
        <time>2019-05-24T10:29:53.080Z</time>
      </trkpt>
      <trkpt lat="45.14924" lon="5.76202">
        <ele>368</ele>
        <time>2019-05-24T10:29:54.080Z</time>
      </trkpt>
      <trkpt lat="45.14924" lon="5.76204">
        <ele>367</ele>
        <time>2019-05-24T10:29:55.080Z</time>
      </trkpt>
      <trkpt lat="45.14923" lon="5.76205">
        <ele>365</ele>
        <time>2019-05-24T10:29:56.080Z</time>
      </trkpt>
      <trkpt lat="45.14923" lon="5.76207">
        <ele>366</ele>
        <time>2019-05-24T10:29:57.080Z</time>
      </trkpt>
      <trkpt lat="45.14923" lon="5.76208">
        <ele>364</ele>
        <time>2019-05-24T10:29:58.080Z</time>
      </trkpt>
      <trkpt lat="45.14922" lon="5.7621">
        <ele>364</ele>
        <time>2019-05-24T10:29:59.080Z</time>
      </trkpt>
      <trkpt lat="45.14923" lon="5.76212">
        <ele>367</ele>
        <time>2019-05-24T10:30:00.080Z</time>
      </trkpt>
      <trkpt lat="45.14923" lon="5.76214">
        <ele>366</ele>
        <time>2019-05-24T10:30:01.080Z</time>
      </trkpt>
      <trkpt lat="45.14923" lon="5.76214">
        <ele>366</ele>
        <time>2019-05-24T10:30:02.080Z</time>
      </trkpt>
      <trkpt lat="45.14923" lon="5.76216">
        <ele>365</ele>
        <time>2019-05-24T10:30:03.080Z</time>
      </trkpt>
      <trkpt lat="45.14922" lon="5.76217">
        <ele>364</ele>
        <time>2019-05-24T10:30:04.080Z</time>
      </trkpt>
      <trkpt lat="45.14923" lon="5.7622">
        <ele>362</ele>
        <time>2019-05-24T10:30:05.080Z</time>
      </trkpt>
      <trkpt lat="45.14923" lon="5.76222">
        <ele>360</ele>
        <time>2019-05-24T10:30:06.080Z</time>
      </trkpt>
      <trkpt lat="45.14923" lon="5.76224">
        <ele>360</ele>
        <time>2019-05-24T10:30:07.080Z</time>
      </trkpt>
      <trkpt lat="45.14923" lon="5.76227">
        <ele>360</ele>
        <time>2019-05-24T10:30:08.080Z</time>
      </trkpt>
      <trkpt lat="45.14923" lon="5.76229">
        <ele>360</ele>
        <time>2019-05-24T10:30:09.080Z</time>
      </trkpt>
      <trkpt lat="45.14923" lon="5.76232">
        <ele>361</ele>
        <time>2019-05-24T10:30:10.080Z</time>
      </trkpt>
      <trkpt lat="45.14923" lon="5.76232">
        <ele>361</ele>
        <time>2019-05-24T10:30:11.080Z</time>
      </trkpt>
      <trkpt lat="45.14922" lon="5.76234">
        <ele>362</ele>
        <time>2019-05-24T10:30:12.080Z</time>
      </trkpt>
      <trkpt lat="45.14922" lon="5.76236">
        <ele>364</ele>
        <time>2019-05-24T10:30:13.080Z</time>
      </trkpt>
      <trkpt lat="45.14922" lon="5.76238">
        <ele>364</ele>
        <time>2019-05-24T10:30:14.080Z</time>
      </trkpt>
      <trkpt lat="45.14922" lon="5.76241">
        <ele>364</ele>
        <time>2019-05-24T10:30:15.080Z</time>
      </trkpt>
      <trkpt lat="45.14921" lon="5.76243">
        <ele>363</ele>
        <time>2019-05-24T10:30:16.080Z</time>
      </trkpt>
      <trkpt lat="45.14921" lon="5.76246">
        <ele>363</ele>
        <time>2019-05-24T10:30:17.080Z</time>
      </trkpt>
      <trkpt lat="45.14921" lon="5.76249">
        <ele>364</ele>
        <time>2019-05-24T10:30:18.080Z</time>
      </trkpt>
      <trkpt lat="45.14921" lon="5.76252">
        <ele>364</ele>
        <time>2019-05-24T10:30:19.080Z</time>
      </trkpt>
      <trkpt lat="45.14922" lon="5.76255">
        <ele>365</ele>
        <time>2019-05-24T10:30:20.080Z</time>
      </trkpt>
      <trkpt lat="45.14922" lon="5.76255">
        <ele>365</ele>
        <time>2019-05-24T10:30:21.080Z</time>
      </trkpt>
      <trkpt lat="45.14922" lon="5.76258">
        <ele>364</ele>
        <time>2019-05-24T10:30:22.080Z</time>
      </trkpt>
      <trkpt lat="45.14923" lon="5.76261">
        <ele>363</ele>
        <time>2019-05-24T10:30:23.080Z</time>
      </trkpt>
      <trkpt lat="45.14923" lon="5.76263">
        <ele>363</ele>
        <time>2019-05-24T10:30:24.080Z</time>
      </trkpt>
      <trkpt lat="45.14923" lon="5.76266">
        <ele>366</ele>
        <time>2019-05-24T10:30:25.080Z</time>
      </trkpt>
      <trkpt lat="45.14923" lon="5.76268">
        <ele>365</ele>
        <time>2019-05-24T10:30:26.080Z</time>
      </trkpt>
      <trkpt lat="45.14924" lon="5.7627">
        <ele>369</ele>
        <time>2019-05-24T10:30:27.080Z</time>
      </trkpt>
      <trkpt lat="45.14924" lon="5.76273">
        <ele>367</ele>
        <time>2019-05-24T10:30:28.080Z</time>
      </trkpt>
      <trkpt lat="45.14924" lon="5.76277">
        <ele>367</ele>
        <time>2019-05-24T10:30:29.080Z</time>
      </trkpt>
      <trkpt lat="45.14925" lon="5.76279">
        <ele>370</ele>
        <time>2019-05-24T10:30:30.080Z</time>
      </trkpt>
      <trkpt lat="45.14925" lon="5.76281">
        <ele>371</ele>
        <time>2019-05-24T10:30:31.080Z</time>
      </trkpt>
      <trkpt lat="45.14925" lon="5.76281">
        <ele>371</ele>
        <time>2019-05-24T10:30:32.080Z</time>
      </trkpt>
      <trkpt lat="45.14925" lon="5.76283">
        <ele>374</ele>
        <time>2019-05-24T10:30:33.080Z</time>
      </trkpt>
      <trkpt lat="45.14925" lon="5.76284">
        <ele>375</ele>
        <time>2019-05-24T10:30:34.080Z</time>
      </trkpt>
      <trkpt lat="45.14926" lon="5.76286">
        <ele>377</ele>
        <time>2019-05-24T10:30:35.080Z</time>
      </trkpt>
      <trkpt lat="45.14926" lon="5.76288">
        <ele>379</ele>
        <time>2019-05-24T10:30:36.080Z</time>
      </trkpt>
      <trkpt lat="45.14927" lon="5.7629">
        <ele>378</ele>
        <time>2019-05-24T10:30:37.080Z</time>
      </trkpt>
      <trkpt lat="45.14927" lon="5.76292">
        <ele>377</ele>
        <time>2019-05-24T10:30:38.080Z</time>
      </trkpt>
      <trkpt lat="45.14928" lon="5.76294">
        <ele>377</ele>
        <time>2019-05-24T10:30:39.080Z</time>
      </trkpt>
      <trkpt lat="45.14927" lon="5.76296">
        <ele>376</ele>
        <time>2019-05-24T10:30:40.080Z</time>
      </trkpt>
      <trkpt lat="45.14927" lon="5.76296">
        <ele>376</ele>
        <time>2019-05-24T10:30:41.080Z</time>
      </trkpt>
      <trkpt lat="45.14928" lon="5.76298">
        <ele>378</ele>
        <time>2019-05-24T10:30:42.080Z</time>
      </trkpt>
      <trkpt lat="45.14928" lon="5.76301">
        <ele>380</ele>
        <time>2019-05-24T10:30:43.080Z</time>
      </trkpt>
      <trkpt lat="45.14928" lon="5.76303">
        <ele>381</ele>
        <time>2019-05-24T10:30:44.080Z</time>
      </trkpt>
      <trkpt lat="45.14928" lon="5.76306">
        <ele>380</ele>
        <time>2019-05-24T10:30:45.080Z</time>
      </trkpt>
      <trkpt lat="45.14928" lon="5.76309">
        <ele>381</ele>
        <time>2019-05-24T10:30:46.080Z</time>
      </trkpt>
      <trkpt lat="45.14928" lon="5.76312">
        <ele>382</ele>
        <time>2019-05-24T10:30:47.080Z</time>
      </trkpt>
      <trkpt lat="45.14927" lon="5.76315">
        <ele>381</ele>
        <time>2019-05-24T10:30:48.080Z</time>
      </trkpt>
      <trkpt lat="45.14927" lon="5.76318">
        <ele>380</ele>
        <time>2019-05-24T10:30:49.080Z</time>
      </trkpt>
      <trkpt lat="45.14927" lon="5.76318">
        <ele>380</ele>
        <time>2019-05-24T10:30:50.080Z</time>
      </trkpt>
      <trkpt lat="45.14927" lon="5.76321">
        <ele>377</ele>
        <time>2019-05-24T10:30:51.080Z</time>
      </trkpt>
      <trkpt lat="45.14927" lon="5.76324">
        <ele>377</ele>
        <time>2019-05-24T10:30:52.080Z</time>
      </trkpt>
      <trkpt lat="45.14927" lon="5.76327">
        <ele>375</ele>
        <time>2019-05-24T10:30:53.080Z</time>
      </trkpt>
      <trkpt lat="45.14927" lon="5.76329">
        <ele>376</ele>
        <time>2019-05-24T10:30:54.080Z</time>
      </trkpt>
      <trkpt lat="45.14927" lon="5.76331">
        <ele>379</ele>
        <time>2019-05-24T10:30:55.080Z</time>
      </trkpt>
      <trkpt lat="45.14927" lon="5.76334">
        <ele>375</ele>
        <time>2019-05-24T10:30:56.080Z</time>
      </trkpt>
      <trkpt lat="45.14927" lon="5.76337">
        <ele>371</ele>
        <time>2019-05-24T10:30:57.080Z</time>
      </trkpt>
      <trkpt lat="45.14928" lon="5.7634">
        <ele>374</ele>
        <time>2019-05-24T10:30:58.080Z</time>
      </trkpt>
      <trkpt lat="45.14928" lon="5.7634">
        <ele>374</ele>
        <time>2019-05-24T10:30:59.080Z</time>
      </trkpt>
      <trkpt lat="45.14928" lon="5.76342">
        <ele>377</ele>
        <time>2019-05-24T10:31:00.080Z</time>
      </trkpt>
      <trkpt lat="45.14928" lon="5.76343">
        <ele>382</ele>
        <time>2019-05-24T10:31:01.080Z</time>
      </trkpt>
      <trkpt lat="45.14929" lon="5.76345">
        <ele>385</ele>
        <time>2019-05-24T10:31:02.080Z</time>
      </trkpt>
      <trkpt lat="45.1493" lon="5.76348">
        <ele>394</ele>
        <time>2019-05-24T10:31:03.080Z</time>
      </trkpt>
      <trkpt lat="45.14931" lon="5.7635">
        <ele>393</ele>
        <time>2019-05-24T10:31:04.080Z</time>
      </trkpt>
      <trkpt lat="45.14931" lon="5.76352">
        <ele>393</ele>
        <time>2019-05-24T10:31:05.080Z</time>
      </trkpt>
      <trkpt lat="45.14932" lon="5.76354">
        <ele>392</ele>
        <time>2019-05-24T10:31:06.080Z</time>
      </trkpt>
      <trkpt lat="45.14932" lon="5.76356">
        <ele>389</ele>
        <time>2019-05-24T10:31:07.080Z</time>
      </trkpt>
      <trkpt lat="45.14932" lon="5.76358">
        <ele>389</ele>
        <time>2019-05-24T10:31:08.080Z</time>
      </trkpt>
      <trkpt lat="45.14932" lon="5.76358">
        <ele>389</ele>
        <time>2019-05-24T10:31:09.080Z</time>
      </trkpt>
      <trkpt lat="45.14932" lon="5.7636">
        <ele>389</ele>
        <time>2019-05-24T10:31:10.080Z</time>
      </trkpt>
      <trkpt lat="45.14932" lon="5.76361">
        <ele>392</ele>
        <time>2019-05-24T10:31:11.080Z</time>
      </trkpt>
      <trkpt lat="45.14933" lon="5.76362">
        <ele>394</ele>
        <time>2019-05-24T10:31:12.080Z</time>
      </trkpt>
      <trkpt lat="45.14933" lon="5.76364">
        <ele>394</ele>
        <time>2019-05-24T10:31:13.080Z</time>
      </trkpt>
      <trkpt lat="45.14934" lon="5.76366">
        <ele>395</ele>
        <time>2019-05-24T10:31:14.080Z</time>
      </trkpt>
      <trkpt lat="45.14935" lon="5.76368">
        <ele>393</ele>
        <time>2019-05-24T10:31:15.080Z</time>
      </trkpt>
      <trkpt lat="45.14935" lon="5.7637">
        <ele>392</ele>
        <time>2019-05-24T10:31:16.080Z</time>
      </trkpt>
      <trkpt lat="45.14936" lon="5.76372">
        <ele>392</ele>
        <time>2019-05-24T10:31:17.080Z</time>
      </trkpt>
      <trkpt lat="45.14936" lon="5.76374">
        <ele>388</ele>
        <time>2019-05-24T10:31:18.080Z</time>
      </trkpt>
      <trkpt lat="45.14937" lon="5.76376">
        <ele>386</ele>
        <time>2019-05-24T10:31:19.080Z</time>
      </trkpt>
      <trkpt lat="45.14937" lon="5.76376">
        <ele>386</ele>
        <time>2019-05-24T10:31:20.080Z</time>
      </trkpt>
      <trkpt lat="45.14937" lon="5.76378">
        <ele>388</ele>
        <time>2019-05-24T10:31:21.080Z</time>
      </trkpt>
      <trkpt lat="45.14937" lon="5.7638">
        <ele>389</ele>
        <time>2019-05-24T10:31:22.080Z</time>
      </trkpt>
      <trkpt lat="45.14937" lon="5.76382">
        <ele>390</ele>
        <time>2019-05-24T10:31:23.080Z</time>
      </trkpt>
      <trkpt lat="45.14937" lon="5.76384">
        <ele>391</ele>
        <time>2019-05-24T10:31:24.080Z</time>
      </trkpt>
      <trkpt lat="45.14937" lon="5.76387">
        <ele>389</ele>
        <time>2019-05-24T10:31:25.080Z</time>
      </trkpt>
      <trkpt lat="45.14937" lon="5.7639">
        <ele>389</ele>
        <time>2019-05-24T10:31:26.080Z</time>
      </trkpt>
      <trkpt lat="45.14937" lon="5.76392">
        <ele>392</ele>
        <time>2019-05-24T10:31:27.080Z</time>
      </trkpt>
      <trkpt lat="45.14937" lon="5.76395">
        <ele>392</ele>
        <time>2019-05-24T10:31:28.080Z</time>
      </trkpt>
      <trkpt lat="45.14937" lon="5.76395">
        <ele>392</ele>
        <time>2019-05-24T10:31:29.080Z</time>
      </trkpt>
      <trkpt lat="45.14937" lon="5.76397">
        <ele>391</ele>
        <time>2019-05-24T10:31:30.080Z</time>
      </trkpt>
      <trkpt lat="45.14937" lon="5.764">
        <ele>390</ele>
        <time>2019-05-24T10:31:31.080Z</time>
      </trkpt>
      <trkpt lat="45.14938" lon="5.76402">
        <ele>392</ele>
        <time>2019-05-24T10:31:32.080Z</time>
      </trkpt>
      <trkpt lat="45.14938" lon="5.76404">
        <ele>394</ele>
        <time>2019-05-24T10:31:33.080Z</time>
      </trkpt>
      <trkpt lat="45.14938" lon="5.76406">
        <ele>394</ele>
        <time>2019-05-24T10:31:34.080Z</time>
      </trkpt>
      <trkpt lat="45.14938" lon="5.76409">
        <ele>392</ele>
        <time>2019-05-24T10:31:35.080Z</time>
      </trkpt>
      <trkpt lat="45.14939" lon="5.7641">
        <ele>392</ele>
        <time>2019-05-24T10:31:36.080Z</time>
      </trkpt>
      <trkpt lat="45.1494" lon="5.76412">
        <ele>392</ele>
        <time>2019-05-24T10:31:37.080Z</time>
      </trkpt>
      <trkpt lat="45.14941" lon="5.76414">
        <ele>393</ele>
        <time>2019-05-24T10:31:38.080Z</time>
      </trkpt>
      <trkpt lat="45.14941" lon="5.76414">
        <ele>393</ele>
        <time>2019-05-24T10:31:39.080Z</time>
      </trkpt>
      <trkpt lat="45.14941" lon="5.76416">
        <ele>394</ele>
        <time>2019-05-24T10:31:40.080Z</time>
      </trkpt>
      <trkpt lat="45.14941" lon="5.76419">
        <ele>393</ele>
        <time>2019-05-24T10:31:41.080Z</time>
      </trkpt>
      <trkpt lat="45.14942" lon="5.76421">
        <ele>394</ele>
        <time>2019-05-24T10:31:42.080Z</time>
      </trkpt>
      <trkpt lat="45.14942" lon="5.76422">
        <ele>397</ele>
        <time>2019-05-24T10:31:43.080Z</time>
      </trkpt>
      <trkpt lat="45.14942" lon="5.76424">
        <ele>398</ele>
        <time>2019-05-24T10:31:44.080Z</time>
      </trkpt>
      <trkpt lat="45.14942" lon="5.76426">
        <ele>404</ele>
        <time>2019-05-24T10:31:45.080Z</time>
      </trkpt>
      <trkpt lat="45.14942" lon="5.76428">
        <ele>401</ele>
        <time>2019-05-24T10:31:46.080Z</time>
      </trkpt>
      <trkpt lat="45.14942" lon="5.76431">
        <ele>399</ele>
        <time>2019-05-24T10:31:47.080Z</time>
      </trkpt>
      <trkpt lat="45.14942" lon="5.76433">
        <ele>398</ele>
        <time>2019-05-24T10:31:48.080Z</time>
      </trkpt>
      <trkpt lat="45.14941" lon="5.76435">
        <ele>398</ele>
        <time>2019-05-24T10:31:49.080Z</time>
      </trkpt>
      <trkpt lat="45.14941" lon="5.76435">
        <ele>398</ele>
        <time>2019-05-24T10:31:50.080Z</time>
      </trkpt>
      <trkpt lat="45.14941" lon="5.76437">
        <ele>397</ele>
        <time>2019-05-24T10:31:51.080Z</time>
      </trkpt>
      <trkpt lat="45.14941" lon="5.7644">
        <ele>394</ele>
        <time>2019-05-24T10:31:52.080Z</time>
      </trkpt>
      <trkpt lat="45.14941" lon="5.76442">
        <ele>393</ele>
        <time>2019-05-24T10:31:53.080Z</time>
      </trkpt>
      <trkpt lat="45.14941" lon="5.76444">
        <ele>395</ele>
        <time>2019-05-24T10:31:54.080Z</time>
      </trkpt>
      <trkpt lat="45.14941" lon="5.76446">
        <ele>396</ele>
        <time>2019-05-24T10:31:55.080Z</time>
      </trkpt>
      <trkpt lat="45.14942" lon="5.76448">
        <ele>397</ele>
        <time>2019-05-24T10:31:56.080Z</time>
      </trkpt>
      <trkpt lat="45.14942" lon="5.7645">
        <ele>404</ele>
        <time>2019-05-24T10:31:57.080Z</time>
      </trkpt>
      <trkpt lat="45.14943" lon="5.76452">
        <ele>403</ele>
        <time>2019-05-24T10:31:58.080Z</time>
      </trkpt>
      <trkpt lat="45.14943" lon="5.76455">
        <ele>401</ele>
        <time>2019-05-24T10:31:59.080Z</time>
      </trkpt>
      <trkpt lat="45.14943" lon="5.76455">
        <ele>401</ele>
        <time>2019-05-24T10:32:00.080Z</time>
      </trkpt>
      <trkpt lat="45.14943" lon="5.76457">
        <ele>402</ele>
        <time>2019-05-24T10:32:01.080Z</time>
      </trkpt>
      <trkpt lat="45.14943" lon="5.7646">
        <ele>402</ele>
        <time>2019-05-24T10:32:02.080Z</time>
      </trkpt>
      <trkpt lat="45.14943" lon="5.76462">
        <ele>401</ele>
        <time>2019-05-24T10:32:03.080Z</time>
      </trkpt>
      <trkpt lat="45.14944" lon="5.76465">
        <ele>402</ele>
        <time>2019-05-24T10:32:04.080Z</time>
      </trkpt>
      <trkpt lat="45.14944" lon="5.76467">
        <ele>403</ele>
        <time>2019-05-24T10:32:05.080Z</time>
      </trkpt>
      <trkpt lat="45.14944" lon="5.76468">
        <ele>404</ele>
        <time>2019-05-24T10:32:06.080Z</time>
      </trkpt>
      <trkpt lat="45.14944" lon="5.7647">
        <ele>406</ele>
        <time>2019-05-24T10:32:07.080Z</time>
      </trkpt>
      <trkpt lat="45.14943" lon="5.76471">
        <ele>406</ele>
        <time>2019-05-24T10:32:08.080Z</time>
      </trkpt>
      <trkpt lat="45.14943" lon="5.76472">
        <ele>407</ele>
        <time>2019-05-24T10:32:09.080Z</time>
      </trkpt>
      <trkpt lat="45.14943" lon="5.76474">
        <ele>408</ele>
        <time>2019-05-24T10:32:10.080Z</time>
      </trkpt>
      <trkpt lat="45.14943" lon="5.76474">
        <ele>408</ele>
        <time>2019-05-24T10:32:11.080Z</time>
      </trkpt>
      <trkpt lat="45.14943" lon="5.76476">
        <ele>405</ele>
        <time>2019-05-24T10:32:12.080Z</time>
      </trkpt>
      <trkpt lat="45.14944" lon="5.76478">
        <ele>406</ele>
        <time>2019-05-24T10:32:13.080Z</time>
      </trkpt>
      <trkpt lat="45.14944" lon="5.7648">
        <ele>407</ele>
        <time>2019-05-24T10:32:14.080Z</time>
      </trkpt>
      <trkpt lat="45.14945" lon="5.76482">
        <ele>408</ele>
        <time>2019-05-24T10:32:15.080Z</time>
      </trkpt>
      <trkpt lat="45.14945" lon="5.76484">
        <ele>408</ele>
        <time>2019-05-24T10:32:16.080Z</time>
      </trkpt>
      <trkpt lat="45.14946" lon="5.76488">
        <ele>412</ele>
        <time>2019-05-24T10:32:17.080Z</time>
      </trkpt>
      <trkpt lat="45.14947" lon="5.7649">
        <ele>414</ele>
        <time>2019-05-24T10:32:18.080Z</time>
      </trkpt>
      <trkpt lat="45.14948" lon="5.76493">
        <ele>414</ele>
        <time>2019-05-24T10:32:19.080Z</time>
      </trkpt>
      <trkpt lat="45.14948" lon="5.76496">
        <ele>411</ele>
        <time>2019-05-24T10:32:20.080Z</time>
      </trkpt>
      <trkpt lat="45.14949" lon="5.76498">
        <ele>412</ele>
        <time>2019-05-24T10:32:21.080Z</time>
      </trkpt>
      <trkpt lat="45.14949" lon="5.76498">
        <ele>412</ele>
        <time>2019-05-24T10:32:22.080Z</time>
      </trkpt>
      <trkpt lat="45.1495" lon="5.765">
        <ele>411</ele>
        <time>2019-05-24T10:32:23.080Z</time>
      </trkpt>
      <trkpt lat="45.14951" lon="5.76503">
        <ele>411</ele>
        <time>2019-05-24T10:32:24.080Z</time>
      </trkpt>
      <trkpt lat="45.14952" lon="5.76506">
        <ele>410</ele>
        <time>2019-05-24T10:32:25.080Z</time>
      </trkpt>
      <trkpt lat="45.14953" lon="5.76508">
        <ele>409</ele>
        <time>2019-05-24T10:32:26.080Z</time>
      </trkpt>
      <trkpt lat="45.14953" lon="5.7651">
        <ele>410</ele>
        <time>2019-05-24T10:32:27.080Z</time>
      </trkpt>
      <trkpt lat="45.14953" lon="5.76512">
        <ele>410</ele>
        <time>2019-05-24T10:32:28.080Z</time>
      </trkpt>
      <trkpt lat="45.14953" lon="5.76514">
        <ele>411</ele>
        <time>2019-05-24T10:32:29.080Z</time>
      </trkpt>
      <trkpt lat="45.14953" lon="5.76516">
        <ele>410</ele>
        <time>2019-05-24T10:32:30.080Z</time>
      </trkpt>
      <trkpt lat="45.14953" lon="5.76518">
        <ele>413</ele>
        <time>2019-05-24T10:32:31.080Z</time>
      </trkpt>
      <trkpt lat="45.14953" lon="5.76518">
        <ele>413</ele>
        <time>2019-05-24T10:32:32.080Z</time>
      </trkpt>
      <trkpt lat="45.14952" lon="5.7652">
        <ele>418</ele>
        <time>2019-05-24T10:32:33.080Z</time>
      </trkpt>
      <trkpt lat="45.14951" lon="5.76522">
        <ele>417</ele>
        <time>2019-05-24T10:32:34.080Z</time>
      </trkpt>
      <trkpt lat="45.14951" lon="5.76524">
        <ele>417</ele>
        <time>2019-05-24T10:32:35.080Z</time>
      </trkpt>
      <trkpt lat="45.14951" lon="5.76527">
        <ele>415</ele>
        <time>2019-05-24T10:32:36.080Z</time>
      </trkpt>
      <trkpt lat="45.14951" lon="5.76529">
        <ele>415</ele>
        <time>2019-05-24T10:32:37.080Z</time>
      </trkpt>
      <trkpt lat="45.1495" lon="5.7653">
        <ele>417</ele>
        <time>2019-05-24T10:32:38.080Z</time>
      </trkpt>
      <trkpt lat="45.1495" lon="5.76531">
        <ele>418</ele>
        <time>2019-05-24T10:32:39.080Z</time>
      </trkpt>
      <trkpt lat="45.14949" lon="5.76533">
        <ele>420</ele>
        <time>2019-05-24T10:32:40.080Z</time>
      </trkpt>
      <trkpt lat="45.14949" lon="5.76533">
        <ele>420</ele>
        <time>2019-05-24T10:32:41.080Z</time>
      </trkpt>
      <trkpt lat="45.14948" lon="5.76535">
        <ele>420</ele>
        <time>2019-05-24T10:32:42.080Z</time>
      </trkpt>
      <trkpt lat="45.14948" lon="5.76537">
        <ele>419</ele>
        <time>2019-05-24T10:32:43.080Z</time>
      </trkpt>
      <trkpt lat="45.14948" lon="5.76539">
        <ele>419</ele>
        <time>2019-05-24T10:32:44.080Z</time>
      </trkpt>
      <trkpt lat="45.14947" lon="5.76541">
        <ele>418</ele>
        <time>2019-05-24T10:32:45.080Z</time>
      </trkpt>
      <trkpt lat="45.14947" lon="5.76543">
        <ele>417</ele>
        <time>2019-05-24T10:32:46.080Z</time>
      </trkpt>
      <trkpt lat="45.14946" lon="5.76545">
        <ele>417</ele>
        <time>2019-05-24T10:32:47.080Z</time>
      </trkpt>
      <trkpt lat="45.14946" lon="5.76548">
        <ele>417</ele>
        <time>2019-05-24T10:32:48.080Z</time>
      </trkpt>
      <trkpt lat="45.14946" lon="5.7655">
        <ele>418</ele>
        <time>2019-05-24T10:32:49.080Z</time>
      </trkpt>
      <trkpt lat="45.14946" lon="5.76552">
        <ele>417</ele>
        <time>2019-05-24T10:32:50.080Z</time>
      </trkpt>
      <trkpt lat="45.14946" lon="5.76554">
        <ele>416</ele>
        <time>2019-05-24T10:32:51.080Z</time>
      </trkpt>
      <trkpt lat="45.14946" lon="5.76554">
        <ele>416</ele>
        <time>2019-05-24T10:32:52.080Z</time>
      </trkpt>
      <trkpt lat="45.14946" lon="5.76555">
        <ele>417</ele>
        <time>2019-05-24T10:32:53.080Z</time>
      </trkpt>
      <trkpt lat="45.14947" lon="5.76558">
        <ele>418</ele>
        <time>2019-05-24T10:32:54.080Z</time>
      </trkpt>
      <trkpt lat="45.14947" lon="5.7656">
        <ele>418</ele>
        <time>2019-05-24T10:32:55.080Z</time>
      </trkpt>
      <trkpt lat="45.14946" lon="5.76562">
        <ele>417</ele>
        <time>2019-05-24T10:32:56.080Z</time>
      </trkpt>
      <trkpt lat="45.14946" lon="5.76564">
        <ele>417</ele>
        <time>2019-05-24T10:32:57.080Z</time>
      </trkpt>
      <trkpt lat="45.14945" lon="5.76566">
        <ele>417</ele>
        <time>2019-05-24T10:32:58.080Z</time>
      </trkpt>
      <trkpt lat="45.14944" lon="5.76568">
        <ele>420</ele>
        <time>2019-05-24T10:32:59.080Z</time>
      </trkpt>
      <trkpt lat="45.14944" lon="5.76569">
        <ele>420</ele>
        <time>2019-05-24T10:33:00.080Z</time>
      </trkpt>
      <trkpt lat="45.14943" lon="5.76571">
        <ele>418</ele>
        <time>2019-05-24T10:33:01.080Z</time>
      </trkpt>
      <trkpt lat="45.14944" lon="5.76573">
        <ele>417</ele>
        <time>2019-05-24T10:33:02.080Z</time>
      </trkpt>
      <trkpt lat="45.14944" lon="5.76573">
        <ele>417</ele>
        <time>2019-05-24T10:33:03.080Z</time>
      </trkpt>
      <trkpt lat="45.14944" lon="5.76575">
        <ele>418</ele>
        <time>2019-05-24T10:33:04.080Z</time>
      </trkpt>
      <trkpt lat="45.14944" lon="5.76576">
        <ele>421</ele>
        <time>2019-05-24T10:33:05.080Z</time>
      </trkpt>
      <trkpt lat="45.14945" lon="5.76578">
        <ele>422</ele>
        <time>2019-05-24T10:33:06.080Z</time>
      </trkpt>
      <trkpt lat="45.14944" lon="5.76581">
        <ele>421</ele>
        <time>2019-05-24T10:33:07.080Z</time>
      </trkpt>
      <trkpt lat="45.14944" lon="5.76583">
        <ele>420</ele>
        <time>2019-05-24T10:33:08.080Z</time>
      </trkpt>
      <trkpt lat="45.14944" lon="5.76586">
        <ele>419</ele>
        <time>2019-05-24T10:33:09.080Z</time>
      </trkpt>
      <trkpt lat="45.14945" lon="5.76588">
        <ele>420</ele>
        <time>2019-05-24T10:33:10.080Z</time>
      </trkpt>
      <trkpt lat="45.14945" lon="5.7659">
        <ele>423</ele>
        <time>2019-05-24T10:33:11.080Z</time>
      </trkpt>
      <trkpt lat="45.14946" lon="5.76593">
        <ele>424</ele>
        <time>2019-05-24T10:33:12.080Z</time>
      </trkpt>
      <trkpt lat="45.14946" lon="5.76595">
        <ele>424</ele>
        <time>2019-05-24T10:33:13.080Z</time>
      </trkpt>
      <trkpt lat="45.14946" lon="5.76596">
        <ele>426</ele>
        <time>2019-05-24T10:33:14.080Z</time>
      </trkpt>
      <trkpt lat="45.14946" lon="5.76596">
        <ele>426</ele>
        <time>2019-05-24T10:33:15.080Z</time>
      </trkpt>
      <trkpt lat="45.14946" lon="5.76598">
        <ele>424</ele>
        <time>2019-05-24T10:33:16.080Z</time>
      </trkpt>
      <trkpt lat="45.14945" lon="5.766">
        <ele>425</ele>
        <time>2019-05-24T10:33:17.080Z</time>
      </trkpt>
      <trkpt lat="45.14944" lon="5.76602">
        <ele>425</ele>
        <time>2019-05-24T10:33:18.080Z</time>
      </trkpt>
      <trkpt lat="45.14943" lon="5.76604">
        <ele>425</ele>
        <time>2019-05-24T10:33:19.080Z</time>
      </trkpt>
      <trkpt lat="45.14942" lon="5.76606">
        <ele>426</ele>
        <time>2019-05-24T10:33:20.080Z</time>
      </trkpt>
      <trkpt lat="45.14941" lon="5.76608">
        <ele>425</ele>
        <time>2019-05-24T10:33:21.080Z</time>
      </trkpt>
      <trkpt lat="45.14941" lon="5.7661">
        <ele>425</ele>
        <time>2019-05-24T10:33:22.080Z</time>
      </trkpt>
      <trkpt lat="45.1494" lon="5.76612">
        <ele>425</ele>
        <time>2019-05-24T10:33:23.080Z</time>
      </trkpt>
      <trkpt lat="45.14939" lon="5.76614">
        <ele>426</ele>
        <time>2019-05-24T10:33:24.080Z</time>
      </trkpt>
      <trkpt lat="45.14939" lon="5.76616">
        <ele>427</ele>
        <time>2019-05-24T10:33:25.080Z</time>
      </trkpt>
      <trkpt lat="45.14939" lon="5.76619">
        <ele>428</ele>
        <time>2019-05-24T10:33:26.080Z</time>
      </trkpt>
      <trkpt lat="45.14939" lon="5.76621">
        <ele>428</ele>
        <time>2019-05-24T10:33:27.080Z</time>
      </trkpt>
      <trkpt lat="45.14939" lon="5.76621">
        <ele>428</ele>
        <time>2019-05-24T10:33:28.080Z</time>
      </trkpt>
      <trkpt lat="45.14939" lon="5.76623">
        <ele>428</ele>
        <time>2019-05-24T10:33:29.080Z</time>
      </trkpt>
      <trkpt lat="45.14939" lon="5.76625">
        <ele>427</ele>
        <time>2019-05-24T10:33:30.080Z</time>
      </trkpt>
      <trkpt lat="45.14939" lon="5.76627">
        <ele>428</ele>
        <time>2019-05-24T10:33:31.080Z</time>
      </trkpt>
      <trkpt lat="45.14939" lon="5.76629">
        <ele>430</ele>
        <time>2019-05-24T10:33:32.080Z</time>
      </trkpt>
      <trkpt lat="45.14939" lon="5.76631">
        <ele>431</ele>
        <time>2019-05-24T10:33:33.080Z</time>
      </trkpt>
      <trkpt lat="45.14939" lon="5.76633">
        <ele>433</ele>
        <time>2019-05-24T10:33:34.080Z</time>
      </trkpt>
      <trkpt lat="45.14939" lon="5.76634">
        <ele>434</ele>
        <time>2019-05-24T10:33:35.080Z</time>
      </trkpt>
      <trkpt lat="45.14939" lon="5.76637">
        <ele>434</ele>
        <time>2019-05-24T10:33:36.080Z</time>
      </trkpt>
      <trkpt lat="45.14939" lon="5.76638">
        <ele>438</ele>
        <time>2019-05-24T10:33:37.080Z</time>
      </trkpt>
      <trkpt lat="45.14938" lon="5.7664">
        <ele>437</ele>
        <time>2019-05-24T10:33:38.080Z</time>
      </trkpt>
      <trkpt lat="45.14938" lon="5.7664">
        <ele>437</ele>
        <time>2019-05-24T10:33:39.080Z</time>
      </trkpt>
      <trkpt lat="45.14938" lon="5.76642">
        <ele>437</ele>
        <time>2019-05-24T10:33:40.080Z</time>
      </trkpt>
      <trkpt lat="45.14938" lon="5.76644">
        <ele>438</ele>
        <time>2019-05-24T10:33:41.080Z</time>
      </trkpt>
      <trkpt lat="45.14937" lon="5.76645">
        <ele>438</ele>
        <time>2019-05-24T10:33:42.080Z</time>
      </trkpt>
      <trkpt lat="45.14937" lon="5.76647">
        <ele>439</ele>
        <time>2019-05-24T10:33:43.080Z</time>
      </trkpt>
      <trkpt lat="45.14936" lon="5.76649">
        <ele>439</ele>
        <time>2019-05-24T10:33:44.080Z</time>
      </trkpt>
      <trkpt lat="45.14936" lon="5.76651">
        <ele>439</ele>
        <time>2019-05-24T10:33:45.080Z</time>
      </trkpt>
      <trkpt lat="45.14935" lon="5.76653">
        <ele>439</ele>
        <time>2019-05-24T10:33:46.080Z</time>
      </trkpt>
      <trkpt lat="45.14935" lon="5.76655">
        <ele>438</ele>
        <time>2019-05-24T10:33:47.080Z</time>
      </trkpt>
      <trkpt lat="45.14934" lon="5.76658">
        <ele>437</ele>
        <time>2019-05-24T10:33:48.080Z</time>
      </trkpt>
      <trkpt lat="45.14934" lon="5.76658">
        <ele>437</ele>
        <time>2019-05-24T10:33:49.080Z</time>
      </trkpt>
      <trkpt lat="45.14934" lon="5.7666">
        <ele>434</ele>
        <time>2019-05-24T10:33:50.080Z</time>
      </trkpt>
      <trkpt lat="45.14934" lon="5.76662">
        <ele>435</ele>
        <time>2019-05-24T10:33:51.080Z</time>
      </trkpt>
      <trkpt lat="45.14934" lon="5.76665">
        <ele>434</ele>
        <time>2019-05-24T10:33:52.080Z</time>
      </trkpt>
      <trkpt lat="45.14934" lon="5.76666">
        <ele>437</ele>
        <time>2019-05-24T10:33:53.080Z</time>
      </trkpt>
      <trkpt lat="45.14933" lon="5.76668">
        <ele>442</ele>
        <time>2019-05-24T10:33:54.080Z</time>
      </trkpt>
      <trkpt lat="45.14933" lon="5.7667">
        <ele>442</ele>
        <time>2019-05-24T10:33:55.080Z</time>
      </trkpt>
      <trkpt lat="45.14933" lon="5.76671">
        <ele>442</ele>
        <time>2019-05-24T10:33:56.080Z</time>
      </trkpt>
      <trkpt lat="45.14933" lon="5.76673">
        <ele>442</ele>
        <time>2019-05-24T10:33:57.080Z</time>
      </trkpt>
      <trkpt lat="45.14934" lon="5.76675">
        <ele>442</ele>
        <time>2019-05-24T10:33:58.080Z</time>
      </trkpt>
      <trkpt lat="45.14934" lon="5.76678">
        <ele>444</ele>
        <time>2019-05-24T10:33:59.080Z</time>
      </trkpt>
      <trkpt lat="45.14934" lon="5.76679">
        <ele>444</ele>
        <time>2019-05-24T10:34:00.080Z</time>
      </trkpt>
      <trkpt lat="45.14934" lon="5.76679">
        <ele>444</ele>
        <time>2019-05-24T10:34:01.080Z</time>
      </trkpt>
      <trkpt lat="45.14934" lon="5.76681">
        <ele>449</ele>
        <time>2019-05-24T10:34:02.080Z</time>
      </trkpt>
      <trkpt lat="45.14934" lon="5.76683">
        <ele>450</ele>
        <time>2019-05-24T10:34:03.080Z</time>
      </trkpt>
      <trkpt lat="45.14934" lon="5.76684">
        <ele>451</ele>
        <time>2019-05-24T10:34:04.080Z</time>
      </trkpt>
      <trkpt lat="45.14934" lon="5.76686">
        <ele>451</ele>
        <time>2019-05-24T10:34:05.080Z</time>
      </trkpt>
      <trkpt lat="45.14934" lon="5.76688">
        <ele>450</ele>
        <time>2019-05-24T10:34:06.080Z</time>
      </trkpt>
      <trkpt lat="45.14935" lon="5.7669">
        <ele>450</ele>
        <time>2019-05-24T10:34:07.080Z</time>
      </trkpt>
      <trkpt lat="45.14935" lon="5.76692">
        <ele>449</ele>
        <time>2019-05-24T10:34:08.080Z</time>
      </trkpt>
      <trkpt lat="45.14935" lon="5.76694">
        <ele>449</ele>
        <time>2019-05-24T10:34:09.080Z</time>
      </trkpt>
      <trkpt lat="45.14936" lon="5.76696">
        <ele>450</ele>
        <time>2019-05-24T10:34:10.080Z</time>
      </trkpt>
      <trkpt lat="45.14936" lon="5.76698">
        <ele>453</ele>
        <time>2019-05-24T10:34:11.080Z</time>
      </trkpt>
      <trkpt lat="45.14936" lon="5.76698">
        <ele>453</ele>
        <time>2019-05-24T10:34:12.080Z</time>
      </trkpt>
      <trkpt lat="45.14937" lon="5.767">
        <ele>451</ele>
        <time>2019-05-24T10:34:13.080Z</time>
      </trkpt>
      <trkpt lat="45.14937" lon="5.76701">
        <ele>449</ele>
        <time>2019-05-24T10:34:14.080Z</time>
      </trkpt>
      <trkpt lat="45.14937" lon="5.76703">
        <ele>449</ele>
        <time>2019-05-24T10:34:15.080Z</time>
      </trkpt>
      <trkpt lat="45.14938" lon="5.76704">
        <ele>452</ele>
        <time>2019-05-24T10:34:16.080Z</time>
      </trkpt>
      <trkpt lat="45.14938" lon="5.76706">
        <ele>453</ele>
        <time>2019-05-24T10:34:17.080Z</time>
      </trkpt>
      <trkpt lat="45.14938" lon="5.76707">
        <ele>454</ele>
        <time>2019-05-24T10:34:18.080Z</time>
      </trkpt>
      <trkpt lat="45.14938" lon="5.76708">
        <ele>455</ele>
        <time>2019-05-24T10:34:19.080Z</time>
      </trkpt>
      <trkpt lat="45.14938" lon="5.76708">
        <ele>453</ele>
        <time>2019-05-24T10:34:20.080Z</time>
      </trkpt>
      <trkpt lat="45.14938" lon="5.7671">
        <ele>455</ele>
        <time>2019-05-24T10:34:21.080Z</time>
      </trkpt>
      <trkpt lat="45.14938" lon="5.7671">
        <ele>455</ele>
        <time>2019-05-24T10:34:22.080Z</time>
      </trkpt>
      <trkpt lat="45.14938" lon="5.76711">
        <ele>454</ele>
        <time>2019-05-24T10:34:23.080Z</time>
      </trkpt>
      <trkpt lat="45.14939" lon="5.76713">
        <ele>453</ele>
        <time>2019-05-24T10:34:24.080Z</time>
      </trkpt>
      <trkpt lat="45.14939" lon="5.76715">
        <ele>454</ele>
        <time>2019-05-24T10:34:25.080Z</time>
      </trkpt>
      <trkpt lat="45.1494" lon="5.76717">
        <ele>456</ele>
        <time>2019-05-24T10:34:26.080Z</time>
      </trkpt>
      <trkpt lat="45.1494" lon="5.76719">
        <ele>456</ele>
        <time>2019-05-24T10:34:27.080Z</time>
      </trkpt>
      <trkpt lat="45.14941" lon="5.76721">
        <ele>455</ele>
        <time>2019-05-24T10:34:28.080Z</time>
      </trkpt>
      <trkpt lat="45.14941" lon="5.76723">
        <ele>454</ele>
        <time>2019-05-24T10:34:29.080Z</time>
      </trkpt>
      <trkpt lat="45.14942" lon="5.76725">
        <ele>455</ele>
        <time>2019-05-24T10:34:30.080Z</time>
      </trkpt>
      <trkpt lat="45.14942" lon="5.76727">
        <ele>456</ele>
        <time>2019-05-24T10:34:31.080Z</time>
      </trkpt>
      <trkpt lat="45.14942" lon="5.76727">
        <ele>456</ele>
        <time>2019-05-24T10:34:32.080Z</time>
      </trkpt>
      <trkpt lat="45.14942" lon="5.76728">
        <ele>460</ele>
        <time>2019-05-24T10:34:33.080Z</time>
      </trkpt>
      <trkpt lat="45.14942" lon="5.76729">
        <ele>460</ele>
        <time>2019-05-24T10:34:34.080Z</time>
      </trkpt>
      <trkpt lat="45.14941" lon="5.76731">
        <ele>460</ele>
        <time>2019-05-24T10:34:35.080Z</time>
      </trkpt>
      <trkpt lat="45.1494" lon="5.76733">
        <ele>459</ele>
        <time>2019-05-24T10:34:36.080Z</time>
      </trkpt>
      <trkpt lat="45.14939" lon="5.76736">
        <ele>458</ele>
        <time>2019-05-24T10:34:37.080Z</time>
      </trkpt>
      <trkpt lat="45.14938" lon="5.76738">
        <ele>457</ele>
        <time>2019-05-24T10:34:38.080Z</time>
      </trkpt>
      <trkpt lat="45.14937" lon="5.7674">
        <ele>456</ele>
        <time>2019-05-24T10:34:39.080Z</time>
      </trkpt>
      <trkpt lat="45.14937" lon="5.76742">
        <ele>457</ele>
        <time>2019-05-24T10:34:40.080Z</time>
      </trkpt>
      <trkpt lat="45.14936" lon="5.76744">
        <ele>458</ele>
        <time>2019-05-24T10:34:41.080Z</time>
      </trkpt>
      <trkpt lat="45.14936" lon="5.76744">
        <ele>458</ele>
        <time>2019-05-24T10:34:42.080Z</time>
      </trkpt>
      <trkpt lat="45.14935" lon="5.76746">
        <ele>457</ele>
        <time>2019-05-24T10:34:43.080Z</time>
      </trkpt>
      <trkpt lat="45.14934" lon="5.76748">
        <ele>455</ele>
        <time>2019-05-24T10:34:44.080Z</time>
      </trkpt>
      <trkpt lat="45.14934" lon="5.76749">
        <ele>456</ele>
        <time>2019-05-24T10:34:45.080Z</time>
      </trkpt>
      <trkpt lat="45.14933" lon="5.76751">
        <ele>456</ele>
        <time>2019-05-24T10:34:46.080Z</time>
      </trkpt>
      <trkpt lat="45.14932" lon="5.76753">
        <ele>456</ele>
        <time>2019-05-24T10:34:47.080Z</time>
      </trkpt>
      <trkpt lat="45.14931" lon="5.76754">
        <ele>458</ele>
        <time>2019-05-24T10:34:48.080Z</time>
      </trkpt>
      <trkpt lat="45.1493" lon="5.76756">
        <ele>458</ele>
        <time>2019-05-24T10:34:49.080Z</time>
      </trkpt>
      <trkpt lat="45.14929" lon="5.76757">
        <ele>459</ele>
        <time>2019-05-24T10:34:50.080Z</time>
      </trkpt>
      <trkpt lat="45.14929" lon="5.76757">
        <ele>459</ele>
        <time>2019-05-24T10:34:51.080Z</time>
      </trkpt>
      <trkpt lat="45.14928" lon="5.76758">
        <ele>455</ele>
        <time>2019-05-24T10:34:52.080Z</time>
      </trkpt>
      <trkpt lat="45.14927" lon="5.76759">
        <ele>457</ele>
        <time>2019-05-24T10:34:53.080Z</time>
      </trkpt>
      <trkpt lat="45.14927" lon="5.7676">
        <ele>458</ele>
        <time>2019-05-24T10:34:54.080Z</time>
      </trkpt>
      <trkpt lat="45.14926" lon="5.76762">
        <ele>457</ele>
        <time>2019-05-24T10:34:55.080Z</time>
      </trkpt>
      <trkpt lat="45.14926" lon="5.76763">
        <ele>456</ele>
        <time>2019-05-24T10:34:56.080Z</time>
      </trkpt>
      <trkpt lat="45.14926" lon="5.76765">
        <ele>457</ele>
        <time>2019-05-24T10:34:57.080Z</time>
      </trkpt>
      <trkpt lat="45.14927" lon="5.76766">
        <ele>462</ele>
        <time>2019-05-24T10:34:58.080Z</time>
      </trkpt>
      <trkpt lat="45.14928" lon="5.76768">
        <ele>465</ele>
        <time>2019-05-24T10:34:59.080Z</time>
      </trkpt>
      <trkpt lat="45.14928" lon="5.76768">
        <ele>465</ele>
        <time>2019-05-24T10:35:00.080Z</time>
      </trkpt>
      <trkpt lat="45.14929" lon="5.76769">
        <ele>472</ele>
        <time>2019-05-24T10:35:01.080Z</time>
      </trkpt>
      <trkpt lat="45.1493" lon="5.7677">
        <ele>473</ele>
        <time>2019-05-24T10:35:02.080Z</time>
      </trkpt>
      <trkpt lat="45.14931" lon="5.76771">
        <ele>473</ele>
        <time>2019-05-24T10:35:03.080Z</time>
      </trkpt>
      <trkpt lat="45.14932" lon="5.76772">
        <ele>473</ele>
        <time>2019-05-24T10:35:04.080Z</time>
      </trkpt>
      <trkpt lat="45.14933" lon="5.76773">
        <ele>473</ele>
        <time>2019-05-24T10:35:05.080Z</time>
      </trkpt>
      <trkpt lat="45.14933" lon="5.76774">
        <ele>474</ele>
        <time>2019-05-24T10:35:06.080Z</time>
      </trkpt>
      <trkpt lat="45.14934" lon="5.76774">
        <ele>478</ele>
        <time>2019-05-24T10:35:07.080Z</time>
      </trkpt>
      <trkpt lat="45.14935" lon="5.76775">
        <ele>479</ele>
        <time>2019-05-24T10:35:08.080Z</time>
      </trkpt>
      <trkpt lat="45.14936" lon="5.76775">
        <ele>481</ele>
        <time>2019-05-24T10:35:09.080Z</time>
      </trkpt>
      <trkpt lat="45.14936" lon="5.76775">
        <ele>481</ele>
        <time>2019-05-24T10:35:10.080Z</time>
      </trkpt>
      <trkpt lat="45.14938" lon="5.76775">
        <ele>486</ele>
        <time>2019-05-24T10:35:11.080Z</time>
      </trkpt>
      <trkpt lat="45.14939" lon="5.76776">
        <ele>485</ele>
        <time>2019-05-24T10:35:12.080Z</time>
      </trkpt>
      <trkpt lat="45.14939" lon="5.76776">
        <ele>485</ele>
        <time>2019-05-24T10:35:13.080Z</time>
      </trkpt>
      <trkpt lat="45.1494" lon="5.76776">
        <ele>484</ele>
        <time>2019-05-24T10:35:14.080Z</time>
      </trkpt>
      <trkpt lat="45.14941" lon="5.76777">
        <ele>480</ele>
        <time>2019-05-24T10:35:15.080Z</time>
      </trkpt>
      <trkpt lat="45.14942" lon="5.76778">
        <ele>479</ele>
        <time>2019-05-24T10:35:16.080Z</time>
      </trkpt>
      <trkpt lat="45.14943" lon="5.76779">
        <ele>476</ele>
        <time>2019-05-24T10:35:17.080Z</time>
      </trkpt>
      <trkpt lat="45.14944" lon="5.7678">
        <ele>476</ele>
        <time>2019-05-24T10:35:18.080Z</time>
      </trkpt>
      <trkpt lat="45.14945" lon="5.76782">
        <ele>474</ele>
        <time>2019-05-24T10:35:19.080Z</time>
      </trkpt>
      <trkpt lat="45.14946" lon="5.76784">
        <ele>475</ele>
        <time>2019-05-24T10:35:20.080Z</time>
      </trkpt>
      <trkpt lat="45.14946" lon="5.76784">
        <ele>475</ele>
        <time>2019-05-24T10:35:21.080Z</time>
      </trkpt>
      <trkpt lat="45.14947" lon="5.76785">
        <ele>479</ele>
        <time>2019-05-24T10:35:22.080Z</time>
      </trkpt>
      <trkpt lat="45.14948" lon="5.76787">
        <ele>478</ele>
        <time>2019-05-24T10:35:23.080Z</time>
      </trkpt>
      <trkpt lat="45.14949" lon="5.76788">
        <ele>482</ele>
        <time>2019-05-24T10:35:24.080Z</time>
      </trkpt>
      <trkpt lat="45.1495" lon="5.76789">
        <ele>484</ele>
        <time>2019-05-24T10:35:25.080Z</time>
      </trkpt>
      <trkpt lat="45.1495" lon="5.7679">
        <ele>484</ele>
        <time>2019-05-24T10:35:26.080Z</time>
      </trkpt>
      <trkpt lat="45.14951" lon="5.7679">
        <ele>483</ele>
        <time>2019-05-24T10:35:27.080Z</time>
      </trkpt>
      <trkpt lat="45.14951" lon="5.76791">
        <ele>482</ele>
        <time>2019-05-24T10:35:28.080Z</time>
      </trkpt>
      <trkpt lat="45.14952" lon="5.76793">
        <ele>483</ele>
        <time>2019-05-24T10:35:29.080Z</time>
      </trkpt>
      <trkpt lat="45.14952" lon="5.76793">
        <ele>483</ele>
        <time>2019-05-24T10:35:30.080Z</time>
      </trkpt>
      <trkpt lat="45.14952" lon="5.76794">
        <ele>483</ele>
        <time>2019-05-24T10:35:31.080Z</time>
      </trkpt>
      <trkpt lat="45.14953" lon="5.76796">
        <ele>482</ele>
        <time>2019-05-24T10:35:32.080Z</time>
      </trkpt>
      <trkpt lat="45.14954" lon="5.76797">
        <ele>482</ele>
        <time>2019-05-24T10:35:33.080Z</time>
      </trkpt>
      <trkpt lat="45.14955" lon="5.76798">
        <ele>484</ele>
        <time>2019-05-24T10:35:34.080Z</time>
      </trkpt>
      <trkpt lat="45.14955" lon="5.76799">
        <ele>486</ele>
        <time>2019-05-24T10:35:35.080Z</time>
      </trkpt>
      <trkpt lat="45.14956" lon="5.76801">
        <ele>488</ele>
        <time>2019-05-24T10:35:36.080Z</time>
      </trkpt>
      <trkpt lat="45.14957" lon="5.76802">
        <ele>488</ele>
        <time>2019-05-24T10:35:37.080Z</time>
      </trkpt>
      <trkpt lat="45.14958" lon="5.76803">
        <ele>488</ele>
        <time>2019-05-24T10:35:38.080Z</time>
      </trkpt>
      <trkpt lat="45.14959" lon="5.76804">
        <ele>489</ele>
        <time>2019-05-24T10:35:39.080Z</time>
      </trkpt>
      <trkpt lat="45.14959" lon="5.76804">
        <ele>489</ele>
        <time>2019-05-24T10:35:40.080Z</time>
      </trkpt>
      <trkpt lat="45.1496" lon="5.76805">
        <ele>487</ele>
        <time>2019-05-24T10:35:41.080Z</time>
      </trkpt>
      <trkpt lat="45.14961" lon="5.76806">
        <ele>488</ele>
        <time>2019-05-24T10:35:42.080Z</time>
      </trkpt>
      <trkpt lat="45.14962" lon="5.76807">
        <ele>488</ele>
        <time>2019-05-24T10:35:43.080Z</time>
      </trkpt>
      <trkpt lat="45.14963" lon="5.76809">
        <ele>489</ele>
        <time>2019-05-24T10:35:44.080Z</time>
      </trkpt>
      <trkpt lat="45.14964" lon="5.7681">
        <ele>495</ele>
        <time>2019-05-24T10:35:45.080Z</time>
      </trkpt>
      <trkpt lat="45.14965" lon="5.76811">
        <ele>495</ele>
        <time>2019-05-24T10:35:46.080Z</time>
      </trkpt>
      <trkpt lat="45.14966" lon="5.76813">
        <ele>494</ele>
        <time>2019-05-24T10:35:47.080Z</time>
      </trkpt>
      <trkpt lat="45.14968" lon="5.76814">
        <ele>492</ele>
        <time>2019-05-24T10:35:48.080Z</time>
      </trkpt>
      <trkpt lat="45.14969" lon="5.76815">
        <ele>491</ele>
        <time>2019-05-24T10:35:49.080Z</time>
      </trkpt>
      <trkpt lat="45.14969" lon="5.76815">
        <ele>491</ele>
        <time>2019-05-24T10:35:50.080Z</time>
      </trkpt>
      <trkpt lat="45.1497" lon="5.76816">
        <ele>493</ele>
        <time>2019-05-24T10:35:51.080Z</time>
      </trkpt>
      <trkpt lat="45.14971" lon="5.76817">
        <ele>493</ele>
        <time>2019-05-24T10:35:52.080Z</time>
      </trkpt>
      <trkpt lat="45.14971" lon="5.76819">
        <ele>491</ele>
        <time>2019-05-24T10:35:53.080Z</time>
      </trkpt>
      <trkpt lat="45.14972" lon="5.76821">
        <ele>491</ele>
        <time>2019-05-24T10:35:54.080Z</time>
      </trkpt>
      <trkpt lat="45.14972" lon="5.76822">
        <ele>489</ele>
        <time>2019-05-24T10:35:55.080Z</time>
      </trkpt>
      <trkpt lat="45.14973" lon="5.76824">
        <ele>489</ele>
        <time>2019-05-24T10:35:56.080Z</time>
      </trkpt>
      <trkpt lat="45.14974" lon="5.76825">
        <ele>489</ele>
        <time>2019-05-24T10:35:57.080Z</time>
      </trkpt>
      <trkpt lat="45.14975" lon="5.76827">
        <ele>487</ele>
        <time>2019-05-24T10:35:58.080Z</time>
      </trkpt>
      <trkpt lat="45.14975" lon="5.76827">
        <ele>487</ele>
        <time>2019-05-24T10:35:59.080Z</time>
      </trkpt>
      <trkpt lat="45.14976" lon="5.76828">
        <ele>485</ele>
        <time>2019-05-24T10:36:00.080Z</time>
      </trkpt>
      <trkpt lat="45.14976" lon="5.7683">
        <ele>484</ele>
        <time>2019-05-24T10:36:01.080Z</time>
      </trkpt>
      <trkpt lat="45.14977" lon="5.76832">
        <ele>482</ele>
        <time>2019-05-24T10:36:02.080Z</time>
      </trkpt>
      <trkpt lat="45.14977" lon="5.76834">
        <ele>480</ele>
        <time>2019-05-24T10:36:03.080Z</time>
      </trkpt>
      <trkpt lat="45.14978" lon="5.76836">
        <ele>481</ele>
        <time>2019-05-24T10:36:04.080Z</time>
      </trkpt>
      <trkpt lat="45.14979" lon="5.76839">
        <ele>481</ele>
        <time>2019-05-24T10:36:05.080Z</time>
      </trkpt>
      <trkpt lat="45.1498" lon="5.76841">
        <ele>481</ele>
        <time>2019-05-24T10:36:06.080Z</time>
      </trkpt>
      <trkpt lat="45.1498" lon="5.76841">
        <ele>481</ele>
        <time>2019-05-24T10:36:07.080Z</time>
      </trkpt>
      <trkpt lat="45.14981" lon="5.76844">
        <ele>481</ele>
        <time>2019-05-24T10:36:08.080Z</time>
      </trkpt>
      <trkpt lat="45.14981" lon="5.76846">
        <ele>481</ele>
        <time>2019-05-24T10:36:09.080Z</time>
      </trkpt>
      <trkpt lat="45.14982" lon="5.76848">
        <ele>483</ele>
        <time>2019-05-24T10:36:10.080Z</time>
      </trkpt>
      <trkpt lat="45.14983" lon="5.76849">
        <ele>483</ele>
        <time>2019-05-24T10:36:11.080Z</time>
      </trkpt>
      <trkpt lat="45.14983" lon="5.76852">
        <ele>482</ele>
        <time>2019-05-24T10:36:12.080Z</time>
      </trkpt>
      <trkpt lat="45.14984" lon="5.76854">
        <ele>482</ele>
        <time>2019-05-24T10:36:13.080Z</time>
      </trkpt>
      <trkpt lat="45.14985" lon="5.76856">
        <ele>483</ele>
        <time>2019-05-24T10:36:14.080Z</time>
      </trkpt>
      <trkpt lat="45.14986" lon="5.76858">
        <ele>483</ele>
        <time>2019-05-24T10:36:15.080Z</time>
      </trkpt>
      <trkpt lat="45.14987" lon="5.7686">
        <ele>485</ele>
        <time>2019-05-24T10:36:16.080Z</time>
      </trkpt>
      <trkpt lat="45.14987" lon="5.7686">
        <ele>485</ele>
        <time>2019-05-24T10:36:17.080Z</time>
      </trkpt>
      <trkpt lat="45.14988" lon="5.76862">
        <ele>488</ele>
        <time>2019-05-24T10:36:18.080Z</time>
      </trkpt>
      <trkpt lat="45.14988" lon="5.76864">
        <ele>486</ele>
        <time>2019-05-24T10:36:19.080Z</time>
      </trkpt>
      <trkpt lat="45.14989" lon="5.76867">
        <ele>485</ele>
        <time>2019-05-24T10:36:20.080Z</time>
      </trkpt>
      <trkpt lat="45.14989" lon="5.76869">
        <ele>483</ele>
        <time>2019-05-24T10:36:21.080Z</time>
      </trkpt>
      <trkpt lat="45.1499" lon="5.76871">
        <ele>485</ele>
        <time>2019-05-24T10:36:22.080Z</time>
      </trkpt>
      <trkpt lat="45.14991" lon="5.76873">
        <ele>484</ele>
        <time>2019-05-24T10:36:23.080Z</time>
      </trkpt>
      <trkpt lat="45.14992" lon="5.76875">
        <ele>483</ele>
        <time>2019-05-24T10:36:24.080Z</time>
      </trkpt>
      <trkpt lat="45.14992" lon="5.76875">
        <ele>483</ele>
        <time>2019-05-24T10:36:25.080Z</time>
      </trkpt>
      <trkpt lat="45.14993" lon="5.76877">
        <ele>481</ele>
        <time>2019-05-24T10:36:26.080Z</time>
      </trkpt>
      <trkpt lat="45.14994" lon="5.76879">
        <ele>481</ele>
        <time>2019-05-24T10:36:27.080Z</time>
      </trkpt>
      <trkpt lat="45.14995" lon="5.76882">
        <ele>482</ele>
        <time>2019-05-24T10:36:28.080Z</time>
      </trkpt>
      <trkpt lat="45.14996" lon="5.76884">
        <ele>483</ele>
        <time>2019-05-24T10:36:29.080Z</time>
      </trkpt>
      <trkpt lat="45.14995" lon="5.76886">
        <ele>482</ele>
        <time>2019-05-24T10:36:30.080Z</time>
      </trkpt>
      <trkpt lat="45.14996" lon="5.76888">
        <ele>485</ele>
        <time>2019-05-24T10:36:31.080Z</time>
      </trkpt>
      <trkpt lat="45.14996" lon="5.76891">
        <ele>485</ele>
        <time>2019-05-24T10:36:32.080Z</time>
      </trkpt>
      <trkpt lat="45.14996" lon="5.76891">
        <ele>485</ele>
        <time>2019-05-24T10:36:33.080Z</time>
      </trkpt>
      <trkpt lat="45.14997" lon="5.76893">
        <ele>486</ele>
        <time>2019-05-24T10:36:34.080Z</time>
      </trkpt>
      <trkpt lat="45.14997" lon="5.76895">
        <ele>486</ele>
        <time>2019-05-24T10:36:35.080Z</time>
      </trkpt>
      <trkpt lat="45.14997" lon="5.76898">
        <ele>487</ele>
        <time>2019-05-24T10:36:36.080Z</time>
      </trkpt>
      <trkpt lat="45.14998" lon="5.769">
        <ele>487</ele>
        <time>2019-05-24T10:36:37.080Z</time>
      </trkpt>
      <trkpt lat="45.14998" lon="5.76903">
        <ele>486</ele>
        <time>2019-05-24T10:36:38.080Z</time>
      </trkpt>
      <trkpt lat="45.14999" lon="5.76905">
        <ele>487</ele>
        <time>2019-05-24T10:36:39.080Z</time>
      </trkpt>
      <trkpt lat="45.14999" lon="5.76908">
        <ele>485</ele>
        <time>2019-05-24T10:36:40.080Z</time>
      </trkpt>
      <trkpt lat="45.14999" lon="5.7691">
        <ele>484</ele>
        <time>2019-05-24T10:36:41.080Z</time>
      </trkpt>
      <trkpt lat="45.14999" lon="5.7691">
        <ele>484</ele>
        <time>2019-05-24T10:36:42.080Z</time>
      </trkpt>
      <trkpt lat="45.14999" lon="5.76913">
        <ele>483</ele>
        <time>2019-05-24T10:36:43.080Z</time>
      </trkpt>
      <trkpt lat="45.15" lon="5.76916">
        <ele>484</ele>
        <time>2019-05-24T10:36:44.080Z</time>
      </trkpt>
      <trkpt lat="45.15" lon="5.76919">
        <ele>484</ele>
        <time>2019-05-24T10:36:45.080Z</time>
      </trkpt>
      <trkpt lat="45.14999" lon="5.76922">
        <ele>484</ele>
        <time>2019-05-24T10:36:46.080Z</time>
      </trkpt>
      <trkpt lat="45.14999" lon="5.76924">
        <ele>483</ele>
        <time>2019-05-24T10:36:47.080Z</time>
      </trkpt>
      <trkpt lat="45.14998" lon="5.76927">
        <ele>482</ele>
        <time>2019-05-24T10:36:48.080Z</time>
      </trkpt>
      <trkpt lat="45.14997" lon="5.7693">
        <ele>480</ele>
        <time>2019-05-24T10:36:49.080Z</time>
      </trkpt>
      <trkpt lat="45.14996" lon="5.76932">
        <ele>479</ele>
        <time>2019-05-24T10:36:50.080Z</time>
      </trkpt>
      <trkpt lat="45.14996" lon="5.76932">
        <ele>479</ele>
        <time>2019-05-24T10:36:51.080Z</time>
      </trkpt>
      <trkpt lat="45.14996" lon="5.76935">
        <ele>479</ele>
        <time>2019-05-24T10:36:52.080Z</time>
      </trkpt>
      <trkpt lat="45.14995" lon="5.76938">
        <ele>479</ele>
        <time>2019-05-24T10:36:53.080Z</time>
      </trkpt>
      <trkpt lat="45.14994" lon="5.76941">
        <ele>480</ele>
        <time>2019-05-24T10:36:54.080Z</time>
      </trkpt>
      <trkpt lat="45.14992" lon="5.76943">
        <ele>479</ele>
        <time>2019-05-24T10:36:55.080Z</time>
      </trkpt>
      <trkpt lat="45.14991" lon="5.76946">
        <ele>478</ele>
        <time>2019-05-24T10:36:56.080Z</time>
      </trkpt>
      <trkpt lat="45.1499" lon="5.76949">
        <ele>478</ele>
        <time>2019-05-24T10:36:57.080Z</time>
      </trkpt>
      <trkpt lat="45.14989" lon="5.76952">
        <ele>479</ele>
        <time>2019-05-24T10:36:58.080Z</time>
      </trkpt>
      <trkpt lat="45.14988" lon="5.76955">
        <ele>479</ele>
        <time>2019-05-24T10:36:59.080Z</time>
      </trkpt>
      <trkpt lat="45.14987" lon="5.76958">
        <ele>481</ele>
        <time>2019-05-24T10:37:00.080Z</time>
      </trkpt>
      <trkpt lat="45.14985" lon="5.76962">
        <ele>483</ele>
        <time>2019-05-24T10:37:01.080Z</time>
      </trkpt>
      <trkpt lat="45.14984" lon="5.76966">
        <ele>483</ele>
        <time>2019-05-24T10:37:02.080Z</time>
      </trkpt>
      <trkpt lat="45.14984" lon="5.76966">
        <ele>483</ele>
        <time>2019-05-24T10:37:03.080Z</time>
      </trkpt>
      <trkpt lat="45.14983" lon="5.7697">
        <ele>482</ele>
        <time>2019-05-24T10:37:04.080Z</time>
      </trkpt>
      <trkpt lat="45.14982" lon="5.76973">
        <ele>481</ele>
        <time>2019-05-24T10:37:05.080Z</time>
      </trkpt>
      <trkpt lat="45.14981" lon="5.76976">
        <ele>480</ele>
        <time>2019-05-24T10:37:06.080Z</time>
      </trkpt>
      <trkpt lat="45.14981" lon="5.7698">
        <ele>481</ele>
        <time>2019-05-24T10:37:07.080Z</time>
      </trkpt>
      <trkpt lat="45.1498" lon="5.76983">
        <ele>485</ele>
        <time>2019-05-24T10:37:08.080Z</time>
      </trkpt>
      <trkpt lat="45.14979" lon="5.76987">
        <ele>485</ele>
        <time>2019-05-24T10:37:09.080Z</time>
      </trkpt>
      <trkpt lat="45.14979" lon="5.76989">
        <ele>487</ele>
        <time>2019-05-24T10:37:10.080Z</time>
      </trkpt>
      <trkpt lat="45.14977" lon="5.76993">
        <ele>488</ele>
        <time>2019-05-24T10:37:11.080Z</time>
      </trkpt>
      <trkpt lat="45.14977" lon="5.76993">
        <ele>488</ele>
        <time>2019-05-24T10:37:12.080Z</time>
      </trkpt>
      <trkpt lat="45.14976" lon="5.76996">
        <ele>486</ele>
        <time>2019-05-24T10:37:13.080Z</time>
      </trkpt>
      <trkpt lat="45.14975" lon="5.76999">
        <ele>485</ele>
        <time>2019-05-24T10:37:14.080Z</time>
      </trkpt>
      <trkpt lat="45.14973" lon="5.77002">
        <ele>486</ele>
        <time>2019-05-24T10:37:15.080Z</time>
      </trkpt>
      <trkpt lat="45.14972" lon="5.77005">
        <ele>487</ele>
        <time>2019-05-24T10:37:16.080Z</time>
      </trkpt>
      <trkpt lat="45.14971" lon="5.77008">
        <ele>486</ele>
        <time>2019-05-24T10:37:17.080Z</time>
      </trkpt>
      <trkpt lat="45.1497" lon="5.77012">
        <ele>487</ele>
        <time>2019-05-24T10:37:18.080Z</time>
      </trkpt>
      <trkpt lat="45.1497" lon="5.77015">
        <ele>487</ele>
        <time>2019-05-24T10:37:19.080Z</time>
      </trkpt>
      <trkpt lat="45.1497" lon="5.77015">
        <ele>487</ele>
        <time>2019-05-24T10:37:20.080Z</time>
      </trkpt>
      <trkpt lat="45.14969" lon="5.77018">
        <ele>485</ele>
        <time>2019-05-24T10:37:21.080Z</time>
      </trkpt>
      <trkpt lat="45.14967" lon="5.77021">
        <ele>485</ele>
        <time>2019-05-24T10:37:22.080Z</time>
      </trkpt>
      <trkpt lat="45.14966" lon="5.77023">
        <ele>485</ele>
        <time>2019-05-24T10:37:23.080Z</time>
      </trkpt>
      <trkpt lat="45.14965" lon="5.77026">
        <ele>486</ele>
        <time>2019-05-24T10:37:24.080Z</time>
      </trkpt>
      <trkpt lat="45.14964" lon="5.77029">
        <ele>486</ele>
        <time>2019-05-24T10:37:25.080Z</time>
      </trkpt>
      <trkpt lat="45.14962" lon="5.77033">
        <ele>487</ele>
        <time>2019-05-24T10:37:26.080Z</time>
      </trkpt>
      <trkpt lat="45.14961" lon="5.77036">
        <ele>489</ele>
        <time>2019-05-24T10:37:27.080Z</time>
      </trkpt>
      <trkpt lat="45.14959" lon="5.77039">
        <ele>489</ele>
        <time>2019-05-24T10:37:28.080Z</time>
      </trkpt>
      <trkpt lat="45.14959" lon="5.77039">
        <ele>489</ele>
        <time>2019-05-24T10:37:29.080Z</time>
      </trkpt>
      <trkpt lat="45.14958" lon="5.77041">
        <ele>487</ele>
        <time>2019-05-24T10:37:30.080Z</time>
      </trkpt>
      <trkpt lat="45.14957" lon="5.77043">
        <ele>488</ele>
        <time>2019-05-24T10:37:31.080Z</time>
      </trkpt>
      <trkpt lat="45.14956" lon="5.77046">
        <ele>488</ele>
        <time>2019-05-24T10:37:32.080Z</time>
      </trkpt>
      <trkpt lat="45.14954" lon="5.77048">
        <ele>487</ele>
        <time>2019-05-24T10:37:33.080Z</time>
      </trkpt>
      <trkpt lat="45.14954" lon="5.77051">
        <ele>489</ele>
        <time>2019-05-24T10:37:34.080Z</time>
      </trkpt>
      <trkpt lat="45.14953" lon="5.77053">
        <ele>489</ele>
        <time>2019-05-24T10:37:35.080Z</time>
      </trkpt>
      <trkpt lat="45.14951" lon="5.77056">
        <ele>488</ele>
        <time>2019-05-24T10:37:36.080Z</time>
      </trkpt>
      <trkpt lat="45.1495" lon="5.77059">
        <ele>489</ele>
        <time>2019-05-24T10:37:37.080Z</time>
      </trkpt>
      <trkpt lat="45.1495" lon="5.77059">
        <ele>489</ele>
        <time>2019-05-24T10:37:38.080Z</time>
      </trkpt>
      <trkpt lat="45.14949" lon="5.77061">
        <ele>491</ele>
        <time>2019-05-24T10:37:39.080Z</time>
      </trkpt>
      <trkpt lat="45.14948" lon="5.77064">
        <ele>491</ele>
        <time>2019-05-24T10:37:40.080Z</time>
      </trkpt>
      <trkpt lat="45.14947" lon="5.77067">
        <ele>491</ele>
        <time>2019-05-24T10:37:41.080Z</time>
      </trkpt>
      <trkpt lat="45.14946" lon="5.77069">
        <ele>491</ele>
        <time>2019-05-24T10:37:42.080Z</time>
      </trkpt>
      <trkpt lat="45.14945" lon="5.77071">
        <ele>490</ele>
        <time>2019-05-24T10:37:43.080Z</time>
      </trkpt>
      <trkpt lat="45.14944" lon="5.77073">
        <ele>491</ele>
        <time>2019-05-24T10:37:44.080Z</time>
      </trkpt>
      <trkpt lat="45.14944" lon="5.77075">
        <ele>493</ele>
        <time>2019-05-24T10:37:45.080Z</time>
      </trkpt>
      <trkpt lat="45.14943" lon="5.77077">
        <ele>492</ele>
        <time>2019-05-24T10:37:46.080Z</time>
      </trkpt>
      <trkpt lat="45.14943" lon="5.7708">
        <ele>493</ele>
        <time>2019-05-24T10:37:47.080Z</time>
      </trkpt>
      <trkpt lat="45.14942" lon="5.77082">
        <ele>492</ele>
        <time>2019-05-24T10:37:48.080Z</time>
      </trkpt>
      <trkpt lat="45.14942" lon="5.77084">
        <ele>493</ele>
        <time>2019-05-24T10:37:49.080Z</time>
      </trkpt>
      <trkpt lat="45.14942" lon="5.77086">
        <ele>492</ele>
        <time>2019-05-24T10:37:50.080Z</time>
      </trkpt>
      <trkpt lat="45.14942" lon="5.77086">
        <ele>492</ele>
        <time>2019-05-24T10:37:51.080Z</time>
      </trkpt>
      <trkpt lat="45.14942" lon="5.77088">
        <ele>493</ele>
        <time>2019-05-24T10:37:52.080Z</time>
      </trkpt>
      <trkpt lat="45.14942" lon="5.77091">
        <ele>493</ele>
        <time>2019-05-24T10:37:53.080Z</time>
      </trkpt>
      <trkpt lat="45.14943" lon="5.77093">
        <ele>495</ele>
        <time>2019-05-24T10:37:54.080Z</time>
      </trkpt>
      <trkpt lat="45.14943" lon="5.77095">
        <ele>495</ele>
        <time>2019-05-24T10:37:55.080Z</time>
      </trkpt>
      <trkpt lat="45.14944" lon="5.77098">
        <ele>498</ele>
        <time>2019-05-24T10:37:56.080Z</time>
      </trkpt>
      <trkpt lat="45.14944" lon="5.771">
        <ele>500</ele>
        <time>2019-05-24T10:37:57.080Z</time>
      </trkpt>
      <trkpt lat="45.14944" lon="5.77103">
        <ele>500</ele>
        <time>2019-05-24T10:37:58.080Z</time>
      </trkpt>
      <trkpt lat="45.14944" lon="5.77105">
        <ele>501</ele>
        <time>2019-05-24T10:37:59.080Z</time>
      </trkpt>
      <trkpt lat="45.14944" lon="5.77108">
        <ele>501</ele>
        <time>2019-05-24T10:38:00.080Z</time>
      </trkpt>
      <trkpt lat="45.14943" lon="5.7711">
        <ele>498</ele>
        <time>2019-05-24T10:38:01.080Z</time>
      </trkpt>
      <trkpt lat="45.14943" lon="5.7711">
        <ele>498</ele>
        <time>2019-05-24T10:38:02.080Z</time>
      </trkpt>
      <trkpt lat="45.14943" lon="5.77112">
        <ele>497</ele>
        <time>2019-05-24T10:38:03.080Z</time>
      </trkpt>
      <trkpt lat="45.14942" lon="5.77114">
        <ele>498</ele>
        <time>2019-05-24T10:38:04.080Z</time>
      </trkpt>
      <trkpt lat="45.14941" lon="5.77116">
        <ele>498</ele>
        <time>2019-05-24T10:38:05.080Z</time>
      </trkpt>
      <trkpt lat="45.14941" lon="5.77118">
        <ele>500</ele>
        <time>2019-05-24T10:38:06.080Z</time>
      </trkpt>
      <trkpt lat="45.1494" lon="5.7712">
        <ele>500</ele>
        <time>2019-05-24T10:38:07.080Z</time>
      </trkpt>
      <trkpt lat="45.1494" lon="5.77122">
        <ele>500</ele>
        <time>2019-05-24T10:38:08.080Z</time>
      </trkpt>
      <trkpt lat="45.14939" lon="5.77124">
        <ele>501</ele>
        <time>2019-05-24T10:38:09.080Z</time>
      </trkpt>
      <trkpt lat="45.14939" lon="5.77126">
        <ele>500</ele>
        <time>2019-05-24T10:38:10.080Z</time>
      </trkpt>
      <trkpt lat="45.14938" lon="5.77128">
        <ele>501</ele>
        <time>2019-05-24T10:38:11.080Z</time>
      </trkpt>
      <trkpt lat="45.14937" lon="5.7713">
        <ele>502</ele>
        <time>2019-05-24T10:38:12.080Z</time>
      </trkpt>
      <trkpt lat="45.14936" lon="5.77132">
        <ele>502</ele>
        <time>2019-05-24T10:38:13.080Z</time>
      </trkpt>
      <trkpt lat="45.14935" lon="5.77134">
        <ele>502</ele>
        <time>2019-05-24T10:38:14.080Z</time>
      </trkpt>
      <trkpt lat="45.14935" lon="5.77135">
        <ele>504</ele>
        <time>2019-05-24T10:38:15.080Z</time>
      </trkpt>
      <trkpt lat="45.14935" lon="5.77135">
        <ele>504</ele>
        <time>2019-05-24T10:38:16.080Z</time>
      </trkpt>
      <trkpt lat="45.14934" lon="5.77137">
        <ele>505</ele>
        <time>2019-05-24T10:38:17.080Z</time>
      </trkpt>
      <trkpt lat="45.14933" lon="5.77139">
        <ele>507</ele>
        <time>2019-05-24T10:38:18.080Z</time>
      </trkpt>
      <trkpt lat="45.14933" lon="5.77141">
        <ele>507</ele>
        <time>2019-05-24T10:38:19.080Z</time>
      </trkpt>
      <trkpt lat="45.14932" lon="5.77143">
        <ele>507</ele>
        <time>2019-05-24T10:38:20.080Z</time>
      </trkpt>
      <trkpt lat="45.14931" lon="5.77145">
        <ele>506</ele>
        <time>2019-05-24T10:38:21.080Z</time>
      </trkpt>
      <trkpt lat="45.1493" lon="5.77146">
        <ele>506</ele>
        <time>2019-05-24T10:38:22.080Z</time>
      </trkpt>
      <trkpt lat="45.14929" lon="5.77148">
        <ele>506</ele>
        <time>2019-05-24T10:38:23.080Z</time>
      </trkpt>
      <trkpt lat="45.14928" lon="5.77149">
        <ele>507</ele>
        <time>2019-05-24T10:38:24.080Z</time>
      </trkpt>
      <trkpt lat="45.14927" lon="5.77151">
        <ele>507</ele>
        <time>2019-05-24T10:38:25.080Z</time>
      </trkpt>
      <trkpt lat="45.14926" lon="5.77152">
        <ele>506</ele>
        <time>2019-05-24T10:38:26.080Z</time>
      </trkpt>
      <trkpt lat="45.14925" lon="5.77154">
        <ele>506</ele>
        <time>2019-05-24T10:38:27.080Z</time>
      </trkpt>
      <trkpt lat="45.14924" lon="5.77156">
        <ele>506</ele>
        <time>2019-05-24T10:38:28.080Z</time>
      </trkpt>
      <trkpt lat="45.14924" lon="5.77157">
        <ele>506</ele>
        <time>2019-05-24T10:38:29.080Z</time>
      </trkpt>
      <trkpt lat="45.14922" lon="5.77159">
        <ele>506</ele>
        <time>2019-05-24T10:38:30.080Z</time>
      </trkpt>
      <trkpt lat="45.14921" lon="5.77161">
        <ele>506</ele>
        <time>2019-05-24T10:38:31.080Z</time>
      </trkpt>
      <trkpt lat="45.1492" lon="5.77162">
        <ele>506</ele>
        <time>2019-05-24T10:38:32.080Z</time>
      </trkpt>
      <trkpt lat="45.1492" lon="5.77162">
        <ele>506</ele>
        <time>2019-05-24T10:38:33.080Z</time>
      </trkpt>
      <trkpt lat="45.14919" lon="5.77164">
        <ele>507</ele>
        <time>2019-05-24T10:38:34.080Z</time>
      </trkpt>
      <trkpt lat="45.14918" lon="5.77166">
        <ele>506</ele>
        <time>2019-05-24T10:38:35.080Z</time>
      </trkpt>
      <trkpt lat="45.14917" lon="5.77168">
        <ele>505</ele>
        <time>2019-05-24T10:38:36.080Z</time>
      </trkpt>
      <trkpt lat="45.14916" lon="5.7717">
        <ele>507</ele>
        <time>2019-05-24T10:38:37.080Z</time>
      </trkpt>
      <trkpt lat="45.14915" lon="5.77171">
        <ele>506</ele>
        <time>2019-05-24T10:38:38.080Z</time>
      </trkpt>
      <trkpt lat="45.14914" lon="5.77173">
        <ele>506</ele>
        <time>2019-05-24T10:38:39.080Z</time>
      </trkpt>
      <trkpt lat="45.14913" lon="5.77175">
        <ele>507</ele>
        <time>2019-05-24T10:38:40.080Z</time>
      </trkpt>
      <trkpt lat="45.14912" lon="5.77176">
        <ele>506</ele>
        <time>2019-05-24T10:38:41.080Z</time>
      </trkpt>
      <trkpt lat="45.14911" lon="5.77178">
        <ele>507</ele>
        <time>2019-05-24T10:38:42.080Z</time>
      </trkpt>
      <trkpt lat="45.14911" lon="5.7718">
        <ele>509</ele>
        <time>2019-05-24T10:38:43.080Z</time>
      </trkpt>
      <trkpt lat="45.1491" lon="5.77182">
        <ele>509</ele>
        <time>2019-05-24T10:38:44.080Z</time>
      </trkpt>
      <trkpt lat="45.14909" lon="5.77184">
        <ele>509</ele>
        <time>2019-05-24T10:38:45.080Z</time>
      </trkpt>
      <trkpt lat="45.14909" lon="5.77186">
        <ele>510</ele>
        <time>2019-05-24T10:38:46.080Z</time>
      </trkpt>
      <trkpt lat="45.14908" lon="5.77188">
        <ele>511</ele>
        <time>2019-05-24T10:38:47.080Z</time>
      </trkpt>
      <trkpt lat="45.14907" lon="5.77189">
        <ele>512</ele>
        <time>2019-05-24T10:38:48.080Z</time>
      </trkpt>
      <trkpt lat="45.14907" lon="5.77191">
        <ele>512</ele>
        <time>2019-05-24T10:38:49.080Z</time>
      </trkpt>
      <trkpt lat="45.14907" lon="5.77191">
        <ele>512</ele>
        <time>2019-05-24T10:38:50.080Z</time>
      </trkpt>
      <trkpt lat="45.14907" lon="5.77193">
        <ele>511</ele>
        <time>2019-05-24T10:38:51.080Z</time>
      </trkpt>
      <trkpt lat="45.14906" lon="5.77194">
        <ele>513</ele>
        <time>2019-05-24T10:38:52.080Z</time>
      </trkpt>
      <trkpt lat="45.14906" lon="5.77195">
        <ele>515</ele>
        <time>2019-05-24T10:38:53.080Z</time>
      </trkpt>
      <trkpt lat="45.14906" lon="5.77197">
        <ele>518</ele>
        <time>2019-05-24T10:38:54.080Z</time>
      </trkpt>
      <trkpt lat="45.14906" lon="5.77199">
        <ele>520</ele>
        <time>2019-05-24T10:38:55.080Z</time>
      </trkpt>
      <trkpt lat="45.14905" lon="5.772">
        <ele>520</ele>
        <time>2019-05-24T10:38:56.080Z</time>
      </trkpt>
      <trkpt lat="45.14904" lon="5.77202">
        <ele>522</ele>
        <time>2019-05-24T10:38:57.080Z</time>
      </trkpt>
      <trkpt lat="45.14904" lon="5.77204">
        <ele>522</ele>
        <time>2019-05-24T10:38:58.080Z</time>
      </trkpt>
      <trkpt lat="45.14904" lon="5.77205">
        <ele>522</ele>
        <time>2019-05-24T10:38:59.080Z</time>
      </trkpt>
      <trkpt lat="45.14903" lon="5.77207">
        <ele>521</ele>
        <time>2019-05-24T10:39:00.080Z</time>
      </trkpt>
      <trkpt lat="45.14903" lon="5.77209">
        <ele>521</ele>
        <time>2019-05-24T10:39:01.080Z</time>
      </trkpt>
      <trkpt lat="45.14902" lon="5.7721">
        <ele>522</ele>
        <time>2019-05-24T10:39:02.080Z</time>
      </trkpt>
      <trkpt lat="45.14901" lon="5.77212">
        <ele>522</ele>
        <time>2019-05-24T10:39:03.080Z</time>
      </trkpt>
      <trkpt lat="45.149" lon="5.77214">
        <ele>522</ele>
        <time>2019-05-24T10:39:04.080Z</time>
      </trkpt>
      <trkpt lat="45.149" lon="5.77215">
        <ele>523</ele>
        <time>2019-05-24T10:39:05.080Z</time>
      </trkpt>
      <trkpt lat="45.149" lon="5.77215">
        <ele>523</ele>
        <time>2019-05-24T10:39:06.080Z</time>
      </trkpt>
      <trkpt lat="45.14899" lon="5.77218">
        <ele>522</ele>
        <time>2019-05-24T10:39:07.080Z</time>
      </trkpt>
      <trkpt lat="45.14898" lon="5.7722">
        <ele>523</ele>
        <time>2019-05-24T10:39:08.080Z</time>
      </trkpt>
      <trkpt lat="45.14897" lon="5.77222">
        <ele>522</ele>
        <time>2019-05-24T10:39:09.080Z</time>
      </trkpt>
      <trkpt lat="45.14896" lon="5.77224">
        <ele>522</ele>
        <time>2019-05-24T10:39:10.080Z</time>
      </trkpt>
      <trkpt lat="45.14895" lon="5.77226">
        <ele>521</ele>
        <time>2019-05-24T10:39:11.080Z</time>
      </trkpt>
      <trkpt lat="45.14894" lon="5.77229">
        <ele>521</ele>
        <time>2019-05-24T10:39:12.080Z</time>
      </trkpt>
      <trkpt lat="45.14893" lon="5.77231">
        <ele>520</ele>
        <time>2019-05-24T10:39:13.080Z</time>
      </trkpt>
      <trkpt lat="45.14891" lon="5.77232">
        <ele>519</ele>
        <time>2019-05-24T10:39:14.080Z</time>
      </trkpt>
      <trkpt lat="45.1489" lon="5.77234">
        <ele>520</ele>
        <time>2019-05-24T10:39:15.080Z</time>
      </trkpt>
      <trkpt lat="45.14888" lon="5.77236">
        <ele>521</ele>
        <time>2019-05-24T10:39:16.080Z</time>
      </trkpt>
      <trkpt lat="45.14886" lon="5.77238">
        <ele>522</ele>
        <time>2019-05-24T10:39:17.080Z</time>
      </trkpt>
      <trkpt lat="45.14886" lon="5.77239">
        <ele>524</ele>
        <time>2019-05-24T10:39:18.080Z</time>
      </trkpt>
      <trkpt lat="45.14885" lon="5.77242">
        <ele>523</ele>
        <time>2019-05-24T10:39:19.080Z</time>
      </trkpt>
      <trkpt lat="45.14884" lon="5.77243">
        <ele>523</ele>
        <time>2019-05-24T10:39:20.080Z</time>
      </trkpt>
      <trkpt lat="45.14883" lon="5.77244">
        <ele>522</ele>
        <time>2019-05-24T10:39:21.080Z</time>
      </trkpt>
      <trkpt lat="45.14882" lon="5.77246">
        <ele>522</ele>
        <time>2019-05-24T10:39:22.080Z</time>
      </trkpt>
      <trkpt lat="45.14881" lon="5.77248">
        <ele>522</ele>
        <time>2019-05-24T10:39:23.080Z</time>
      </trkpt>
      <trkpt lat="45.1488" lon="5.7725">
        <ele>522</ele>
        <time>2019-05-24T10:39:24.080Z</time>
      </trkpt>
      <trkpt lat="45.14879" lon="5.77252">
        <ele>525</ele>
        <time>2019-05-24T10:39:25.080Z</time>
      </trkpt>
      <trkpt lat="45.14879" lon="5.77252">
        <ele>525</ele>
        <time>2019-05-24T10:39:26.080Z</time>
      </trkpt>
      <trkpt lat="45.14878" lon="5.77254">
        <ele>526</ele>
        <time>2019-05-24T10:39:27.080Z</time>
      </trkpt>
      <trkpt lat="45.14877" lon="5.77255">
        <ele>528</ele>
        <time>2019-05-24T10:39:28.080Z</time>
      </trkpt>
      <trkpt lat="45.14876" lon="5.77258">
        <ele>528</ele>
        <time>2019-05-24T10:39:29.080Z</time>
      </trkpt>
      <trkpt lat="45.14875" lon="5.7726">
        <ele>529</ele>
        <time>2019-05-24T10:39:30.080Z</time>
      </trkpt>
      <trkpt lat="45.14874" lon="5.77263">
        <ele>530</ele>
        <time>2019-05-24T10:39:31.080Z</time>
      </trkpt>
      <trkpt lat="45.14872" lon="5.77266">
        <ele>529</ele>
        <time>2019-05-24T10:39:32.080Z</time>
      </trkpt>
      <trkpt lat="45.14871" lon="5.77268">
        <ele>528</ele>
        <time>2019-05-24T10:39:33.080Z</time>
      </trkpt>
      <trkpt lat="45.1487" lon="5.77272">
        <ele>527</ele>
        <time>2019-05-24T10:39:34.080Z</time>
      </trkpt>
      <trkpt lat="45.14868" lon="5.77274">
        <ele>528</ele>
        <time>2019-05-24T10:39:35.080Z</time>
      </trkpt>
      <trkpt lat="45.14866" lon="5.77276">
        <ele>527</ele>
        <time>2019-05-24T10:39:36.080Z</time>
      </trkpt>
      <trkpt lat="45.14864" lon="5.7728">
        <ele>527</ele>
        <time>2019-05-24T10:39:37.080Z</time>
      </trkpt>
      <trkpt lat="45.14863" lon="5.77283">
        <ele>526</ele>
        <time>2019-05-24T10:39:38.080Z</time>
      </trkpt>
      <trkpt lat="45.14861" lon="5.77286">
        <ele>527</ele>
        <time>2019-05-24T10:39:39.080Z</time>
      </trkpt>
      <trkpt lat="45.14859" lon="5.77288">
        <ele>529</ele>
        <time>2019-05-24T10:39:40.080Z</time>
      </trkpt>
      <trkpt lat="45.14859" lon="5.77288">
        <ele>529</ele>
        <time>2019-05-24T10:39:41.080Z</time>
      </trkpt>
      <trkpt lat="45.14857" lon="5.77291">
        <ele>530</ele>
        <time>2019-05-24T10:39:42.080Z</time>
      </trkpt>
      <trkpt lat="45.14855" lon="5.77294">
        <ele>529</ele>
        <time>2019-05-24T10:39:43.080Z</time>
      </trkpt>
      <trkpt lat="45.14853" lon="5.77297">
        <ele>528</ele>
        <time>2019-05-24T10:39:44.080Z</time>
      </trkpt>
      <trkpt lat="45.14851" lon="5.773">
        <ele>527</ele>
        <time>2019-05-24T10:39:45.080Z</time>
      </trkpt>
      <trkpt lat="45.14849" lon="5.77302">
        <ele>526</ele>
        <time>2019-05-24T10:39:46.080Z</time>
      </trkpt>
      <trkpt lat="45.14847" lon="5.77305">
        <ele>527</ele>
        <time>2019-05-24T10:39:47.080Z</time>
      </trkpt>
      <trkpt lat="45.14846" lon="5.77308">
        <ele>527</ele>
        <time>2019-05-24T10:39:48.080Z</time>
      </trkpt>
      <trkpt lat="45.14845" lon="5.7731">
        <ele>530</ele>
        <time>2019-05-24T10:39:49.080Z</time>
      </trkpt>
      <trkpt lat="45.14843" lon="5.77312">
        <ele>530</ele>
        <time>2019-05-24T10:39:50.080Z</time>
      </trkpt>
      <trkpt lat="45.14842" lon="5.77316">
        <ele>530</ele>
        <time>2019-05-24T10:39:51.080Z</time>
      </trkpt>
      <trkpt lat="45.14841" lon="5.77318">
        <ele>531</ele>
        <time>2019-05-24T10:39:52.080Z</time>
      </trkpt>
      <trkpt lat="45.14839" lon="5.77321">
        <ele>531</ele>
        <time>2019-05-24T10:39:53.080Z</time>
      </trkpt>
      <trkpt lat="45.14838" lon="5.77324">
        <ele>530</ele>
        <time>2019-05-24T10:39:54.080Z</time>
      </trkpt>
      <trkpt lat="45.14838" lon="5.77324">
        <ele>530</ele>
        <time>2019-05-24T10:39:55.080Z</time>
      </trkpt>
      <trkpt lat="45.14836" lon="5.77326">
        <ele>529</ele>
        <time>2019-05-24T10:39:56.080Z</time>
      </trkpt>
      <trkpt lat="45.14834" lon="5.77328">
        <ele>529</ele>
        <time>2019-05-24T10:39:57.080Z</time>
      </trkpt>
      <trkpt lat="45.14833" lon="5.77331">
        <ele>529</ele>
        <time>2019-05-24T10:39:58.080Z</time>
      </trkpt>
      <trkpt lat="45.14833" lon="5.77333">
        <ele>529</ele>
        <time>2019-05-24T10:39:59.080Z</time>
      </trkpt>
      <trkpt lat="45.14832" lon="5.77336">
        <ele>529</ele>
        <time>2019-05-24T10:40:00.080Z</time>
      </trkpt>
      <trkpt lat="45.14831" lon="5.77339">
        <ele>529</ele>
        <time>2019-05-24T10:40:01.080Z</time>
      </trkpt>
      <trkpt lat="45.14829" lon="5.77341">
        <ele>528</ele>
        <time>2019-05-24T10:40:02.080Z</time>
      </trkpt>
      <trkpt lat="45.14828" lon="5.77343">
        <ele>528</ele>
        <time>2019-05-24T10:40:03.080Z</time>
      </trkpt>
      <trkpt lat="45.14827" lon="5.77345">
        <ele>527</ele>
        <time>2019-05-24T10:40:04.080Z</time>
      </trkpt>
      <trkpt lat="45.14826" lon="5.77348">
        <ele>525</ele>
        <time>2019-05-24T10:40:05.080Z</time>
      </trkpt>
      <trkpt lat="45.14825" lon="5.77351">
        <ele>527</ele>
        <time>2019-05-24T10:40:06.080Z</time>
      </trkpt>
      <trkpt lat="45.14824" lon="5.77354">
        <ele>529</ele>
        <time>2019-05-24T10:40:07.080Z</time>
      </trkpt>
      <trkpt lat="45.14822" lon="5.77357">
        <ele>532</ele>
        <time>2019-05-24T10:40:08.080Z</time>
      </trkpt>
      <trkpt lat="45.14822" lon="5.77357">
        <ele>532</ele>
        <time>2019-05-24T10:40:09.080Z</time>
      </trkpt>
      <trkpt lat="45.14822" lon="5.7736">
        <ele>532</ele>
        <time>2019-05-24T10:40:10.080Z</time>
      </trkpt>
      <trkpt lat="45.1482" lon="5.77363">
        <ele>532</ele>
        <time>2019-05-24T10:40:11.080Z</time>
      </trkpt>
      <trkpt lat="45.14819" lon="5.77365">
        <ele>532</ele>
        <time>2019-05-24T10:40:12.080Z</time>
      </trkpt>
      <trkpt lat="45.14818" lon="5.77368">
        <ele>532</ele>
        <time>2019-05-24T10:40:13.080Z</time>
      </trkpt>
      <trkpt lat="45.14817" lon="5.77369">
        <ele>531</ele>
        <time>2019-05-24T10:40:14.080Z</time>
      </trkpt>
      <trkpt lat="45.14816" lon="5.77371">
        <ele>530</ele>
        <time>2019-05-24T10:40:15.080Z</time>
      </trkpt>
      <trkpt lat="45.14814" lon="5.77374">
        <ele>533</ele>
        <time>2019-05-24T10:40:16.080Z</time>
      </trkpt>
      <trkpt lat="45.14813" lon="5.77376">
        <ele>533</ele>
        <time>2019-05-24T10:40:17.080Z</time>
      </trkpt>
      <trkpt lat="45.14812" lon="5.77378">
        <ele>534</ele>
        <time>2019-05-24T10:40:18.080Z</time>
      </trkpt>
      <trkpt lat="45.14811" lon="5.77381">
        <ele>534</ele>
        <time>2019-05-24T10:40:19.080Z</time>
      </trkpt>
      <trkpt lat="45.1481" lon="5.77383">
        <ele>535</ele>
        <time>2019-05-24T10:40:20.080Z</time>
      </trkpt>
      <trkpt lat="45.14808" lon="5.77385">
        <ele>534</ele>
        <time>2019-05-24T10:40:21.080Z</time>
      </trkpt>
      <trkpt lat="45.14808" lon="5.77385">
        <ele>534</ele>
        <time>2019-05-24T10:40:22.080Z</time>
      </trkpt>
      <trkpt lat="45.14808" lon="5.77387">
        <ele>534</ele>
        <time>2019-05-24T10:40:23.080Z</time>
      </trkpt>
      <trkpt lat="45.14806" lon="5.7739">
        <ele>534</ele>
        <time>2019-05-24T10:40:24.080Z</time>
      </trkpt>
      <trkpt lat="45.14805" lon="5.77392">
        <ele>533</ele>
        <time>2019-05-24T10:40:25.080Z</time>
      </trkpt>
      <trkpt lat="45.14803" lon="5.77394">
        <ele>532</ele>
        <time>2019-05-24T10:40:26.080Z</time>
      </trkpt>
      <trkpt lat="45.14803" lon="5.77396">
        <ele>532</ele>
        <time>2019-05-24T10:40:27.080Z</time>
      </trkpt>
      <trkpt lat="45.14801" lon="5.77398">
        <ele>533</ele>
        <time>2019-05-24T10:40:28.080Z</time>
      </trkpt>
      <trkpt lat="45.14801" lon="5.774">
        <ele>533</ele>
        <time>2019-05-24T10:40:29.080Z</time>
      </trkpt>
      <trkpt lat="45.148" lon="5.77402">
        <ele>534</ele>
        <time>2019-05-24T10:40:30.080Z</time>
      </trkpt>
      <trkpt lat="45.14799" lon="5.77405">
        <ele>535</ele>
        <time>2019-05-24T10:40:31.080Z</time>
      </trkpt>
      <trkpt lat="45.14799" lon="5.77406">
        <ele>535</ele>
        <time>2019-05-24T10:40:32.080Z</time>
      </trkpt>
      <trkpt lat="45.14798" lon="5.77408">
        <ele>536</ele>
        <time>2019-05-24T10:40:33.080Z</time>
      </trkpt>
      <trkpt lat="45.14798" lon="5.77411">
        <ele>534</ele>
        <time>2019-05-24T10:40:34.080Z</time>
      </trkpt>
      <trkpt lat="45.14798" lon="5.77413">
        <ele>536</ele>
        <time>2019-05-24T10:40:35.080Z</time>
      </trkpt>
      <trkpt lat="45.14798" lon="5.77413">
        <ele>536</ele>
        <time>2019-05-24T10:40:36.080Z</time>
      </trkpt>
      <trkpt lat="45.14798" lon="5.77415">
        <ele>536</ele>
        <time>2019-05-24T10:40:37.080Z</time>
      </trkpt>
      <trkpt lat="45.14799" lon="5.77416">
        <ele>537</ele>
        <time>2019-05-24T10:40:38.080Z</time>
      </trkpt>
      <trkpt lat="45.148" lon="5.77418">
        <ele>540</ele>
        <time>2019-05-24T10:40:39.080Z</time>
      </trkpt>
      <trkpt lat="45.148" lon="5.77419">
        <ele>542</ele>
        <time>2019-05-24T10:40:40.080Z</time>
      </trkpt>
      <trkpt lat="45.14801" lon="5.7742">
        <ele>543</ele>
        <time>2019-05-24T10:40:41.080Z</time>
      </trkpt>
      <trkpt lat="45.14802" lon="5.77422">
        <ele>542</ele>
        <time>2019-05-24T10:40:42.080Z</time>
      </trkpt>
      <trkpt lat="45.14802" lon="5.77423">
        <ele>542</ele>
        <time>2019-05-24T10:40:43.080Z</time>
      </trkpt>
      <trkpt lat="45.14803" lon="5.77424">
        <ele>542</ele>
        <time>2019-05-24T10:40:44.080Z</time>
      </trkpt>
      <trkpt lat="45.14805" lon="5.77426">
        <ele>543</ele>
        <time>2019-05-24T10:40:45.080Z</time>
      </trkpt>
      <trkpt lat="45.14805" lon="5.77428">
        <ele>542</ele>
        <time>2019-05-24T10:40:46.080Z</time>
      </trkpt>
      <trkpt lat="45.14807" lon="5.7743">
        <ele>542</ele>
        <time>2019-05-24T10:40:47.080Z</time>
      </trkpt>
      <trkpt lat="45.14807" lon="5.77432">
        <ele>541</ele>
        <time>2019-05-24T10:40:48.080Z</time>
      </trkpt>
      <trkpt lat="45.14807" lon="5.77432">
        <ele>541</ele>
        <time>2019-05-24T10:40:49.080Z</time>
      </trkpt>
      <trkpt lat="45.14808" lon="5.77434">
        <ele>540</ele>
        <time>2019-05-24T10:40:50.080Z</time>
      </trkpt>
      <trkpt lat="45.14808" lon="5.77437">
        <ele>539</ele>
        <time>2019-05-24T10:40:51.080Z</time>
      </trkpt>
      <trkpt lat="45.14808" lon="5.7744">
        <ele>536</ele>
        <time>2019-05-24T10:40:52.080Z</time>
      </trkpt>
      <trkpt lat="45.14808" lon="5.77441">
        <ele>538</ele>
        <time>2019-05-24T10:40:53.080Z</time>
      </trkpt>
      <trkpt lat="45.14809" lon="5.77442">
        <ele>541</ele>
        <time>2019-05-24T10:40:54.080Z</time>
      </trkpt>
      <trkpt lat="45.1481" lon="5.77444">
        <ele>542</ele>
        <time>2019-05-24T10:40:55.080Z</time>
      </trkpt>
      <trkpt lat="45.14811" lon="5.77445">
        <ele>543</ele>
        <time>2019-05-24T10:40:56.080Z</time>
      </trkpt>
      <trkpt lat="45.14812" lon="5.77447">
        <ele>544</ele>
        <time>2019-05-24T10:40:57.080Z</time>
      </trkpt>
      <trkpt lat="45.14813" lon="5.77448">
        <ele>547</ele>
        <time>2019-05-24T10:40:58.080Z</time>
      </trkpt>
      <trkpt lat="45.14814" lon="5.77451">
        <ele>547</ele>
        <time>2019-05-24T10:40:59.080Z</time>
      </trkpt>
      <trkpt lat="45.14814" lon="5.77451">
        <ele>547</ele>
        <time>2019-05-24T10:41:00.080Z</time>
      </trkpt>
      <trkpt lat="45.14815" lon="5.77453">
        <ele>547</ele>
        <time>2019-05-24T10:41:01.080Z</time>
      </trkpt>
      <trkpt lat="45.14816" lon="5.77455">
        <ele>546</ele>
        <time>2019-05-24T10:41:02.080Z</time>
      </trkpt>
      <trkpt lat="45.14817" lon="5.77457">
        <ele>546</ele>
        <time>2019-05-24T10:41:03.080Z</time>
      </trkpt>
      <trkpt lat="45.14819" lon="5.77459">
        <ele>549</ele>
        <time>2019-05-24T10:41:04.080Z</time>
      </trkpt>
      <trkpt lat="45.1482" lon="5.77461">
        <ele>550</ele>
        <time>2019-05-24T10:41:05.080Z</time>
      </trkpt>
      <trkpt lat="45.14822" lon="5.77463">
        <ele>552</ele>
        <time>2019-05-24T10:41:06.080Z</time>
      </trkpt>
      <trkpt lat="45.14823" lon="5.77464">
        <ele>552</ele>
        <time>2019-05-24T10:41:07.080Z</time>
      </trkpt>
      <trkpt lat="45.14824" lon="5.77467">
        <ele>551</ele>
        <time>2019-05-24T10:41:08.080Z</time>
      </trkpt>
      <trkpt lat="45.14825" lon="5.77469">
        <ele>550</ele>
        <time>2019-05-24T10:41:09.080Z</time>
      </trkpt>
      <trkpt lat="45.14826" lon="5.77471">
        <ele>550</ele>
        <time>2019-05-24T10:41:10.080Z</time>
      </trkpt>
      <trkpt lat="45.14827" lon="5.77474">
        <ele>550</ele>
        <time>2019-05-24T10:41:11.080Z</time>
      </trkpt>
      <trkpt lat="45.14827" lon="5.77474">
        <ele>550</ele>
        <time>2019-05-24T10:41:12.080Z</time>
      </trkpt>
      <trkpt lat="45.14827" lon="5.77475">
        <ele>551</ele>
        <time>2019-05-24T10:41:13.080Z</time>
      </trkpt>
      <trkpt lat="45.14828" lon="5.77478">
        <ele>554</ele>
        <time>2019-05-24T10:41:14.080Z</time>
      </trkpt>
      <trkpt lat="45.14828" lon="5.7748">
        <ele>554</ele>
        <time>2019-05-24T10:41:15.080Z</time>
      </trkpt>
      <trkpt lat="45.14828" lon="5.77482">
        <ele>554</ele>
        <time>2019-05-24T10:41:16.080Z</time>
      </trkpt>
      <trkpt lat="45.14828" lon="5.77484">
        <ele>551</ele>
        <time>2019-05-24T10:41:17.080Z</time>
      </trkpt>
      <trkpt lat="45.14828" lon="5.77487">
        <ele>551</ele>
        <time>2019-05-24T10:41:18.080Z</time>
      </trkpt>
      <trkpt lat="45.14828" lon="5.77489">
        <ele>550</ele>
        <time>2019-05-24T10:41:19.080Z</time>
      </trkpt>
      <trkpt lat="45.14828" lon="5.77492">
        <ele>551</ele>
        <time>2019-05-24T10:41:20.080Z</time>
      </trkpt>
      <trkpt lat="45.14829" lon="5.77494">
        <ele>551</ele>
        <time>2019-05-24T10:41:21.080Z</time>
      </trkpt>
      <trkpt lat="45.14829" lon="5.77496">
        <ele>551</ele>
        <time>2019-05-24T10:41:22.080Z</time>
      </trkpt>
      <trkpt lat="45.1483" lon="5.77498">
        <ele>557</ele>
        <time>2019-05-24T10:41:23.080Z</time>
      </trkpt>
      <trkpt lat="45.1483" lon="5.77498">
        <ele>557</ele>
        <time>2019-05-24T10:41:24.080Z</time>
      </trkpt>
      <trkpt lat="45.1483" lon="5.775">
        <ele>560</ele>
        <time>2019-05-24T10:41:25.080Z</time>
      </trkpt>
      <trkpt lat="45.14831" lon="5.77501">
        <ele>560</ele>
        <time>2019-05-24T10:41:26.080Z</time>
      </trkpt>
      <trkpt lat="45.14832" lon="5.77503">
        <ele>562</ele>
        <time>2019-05-24T10:41:27.080Z</time>
      </trkpt>
      <trkpt lat="45.14832" lon="5.77504">
        <ele>562</ele>
        <time>2019-05-24T10:41:28.080Z</time>
      </trkpt>
      <trkpt lat="45.14833" lon="5.77506">
        <ele>563</ele>
        <time>2019-05-24T10:41:29.080Z</time>
      </trkpt>
      <trkpt lat="45.14834" lon="5.77508">
        <ele>562</ele>
        <time>2019-05-24T10:41:30.080Z</time>
      </trkpt>
      <trkpt lat="45.14835" lon="5.7751">
        <ele>563</ele>
        <time>2019-05-24T10:41:31.080Z</time>
      </trkpt>
      <trkpt lat="45.14836" lon="5.77513">
        <ele>563</ele>
        <time>2019-05-24T10:41:32.080Z</time>
      </trkpt>
      <trkpt lat="45.14837" lon="5.77515">
        <ele>566</ele>
        <time>2019-05-24T10:41:33.080Z</time>
      </trkpt>
      <trkpt lat="45.14838" lon="5.77517">
        <ele>568</ele>
        <time>2019-05-24T10:41:34.080Z</time>
      </trkpt>
      <trkpt lat="45.14839" lon="5.77519">
        <ele>568</ele>
        <time>2019-05-24T10:41:35.080Z</time>
      </trkpt>
      <trkpt lat="45.1484" lon="5.77521">
        <ele>570</ele>
        <time>2019-05-24T10:41:36.080Z</time>
      </trkpt>
      <trkpt lat="45.1484" lon="5.77521">
        <ele>570</ele>
        <time>2019-05-24T10:41:37.080Z</time>
      </trkpt>
      <trkpt lat="45.14841" lon="5.77522">
        <ele>573</ele>
        <time>2019-05-24T10:41:38.080Z</time>
      </trkpt>
      <trkpt lat="45.14842" lon="5.77525">
        <ele>572</ele>
        <time>2019-05-24T10:41:39.080Z</time>
      </trkpt>
      <trkpt lat="45.14843" lon="5.77527">
        <ele>569</ele>
        <time>2019-05-24T10:41:40.080Z</time>
      </trkpt>
      <trkpt lat="45.14844" lon="5.77528">
        <ele>568</ele>
        <time>2019-05-24T10:41:41.080Z</time>
      </trkpt>
      <trkpt lat="45.14845" lon="5.77529">
        <ele>566</ele>
        <time>2019-05-24T10:41:42.080Z</time>
      </trkpt>
      <trkpt lat="45.14846" lon="5.77532">
        <ele>567</ele>
        <time>2019-05-24T10:41:43.080Z</time>
      </trkpt>
      <trkpt lat="45.14847" lon="5.77534">
        <ele>566</ele>
        <time>2019-05-24T10:41:44.080Z</time>
      </trkpt>
      <trkpt lat="45.14848" lon="5.77536">
        <ele>567</ele>
        <time>2019-05-24T10:41:45.080Z</time>
      </trkpt>
      <trkpt lat="45.14848" lon="5.77537">
        <ele>568</ele>
        <time>2019-05-24T10:41:46.080Z</time>
      </trkpt>
      <trkpt lat="45.14848" lon="5.77539">
        <ele>569</ele>
        <time>2019-05-24T10:41:47.080Z</time>
      </trkpt>
      <trkpt lat="45.14848" lon="5.77542">
        <ele>570</ele>
        <time>2019-05-24T10:41:48.080Z</time>
      </trkpt>
      <trkpt lat="45.14848" lon="5.77544">
        <ele>573</ele>
        <time>2019-05-24T10:41:49.080Z</time>
      </trkpt>
      <trkpt lat="45.14848" lon="5.77544">
        <ele>573</ele>
        <time>2019-05-24T10:41:50.080Z</time>
      </trkpt>
      <trkpt lat="45.14848" lon="5.77545">
        <ele>573</ele>
        <time>2019-05-24T10:41:51.080Z</time>
      </trkpt>
      <trkpt lat="45.14848" lon="5.77547">
        <ele>573</ele>
        <time>2019-05-24T10:41:52.080Z</time>
      </trkpt>
      <trkpt lat="45.14849" lon="5.77548">
        <ele>574</ele>
        <time>2019-05-24T10:41:53.080Z</time>
      </trkpt>
      <trkpt lat="45.14849" lon="5.7755">
        <ele>575</ele>
        <time>2019-05-24T10:41:54.080Z</time>
      </trkpt>
      <trkpt lat="45.1485" lon="5.77551">
        <ele>575</ele>
        <time>2019-05-24T10:41:55.080Z</time>
      </trkpt>
      <trkpt lat="45.1485" lon="5.77553">
        <ele>577</ele>
        <time>2019-05-24T10:41:56.080Z</time>
      </trkpt>
      <trkpt lat="45.14851" lon="5.77555">
        <ele>576</ele>
        <time>2019-05-24T10:41:57.080Z</time>
      </trkpt>
      <trkpt lat="45.14852" lon="5.77557">
        <ele>578</ele>
        <time>2019-05-24T10:41:58.080Z</time>
      </trkpt>
      <trkpt lat="45.14853" lon="5.77558">
        <ele>579</ele>
        <time>2019-05-24T10:41:59.080Z</time>
      </trkpt>
      <trkpt lat="45.14854" lon="5.7756">
        <ele>580</ele>
        <time>2019-05-24T10:42:00.080Z</time>
      </trkpt>
      <trkpt lat="45.14856" lon="5.77561">
        <ele>579</ele>
        <time>2019-05-24T10:42:01.080Z</time>
      </trkpt>
      <trkpt lat="45.14856" lon="5.77561">
        <ele>579</ele>
        <time>2019-05-24T10:42:02.080Z</time>
      </trkpt>
      <trkpt lat="45.14857" lon="5.77562">
        <ele>578</ele>
        <time>2019-05-24T10:42:03.080Z</time>
      </trkpt>
      <trkpt lat="45.14858" lon="5.77564">
        <ele>577</ele>
        <time>2019-05-24T10:42:04.080Z</time>
      </trkpt>
      <trkpt lat="45.14859" lon="5.77566">
        <ele>575</ele>
        <time>2019-05-24T10:42:05.080Z</time>
      </trkpt>
      <trkpt lat="45.1486" lon="5.77567">
        <ele>576</ele>
        <time>2019-05-24T10:42:06.080Z</time>
      </trkpt>
      <trkpt lat="45.14861" lon="5.77569">
        <ele>575</ele>
        <time>2019-05-24T10:42:07.080Z</time>
      </trkpt>
      <trkpt lat="45.14862" lon="5.77571">
        <ele>571</ele>
        <time>2019-05-24T10:42:08.080Z</time>
      </trkpt>
      <trkpt lat="45.14864" lon="5.77573">
        <ele>568</ele>
        <time>2019-05-24T10:42:09.080Z</time>
      </trkpt>
      <trkpt lat="45.14865" lon="5.77575">
        <ele>567</ele>
        <time>2019-05-24T10:42:10.080Z</time>
      </trkpt>
      <trkpt lat="45.14866" lon="5.77577">
        <ele>566</ele>
        <time>2019-05-24T10:42:11.080Z</time>
      </trkpt>
      <trkpt lat="45.14867" lon="5.77579">
        <ele>566</ele>
        <time>2019-05-24T10:42:12.080Z</time>
      </trkpt>
      <trkpt lat="45.14869" lon="5.77582">
        <ele>567</ele>
        <time>2019-05-24T10:42:13.080Z</time>
      </trkpt>
      <trkpt lat="45.1487" lon="5.77584">
        <ele>568</ele>
        <time>2019-05-24T10:42:14.080Z</time>
      </trkpt>
      <trkpt lat="45.1487" lon="5.77584">
        <ele>568</ele>
        <time>2019-05-24T10:42:15.080Z</time>
      </trkpt>
      <trkpt lat="45.14872" lon="5.77587">
        <ele>569</ele>
        <time>2019-05-24T10:42:16.080Z</time>
      </trkpt>
      <trkpt lat="45.14873" lon="5.77589">
        <ele>570</ele>
        <time>2019-05-24T10:42:17.080Z</time>
      </trkpt>
      <trkpt lat="45.14874" lon="5.77592">
        <ele>569</ele>
        <time>2019-05-24T10:42:18.080Z</time>
      </trkpt>
      <trkpt lat="45.14875" lon="5.77595">
        <ele>569</ele>
        <time>2019-05-24T10:42:19.080Z</time>
      </trkpt>
      <trkpt lat="45.14876" lon="5.77598">
        <ele>568</ele>
        <time>2019-05-24T10:42:20.080Z</time>
      </trkpt>
      <trkpt lat="45.14878" lon="5.776">
        <ele>569</ele>
        <time>2019-05-24T10:42:21.080Z</time>
      </trkpt>
      <trkpt lat="45.14879" lon="5.77602">
        <ele>568</ele>
        <time>2019-05-24T10:42:22.080Z</time>
      </trkpt>
      <trkpt lat="45.14879" lon="5.77605">
        <ele>567</ele>
        <time>2019-05-24T10:42:23.080Z</time>
      </trkpt>
      <trkpt lat="45.1488" lon="5.77608">
        <ele>567</ele>
        <time>2019-05-24T10:42:24.080Z</time>
      </trkpt>
      <trkpt lat="45.14881" lon="5.7761">
        <ele>570</ele>
        <time>2019-05-24T10:42:25.080Z</time>
      </trkpt>
      <trkpt lat="45.14882" lon="5.77613">
        <ele>572</ele>
        <time>2019-05-24T10:42:26.080Z</time>
      </trkpt>
      <trkpt lat="45.14883" lon="5.77614">
        <ele>573</ele>
        <time>2019-05-24T10:42:27.080Z</time>
      </trkpt>
      <trkpt lat="45.14883" lon="5.77614">
        <ele>573</ele>
        <time>2019-05-24T10:42:28.080Z</time>
      </trkpt>
      <trkpt lat="45.14884" lon="5.77616">
        <ele>574</ele>
        <time>2019-05-24T10:42:29.080Z</time>
      </trkpt>
      <trkpt lat="45.14885" lon="5.77618">
        <ele>575</ele>
        <time>2019-05-24T10:42:30.080Z</time>
      </trkpt>
      <trkpt lat="45.14886" lon="5.77619">
        <ele>576</ele>
        <time>2019-05-24T10:42:31.080Z</time>
      </trkpt>
      <trkpt lat="45.14888" lon="5.77622">
        <ele>573</ele>
        <time>2019-05-24T10:42:32.080Z</time>
      </trkpt>
      <trkpt lat="45.14889" lon="5.77623">
        <ele>571</ele>
        <time>2019-05-24T10:42:33.080Z</time>
      </trkpt>
      <trkpt lat="45.1489" lon="5.77626">
        <ele>571</ele>
        <time>2019-05-24T10:42:34.080Z</time>
      </trkpt>
      <trkpt lat="45.14891" lon="5.77628">
        <ele>573</ele>
        <time>2019-05-24T10:42:35.080Z</time>
      </trkpt>
      <trkpt lat="45.14892" lon="5.7763">
        <ele>573</ele>
        <time>2019-05-24T10:42:36.080Z</time>
      </trkpt>
      <trkpt lat="45.14894" lon="5.77632">
        <ele>573</ele>
        <time>2019-05-24T10:42:37.080Z</time>
      </trkpt>
      <trkpt lat="45.14895" lon="5.77634">
        <ele>573</ele>
        <time>2019-05-24T10:42:38.080Z</time>
      </trkpt>
      <trkpt lat="45.14897" lon="5.77636">
        <ele>573</ele>
        <time>2019-05-24T10:42:39.080Z</time>
      </trkpt>
      <trkpt lat="45.14898" lon="5.77638">
        <ele>573</ele>
        <time>2019-05-24T10:42:40.080Z</time>
      </trkpt>
      <trkpt lat="45.14899" lon="5.7764">
        <ele>573</ele>
        <time>2019-05-24T10:42:41.080Z</time>
      </trkpt>
      <trkpt lat="45.14901" lon="5.77642">
        <ele>573</ele>
        <time>2019-05-24T10:42:42.080Z</time>
      </trkpt>
      <trkpt lat="45.14902" lon="5.77645">
        <ele>573</ele>
        <time>2019-05-24T10:42:43.080Z</time>
      </trkpt>
      <trkpt lat="45.14903" lon="5.77647">
        <ele>575</ele>
        <time>2019-05-24T10:42:44.080Z</time>
      </trkpt>
      <trkpt lat="45.14903" lon="5.77649">
        <ele>575</ele>
        <time>2019-05-24T10:42:45.080Z</time>
      </trkpt>
      <trkpt lat="45.14904" lon="5.77652">
        <ele>575</ele>
        <time>2019-05-24T10:42:46.080Z</time>
      </trkpt>
      <trkpt lat="45.14905" lon="5.77655">
        <ele>575</ele>
        <time>2019-05-24T10:42:47.080Z</time>
      </trkpt>
      <trkpt lat="45.14906" lon="5.77657">
        <ele>575</ele>
        <time>2019-05-24T10:42:48.080Z</time>
      </trkpt>
      <trkpt lat="45.14906" lon="5.77657">
        <ele>575</ele>
        <time>2019-05-24T10:42:49.080Z</time>
      </trkpt>
      <trkpt lat="45.14907" lon="5.77659">
        <ele>576</ele>
        <time>2019-05-24T10:42:50.080Z</time>
      </trkpt>
      <trkpt lat="45.14908" lon="5.7766">
        <ele>576</ele>
        <time>2019-05-24T10:42:51.080Z</time>
      </trkpt>
      <trkpt lat="45.14909" lon="5.77662">
        <ele>577</ele>
        <time>2019-05-24T10:42:52.080Z</time>
      </trkpt>
      <trkpt lat="45.1491" lon="5.77664">
        <ele>577</ele>
        <time>2019-05-24T10:42:53.080Z</time>
      </trkpt>
      <trkpt lat="45.14911" lon="5.77666">
        <ele>577</ele>
        <time>2019-05-24T10:42:54.080Z</time>
      </trkpt>
      <trkpt lat="45.14912" lon="5.77668">
        <ele>577</ele>
        <time>2019-05-24T10:42:55.080Z</time>
      </trkpt>
      <trkpt lat="45.14914" lon="5.77669">
        <ele>577</ele>
        <time>2019-05-24T10:42:56.080Z</time>
      </trkpt>
      <trkpt lat="45.14916" lon="5.7767">
        <ele>579</ele>
        <time>2019-05-24T10:42:57.080Z</time>
      </trkpt>
      <trkpt lat="45.14918" lon="5.77671">
        <ele>580</ele>
        <time>2019-05-24T10:42:58.080Z</time>
      </trkpt>
      <trkpt lat="45.1492" lon="5.77672">
        <ele>581</ele>
        <time>2019-05-24T10:42:59.080Z</time>
      </trkpt>
      <trkpt lat="45.14922" lon="5.77672">
        <ele>583</ele>
        <time>2019-05-24T10:43:00.080Z</time>
      </trkpt>
      <trkpt lat="45.14924" lon="5.77673">
        <ele>583</ele>
        <time>2019-05-24T10:43:01.080Z</time>
      </trkpt>
      <trkpt lat="45.14926" lon="5.77673">
        <ele>583</ele>
        <time>2019-05-24T10:43:02.080Z</time>
      </trkpt>
      <trkpt lat="45.14926" lon="5.77673">
        <ele>583</ele>
        <time>2019-05-24T10:43:03.080Z</time>
      </trkpt>
      <trkpt lat="45.14927" lon="5.77673">
        <ele>584</ele>
        <time>2019-05-24T10:43:04.080Z</time>
      </trkpt>
      <trkpt lat="45.14929" lon="5.77674">
        <ele>585</ele>
        <time>2019-05-24T10:43:05.080Z</time>
      </trkpt>
      <trkpt lat="45.1493" lon="5.77674">
        <ele>585</ele>
        <time>2019-05-24T10:43:06.080Z</time>
      </trkpt>
      <trkpt lat="45.14932" lon="5.77675">
        <ele>584</ele>
        <time>2019-05-24T10:43:07.080Z</time>
      </trkpt>
      <trkpt lat="45.14934" lon="5.77675">
        <ele>583</ele>
        <time>2019-05-24T10:43:08.080Z</time>
      </trkpt>
      <trkpt lat="45.14936" lon="5.77676">
        <ele>582</ele>
        <time>2019-05-24T10:43:09.080Z</time>
      </trkpt>
      <trkpt lat="45.14938" lon="5.77676">
        <ele>584</ele>
        <time>2019-05-24T10:43:10.080Z</time>
      </trkpt>
      <trkpt lat="45.1494" lon="5.77677">
        <ele>584</ele>
        <time>2019-05-24T10:43:11.080Z</time>
      </trkpt>
      <trkpt lat="45.14942" lon="5.77677">
        <ele>584</ele>
        <time>2019-05-24T10:43:12.080Z</time>
      </trkpt>
      <trkpt lat="45.14944" lon="5.77678">
        <ele>584</ele>
        <time>2019-05-24T10:43:13.080Z</time>
      </trkpt>
      <trkpt lat="45.14945" lon="5.7768">
        <ele>584</ele>
        <time>2019-05-24T10:43:14.080Z</time>
      </trkpt>
      <trkpt lat="45.14945" lon="5.7768">
        <ele>584</ele>
        <time>2019-05-24T10:43:15.080Z</time>
      </trkpt>
      <trkpt lat="45.14947" lon="5.77681">
        <ele>584</ele>
        <time>2019-05-24T10:43:16.080Z</time>
      </trkpt>
      <trkpt lat="45.14949" lon="5.77683">
        <ele>584</ele>
        <time>2019-05-24T10:43:17.080Z</time>
      </trkpt>
      <trkpt lat="45.14951" lon="5.77684">
        <ele>585</ele>
        <time>2019-05-24T10:43:18.080Z</time>
      </trkpt>
      <trkpt lat="45.14952" lon="5.77685">
        <ele>587</ele>
        <time>2019-05-24T10:43:19.080Z</time>
      </trkpt>
      <trkpt lat="45.14953" lon="5.77686">
        <ele>587</ele>
        <time>2019-05-24T10:43:20.080Z</time>
      </trkpt>
      <trkpt lat="45.14954" lon="5.77688">
        <ele>585</ele>
        <time>2019-05-24T10:43:21.080Z</time>
      </trkpt>
      <trkpt lat="45.14955" lon="5.77688">
        <ele>585</ele>
        <time>2019-05-24T10:43:22.080Z</time>
      </trkpt>
      <trkpt lat="45.14956" lon="5.7769">
        <ele>584</ele>
        <time>2019-05-24T10:43:23.080Z</time>
      </trkpt>
      <trkpt lat="45.14958" lon="5.77692">
        <ele>584</ele>
        <time>2019-05-24T10:43:24.080Z</time>
      </trkpt>
      <trkpt lat="45.14959" lon="5.77694">
        <ele>585</ele>
        <time>2019-05-24T10:43:25.080Z</time>
      </trkpt>
      <trkpt lat="45.14961" lon="5.77697">
        <ele>586</ele>
        <time>2019-05-24T10:43:26.080Z</time>
      </trkpt>
      <trkpt lat="45.14961" lon="5.77697">
        <ele>586</ele>
        <time>2019-05-24T10:43:27.080Z</time>
      </trkpt>
      <trkpt lat="45.14962" lon="5.77699">
        <ele>589</ele>
        <time>2019-05-24T10:43:28.080Z</time>
      </trkpt>
      <trkpt lat="45.14963" lon="5.77702">
        <ele>592</ele>
        <time>2019-05-24T10:43:29.080Z</time>
      </trkpt>
      <trkpt lat="45.14964" lon="5.77704">
        <ele>596</ele>
        <time>2019-05-24T10:43:30.080Z</time>
      </trkpt>
      <trkpt lat="45.14965" lon="5.77705">
        <ele>597</ele>
        <time>2019-05-24T10:43:31.080Z</time>
      </trkpt>
      <trkpt lat="45.14967" lon="5.77707">
        <ele>599</ele>
        <time>2019-05-24T10:43:32.080Z</time>
      </trkpt>
      <trkpt lat="45.14968" lon="5.77709">
        <ele>599</ele>
        <time>2019-05-24T10:43:33.080Z</time>
      </trkpt>
      <trkpt lat="45.1497" lon="5.77712">
        <ele>598</ele>
        <time>2019-05-24T10:43:34.080Z</time>
      </trkpt>
      <trkpt lat="45.14971" lon="5.77714">
        <ele>598</ele>
        <time>2019-05-24T10:43:35.080Z</time>
      </trkpt>
      <trkpt lat="45.14971" lon="5.77717">
        <ele>595</ele>
        <time>2019-05-24T10:43:36.080Z</time>
      </trkpt>
      <trkpt lat="45.14972" lon="5.77721">
        <ele>593</ele>
        <time>2019-05-24T10:43:37.080Z</time>
      </trkpt>
      <trkpt lat="45.14973" lon="5.77724">
        <ele>596</ele>
        <time>2019-05-24T10:43:38.080Z</time>
      </trkpt>
      <trkpt lat="45.14974" lon="5.77726">
        <ele>599</ele>
        <time>2019-05-24T10:43:39.080Z</time>
      </trkpt>
      <trkpt lat="45.14975" lon="5.77727">
        <ele>600</ele>
        <time>2019-05-24T10:43:40.080Z</time>
      </trkpt>
      <trkpt lat="45.14977" lon="5.77728">
        <ele>602</ele>
        <time>2019-05-24T10:43:41.080Z</time>
      </trkpt>
      <trkpt lat="45.14978" lon="5.77729">
        <ele>604</ele>
        <time>2019-05-24T10:43:42.080Z</time>
      </trkpt>
      <trkpt lat="45.14978" lon="5.77729">
        <ele>604</ele>
        <time>2019-05-24T10:43:43.080Z</time>
      </trkpt>
      <trkpt lat="45.14979" lon="5.7773">
        <ele>603</ele>
        <time>2019-05-24T10:43:44.080Z</time>
      </trkpt>
      <trkpt lat="45.14981" lon="5.77732">
        <ele>600</ele>
        <time>2019-05-24T10:43:45.080Z</time>
      </trkpt>
      <trkpt lat="45.14982" lon="5.77733">
        <ele>602</ele>
        <time>2019-05-24T10:43:46.080Z</time>
      </trkpt>
      <trkpt lat="45.14984" lon="5.77734">
        <ele>603</ele>
        <time>2019-05-24T10:43:47.080Z</time>
      </trkpt>
      <trkpt lat="45.14985" lon="5.77735">
        <ele>603</ele>
        <time>2019-05-24T10:43:48.080Z</time>
      </trkpt>
      <trkpt lat="45.14986" lon="5.77736">
        <ele>606</ele>
        <time>2019-05-24T10:43:49.080Z</time>
      </trkpt>
      <trkpt lat="45.14987" lon="5.77737">
        <ele>605</ele>
        <time>2019-05-24T10:43:50.080Z</time>
      </trkpt>
      <trkpt lat="45.14989" lon="5.77738">
        <ele>604</ele>
        <time>2019-05-24T10:43:51.080Z</time>
      </trkpt>
      <trkpt lat="45.1499" lon="5.77739">
        <ele>604</ele>
        <time>2019-05-24T10:43:52.080Z</time>
      </trkpt>
      <trkpt lat="45.14992" lon="5.77739">
        <ele>607</ele>
        <time>2019-05-24T10:43:53.080Z</time>
      </trkpt>
      <trkpt lat="45.14993" lon="5.7774">
        <ele>606</ele>
        <time>2019-05-24T10:43:54.080Z</time>
      </trkpt>
      <trkpt lat="45.14995" lon="5.77741">
        <ele>604</ele>
        <time>2019-05-24T10:43:55.080Z</time>
      </trkpt>
      <trkpt lat="45.14996" lon="5.77742">
        <ele>600</ele>
        <time>2019-05-24T10:43:56.080Z</time>
      </trkpt>
      <trkpt lat="45.14997" lon="5.77743">
        <ele>600</ele>
        <time>2019-05-24T10:43:57.080Z</time>
      </trkpt>
      <trkpt lat="45.14997" lon="5.77743">
        <ele>600</ele>
        <time>2019-05-24T10:43:58.080Z</time>
      </trkpt>
      <trkpt lat="45.14998" lon="5.77745">
        <ele>599</ele>
        <time>2019-05-24T10:43:59.080Z</time>
      </trkpt>
      <trkpt lat="45.14999" lon="5.77746">
        <ele>600</ele>
        <time>2019-05-24T10:44:00.080Z</time>
      </trkpt>
      <trkpt lat="45.15" lon="5.77748">
        <ele>601</ele>
        <time>2019-05-24T10:44:01.080Z</time>
      </trkpt>
      <trkpt lat="45.15001" lon="5.77749">
        <ele>603</ele>
        <time>2019-05-24T10:44:02.080Z</time>
      </trkpt>
      <trkpt lat="45.15002" lon="5.77751">
        <ele>605</ele>
        <time>2019-05-24T10:44:03.080Z</time>
      </trkpt>
      <trkpt lat="45.15003" lon="5.77752">
        <ele>605</ele>
        <time>2019-05-24T10:44:04.080Z</time>
      </trkpt>
      <trkpt lat="45.15004" lon="5.77753">
        <ele>605</ele>
        <time>2019-05-24T10:44:05.080Z</time>
      </trkpt>
      <trkpt lat="45.15004" lon="5.77754">
        <ele>606</ele>
        <time>2019-05-24T10:44:06.080Z</time>
      </trkpt>
      <trkpt lat="45.15005" lon="5.77755">
        <ele>606</ele>
        <time>2019-05-24T10:44:07.080Z</time>
      </trkpt>
      <trkpt lat="45.15005" lon="5.77755">
        <ele>607</ele>
        <time>2019-05-24T10:44:08.080Z</time>
      </trkpt>
      <trkpt lat="45.15006" lon="5.77756">
        <ele>607</ele>
        <time>2019-05-24T10:44:09.080Z</time>
      </trkpt>
      <trkpt lat="45.15008" lon="5.77757">
        <ele>608</ele>
        <time>2019-05-24T10:44:10.080Z</time>
      </trkpt>
      <trkpt lat="45.15009" lon="5.77758">
        <ele>609</ele>
        <time>2019-05-24T10:44:11.080Z</time>
      </trkpt>
      <trkpt lat="45.15009" lon="5.77758">
        <ele>609</ele>
        <time>2019-05-24T10:44:12.080Z</time>
      </trkpt>
      <trkpt lat="45.1501" lon="5.7776">
        <ele>608</ele>
        <time>2019-05-24T10:44:13.080Z</time>
      </trkpt>
      <trkpt lat="45.15011" lon="5.77761">
        <ele>605</ele>
        <time>2019-05-24T10:44:14.080Z</time>
      </trkpt>
      <trkpt lat="45.15012" lon="5.77762">
        <ele>605</ele>
        <time>2019-05-24T10:44:15.080Z</time>
      </trkpt>
      <trkpt lat="45.15014" lon="5.77764">
        <ele>606</ele>
        <time>2019-05-24T10:44:16.080Z</time>
      </trkpt>
      <trkpt lat="45.15015" lon="5.77765">
        <ele>608</ele>
        <time>2019-05-24T10:44:17.080Z</time>
      </trkpt>
      <trkpt lat="45.15017" lon="5.77765">
        <ele>611</ele>
        <time>2019-05-24T10:44:18.080Z</time>
      </trkpt>
      <trkpt lat="45.15018" lon="5.77766">
        <ele>611</ele>
        <time>2019-05-24T10:44:19.080Z</time>
      </trkpt>
      <trkpt lat="45.1502" lon="5.77767">
        <ele>611</ele>
        <time>2019-05-24T10:44:20.080Z</time>
      </trkpt>
      <trkpt lat="45.15021" lon="5.77767">
        <ele>609</ele>
        <time>2019-05-24T10:44:21.080Z</time>
      </trkpt>
      <trkpt lat="45.15022" lon="5.77769">
        <ele>607</ele>
        <time>2019-05-24T10:44:22.080Z</time>
      </trkpt>
      <trkpt lat="45.15023" lon="5.7777">
        <ele>606</ele>
        <time>2019-05-24T10:44:23.080Z</time>
      </trkpt>
      <trkpt lat="45.15025" lon="5.77771">
        <ele>605</ele>
        <time>2019-05-24T10:44:24.080Z</time>
      </trkpt>
      <trkpt lat="45.15026" lon="5.77773">
        <ele>605</ele>
        <time>2019-05-24T10:44:25.080Z</time>
      </trkpt>
      <trkpt lat="45.15026" lon="5.77774">
        <ele>604</ele>
        <time>2019-05-24T10:44:26.080Z</time>
      </trkpt>
      <trkpt lat="45.15026" lon="5.77774">
        <ele>604</ele>
        <time>2019-05-24T10:44:27.080Z</time>
      </trkpt>
      <trkpt lat="45.15027" lon="5.77775">
        <ele>604</ele>
        <time>2019-05-24T10:44:28.080Z</time>
      </trkpt>
      <trkpt lat="45.15028" lon="5.77775">
        <ele>605</ele>
        <time>2019-05-24T10:44:29.080Z</time>
      </trkpt>
      <trkpt lat="45.15029" lon="5.77776">
        <ele>607</ele>
        <time>2019-05-24T10:44:30.080Z</time>
      </trkpt>
      <trkpt lat="45.1503" lon="5.77777">
        <ele>605</ele>
        <time>2019-05-24T10:44:31.080Z</time>
      </trkpt>
      <trkpt lat="45.15032" lon="5.77778">
        <ele>604</ele>
        <time>2019-05-24T10:44:32.080Z</time>
      </trkpt>
      <trkpt lat="45.15033" lon="5.77779">
        <ele>603</ele>
        <time>2019-05-24T10:44:33.080Z</time>
      </trkpt>
      <trkpt lat="45.15035" lon="5.77779">
        <ele>602</ele>
        <time>2019-05-24T10:44:34.080Z</time>
      </trkpt>
      <trkpt lat="45.15036" lon="5.77779">
        <ele>602</ele>
        <time>2019-05-24T10:44:35.080Z</time>
      </trkpt>
      <trkpt lat="45.15037" lon="5.77779">
        <ele>606</ele>
        <time>2019-05-24T10:44:36.080Z</time>
      </trkpt>
      <trkpt lat="45.15038" lon="5.77777">
        <ele>611</ele>
        <time>2019-05-24T10:44:37.080Z</time>
      </trkpt>
      <trkpt lat="45.15038" lon="5.77776">
        <ele>615</ele>
        <time>2019-05-24T10:44:38.080Z</time>
      </trkpt>
      <trkpt lat="45.15038" lon="5.77776">
        <ele>615</ele>
        <time>2019-05-24T10:44:39.080Z</time>
      </trkpt>
      <trkpt lat="45.15038" lon="5.77774">
        <ele>615</ele>
        <time>2019-05-24T10:44:40.080Z</time>
      </trkpt>
      <trkpt lat="45.15039" lon="5.77771">
        <ele>616</ele>
        <time>2019-05-24T10:44:41.080Z</time>
      </trkpt>
      <trkpt lat="45.15039" lon="5.77769">
        <ele>616</ele>
        <time>2019-05-24T10:44:42.080Z</time>
      </trkpt>
      <trkpt lat="45.1504" lon="5.77767">
        <ele>614</ele>
        <time>2019-05-24T10:44:43.080Z</time>
      </trkpt>
      <trkpt lat="45.15041" lon="5.77767">
        <ele>614</ele>
        <time>2019-05-24T10:44:44.080Z</time>
      </trkpt>
      <trkpt lat="45.15042" lon="5.77765">
        <ele>614</ele>
        <time>2019-05-24T10:44:45.080Z</time>
      </trkpt>
      <trkpt lat="45.15043" lon="5.77763">
        <ele>615</ele>
        <time>2019-05-24T10:44:46.080Z</time>
      </trkpt>
      <trkpt lat="45.15045" lon="5.77762">
        <ele>620</ele>
        <time>2019-05-24T10:44:47.080Z</time>
      </trkpt>
      <trkpt lat="45.15046" lon="5.77762">
        <ele>621</ele>
        <time>2019-05-24T10:44:48.080Z</time>
      </trkpt>
      <trkpt lat="45.15047" lon="5.7776">
        <ele>622</ele>
        <time>2019-05-24T10:44:49.080Z</time>
      </trkpt>
      <trkpt lat="45.15049" lon="5.77759">
        <ele>621</ele>
        <time>2019-05-24T10:44:50.080Z</time>
      </trkpt>
      <trkpt lat="45.15049" lon="5.77759">
        <ele>621</ele>
        <time>2019-05-24T10:44:51.080Z</time>
      </trkpt>
      <trkpt lat="45.1505" lon="5.77758">
        <ele>621</ele>
        <time>2019-05-24T10:44:52.080Z</time>
      </trkpt>
      <trkpt lat="45.15052" lon="5.77757">
        <ele>621</ele>
        <time>2019-05-24T10:44:53.080Z</time>
      </trkpt>
      <trkpt lat="45.15054" lon="5.77755">
        <ele>622</ele>
        <time>2019-05-24T10:44:54.080Z</time>
      </trkpt>
      <trkpt lat="45.15057" lon="5.77753">
        <ele>624</ele>
        <time>2019-05-24T10:44:55.080Z</time>
      </trkpt>
      <trkpt lat="45.15058" lon="5.77752">
        <ele>629</ele>
        <time>2019-05-24T10:44:56.080Z</time>
      </trkpt>
      <trkpt lat="45.1506" lon="5.77752">
        <ele>627</ele>
        <time>2019-05-24T10:44:57.080Z</time>
      </trkpt>
      <trkpt lat="45.15061" lon="5.77751">
        <ele>627</ele>
        <time>2019-05-24T10:44:58.080Z</time>
      </trkpt>
      <trkpt lat="45.15063" lon="5.7775">
        <ele>626</ele>
        <time>2019-05-24T10:44:59.080Z</time>
      </trkpt>
      <trkpt lat="45.15064" lon="5.7775">
        <ele>627</ele>
        <time>2019-05-24T10:45:00.080Z</time>
      </trkpt>
      <trkpt lat="45.15066" lon="5.77748">
        <ele>627</ele>
        <time>2019-05-24T10:45:01.080Z</time>
      </trkpt>
      <trkpt lat="45.15066" lon="5.77748">
        <ele>627</ele>
        <time>2019-05-24T10:45:02.080Z</time>
      </trkpt>
      <trkpt lat="45.15068" lon="5.77747">
        <ele>627</ele>
        <time>2019-05-24T10:45:03.080Z</time>
      </trkpt>
      <trkpt lat="45.15069" lon="5.77747">
        <ele>626</ele>
        <time>2019-05-24T10:45:04.080Z</time>
      </trkpt>
      <trkpt lat="45.1507" lon="5.77746">
        <ele>624</ele>
        <time>2019-05-24T10:45:05.080Z</time>
      </trkpt>
      <trkpt lat="45.15072" lon="5.77744">
        <ele>622</ele>
        <time>2019-05-24T10:45:06.080Z</time>
      </trkpt>
      <trkpt lat="45.15073" lon="5.77743">
        <ele>621</ele>
        <time>2019-05-24T10:45:07.080Z</time>
      </trkpt>
      <trkpt lat="45.15075" lon="5.77742">
        <ele>621</ele>
        <time>2019-05-24T10:45:08.080Z</time>
      </trkpt>
      <trkpt lat="45.15077" lon="5.77741">
        <ele>621</ele>
        <time>2019-05-24T10:45:09.080Z</time>
      </trkpt>
      <trkpt lat="45.15078" lon="5.7774">
        <ele>621</ele>
        <time>2019-05-24T10:45:10.080Z</time>
      </trkpt>
      <trkpt lat="45.15079" lon="5.77738">
        <ele>622</ele>
        <time>2019-05-24T10:45:11.080Z</time>
      </trkpt>
      <trkpt lat="45.15081" lon="5.77737">
        <ele>622</ele>
        <time>2019-05-24T10:45:12.080Z</time>
      </trkpt>
      <trkpt lat="45.15081" lon="5.77737">
        <ele>622</ele>
        <time>2019-05-24T10:45:13.080Z</time>
      </trkpt>
      <trkpt lat="45.15082" lon="5.77736">
        <ele>622</ele>
        <time>2019-05-24T10:45:14.080Z</time>
      </trkpt>
      <trkpt lat="45.15084" lon="5.77735">
        <ele>622</ele>
        <time>2019-05-24T10:45:15.080Z</time>
      </trkpt>
      <trkpt lat="45.15085" lon="5.77734">
        <ele>621</ele>
        <time>2019-05-24T10:45:16.080Z</time>
      </trkpt>
      <trkpt lat="45.15087" lon="5.77734">
        <ele>621</ele>
        <time>2019-05-24T10:45:17.080Z</time>
      </trkpt>
      <trkpt lat="45.15088" lon="5.77733">
        <ele>621</ele>
        <time>2019-05-24T10:45:18.080Z</time>
      </trkpt>
      <trkpt lat="45.15089" lon="5.77733">
        <ele>622</ele>
        <time>2019-05-24T10:45:19.080Z</time>
      </trkpt>
      <trkpt lat="45.1509" lon="5.77733">
        <ele>622</ele>
        <time>2019-05-24T10:45:20.080Z</time>
      </trkpt>
      <trkpt lat="45.1509" lon="5.77732">
        <ele>620</ele>
        <time>2019-05-24T10:45:21.080Z</time>
      </trkpt>
      <trkpt lat="45.1509" lon="5.77732">
        <ele>620</ele>
        <time>2019-05-24T10:45:22.080Z</time>
      </trkpt>
      <trkpt lat="45.15092" lon="5.77731">
        <ele>620</ele>
        <time>2019-05-24T10:45:23.080Z</time>
      </trkpt>
      <trkpt lat="45.15093" lon="5.7773">
        <ele>620</ele>
        <time>2019-05-24T10:45:24.080Z</time>
      </trkpt>
      <trkpt lat="45.15094" lon="5.77729">
        <ele>619</ele>
        <time>2019-05-24T10:45:25.080Z</time>
      </trkpt>
      <trkpt lat="45.15095" lon="5.77727">
        <ele>620</ele>
        <time>2019-05-24T10:45:26.080Z</time>
      </trkpt>
      <trkpt lat="45.15096" lon="5.77726">
        <ele>620</ele>
        <time>2019-05-24T10:45:27.080Z</time>
      </trkpt>
      <trkpt lat="45.15098" lon="5.77725">
        <ele>622</ele>
        <time>2019-05-24T10:45:28.080Z</time>
      </trkpt>
      <trkpt lat="45.151" lon="5.77724">
        <ele>623</ele>
        <time>2019-05-24T10:45:29.080Z</time>
      </trkpt>
      <trkpt lat="45.15101" lon="5.77724">
        <ele>622</ele>
        <time>2019-05-24T10:45:30.080Z</time>
      </trkpt>
      <trkpt lat="45.15101" lon="5.77724">
        <ele>622</ele>
        <time>2019-05-24T10:45:31.080Z</time>
      </trkpt>
      <trkpt lat="45.15102" lon="5.77722">
        <ele>621</ele>
        <time>2019-05-24T10:45:32.080Z</time>
      </trkpt>
      <trkpt lat="45.15104" lon="5.77721">
        <ele>624</ele>
        <time>2019-05-24T10:45:33.080Z</time>
      </trkpt>
      <trkpt lat="45.15105" lon="5.7772">
        <ele>624</ele>
        <time>2019-05-24T10:45:34.080Z</time>
      </trkpt>
      <trkpt lat="45.15107" lon="5.77719">
        <ele>624</ele>
        <time>2019-05-24T10:45:35.080Z</time>
      </trkpt>
      <trkpt lat="45.15108" lon="5.77719">
        <ele>626</ele>
        <time>2019-05-24T10:45:36.080Z</time>
      </trkpt>
      <trkpt lat="45.1511" lon="5.77718">
        <ele>624</ele>
        <time>2019-05-24T10:45:37.080Z</time>
      </trkpt>
      <trkpt lat="45.15111" lon="5.77717">
        <ele>625</ele>
        <time>2019-05-24T10:45:38.080Z</time>
      </trkpt>
      <trkpt lat="45.15112" lon="5.77716">
        <ele>625</ele>
        <time>2019-05-24T10:45:39.080Z</time>
      </trkpt>
      <trkpt lat="45.15112" lon="5.77716">
        <ele>625</ele>
        <time>2019-05-24T10:45:40.080Z</time>
      </trkpt>
      <trkpt lat="45.15114" lon="5.77714">
        <ele>624</ele>
        <time>2019-05-24T10:45:41.080Z</time>
      </trkpt>
      <trkpt lat="45.15115" lon="5.77714">
        <ele>623</ele>
        <time>2019-05-24T10:45:42.080Z</time>
      </trkpt>
      <trkpt lat="45.15117" lon="5.77713">
        <ele>624</ele>
        <time>2019-05-24T10:45:43.080Z</time>
      </trkpt>
      <trkpt lat="45.15119" lon="5.77713">
        <ele>626</ele>
        <time>2019-05-24T10:45:44.080Z</time>
      </trkpt>
      <trkpt lat="45.1512" lon="5.77713">
        <ele>627</ele>
        <time>2019-05-24T10:45:45.080Z</time>
      </trkpt>
      <trkpt lat="45.15122" lon="5.77713">
        <ele>628</ele>
        <time>2019-05-24T10:45:46.080Z</time>
      </trkpt>
      <trkpt lat="45.15124" lon="5.77712">
        <ele>629</ele>
        <time>2019-05-24T10:45:47.080Z</time>
      </trkpt>
      <trkpt lat="45.15124" lon="5.77712">
        <ele>629</ele>
        <time>2019-05-24T10:45:48.080Z</time>
      </trkpt>
      <trkpt lat="45.15125" lon="5.77712">
        <ele>627</ele>
        <time>2019-05-24T10:45:49.080Z</time>
      </trkpt>
      <trkpt lat="45.15127" lon="5.77712">
        <ele>625</ele>
        <time>2019-05-24T10:45:50.080Z</time>
      </trkpt>
      <trkpt lat="45.15128" lon="5.77712">
        <ele>626</ele>
        <time>2019-05-24T10:45:51.080Z</time>
      </trkpt>
      <trkpt lat="45.15129" lon="5.77711">
        <ele>624</ele>
        <time>2019-05-24T10:45:52.080Z</time>
      </trkpt>
      <trkpt lat="45.1513" lon="5.77711">
        <ele>622</ele>
        <time>2019-05-24T10:45:53.080Z</time>
      </trkpt>
      <trkpt lat="45.15131" lon="5.7771">
        <ele>619</ele>
        <time>2019-05-24T10:45:54.080Z</time>
      </trkpt>
      <trkpt lat="45.15132" lon="5.7771">
        <ele>622</ele>
        <time>2019-05-24T10:45:55.080Z</time>
      </trkpt>
      <trkpt lat="45.15133" lon="5.77709">
        <ele>623</ele>
        <time>2019-05-24T10:45:56.080Z</time>
      </trkpt>
      <trkpt lat="45.15133" lon="5.77709">
        <ele>623</ele>
        <time>2019-05-24T10:45:57.080Z</time>
      </trkpt>
      <trkpt lat="45.15135" lon="5.77708">
        <ele>623</ele>
        <time>2019-05-24T10:45:58.080Z</time>
      </trkpt>
      <trkpt lat="45.15136" lon="5.77708">
        <ele>621</ele>
        <time>2019-05-24T10:45:59.080Z</time>
      </trkpt>
      <trkpt lat="45.15137" lon="5.77708">
        <ele>620</ele>
        <time>2019-05-24T10:46:00.080Z</time>
      </trkpt>
      <trkpt lat="45.15139" lon="5.77708">
        <ele>619</ele>
        <time>2019-05-24T10:46:01.080Z</time>
      </trkpt>
      <trkpt lat="45.15141" lon="5.77708">
        <ele>624</ele>
        <time>2019-05-24T10:46:02.080Z</time>
      </trkpt>
      <trkpt lat="45.15142" lon="5.77708">
        <ele>624</ele>
        <time>2019-05-24T10:46:03.080Z</time>
      </trkpt>
      <trkpt lat="45.15144" lon="5.77708">
        <ele>625</ele>
        <time>2019-05-24T10:46:04.080Z</time>
      </trkpt>
      <trkpt lat="45.15145" lon="5.77708">
        <ele>623</ele>
        <time>2019-05-24T10:46:05.080Z</time>
      </trkpt>
      <trkpt lat="45.15145" lon="5.77708">
        <ele>623</ele>
        <time>2019-05-24T10:46:06.080Z</time>
      </trkpt>
      <trkpt lat="45.15147" lon="5.77708">
        <ele>622</ele>
        <time>2019-05-24T10:46:07.080Z</time>
      </trkpt>
      <trkpt lat="45.15148" lon="5.77708">
        <ele>620</ele>
        <time>2019-05-24T10:46:08.080Z</time>
      </trkpt>
      <trkpt lat="45.1515" lon="5.77708">
        <ele>618</ele>
        <time>2019-05-24T10:46:09.080Z</time>
      </trkpt>
      <trkpt lat="45.15151" lon="5.77707">
        <ele>618</ele>
        <time>2019-05-24T10:46:10.080Z</time>
      </trkpt>
      <trkpt lat="45.15152" lon="5.77706">
        <ele>619</ele>
        <time>2019-05-24T10:46:11.080Z</time>
      </trkpt>
      <trkpt lat="45.15154" lon="5.77706">
        <ele>620</ele>
        <time>2019-05-24T10:46:12.080Z</time>
      </trkpt>
      <trkpt lat="45.15155" lon="5.77706">
        <ele>619</ele>
        <time>2019-05-24T10:46:13.080Z</time>
      </trkpt>
      <trkpt lat="45.15156" lon="5.77706">
        <ele>620</ele>
        <time>2019-05-24T10:46:14.080Z</time>
      </trkpt>
      <trkpt lat="45.15158" lon="5.77705">
        <ele>618</ele>
        <time>2019-05-24T10:46:15.080Z</time>
      </trkpt>
      <trkpt lat="45.15158" lon="5.77705">
        <ele>618</ele>
        <time>2019-05-24T10:46:16.080Z</time>
      </trkpt>
      <trkpt lat="45.15159" lon="5.77705">
        <ele>617</ele>
        <time>2019-05-24T10:46:17.080Z</time>
      </trkpt>
      <trkpt lat="45.1516" lon="5.77705">
        <ele>618</ele>
        <time>2019-05-24T10:46:18.080Z</time>
      </trkpt>
      <trkpt lat="45.15161" lon="5.77705">
        <ele>618</ele>
        <time>2019-05-24T10:46:19.080Z</time>
      </trkpt>
      <trkpt lat="45.15163" lon="5.77705">
        <ele>618</ele>
        <time>2019-05-24T10:46:20.080Z</time>
      </trkpt>
      <trkpt lat="45.15164" lon="5.77705">
        <ele>620</ele>
        <time>2019-05-24T10:46:21.080Z</time>
      </trkpt>
      <trkpt lat="45.15165" lon="5.77704">
        <ele>621</ele>
        <time>2019-05-24T10:46:22.080Z</time>
      </trkpt>
      <trkpt lat="45.15167" lon="5.77704">
        <ele>627</ele>
        <time>2019-05-24T10:46:23.080Z</time>
      </trkpt>
      <trkpt lat="45.15169" lon="5.77704">
        <ele>629</ele>
        <time>2019-05-24T10:46:24.080Z</time>
      </trkpt>
      <trkpt lat="45.15169" lon="5.77704">
        <ele>629</ele>
        <time>2019-05-24T10:46:25.080Z</time>
      </trkpt>
      <trkpt lat="45.1517" lon="5.77704">
        <ele>629</ele>
        <time>2019-05-24T10:46:26.080Z</time>
      </trkpt>
      <trkpt lat="45.15171" lon="5.77705">
        <ele>630</ele>
        <time>2019-05-24T10:46:27.080Z</time>
      </trkpt>
      <trkpt lat="45.15172" lon="5.77705">
        <ele>630</ele>
        <time>2019-05-24T10:46:28.080Z</time>
      </trkpt>
      <trkpt lat="45.15173" lon="5.77705">
        <ele>629</ele>
        <time>2019-05-24T10:46:29.080Z</time>
      </trkpt>
      <trkpt lat="45.15175" lon="5.77705">
        <ele>632</ele>
        <time>2019-05-24T10:46:30.080Z</time>
      </trkpt>
      <trkpt lat="45.15175" lon="5.77704">
        <ele>632</ele>
        <time>2019-05-24T10:46:31.080Z</time>
      </trkpt>
      <trkpt lat="45.15177" lon="5.77704">
        <ele>631</ele>
        <time>2019-05-24T10:46:32.080Z</time>
      </trkpt>
      <trkpt lat="45.15178" lon="5.77703">
        <ele>630</ele>
        <time>2019-05-24T10:46:33.080Z</time>
      </trkpt>
      <trkpt lat="45.15179" lon="5.77702">
        <ele>632</ele>
        <time>2019-05-24T10:46:34.080Z</time>
      </trkpt>
      <trkpt lat="45.15179" lon="5.77702">
        <ele>632</ele>
        <time>2019-05-24T10:46:35.080Z</time>
      </trkpt>
      <trkpt lat="45.1518" lon="5.77701">
        <ele>631</ele>
        <time>2019-05-24T10:46:36.080Z</time>
      </trkpt>
      <trkpt lat="45.15181" lon="5.77701">
        <ele>632</ele>
        <time>2019-05-24T10:46:37.080Z</time>
      </trkpt>
      <trkpt lat="45.15182" lon="5.777">
        <ele>632</ele>
        <time>2019-05-24T10:46:38.080Z</time>
      </trkpt>
      <trkpt lat="45.15184" lon="5.77699">
        <ele>633</ele>
        <time>2019-05-24T10:46:39.080Z</time>
      </trkpt>
      <trkpt lat="45.15186" lon="5.77698">
        <ele>632</ele>
        <time>2019-05-24T10:46:40.080Z</time>
      </trkpt>
      <trkpt lat="45.15187" lon="5.77697">
        <ele>631</ele>
        <time>2019-05-24T10:46:41.080Z</time>
      </trkpt>
      <trkpt lat="45.15189" lon="5.77695">
        <ele>634</ele>
        <time>2019-05-24T10:46:42.080Z</time>
      </trkpt>
      <trkpt lat="45.15191" lon="5.77695">
        <ele>635</ele>
        <time>2019-05-24T10:46:43.080Z</time>
      </trkpt>
      <trkpt lat="45.15193" lon="5.77694">
        <ele>634</ele>
        <time>2019-05-24T10:46:44.080Z</time>
      </trkpt>
      <trkpt lat="45.15193" lon="5.77694">
        <ele>634</ele>
        <time>2019-05-24T10:46:45.080Z</time>
      </trkpt>
      <trkpt lat="45.15195" lon="5.77693">
        <ele>634</ele>
        <time>2019-05-24T10:46:46.080Z</time>
      </trkpt>
      <trkpt lat="45.15197" lon="5.77692">
        <ele>634</ele>
        <time>2019-05-24T10:46:47.080Z</time>
      </trkpt>
      <trkpt lat="45.15199" lon="5.77691">
        <ele>635</ele>
        <time>2019-05-24T10:46:48.080Z</time>
      </trkpt>
      <trkpt lat="45.152" lon="5.7769">
        <ele>636</ele>
        <time>2019-05-24T10:46:49.080Z</time>
      </trkpt>
      <trkpt lat="45.15201" lon="5.77688">
        <ele>637</ele>
        <time>2019-05-24T10:46:50.080Z</time>
      </trkpt>
      <trkpt lat="45.15203" lon="5.77686">
        <ele>639</ele>
        <time>2019-05-24T10:46:51.080Z</time>
      </trkpt>
      <trkpt lat="45.15205" lon="5.77685">
        <ele>640</ele>
        <time>2019-05-24T10:46:52.080Z</time>
      </trkpt>
      <trkpt lat="45.15207" lon="5.77684">
        <ele>642</ele>
        <time>2019-05-24T10:46:53.080Z</time>
      </trkpt>
      <trkpt lat="45.15208" lon="5.77682">
        <ele>646</ele>
        <time>2019-05-24T10:46:54.080Z</time>
      </trkpt>
      <trkpt lat="45.1521" lon="5.7768">
        <ele>648</ele>
        <time>2019-05-24T10:46:55.080Z</time>
      </trkpt>
      <trkpt lat="45.1521" lon="5.7768">
        <ele>648</ele>
        <time>2019-05-24T10:46:56.080Z</time>
      </trkpt>
      <trkpt lat="45.15212" lon="5.77678">
        <ele>651</ele>
        <time>2019-05-24T10:46:57.080Z</time>
      </trkpt>
      <trkpt lat="45.15214" lon="5.77677">
        <ele>651</ele>
        <time>2019-05-24T10:46:58.080Z</time>
      </trkpt>
      <trkpt lat="45.15215" lon="5.77676">
        <ele>652</ele>
        <time>2019-05-24T10:46:59.080Z</time>
      </trkpt>
      <trkpt lat="45.15217" lon="5.77675">
        <ele>652</ele>
        <time>2019-05-24T10:47:00.080Z</time>
      </trkpt>
      <trkpt lat="45.15218" lon="5.77674">
        <ele>650</ele>
        <time>2019-05-24T10:47:01.080Z</time>
      </trkpt>
      <trkpt lat="45.1522" lon="5.77672">
        <ele>650</ele>
        <time>2019-05-24T10:47:02.080Z</time>
      </trkpt>
      <trkpt lat="45.15221" lon="5.77672">
        <ele>650</ele>
        <time>2019-05-24T10:47:03.080Z</time>
      </trkpt>
      <trkpt lat="45.15222" lon="5.7767">
        <ele>648</ele>
        <time>2019-05-24T10:47:04.080Z</time>
      </trkpt>
      <trkpt lat="45.15223" lon="5.77669">
        <ele>647</ele>
        <time>2019-05-24T10:47:05.080Z</time>
      </trkpt>
      <trkpt lat="45.15224" lon="5.77667">
        <ele>648</ele>
        <time>2019-05-24T10:47:06.080Z</time>
      </trkpt>
      <trkpt lat="45.15224" lon="5.77667">
        <ele>648</ele>
        <time>2019-05-24T10:47:07.080Z</time>
      </trkpt>
      <trkpt lat="45.15225" lon="5.77666">
        <ele>648</ele>
        <time>2019-05-24T10:47:08.080Z</time>
      </trkpt>
      <trkpt lat="45.15226" lon="5.77665">
        <ele>645</ele>
        <time>2019-05-24T10:47:09.080Z</time>
      </trkpt>
      <trkpt lat="45.15228" lon="5.77664">
        <ele>644</ele>
        <time>2019-05-24T10:47:10.080Z</time>
      </trkpt>
      <trkpt lat="45.15229" lon="5.77663">
        <ele>642</ele>
        <time>2019-05-24T10:47:11.080Z</time>
      </trkpt>
      <trkpt lat="45.15231" lon="5.77662">
        <ele>642</ele>
        <time>2019-05-24T10:47:12.080Z</time>
      </trkpt>
      <trkpt lat="45.15232" lon="5.77661">
        <ele>639</ele>
        <time>2019-05-24T10:47:13.080Z</time>
      </trkpt>
      <trkpt lat="45.15235" lon="5.7766">
        <ele>641</ele>
        <time>2019-05-24T10:47:14.080Z</time>
      </trkpt>
      <trkpt lat="45.15236" lon="5.77659">
        <ele>640</ele>
        <time>2019-05-24T10:47:15.080Z</time>
      </trkpt>
      <trkpt lat="45.15236" lon="5.77659">
        <ele>640</ele>
        <time>2019-05-24T10:47:16.080Z</time>
      </trkpt>
      <trkpt lat="45.15237" lon="5.77657">
        <ele>638</ele>
        <time>2019-05-24T10:47:17.080Z</time>
      </trkpt>
      <trkpt lat="45.15238" lon="5.77656">
        <ele>634</ele>
        <time>2019-05-24T10:47:18.080Z</time>
      </trkpt>
      <trkpt lat="45.1524" lon="5.77654">
        <ele>632</ele>
        <time>2019-05-24T10:47:19.080Z</time>
      </trkpt>
      <trkpt lat="45.15241" lon="5.77653">
        <ele>632</ele>
        <time>2019-05-24T10:47:20.080Z</time>
      </trkpt>
      <trkpt lat="45.15243" lon="5.77651">
        <ele>632</ele>
        <time>2019-05-24T10:47:21.080Z</time>
      </trkpt>
      <trkpt lat="45.15244" lon="5.7765">
        <ele>632</ele>
        <time>2019-05-24T10:47:22.080Z</time>
      </trkpt>
      <trkpt lat="45.15246" lon="5.77648">
        <ele>633</ele>
        <time>2019-05-24T10:47:23.080Z</time>
      </trkpt>
      <trkpt lat="45.15248" lon="5.77647">
        <ele>634</ele>
        <time>2019-05-24T10:47:24.080Z</time>
      </trkpt>
      <trkpt lat="45.1525" lon="5.77647">
        <ele>635</ele>
        <time>2019-05-24T10:47:25.080Z</time>
      </trkpt>
      <trkpt lat="45.1525" lon="5.77647">
        <ele>635</ele>
        <time>2019-05-24T10:47:26.080Z</time>
      </trkpt>
      <trkpt lat="45.15251" lon="5.77646">
        <ele>634</ele>
        <time>2019-05-24T10:47:27.080Z</time>
      </trkpt>
      <trkpt lat="45.15252" lon="5.77645">
        <ele>633</ele>
        <time>2019-05-24T10:47:28.080Z</time>
      </trkpt>
      <trkpt lat="45.15254" lon="5.77645">
        <ele>635</ele>
        <time>2019-05-24T10:47:29.080Z</time>
      </trkpt>
      <trkpt lat="45.15256" lon="5.77645">
        <ele>634</ele>
        <time>2019-05-24T10:47:30.080Z</time>
      </trkpt>
      <trkpt lat="45.15258" lon="5.77645">
        <ele>636</ele>
        <time>2019-05-24T10:47:31.080Z</time>
      </trkpt>
      <trkpt lat="45.1526" lon="5.77644">
        <ele>637</ele>
        <time>2019-05-24T10:47:32.080Z</time>
      </trkpt>
      <trkpt lat="45.15262" lon="5.77643">
        <ele>637</ele>
        <time>2019-05-24T10:47:33.080Z</time>
      </trkpt>
      <trkpt lat="45.15263" lon="5.77642">
        <ele>638</ele>
        <time>2019-05-24T10:47:34.080Z</time>
      </trkpt>
      <trkpt lat="45.15263" lon="5.77642">
        <ele>638</ele>
        <time>2019-05-24T10:47:35.080Z</time>
      </trkpt>
      <trkpt lat="45.15265" lon="5.77641">
        <ele>639</ele>
        <time>2019-05-24T10:47:36.080Z</time>
      </trkpt>
      <trkpt lat="45.15265" lon="5.77639">
        <ele>638</ele>
        <time>2019-05-24T10:47:37.080Z</time>
      </trkpt>
      <trkpt lat="45.15267" lon="5.77637">
        <ele>640</ele>
        <time>2019-05-24T10:47:38.080Z</time>
      </trkpt>
      <trkpt lat="45.15268" lon="5.77634">
        <ele>640</ele>
        <time>2019-05-24T10:47:39.080Z</time>
      </trkpt>
      <trkpt lat="45.1527" lon="5.77633">
        <ele>640</ele>
        <time>2019-05-24T10:47:40.080Z</time>
      </trkpt>
      <trkpt lat="45.15272" lon="5.77632">
        <ele>640</ele>
        <time>2019-05-24T10:47:41.080Z</time>
      </trkpt>
      <trkpt lat="45.15273" lon="5.7763">
        <ele>640</ele>
        <time>2019-05-24T10:47:42.080Z</time>
      </trkpt>
      <trkpt lat="45.15274" lon="5.77629">
        <ele>640</ele>
        <time>2019-05-24T10:47:43.080Z</time>
      </trkpt>
      <trkpt lat="45.15274" lon="5.77629">
        <ele>640</ele>
        <time>2019-05-24T10:47:44.080Z</time>
      </trkpt>
      <trkpt lat="45.15276" lon="5.77627">
        <ele>641</ele>
        <time>2019-05-24T10:47:45.080Z</time>
      </trkpt>
      <trkpt lat="45.15278" lon="5.77625">
        <ele>642</ele>
        <time>2019-05-24T10:47:46.080Z</time>
      </trkpt>
      <trkpt lat="45.15281" lon="5.77623">
        <ele>642</ele>
        <time>2019-05-24T10:47:47.080Z</time>
      </trkpt>
      <trkpt lat="45.15283" lon="5.77621">
        <ele>640</ele>
        <time>2019-05-24T10:47:48.080Z</time>
      </trkpt>
      <trkpt lat="45.15285" lon="5.77619">
        <ele>638</ele>
        <time>2019-05-24T10:47:49.080Z</time>
      </trkpt>
      <trkpt lat="45.15287" lon="5.77618">
        <ele>635</ele>
        <time>2019-05-24T10:47:50.080Z</time>
      </trkpt>
      <trkpt lat="45.15289" lon="5.77616">
        <ele>635</ele>
        <time>2019-05-24T10:47:51.080Z</time>
      </trkpt>
      <trkpt lat="45.15289" lon="5.77616">
        <ele>635</ele>
        <time>2019-05-24T10:47:52.080Z</time>
      </trkpt>
      <trkpt lat="45.15291" lon="5.77613">
        <ele>635</ele>
        <time>2019-05-24T10:47:53.080Z</time>
      </trkpt>
      <trkpt lat="45.15292" lon="5.7761">
        <ele>637</ele>
        <time>2019-05-24T10:47:54.080Z</time>
      </trkpt>
      <trkpt lat="45.15294" lon="5.77607">
        <ele>639</ele>
        <time>2019-05-24T10:47:55.080Z</time>
      </trkpt>
      <trkpt lat="45.15295" lon="5.77605">
        <ele>638</ele>
        <time>2019-05-24T10:47:56.080Z</time>
      </trkpt>
      <trkpt lat="45.15297" lon="5.77602">
        <ele>636</ele>
        <time>2019-05-24T10:47:57.080Z</time>
      </trkpt>
      <trkpt lat="45.15299" lon="5.776">
        <ele>636</ele>
        <time>2019-05-24T10:47:58.080Z</time>
      </trkpt>
      <trkpt lat="45.15301" lon="5.77598">
        <ele>637</ele>
        <time>2019-05-24T10:47:59.080Z</time>
      </trkpt>
      <trkpt lat="45.15303" lon="5.77595">
        <ele>639</ele>
        <time>2019-05-24T10:48:00.080Z</time>
      </trkpt>
      <trkpt lat="45.15303" lon="5.77595">
        <ele>639</ele>
        <time>2019-05-24T10:48:01.080Z</time>
      </trkpt>
      <trkpt lat="45.15305" lon="5.77592">
        <ele>639</ele>
        <time>2019-05-24T10:48:02.080Z</time>
      </trkpt>
      <trkpt lat="45.15308" lon="5.77589">
        <ele>641</ele>
        <time>2019-05-24T10:48:03.080Z</time>
      </trkpt>
      <trkpt lat="45.1531" lon="5.77587">
        <ele>639</ele>
        <time>2019-05-24T10:48:04.080Z</time>
      </trkpt>
      <trkpt lat="45.15313" lon="5.77584">
        <ele>640</ele>
        <time>2019-05-24T10:48:05.080Z</time>
      </trkpt>
      <trkpt lat="45.15315" lon="5.77581">
        <ele>640</ele>
        <time>2019-05-24T10:48:06.080Z</time>
      </trkpt>
      <trkpt lat="45.15317" lon="5.77578">
        <ele>642</ele>
        <time>2019-05-24T10:48:07.080Z</time>
      </trkpt>
      <trkpt lat="45.15319" lon="5.77575">
        <ele>644</ele>
        <time>2019-05-24T10:48:08.080Z</time>
      </trkpt>
      <trkpt lat="45.1532" lon="5.77572">
        <ele>646</ele>
        <time>2019-05-24T10:48:09.080Z</time>
      </trkpt>
      <trkpt lat="45.15322" lon="5.77569">
        <ele>646</ele>
        <time>2019-05-24T10:48:10.080Z</time>
      </trkpt>
      <trkpt lat="45.15322" lon="5.77569">
        <ele>646</ele>
        <time>2019-05-24T10:48:11.080Z</time>
      </trkpt>
      <trkpt lat="45.15324" lon="5.77567">
        <ele>645</ele>
        <time>2019-05-24T10:48:12.080Z</time>
      </trkpt>
      <trkpt lat="45.15325" lon="5.77565">
        <ele>646</ele>
        <time>2019-05-24T10:48:13.080Z</time>
      </trkpt>
      <trkpt lat="45.15327" lon="5.77562">
        <ele>645</ele>
        <time>2019-05-24T10:48:14.080Z</time>
      </trkpt>
      <trkpt lat="45.15328" lon="5.7756">
        <ele>645</ele>
        <time>2019-05-24T10:48:15.080Z</time>
      </trkpt>
      <trkpt lat="45.1533" lon="5.77558">
        <ele>643</ele>
        <time>2019-05-24T10:48:16.080Z</time>
      </trkpt>
      <trkpt lat="45.15333" lon="5.77557">
        <ele>643</ele>
        <time>2019-05-24T10:48:17.080Z</time>
      </trkpt>
      <trkpt lat="45.15335" lon="5.77555">
        <ele>643</ele>
        <time>2019-05-24T10:48:18.080Z</time>
      </trkpt>
      <trkpt lat="45.15335" lon="5.77555">
        <ele>643</ele>
        <time>2019-05-24T10:48:19.080Z</time>
      </trkpt>
      <trkpt lat="45.15338" lon="5.77554">
        <ele>643</ele>
        <time>2019-05-24T10:48:20.080Z</time>
      </trkpt>
      <trkpt lat="45.1534" lon="5.77553">
        <ele>640</ele>
        <time>2019-05-24T10:48:21.080Z</time>
      </trkpt>
      <trkpt lat="45.15341" lon="5.77551">
        <ele>638</ele>
        <time>2019-05-24T10:48:22.080Z</time>
      </trkpt>
      <trkpt lat="45.15343" lon="5.7755">
        <ele>638</ele>
        <time>2019-05-24T10:48:23.080Z</time>
      </trkpt>
      <trkpt lat="45.15345" lon="5.77548">
        <ele>639</ele>
        <time>2019-05-24T10:48:24.080Z</time>
      </trkpt>
      <trkpt lat="45.15347" lon="5.77547">
        <ele>639</ele>
        <time>2019-05-24T10:48:25.080Z</time>
      </trkpt>
      <trkpt lat="45.15349" lon="5.77546">
        <ele>638</ele>
        <time>2019-05-24T10:48:26.080Z</time>
      </trkpt>
      <trkpt lat="45.15351" lon="5.77544">
        <ele>638</ele>
        <time>2019-05-24T10:48:27.080Z</time>
      </trkpt>
      <trkpt lat="45.15353" lon="5.77543">
        <ele>637</ele>
        <time>2019-05-24T10:48:28.080Z</time>
      </trkpt>
      <trkpt lat="45.15355" lon="5.77542">
        <ele>635</ele>
        <time>2019-05-24T10:48:29.080Z</time>
      </trkpt>
      <trkpt lat="45.15357" lon="5.77542">
        <ele>637</ele>
        <time>2019-05-24T10:48:30.080Z</time>
      </trkpt>
      <trkpt lat="45.15358" lon="5.77541">
        <ele>636</ele>
        <time>2019-05-24T10:48:31.080Z</time>
      </trkpt>
      <trkpt lat="45.1536" lon="5.7754">
        <ele>637</ele>
        <time>2019-05-24T10:48:32.080Z</time>
      </trkpt>
      <trkpt lat="45.15362" lon="5.7754">
        <ele>638</ele>
        <time>2019-05-24T10:48:33.080Z</time>
      </trkpt>
      <trkpt lat="45.15364" lon="5.77539">
        <ele>642</ele>
        <time>2019-05-24T10:48:34.080Z</time>
      </trkpt>
      <trkpt lat="45.15367" lon="5.77539">
        <ele>643</ele>
        <time>2019-05-24T10:48:35.080Z</time>
      </trkpt>
      <trkpt lat="45.15369" lon="5.77539">
        <ele>643</ele>
        <time>2019-05-24T10:48:36.080Z</time>
      </trkpt>
      <trkpt lat="45.15371" lon="5.77537">
        <ele>642</ele>
        <time>2019-05-24T10:48:37.080Z</time>
      </trkpt>
      <trkpt lat="45.15373" lon="5.77537">
        <ele>642</ele>
        <time>2019-05-24T10:48:38.080Z</time>
      </trkpt>
      <trkpt lat="45.15375" lon="5.77536">
        <ele>641</ele>
        <time>2019-05-24T10:48:39.080Z</time>
      </trkpt>
      <trkpt lat="45.15377" lon="5.77534">
        <ele>640</ele>
        <time>2019-05-24T10:48:40.080Z</time>
      </trkpt>
      <trkpt lat="45.15379" lon="5.77534">
        <ele>641</ele>
        <time>2019-05-24T10:48:41.080Z</time>
      </trkpt>
      <trkpt lat="45.15381" lon="5.77533">
        <ele>645</ele>
        <time>2019-05-24T10:48:42.080Z</time>
      </trkpt>
      <trkpt lat="45.15383" lon="5.77533">
        <ele>651</ele>
        <time>2019-05-24T10:48:43.080Z</time>
      </trkpt>
      <trkpt lat="45.15385" lon="5.77532">
        <ele>651</ele>
        <time>2019-05-24T10:48:44.080Z</time>
      </trkpt>
      <trkpt lat="45.15387" lon="5.77532">
        <ele>651</ele>
        <time>2019-05-24T10:48:45.080Z</time>
      </trkpt>
      <trkpt lat="45.1539" lon="5.77532">
        <ele>653</ele>
        <time>2019-05-24T10:48:46.080Z</time>
      </trkpt>
      <trkpt lat="45.15392" lon="5.77532">
        <ele>653</ele>
        <time>2019-05-24T10:48:47.080Z</time>
      </trkpt>
      <trkpt lat="45.15395" lon="5.77532">
        <ele>654</ele>
        <time>2019-05-24T10:48:48.080Z</time>
      </trkpt>
      <trkpt lat="45.15397" lon="5.77532">
        <ele>654</ele>
        <time>2019-05-24T10:48:49.080Z</time>
      </trkpt>
      <trkpt lat="45.15399" lon="5.77532">
        <ele>654</ele>
        <time>2019-05-24T10:48:50.080Z</time>
      </trkpt>
      <trkpt lat="45.15401" lon="5.77532">
        <ele>653</ele>
        <time>2019-05-24T10:48:51.080Z</time>
      </trkpt>
      <trkpt lat="45.15403" lon="5.77532">
        <ele>652</ele>
        <time>2019-05-24T10:48:52.080Z</time>
      </trkpt>
      <trkpt lat="45.15406" lon="5.77531">
        <ele>653</ele>
        <time>2019-05-24T10:48:53.080Z</time>
      </trkpt>
      <trkpt lat="45.15408" lon="5.77532">
        <ele>652</ele>
        <time>2019-05-24T10:48:54.080Z</time>
      </trkpt>
      <trkpt lat="45.1541" lon="5.77532">
        <ele>650</ele>
        <time>2019-05-24T10:48:55.080Z</time>
      </trkpt>
      <trkpt lat="45.15412" lon="5.77533">
        <ele>649</ele>
        <time>2019-05-24T10:48:56.080Z</time>
      </trkpt>
      <trkpt lat="45.15413" lon="5.77532">
        <ele>650</ele>
        <time>2019-05-24T10:48:57.080Z</time>
      </trkpt>
      <trkpt lat="45.15415" lon="5.77532">
        <ele>650</ele>
        <time>2019-05-24T10:48:58.080Z</time>
      </trkpt>
      <trkpt lat="45.15418" lon="5.77532">
        <ele>651</ele>
        <time>2019-05-24T10:48:59.080Z</time>
      </trkpt>
      <trkpt lat="45.1542" lon="5.77533">
        <ele>650</ele>
        <time>2019-05-24T10:49:00.080Z</time>
      </trkpt>
      <trkpt lat="45.15422" lon="5.77533">
        <ele>649</ele>
        <time>2019-05-24T10:49:01.080Z</time>
      </trkpt>
      <trkpt lat="45.15424" lon="5.77534">
        <ele>650</ele>
        <time>2019-05-24T10:49:02.080Z</time>
      </trkpt>
      <trkpt lat="45.15426" lon="5.77535">
        <ele>651</ele>
        <time>2019-05-24T10:49:03.080Z</time>
      </trkpt>
      <trkpt lat="45.15428" lon="5.77536">
        <ele>651</ele>
        <time>2019-05-24T10:49:04.080Z</time>
      </trkpt>
      <trkpt lat="45.15431" lon="5.77537">
        <ele>651</ele>
        <time>2019-05-24T10:49:05.080Z</time>
      </trkpt>
      <trkpt lat="45.15433" lon="5.77538">
        <ele>652</ele>
        <time>2019-05-24T10:49:06.080Z</time>
      </trkpt>
      <trkpt lat="45.15436" lon="5.7754">
        <ele>651</ele>
        <time>2019-05-24T10:49:07.080Z</time>
      </trkpt>
      <trkpt lat="45.15438" lon="5.77541">
        <ele>654</ele>
        <time>2019-05-24T10:49:08.080Z</time>
      </trkpt>
      <trkpt lat="45.1544" lon="5.77541">
        <ele>654</ele>
        <time>2019-05-24T10:49:09.080Z</time>
      </trkpt>
      <trkpt lat="45.15443" lon="5.77542">
        <ele>656</ele>
        <time>2019-05-24T10:49:10.080Z</time>
      </trkpt>
      <trkpt lat="45.15445" lon="5.77543">
        <ele>658</ele>
        <time>2019-05-24T10:49:11.080Z</time>
      </trkpt>
      <trkpt lat="45.15447" lon="5.77543">
        <ele>659</ele>
        <time>2019-05-24T10:49:12.080Z</time>
      </trkpt>
      <trkpt lat="45.15449" lon="5.77543">
        <ele>661</ele>
        <time>2019-05-24T10:49:13.080Z</time>
      </trkpt>
      <trkpt lat="45.15451" lon="5.77544">
        <ele>661</ele>
        <time>2019-05-24T10:49:14.080Z</time>
      </trkpt>
      <trkpt lat="45.15453" lon="5.77545">
        <ele>660</ele>
        <time>2019-05-24T10:49:15.080Z</time>
      </trkpt>
      <trkpt lat="45.15455" lon="5.77545">
        <ele>661</ele>
        <time>2019-05-24T10:49:16.080Z</time>
      </trkpt>
      <trkpt lat="45.15457" lon="5.77545">
        <ele>660</ele>
        <time>2019-05-24T10:49:17.080Z</time>
      </trkpt>
      <trkpt lat="45.15459" lon="5.77546">
        <ele>660</ele>
        <time>2019-05-24T10:49:18.080Z</time>
      </trkpt>
      <trkpt lat="45.15461" lon="5.77546">
        <ele>661</ele>
        <time>2019-05-24T10:49:19.080Z</time>
      </trkpt>
      <trkpt lat="45.15462" lon="5.77548">
        <ele>662</ele>
        <time>2019-05-24T10:49:20.080Z</time>
      </trkpt>
      <trkpt lat="45.15464" lon="5.77549">
        <ele>662</ele>
        <time>2019-05-24T10:49:21.080Z</time>
      </trkpt>
      <trkpt lat="45.15466" lon="5.77551">
        <ele>661</ele>
        <time>2019-05-24T10:49:22.080Z</time>
      </trkpt>
      <trkpt lat="45.15468" lon="5.77552">
        <ele>660</ele>
        <time>2019-05-24T10:49:23.080Z</time>
      </trkpt>
      <trkpt lat="45.15469" lon="5.77553">
        <ele>659</ele>
        <time>2019-05-24T10:49:24.080Z</time>
      </trkpt>
      <trkpt lat="45.15472" lon="5.77554">
        <ele>659</ele>
        <time>2019-05-24T10:49:25.080Z</time>
      </trkpt>
      <trkpt lat="45.15474" lon="5.77554">
        <ele>659</ele>
        <time>2019-05-24T10:49:26.080Z</time>
      </trkpt>
      <trkpt lat="45.15475" lon="5.77556">
        <ele>659</ele>
        <time>2019-05-24T10:49:27.080Z</time>
      </trkpt>
      <trkpt lat="45.15478" lon="5.77556">
        <ele>660</ele>
        <time>2019-05-24T10:49:28.080Z</time>
      </trkpt>
      <trkpt lat="45.1548" lon="5.77556">
        <ele>663</ele>
        <time>2019-05-24T10:49:29.080Z</time>
      </trkpt>
      <trkpt lat="45.15482" lon="5.77557">
        <ele>664</ele>
        <time>2019-05-24T10:49:30.080Z</time>
      </trkpt>
      <trkpt lat="45.15484" lon="5.77558">
        <ele>665</ele>
        <time>2019-05-24T10:49:31.080Z</time>
      </trkpt>
      <trkpt lat="45.15486" lon="5.77558">
        <ele>668</ele>
        <time>2019-05-24T10:49:32.080Z</time>
      </trkpt>
      <trkpt lat="45.15488" lon="5.77559">
        <ele>668</ele>
        <time>2019-05-24T10:49:33.080Z</time>
      </trkpt>
      <trkpt lat="45.15489" lon="5.7756">
        <ele>669</ele>
        <time>2019-05-24T10:49:34.080Z</time>
      </trkpt>
      <trkpt lat="45.15491" lon="5.77561">
        <ele>671</ele>
        <time>2019-05-24T10:49:35.080Z</time>
      </trkpt>
      <trkpt lat="45.15493" lon="5.77562">
        <ele>672</ele>
        <time>2019-05-24T10:49:36.080Z</time>
      </trkpt>
      <trkpt lat="45.15495" lon="5.77563">
        <ele>671</ele>
        <time>2019-05-24T10:49:37.080Z</time>
      </trkpt>
      <trkpt lat="45.15497" lon="5.77565">
        <ele>670</ele>
        <time>2019-05-24T10:49:38.080Z</time>
      </trkpt>
      <trkpt lat="45.15499" lon="5.77566">
        <ele>669</ele>
        <time>2019-05-24T10:49:39.080Z</time>
      </trkpt>
      <trkpt lat="45.155" lon="5.77567">
        <ele>669</ele>
        <time>2019-05-24T10:49:40.080Z</time>
      </trkpt>
      <trkpt lat="45.15502" lon="5.77569">
        <ele>669</ele>
        <time>2019-05-24T10:49:41.080Z</time>
      </trkpt>
      <trkpt lat="45.15504" lon="5.77571">
        <ele>670</ele>
        <time>2019-05-24T10:49:42.080Z</time>
      </trkpt>
      <trkpt lat="45.15506" lon="5.77572">
        <ele>670</ele>
        <time>2019-05-24T10:49:43.080Z</time>
      </trkpt>
      <trkpt lat="45.15508" lon="5.77575">
        <ele>667</ele>
        <time>2019-05-24T10:49:44.080Z</time>
      </trkpt>
      <trkpt lat="45.1551" lon="5.77576">
        <ele>668</ele>
        <time>2019-05-24T10:49:45.080Z</time>
      </trkpt>
      <trkpt lat="45.15512" lon="5.77577">
        <ele>666</ele>
        <time>2019-05-24T10:49:46.080Z</time>
      </trkpt>
      <trkpt lat="45.15514" lon="5.77579">
        <ele>666</ele>
        <time>2019-05-24T10:49:47.080Z</time>
      </trkpt>
      <trkpt lat="45.15515" lon="5.77581">
        <ele>664</ele>
        <time>2019-05-24T10:49:48.080Z</time>
      </trkpt>
      <trkpt lat="45.15517" lon="5.77582">
        <ele>660</ele>
        <time>2019-05-24T10:49:49.080Z</time>
      </trkpt>
      <trkpt lat="45.15519" lon="5.77584">
        <ele>658</ele>
        <time>2019-05-24T10:49:50.080Z</time>
      </trkpt>
      <trkpt lat="45.1552" lon="5.77585">
        <ele>658</ele>
        <time>2019-05-24T10:49:51.080Z</time>
      </trkpt>
      <trkpt lat="45.15522" lon="5.77586">
        <ele>662</ele>
        <time>2019-05-24T10:49:52.080Z</time>
      </trkpt>
      <trkpt lat="45.15523" lon="5.77588">
        <ele>663</ele>
        <time>2019-05-24T10:49:53.080Z</time>
      </trkpt>
      <trkpt lat="45.15525" lon="5.77591">
        <ele>663</ele>
        <time>2019-05-24T10:49:54.080Z</time>
      </trkpt>
      <trkpt lat="45.15526" lon="5.77592">
        <ele>666</ele>
        <time>2019-05-24T10:49:55.080Z</time>
      </trkpt>
      <trkpt lat="45.15528" lon="5.77592">
        <ele>667</ele>
        <time>2019-05-24T10:49:56.080Z</time>
      </trkpt>
      <trkpt lat="45.1553" lon="5.77592">
        <ele>671</ele>
        <time>2019-05-24T10:49:57.080Z</time>
      </trkpt>
      <trkpt lat="45.15532" lon="5.77593">
        <ele>670</ele>
        <time>2019-05-24T10:49:58.080Z</time>
      </trkpt>
      <trkpt lat="45.15533" lon="5.77594">
        <ele>668</ele>
        <time>2019-05-24T10:49:59.080Z</time>
      </trkpt>
      <trkpt lat="45.15535" lon="5.77596">
        <ele>667</ele>
        <time>2019-05-24T10:50:00.080Z</time>
      </trkpt>
      <trkpt lat="45.15537" lon="5.77598">
        <ele>663</ele>
        <time>2019-05-24T10:50:01.080Z</time>
      </trkpt>
      <trkpt lat="45.15539" lon="5.77599">
        <ele>661</ele>
        <time>2019-05-24T10:50:02.080Z</time>
      </trkpt>
      <trkpt lat="45.15541" lon="5.77601">
        <ele>660</ele>
        <time>2019-05-24T10:50:03.080Z</time>
      </trkpt>
      <trkpt lat="45.15542" lon="5.77601">
        <ele>660</ele>
        <time>2019-05-24T10:50:04.080Z</time>
      </trkpt>
      <trkpt lat="45.15544" lon="5.77602">
        <ele>663</ele>
        <time>2019-05-24T10:50:05.080Z</time>
      </trkpt>
      <trkpt lat="45.15546" lon="5.77602">
        <ele>664</ele>
        <time>2019-05-24T10:50:06.080Z</time>
      </trkpt>
      <trkpt lat="45.15547" lon="5.77603">
        <ele>664</ele>
        <time>2019-05-24T10:50:07.080Z</time>
      </trkpt>
      <trkpt lat="45.15549" lon="5.77604">
        <ele>664</ele>
        <time>2019-05-24T10:50:08.080Z</time>
      </trkpt>
      <trkpt lat="45.15551" lon="5.77605">
        <ele>664</ele>
        <time>2019-05-24T10:50:09.080Z</time>
      </trkpt>
      <trkpt lat="45.15553" lon="5.77606">
        <ele>662</ele>
        <time>2019-05-24T10:50:10.080Z</time>
      </trkpt>
      <trkpt lat="45.15555" lon="5.77607">
        <ele>661</ele>
        <time>2019-05-24T10:50:11.080Z</time>
      </trkpt>
      <trkpt lat="45.15557" lon="5.77608">
        <ele>660</ele>
        <time>2019-05-24T10:50:12.080Z</time>
      </trkpt>
      <trkpt lat="45.15559" lon="5.77609">
        <ele>660</ele>
        <time>2019-05-24T10:50:13.080Z</time>
      </trkpt>
      <trkpt lat="45.1556" lon="5.7761">
        <ele>661</ele>
        <time>2019-05-24T10:50:14.080Z</time>
      </trkpt>
      <trkpt lat="45.15562" lon="5.77611">
        <ele>660</ele>
        <time>2019-05-24T10:50:15.080Z</time>
      </trkpt>
      <trkpt lat="45.15564" lon="5.77612">
        <ele>661</ele>
        <time>2019-05-24T10:50:16.080Z</time>
      </trkpt>
      <trkpt lat="45.15565" lon="5.77612">
        <ele>662</ele>
        <time>2019-05-24T10:50:17.080Z</time>
      </trkpt>
      <trkpt lat="45.15566" lon="5.77613">
        <ele>666</ele>
        <time>2019-05-24T10:50:18.080Z</time>
      </trkpt>
      <trkpt lat="45.15568" lon="5.77614">
        <ele>667</ele>
        <time>2019-05-24T10:50:19.080Z</time>
      </trkpt>
      <trkpt lat="45.15569" lon="5.77615">
        <ele>667</ele>
        <time>2019-05-24T10:50:20.080Z</time>
      </trkpt>
      <trkpt lat="45.15571" lon="5.77617">
        <ele>668</ele>
        <time>2019-05-24T10:50:21.080Z</time>
      </trkpt>
      <trkpt lat="45.15572" lon="5.77619">
        <ele>666</ele>
        <time>2019-05-24T10:50:22.080Z</time>
      </trkpt>
      <trkpt lat="45.15573" lon="5.7762">
        <ele>665</ele>
        <time>2019-05-24T10:50:23.080Z</time>
      </trkpt>
      <trkpt lat="45.15575" lon="5.77622">
        <ele>664</ele>
        <time>2019-05-24T10:50:24.080Z</time>
      </trkpt>
      <trkpt lat="45.15576" lon="5.77624">
        <ele>666</ele>
        <time>2019-05-24T10:50:25.080Z</time>
      </trkpt>
      <trkpt lat="45.15578" lon="5.77626">
        <ele>667</ele>
        <time>2019-05-24T10:50:26.080Z</time>
      </trkpt>
      <trkpt lat="45.1558" lon="5.77627">
        <ele>669</ele>
        <time>2019-05-24T10:50:27.080Z</time>
      </trkpt>
      <trkpt lat="45.15581" lon="5.77629">
        <ele>671</ele>
        <time>2019-05-24T10:50:28.080Z</time>
      </trkpt>
      <trkpt lat="45.15582" lon="5.77631">
        <ele>671</ele>
        <time>2019-05-24T10:50:29.080Z</time>
      </trkpt>
      <trkpt lat="45.15584" lon="5.77633">
        <ele>672</ele>
        <time>2019-05-24T10:50:30.080Z</time>
      </trkpt>
      <trkpt lat="45.15585" lon="5.77635">
        <ele>671</ele>
        <time>2019-05-24T10:50:31.080Z</time>
      </trkpt>
      <trkpt lat="45.15587" lon="5.77637">
        <ele>672</ele>
        <time>2019-05-24T10:50:32.080Z</time>
      </trkpt>
      <trkpt lat="45.15589" lon="5.77638">
        <ele>674</ele>
        <time>2019-05-24T10:50:33.080Z</time>
      </trkpt>
      <trkpt lat="45.1559" lon="5.77639">
        <ele>675</ele>
        <time>2019-05-24T10:50:34.080Z</time>
      </trkpt>
      <trkpt lat="45.15592" lon="5.7764">
        <ele>676</ele>
        <time>2019-05-24T10:50:35.080Z</time>
      </trkpt>
      <trkpt lat="45.15594" lon="5.77641">
        <ele>677</ele>
        <time>2019-05-24T10:50:36.080Z</time>
      </trkpt>
      <trkpt lat="45.15596" lon="5.77642">
        <ele>674</ele>
        <time>2019-05-24T10:50:37.080Z</time>
      </trkpt>
      <trkpt lat="45.15597" lon="5.77644">
        <ele>673</ele>
        <time>2019-05-24T10:50:38.080Z</time>
      </trkpt>
      <trkpt lat="45.15598" lon="5.77645">
        <ele>673</ele>
        <time>2019-05-24T10:50:39.080Z</time>
      </trkpt>
      <trkpt lat="45.15599" lon="5.77647">
        <ele>673</ele>
        <time>2019-05-24T10:50:40.080Z</time>
      </trkpt>
      <trkpt lat="45.156" lon="5.77649">
        <ele>671</ele>
        <time>2019-05-24T10:50:41.080Z</time>
      </trkpt>
      <trkpt lat="45.15602" lon="5.77651">
        <ele>670</ele>
        <time>2019-05-24T10:50:42.080Z</time>
      </trkpt>
      <trkpt lat="45.15603" lon="5.77652">
        <ele>672</ele>
        <time>2019-05-24T10:50:43.080Z</time>
      </trkpt>
      <trkpt lat="45.15604" lon="5.77654">
        <ele>673</ele>
        <time>2019-05-24T10:50:44.080Z</time>
      </trkpt>
      <trkpt lat="45.15605" lon="5.77655">
        <ele>677</ele>
        <time>2019-05-24T10:50:45.080Z</time>
      </trkpt>
      <trkpt lat="45.15607" lon="5.77656">
        <ele>678</ele>
        <time>2019-05-24T10:50:46.080Z</time>
      </trkpt>
      <trkpt lat="45.15608" lon="5.77657">
        <ele>677</ele>
        <time>2019-05-24T10:50:47.080Z</time>
      </trkpt>
      <trkpt lat="45.15609" lon="5.77658">
        <ele>676</ele>
        <time>2019-05-24T10:50:48.080Z</time>
      </trkpt>
      <trkpt lat="45.1561" lon="5.7766">
        <ele>675</ele>
        <time>2019-05-24T10:50:49.080Z</time>
      </trkpt>
      <trkpt lat="45.15612" lon="5.77661">
        <ele>674</ele>
        <time>2019-05-24T10:50:50.080Z</time>
      </trkpt>
      <trkpt lat="45.15613" lon="5.77664">
        <ele>670</ele>
        <time>2019-05-24T10:50:51.080Z</time>
      </trkpt>
      <trkpt lat="45.15615" lon="5.77666">
        <ele>667</ele>
        <time>2019-05-24T10:50:52.080Z</time>
      </trkpt>
      <trkpt lat="45.15616" lon="5.77667">
        <ele>669</ele>
        <time>2019-05-24T10:50:53.080Z</time>
      </trkpt>
      <trkpt lat="45.15618" lon="5.77668">
        <ele>672</ele>
        <time>2019-05-24T10:50:54.080Z</time>
      </trkpt>
      <trkpt lat="45.15619" lon="5.7767">
        <ele>675</ele>
        <time>2019-05-24T10:50:55.080Z</time>
      </trkpt>
      <trkpt lat="45.15621" lon="5.77671">
        <ele>673</ele>
        <time>2019-05-24T10:50:56.080Z</time>
      </trkpt>
      <trkpt lat="45.15622" lon="5.77673">
        <ele>672</ele>
        <time>2019-05-24T10:50:57.080Z</time>
      </trkpt>
      <trkpt lat="45.15623" lon="5.77675">
        <ele>673</ele>
        <time>2019-05-24T10:50:58.080Z</time>
      </trkpt>
      <trkpt lat="45.15624" lon="5.77677">
        <ele>675</ele>
        <time>2019-05-24T10:50:59.080Z</time>
      </trkpt>
      <trkpt lat="45.15626" lon="5.77679">
        <ele>676</ele>
        <time>2019-05-24T10:51:00.080Z</time>
      </trkpt>
      <trkpt lat="45.15627" lon="5.77681">
        <ele>678</ele>
        <time>2019-05-24T10:51:01.080Z</time>
      </trkpt>
      <trkpt lat="45.15628" lon="5.77684">
        <ele>677</ele>
        <time>2019-05-24T10:51:02.080Z</time>
      </trkpt>
      <trkpt lat="45.15628" lon="5.77686">
        <ele>675</ele>
        <time>2019-05-24T10:51:03.080Z</time>
      </trkpt>
      <trkpt lat="45.1563" lon="5.77688">
        <ele>675</ele>
        <time>2019-05-24T10:51:04.080Z</time>
      </trkpt>
      <trkpt lat="45.1563" lon="5.7769">
        <ele>675</ele>
        <time>2019-05-24T10:51:05.080Z</time>
      </trkpt>
      <trkpt lat="45.15632" lon="5.77693">
        <ele>676</ele>
        <time>2019-05-24T10:51:06.080Z</time>
      </trkpt>
      <trkpt lat="45.15633" lon="5.77695">
        <ele>676</ele>
        <time>2019-05-24T10:51:07.080Z</time>
      </trkpt>
      <trkpt lat="45.15634" lon="5.77698">
        <ele>676</ele>
        <time>2019-05-24T10:51:08.080Z</time>
      </trkpt>
      <trkpt lat="45.15635" lon="5.77701">
        <ele>676</ele>
        <time>2019-05-24T10:51:09.080Z</time>
      </trkpt>
      <trkpt lat="45.15636" lon="5.77703">
        <ele>675</ele>
        <time>2019-05-24T10:51:10.080Z</time>
      </trkpt>
      <trkpt lat="45.15636" lon="5.77706">
        <ele>676</ele>
        <time>2019-05-24T10:51:11.080Z</time>
      </trkpt>
      <trkpt lat="45.15637" lon="5.77708">
        <ele>676</ele>
        <time>2019-05-24T10:51:12.080Z</time>
      </trkpt>
      <trkpt lat="45.15638" lon="5.7771">
        <ele>679</ele>
        <time>2019-05-24T10:51:13.080Z</time>
      </trkpt>
      <trkpt lat="45.15638" lon="5.77713">
        <ele>681</ele>
        <time>2019-05-24T10:51:14.080Z</time>
      </trkpt>
      <trkpt lat="45.15639" lon="5.77715">
        <ele>682</ele>
        <time>2019-05-24T10:51:15.080Z</time>
      </trkpt>
      <trkpt lat="45.15639" lon="5.77717">
        <ele>682</ele>
        <time>2019-05-24T10:51:16.080Z</time>
      </trkpt>
      <trkpt lat="45.1564" lon="5.77719">
        <ele>682</ele>
        <time>2019-05-24T10:51:17.080Z</time>
      </trkpt>
      <trkpt lat="45.15641" lon="5.77721">
        <ele>681</ele>
        <time>2019-05-24T10:51:18.080Z</time>
      </trkpt>
      <trkpt lat="45.15641" lon="5.77723">
        <ele>683</ele>
        <time>2019-05-24T10:51:19.080Z</time>
      </trkpt>
      <trkpt lat="45.15642" lon="5.77725">
        <ele>685</ele>
        <time>2019-05-24T10:51:20.080Z</time>
      </trkpt>
      <trkpt lat="45.15643" lon="5.77726">
        <ele>687</ele>
        <time>2019-05-24T10:51:21.080Z</time>
      </trkpt>
      <trkpt lat="45.15643" lon="5.77728">
        <ele>689</ele>
        <time>2019-05-24T10:51:22.080Z</time>
      </trkpt>
      <trkpt lat="45.15644" lon="5.7773">
        <ele>690</ele>
        <time>2019-05-24T10:51:23.080Z</time>
      </trkpt>
      <trkpt lat="45.15645" lon="5.77732">
        <ele>690</ele>
        <time>2019-05-24T10:51:24.080Z</time>
      </trkpt>
      <trkpt lat="45.15647" lon="5.77735">
        <ele>688</ele>
        <time>2019-05-24T10:51:25.080Z</time>
      </trkpt>
      <trkpt lat="45.15649" lon="5.77738">
        <ele>688</ele>
        <time>2019-05-24T10:51:26.080Z</time>
      </trkpt>
      <trkpt lat="45.1565" lon="5.77741">
        <ele>687</ele>
        <time>2019-05-24T10:51:27.080Z</time>
      </trkpt>
      <trkpt lat="45.15652" lon="5.77744">
        <ele>685</ele>
        <time>2019-05-24T10:51:28.080Z</time>
      </trkpt>
      <trkpt lat="45.15653" lon="5.77747">
        <ele>682</ele>
        <time>2019-05-24T10:51:29.080Z</time>
      </trkpt>
      <trkpt lat="45.15655" lon="5.7775">
        <ele>682</ele>
        <time>2019-05-24T10:51:30.080Z</time>
      </trkpt>
      <trkpt lat="45.15656" lon="5.77752">
        <ele>683</ele>
        <time>2019-05-24T10:51:31.080Z</time>
      </trkpt>
      <trkpt lat="45.15657" lon="5.77754">
        <ele>683</ele>
        <time>2019-05-24T10:51:32.080Z</time>
      </trkpt>
      <trkpt lat="45.15657" lon="5.77757">
        <ele>683</ele>
        <time>2019-05-24T10:51:33.080Z</time>
      </trkpt>
      <trkpt lat="45.15659" lon="5.77759">
        <ele>684</ele>
        <time>2019-05-24T10:51:34.080Z</time>
      </trkpt>
      <trkpt lat="45.1566" lon="5.77762">
        <ele>685</ele>
        <time>2019-05-24T10:51:35.080Z</time>
      </trkpt>
      <trkpt lat="45.15661" lon="5.77765">
        <ele>684</ele>
        <time>2019-05-24T10:51:36.080Z</time>
      </trkpt>
      <trkpt lat="45.15662" lon="5.77768">
        <ele>684</ele>
        <time>2019-05-24T10:51:37.080Z</time>
      </trkpt>
      <trkpt lat="45.15663" lon="5.7777">
        <ele>685</ele>
        <time>2019-05-24T10:51:38.080Z</time>
      </trkpt>
      <trkpt lat="45.15663" lon="5.77772">
        <ele>689</ele>
        <time>2019-05-24T10:51:39.080Z</time>
      </trkpt>
      <trkpt lat="45.15664" lon="5.77774">
        <ele>689</ele>
        <time>2019-05-24T10:51:40.080Z</time>
      </trkpt>
      <trkpt lat="45.15665" lon="5.77776">
        <ele>691</ele>
        <time>2019-05-24T10:51:41.080Z</time>
      </trkpt>
      <trkpt lat="45.15666" lon="5.77779">
        <ele>691</ele>
        <time>2019-05-24T10:51:42.080Z</time>
      </trkpt>
      <trkpt lat="45.15667" lon="5.77781">
        <ele>691</ele>
        <time>2019-05-24T10:51:43.080Z</time>
      </trkpt>
      <trkpt lat="45.15668" lon="5.77783">
        <ele>693</ele>
        <time>2019-05-24T10:51:44.080Z</time>
      </trkpt>
      <trkpt lat="45.15669" lon="5.77785">
        <ele>694</ele>
        <time>2019-05-24T10:51:45.080Z</time>
      </trkpt>
      <trkpt lat="45.1567" lon="5.77787">
        <ele>693</ele>
        <time>2019-05-24T10:51:46.080Z</time>
      </trkpt>
      <trkpt lat="45.15672" lon="5.77789">
        <ele>693</ele>
        <time>2019-05-24T10:51:47.080Z</time>
      </trkpt>
      <trkpt lat="45.15673" lon="5.77791">
        <ele>690</ele>
        <time>2019-05-24T10:51:48.080Z</time>
      </trkpt>
      <trkpt lat="45.15673" lon="5.77794">
        <ele>690</ele>
        <time>2019-05-24T10:51:49.080Z</time>
      </trkpt>
      <trkpt lat="45.15675" lon="5.77796">
        <ele>690</ele>
        <time>2019-05-24T10:51:50.080Z</time>
      </trkpt>
      <trkpt lat="45.15676" lon="5.77799">
        <ele>690</ele>
        <time>2019-05-24T10:51:51.080Z</time>
      </trkpt>
      <trkpt lat="45.15677" lon="5.77802">
        <ele>689</ele>
        <time>2019-05-24T10:51:52.080Z</time>
      </trkpt>
      <trkpt lat="45.15678" lon="5.77805">
        <ele>687</ele>
        <time>2019-05-24T10:51:53.080Z</time>
      </trkpt>
      <trkpt lat="45.15679" lon="5.77808">
        <ele>681</ele>
        <time>2019-05-24T10:51:54.080Z</time>
      </trkpt>
      <trkpt lat="45.1568" lon="5.77811">
        <ele>681</ele>
        <time>2019-05-24T10:51:55.080Z</time>
      </trkpt>
      <trkpt lat="45.1568" lon="5.77814">
        <ele>681</ele>
        <time>2019-05-24T10:51:56.080Z</time>
      </trkpt>
      <trkpt lat="45.15681" lon="5.77817">
        <ele>681</ele>
        <time>2019-05-24T10:51:57.080Z</time>
      </trkpt>
      <trkpt lat="45.15682" lon="5.77819">
        <ele>680</ele>
        <time>2019-05-24T10:51:58.080Z</time>
      </trkpt>
      <trkpt lat="45.15683" lon="5.77822">
        <ele>679</ele>
        <time>2019-05-24T10:51:59.080Z</time>
      </trkpt>
      <trkpt lat="45.15684" lon="5.77825">
        <ele>683</ele>
        <time>2019-05-24T10:52:00.080Z</time>
      </trkpt>
      <trkpt lat="45.15685" lon="5.77827">
        <ele>685</ele>
        <time>2019-05-24T10:52:01.080Z</time>
      </trkpt>
      <trkpt lat="45.15686" lon="5.77831">
        <ele>686</ele>
        <time>2019-05-24T10:52:02.080Z</time>
      </trkpt>
      <trkpt lat="45.15686" lon="5.77834">
        <ele>686</ele>
        <time>2019-05-24T10:52:03.080Z</time>
      </trkpt>
      <trkpt lat="45.15687" lon="5.77837">
        <ele>686</ele>
        <time>2019-05-24T10:52:04.080Z</time>
      </trkpt>
      <trkpt lat="45.15687" lon="5.7784">
        <ele>687</ele>
        <time>2019-05-24T10:52:05.080Z</time>
      </trkpt>
      <trkpt lat="45.15688" lon="5.77844">
        <ele>687</ele>
        <time>2019-05-24T10:52:06.080Z</time>
      </trkpt>
      <trkpt lat="45.15689" lon="5.77847">
        <ele>686</ele>
        <time>2019-05-24T10:52:07.080Z</time>
      </trkpt>
      <trkpt lat="45.15689" lon="5.7785">
        <ele>680</ele>
        <time>2019-05-24T10:52:08.080Z</time>
      </trkpt>
      <trkpt lat="45.1569" lon="5.77854">
        <ele>677</ele>
        <time>2019-05-24T10:52:09.080Z</time>
      </trkpt>
      <trkpt lat="45.15691" lon="5.77858">
        <ele>679</ele>
        <time>2019-05-24T10:52:10.080Z</time>
      </trkpt>
      <trkpt lat="45.15691" lon="5.77861">
        <ele>684</ele>
        <time>2019-05-24T10:52:11.080Z</time>
      </trkpt>
      <trkpt lat="45.15691" lon="5.77865">
        <ele>687</ele>
        <time>2019-05-24T10:52:12.080Z</time>
      </trkpt>
      <trkpt lat="45.15692" lon="5.77868">
        <ele>688</ele>
        <time>2019-05-24T10:52:13.080Z</time>
      </trkpt>
      <trkpt lat="45.15692" lon="5.77871">
        <ele>688</ele>
        <time>2019-05-24T10:52:14.080Z</time>
      </trkpt>
      <trkpt lat="45.15692" lon="5.77875">
        <ele>694</ele>
        <time>2019-05-24T10:52:15.080Z</time>
      </trkpt>
      <trkpt lat="45.15691" lon="5.77878">
        <ele>699</ele>
        <time>2019-05-24T10:52:16.080Z</time>
      </trkpt>
      <trkpt lat="45.15691" lon="5.77881">
        <ele>701</ele>
        <time>2019-05-24T10:52:17.080Z</time>
      </trkpt>
      <trkpt lat="45.15691" lon="5.77884">
        <ele>701</ele>
        <time>2019-05-24T10:52:18.080Z</time>
      </trkpt>
      <trkpt lat="45.15691" lon="5.77887">
        <ele>701</ele>
        <time>2019-05-24T10:52:19.080Z</time>
      </trkpt>
      <trkpt lat="45.15692" lon="5.77891">
        <ele>700</ele>
        <time>2019-05-24T10:52:20.080Z</time>
      </trkpt>
      <trkpt lat="45.15693" lon="5.77894">
        <ele>700</ele>
        <time>2019-05-24T10:52:21.080Z</time>
      </trkpt>
      <trkpt lat="45.15694" lon="5.77897">
        <ele>701</ele>
        <time>2019-05-24T10:52:22.080Z</time>
      </trkpt>
      <trkpt lat="45.15694" lon="5.779">
        <ele>697</ele>
        <time>2019-05-24T10:52:23.080Z</time>
      </trkpt>
      <trkpt lat="45.15694" lon="5.77903">
        <ele>693</ele>
        <time>2019-05-24T10:52:24.080Z</time>
      </trkpt>
      <trkpt lat="45.15695" lon="5.77906">
        <ele>694</ele>
        <time>2019-05-24T10:52:25.080Z</time>
      </trkpt>
      <trkpt lat="45.15695" lon="5.7791">
        <ele>694</ele>
        <time>2019-05-24T10:52:26.080Z</time>
      </trkpt>
      <trkpt lat="45.15695" lon="5.77913">
        <ele>696</ele>
        <time>2019-05-24T10:52:27.080Z</time>
      </trkpt>
      <trkpt lat="45.15695" lon="5.77916">
        <ele>697</ele>
        <time>2019-05-24T10:52:28.080Z</time>
      </trkpt>
      <trkpt lat="45.15695" lon="5.7792">
        <ele>698</ele>
        <time>2019-05-24T10:52:29.080Z</time>
      </trkpt>
      <trkpt lat="45.15695" lon="5.77923">
        <ele>697</ele>
        <time>2019-05-24T10:52:30.080Z</time>
      </trkpt>
      <trkpt lat="45.15695" lon="5.77926">
        <ele>697</ele>
        <time>2019-05-24T10:52:31.080Z</time>
      </trkpt>
      <trkpt lat="45.15695" lon="5.77929">
        <ele>697</ele>
        <time>2019-05-24T10:52:32.080Z</time>
      </trkpt>
      <trkpt lat="45.15696" lon="5.77932">
        <ele>697</ele>
        <time>2019-05-24T10:52:33.080Z</time>
      </trkpt>
      <trkpt lat="45.15697" lon="5.77935">
        <ele>698</ele>
        <time>2019-05-24T10:52:34.080Z</time>
      </trkpt>
      <trkpt lat="45.15699" lon="5.77938">
        <ele>699</ele>
        <time>2019-05-24T10:52:35.080Z</time>
      </trkpt>
      <trkpt lat="45.157" lon="5.77941">
        <ele>698</ele>
        <time>2019-05-24T10:52:36.080Z</time>
      </trkpt>
      <trkpt lat="45.157" lon="5.77944">
        <ele>699</ele>
        <time>2019-05-24T10:52:37.080Z</time>
      </trkpt>
      <trkpt lat="45.15701" lon="5.77947">
        <ele>700</ele>
        <time>2019-05-24T10:52:38.080Z</time>
      </trkpt>
      <trkpt lat="45.157" lon="5.77949">
        <ele>702</ele>
        <time>2019-05-24T10:52:39.080Z</time>
      </trkpt>
      <trkpt lat="45.157" lon="5.77952">
        <ele>702</ele>
        <time>2019-05-24T10:52:40.080Z</time>
      </trkpt>
      <trkpt lat="45.157" lon="5.77954">
        <ele>702</ele>
        <time>2019-05-24T10:52:41.080Z</time>
      </trkpt>
      <trkpt lat="45.157" lon="5.77957">
        <ele>700</ele>
        <time>2019-05-24T10:52:42.080Z</time>
      </trkpt>
      <trkpt lat="45.15699" lon="5.77959">
        <ele>699</ele>
        <time>2019-05-24T10:52:43.080Z</time>
      </trkpt>
      <trkpt lat="45.15699" lon="5.77962">
        <ele>699</ele>
        <time>2019-05-24T10:52:44.080Z</time>
      </trkpt>
      <trkpt lat="45.15698" lon="5.77964">
        <ele>700</ele>
        <time>2019-05-24T10:52:45.080Z</time>
      </trkpt>
      <trkpt lat="45.15698" lon="5.77966">
        <ele>702</ele>
        <time>2019-05-24T10:52:46.080Z</time>
      </trkpt>
      <trkpt lat="45.15697" lon="5.77969">
        <ele>702</ele>
        <time>2019-05-24T10:52:47.080Z</time>
      </trkpt>
      <trkpt lat="45.15697" lon="5.77972">
        <ele>701</ele>
        <time>2019-05-24T10:52:48.080Z</time>
      </trkpt>
      <trkpt lat="45.15697" lon="5.77974">
        <ele>701</ele>
        <time>2019-05-24T10:52:49.080Z</time>
      </trkpt>
      <trkpt lat="45.15696" lon="5.77977">
        <ele>701</ele>
        <time>2019-05-24T10:52:50.080Z</time>
      </trkpt>
      <trkpt lat="45.15696" lon="5.7798">
        <ele>701</ele>
        <time>2019-05-24T10:52:51.080Z</time>
      </trkpt>
      <trkpt lat="45.15694" lon="5.77983">
        <ele>700</ele>
        <time>2019-05-24T10:52:52.080Z</time>
      </trkpt>
      <trkpt lat="45.15694" lon="5.77985">
        <ele>702</ele>
        <time>2019-05-24T10:52:53.080Z</time>
      </trkpt>
      <trkpt lat="45.15692" lon="5.77988">
        <ele>703</ele>
        <time>2019-05-24T10:52:54.080Z</time>
      </trkpt>
      <trkpt lat="45.15691" lon="5.7799">
        <ele>703</ele>
        <time>2019-05-24T10:52:55.080Z</time>
      </trkpt>
      <trkpt lat="45.1569" lon="5.77993">
        <ele>703</ele>
        <time>2019-05-24T10:52:56.080Z</time>
      </trkpt>
      <trkpt lat="45.1569" lon="5.77996">
        <ele>704</ele>
        <time>2019-05-24T10:52:57.080Z</time>
      </trkpt>
      <trkpt lat="45.1569" lon="5.77999">
        <ele>704</ele>
        <time>2019-05-24T10:52:58.080Z</time>
      </trkpt>
      <trkpt lat="45.1569" lon="5.78001">
        <ele>704</ele>
        <time>2019-05-24T10:52:59.080Z</time>
      </trkpt>
      <trkpt lat="45.15689" lon="5.78003">
        <ele>704</ele>
        <time>2019-05-24T10:53:00.080Z</time>
      </trkpt>
      <trkpt lat="45.15689" lon="5.78005">
        <ele>705</ele>
        <time>2019-05-24T10:53:01.080Z</time>
      </trkpt>
      <trkpt lat="45.15689" lon="5.78007">
        <ele>706</ele>
        <time>2019-05-24T10:53:02.080Z</time>
      </trkpt>
      <trkpt lat="45.15688" lon="5.78011">
        <ele>705</ele>
        <time>2019-05-24T10:53:03.080Z</time>
      </trkpt>
      <trkpt lat="45.15689" lon="5.78015">
        <ele>705</ele>
        <time>2019-05-24T10:53:04.080Z</time>
      </trkpt>
      <trkpt lat="45.15689" lon="5.78018">
        <ele>705</ele>
        <time>2019-05-24T10:53:05.080Z</time>
      </trkpt>
      <trkpt lat="45.15689" lon="5.78021">
        <ele>705</ele>
        <time>2019-05-24T10:53:06.080Z</time>
      </trkpt>
      <trkpt lat="45.15689" lon="5.78024">
        <ele>706</ele>
        <time>2019-05-24T10:53:07.080Z</time>
      </trkpt>
      <trkpt lat="45.15689" lon="5.78026">
        <ele>706</ele>
        <time>2019-05-24T10:53:08.080Z</time>
      </trkpt>
      <trkpt lat="45.1569" lon="5.78029">
        <ele>708</ele>
        <time>2019-05-24T10:53:09.080Z</time>
      </trkpt>
      <trkpt lat="45.1569" lon="5.78032">
        <ele>708</ele>
        <time>2019-05-24T10:53:10.080Z</time>
      </trkpt>
      <trkpt lat="45.15689" lon="5.78035">
        <ele>706</ele>
        <time>2019-05-24T10:53:11.080Z</time>
      </trkpt>
      <trkpt lat="45.15687" lon="5.78038">
        <ele>703</ele>
        <time>2019-05-24T10:53:12.080Z</time>
      </trkpt>
      <trkpt lat="45.15686" lon="5.78041">
        <ele>704</ele>
        <time>2019-05-24T10:53:13.080Z</time>
      </trkpt>
      <trkpt lat="45.15686" lon="5.78044">
        <ele>707</ele>
        <time>2019-05-24T10:53:14.080Z</time>
      </trkpt>
      <trkpt lat="45.15685" lon="5.78048">
        <ele>709</ele>
        <time>2019-05-24T10:53:15.080Z</time>
      </trkpt>
      <trkpt lat="45.15685" lon="5.78051">
        <ele>709</ele>
        <time>2019-05-24T10:53:16.080Z</time>
      </trkpt>
      <trkpt lat="45.15686" lon="5.78054">
        <ele>709</ele>
        <time>2019-05-24T10:53:17.080Z</time>
      </trkpt>
      <trkpt lat="45.15685" lon="5.78057">
        <ele>710</ele>
        <time>2019-05-24T10:53:18.080Z</time>
      </trkpt>
      <trkpt lat="45.15685" lon="5.7806">
        <ele>710</ele>
        <time>2019-05-24T10:53:19.080Z</time>
      </trkpt>
      <trkpt lat="45.15685" lon="5.78062">
        <ele>709</ele>
        <time>2019-05-24T10:53:20.080Z</time>
      </trkpt>
      <trkpt lat="45.15686" lon="5.78065">
        <ele>710</ele>
        <time>2019-05-24T10:53:21.080Z</time>
      </trkpt>
      <trkpt lat="45.15687" lon="5.78068">
        <ele>709</ele>
        <time>2019-05-24T10:53:22.080Z</time>
      </trkpt>
      <trkpt lat="45.15688" lon="5.78072">
        <ele>710</ele>
        <time>2019-05-24T10:53:23.080Z</time>
      </trkpt>
      <trkpt lat="45.15688" lon="5.78074">
        <ele>709</ele>
        <time>2019-05-24T10:53:24.080Z</time>
      </trkpt>
      <trkpt lat="45.15687" lon="5.78077">
        <ele>708</ele>
        <time>2019-05-24T10:53:25.080Z</time>
      </trkpt>
      <trkpt lat="45.15687" lon="5.7808">
        <ele>708</ele>
        <time>2019-05-24T10:53:26.080Z</time>
      </trkpt>
      <trkpt lat="45.15687" lon="5.78082">
        <ele>706</ele>
        <time>2019-05-24T10:53:27.080Z</time>
      </trkpt>
      <trkpt lat="45.15687" lon="5.78085">
        <ele>706</ele>
        <time>2019-05-24T10:53:28.080Z</time>
      </trkpt>
      <trkpt lat="45.15686" lon="5.78088">
        <ele>705</ele>
        <time>2019-05-24T10:53:29.080Z</time>
      </trkpt>
      <trkpt lat="45.15686" lon="5.7809">
        <ele>702</ele>
        <time>2019-05-24T10:53:30.080Z</time>
      </trkpt>
      <trkpt lat="45.15685" lon="5.78092">
        <ele>702</ele>
        <time>2019-05-24T10:53:31.080Z</time>
      </trkpt>
      <trkpt lat="45.15684" lon="5.78094">
        <ele>701</ele>
        <time>2019-05-24T10:53:32.080Z</time>
      </trkpt>
      <trkpt lat="45.15683" lon="5.78095">
        <ele>701</ele>
        <time>2019-05-24T10:53:33.080Z</time>
      </trkpt>
      <trkpt lat="45.15682" lon="5.78097">
        <ele>703</ele>
        <time>2019-05-24T10:53:34.080Z</time>
      </trkpt>
      <trkpt lat="45.15681" lon="5.78099">
        <ele>701</ele>
        <time>2019-05-24T10:53:35.080Z</time>
      </trkpt>
      <trkpt lat="45.15681" lon="5.78101">
        <ele>702</ele>
        <time>2019-05-24T10:53:36.080Z</time>
      </trkpt>
      <trkpt lat="45.15679" lon="5.78103">
        <ele>704</ele>
        <time>2019-05-24T10:53:37.080Z</time>
      </trkpt>
      <trkpt lat="45.15677" lon="5.78105">
        <ele>704</ele>
        <time>2019-05-24T10:53:38.080Z</time>
      </trkpt>
      <trkpt lat="45.15676" lon="5.78107">
        <ele>703</ele>
        <time>2019-05-24T10:53:39.080Z</time>
      </trkpt>
      <trkpt lat="45.15675" lon="5.78111">
        <ele>702</ele>
        <time>2019-05-24T10:53:40.080Z</time>
      </trkpt>
      <trkpt lat="45.15675" lon="5.78113">
        <ele>702</ele>
        <time>2019-05-24T10:53:41.080Z</time>
      </trkpt>
      <trkpt lat="45.15674" lon="5.78115">
        <ele>702</ele>
        <time>2019-05-24T10:53:42.080Z</time>
      </trkpt>
      <trkpt lat="45.15674" lon="5.78117">
        <ele>703</ele>
        <time>2019-05-24T10:53:43.080Z</time>
      </trkpt>
      <trkpt lat="45.15673" lon="5.78119">
        <ele>703</ele>
        <time>2019-05-24T10:53:44.080Z</time>
      </trkpt>
      <trkpt lat="45.15672" lon="5.78121">
        <ele>704</ele>
        <time>2019-05-24T10:53:45.080Z</time>
      </trkpt>
      <trkpt lat="45.1567" lon="5.78123">
        <ele>706</ele>
        <time>2019-05-24T10:53:46.080Z</time>
      </trkpt>
      <trkpt lat="45.15668" lon="5.78125">
        <ele>705</ele>
        <time>2019-05-24T10:53:47.080Z</time>
      </trkpt>
      <trkpt lat="45.15666" lon="5.78127">
        <ele>704</ele>
        <time>2019-05-24T10:53:48.080Z</time>
      </trkpt>
      <trkpt lat="45.15665" lon="5.78129">
        <ele>704</ele>
        <time>2019-05-24T10:53:49.080Z</time>
      </trkpt>
      <trkpt lat="45.15663" lon="5.7813">
        <ele>705</ele>
        <time>2019-05-24T10:53:50.080Z</time>
      </trkpt>
      <trkpt lat="45.15661" lon="5.78132">
        <ele>707</ele>
        <time>2019-05-24T10:53:51.080Z</time>
      </trkpt>
      <trkpt lat="45.15659" lon="5.78134">
        <ele>707</ele>
        <time>2019-05-24T10:53:52.080Z</time>
      </trkpt>
      <trkpt lat="45.15658" lon="5.78136">
        <ele>706</ele>
        <time>2019-05-24T10:53:53.080Z</time>
      </trkpt>
      <trkpt lat="45.15656" lon="5.78137">
        <ele>705</ele>
        <time>2019-05-24T10:53:54.080Z</time>
      </trkpt>
      <trkpt lat="45.15655" lon="5.7814">
        <ele>706</ele>
        <time>2019-05-24T10:53:55.080Z</time>
      </trkpt>
      <trkpt lat="45.15653" lon="5.78141">
        <ele>707</ele>
        <time>2019-05-24T10:53:56.080Z</time>
      </trkpt>
      <trkpt lat="45.15652" lon="5.78143">
        <ele>707</ele>
        <time>2019-05-24T10:53:57.080Z</time>
      </trkpt>
      <trkpt lat="45.1565" lon="5.78144">
        <ele>706</ele>
        <time>2019-05-24T10:53:58.080Z</time>
      </trkpt>
      <trkpt lat="45.15649" lon="5.78145">
        <ele>706</ele>
        <time>2019-05-24T10:53:59.080Z</time>
      </trkpt>
      <trkpt lat="45.15649" lon="5.78146">
        <ele>706</ele>
        <time>2019-05-24T10:54:00.080Z</time>
      </trkpt>
      <trkpt lat="45.15648" lon="5.78147">
        <ele>708</ele>
        <time>2019-05-24T10:54:01.080Z</time>
      </trkpt>
      <trkpt lat="45.15648" lon="5.78149">
        <ele>710</ele>
        <time>2019-05-24T10:54:02.080Z</time>
      </trkpt>
      <trkpt lat="45.15648" lon="5.78151">
        <ele>713</ele>
        <time>2019-05-24T10:54:03.080Z</time>
      </trkpt>
      <trkpt lat="45.15647" lon="5.78154">
        <ele>712</ele>
        <time>2019-05-24T10:54:04.080Z</time>
      </trkpt>
      <trkpt lat="45.15647" lon="5.78156">
        <ele>711</ele>
        <time>2019-05-24T10:54:05.080Z</time>
      </trkpt>
      <trkpt lat="45.15647" lon="5.78159">
        <ele>711</ele>
        <time>2019-05-24T10:54:06.080Z</time>
      </trkpt>
      <trkpt lat="45.15646" lon="5.78162">
        <ele>712</ele>
        <time>2019-05-24T10:54:07.080Z</time>
      </trkpt>
      <trkpt lat="45.15645" lon="5.78165">
        <ele>714</ele>
        <time>2019-05-24T10:54:08.080Z</time>
      </trkpt>
      <trkpt lat="45.15643" lon="5.78168">
        <ele>714</ele>
        <time>2019-05-24T10:54:09.080Z</time>
      </trkpt>
      <trkpt lat="45.15641" lon="5.78171">
        <ele>716</ele>
        <time>2019-05-24T10:54:10.080Z</time>
      </trkpt>
      <trkpt lat="45.15641" lon="5.78174">
        <ele>716</ele>
        <time>2019-05-24T10:54:11.080Z</time>
      </trkpt>
      <trkpt lat="45.1564" lon="5.78177">
        <ele>717</ele>
        <time>2019-05-24T10:54:12.080Z</time>
      </trkpt>
      <trkpt lat="45.15638" lon="5.78179">
        <ele>716</ele>
        <time>2019-05-24T10:54:13.080Z</time>
      </trkpt>
      <trkpt lat="45.15637" lon="5.78182">
        <ele>716</ele>
        <time>2019-05-24T10:54:14.080Z</time>
      </trkpt>
      <trkpt lat="45.15635" lon="5.78185">
        <ele>716</ele>
        <time>2019-05-24T10:54:15.080Z</time>
      </trkpt>
      <trkpt lat="45.15633" lon="5.78188">
        <ele>715</ele>
        <time>2019-05-24T10:54:16.080Z</time>
      </trkpt>
      <trkpt lat="45.15632" lon="5.7819">
        <ele>715</ele>
        <time>2019-05-24T10:54:17.080Z</time>
      </trkpt>
      <trkpt lat="45.15631" lon="5.78193">
        <ele>715</ele>
        <time>2019-05-24T10:54:18.080Z</time>
      </trkpt>
      <trkpt lat="45.15628" lon="5.78196">
        <ele>714</ele>
        <time>2019-05-24T10:54:19.080Z</time>
      </trkpt>
      <trkpt lat="45.15626" lon="5.78198">
        <ele>713</ele>
        <time>2019-05-24T10:54:20.080Z</time>
      </trkpt>
      <trkpt lat="45.15624" lon="5.78202">
        <ele>712</ele>
        <time>2019-05-24T10:54:21.080Z</time>
      </trkpt>
      <trkpt lat="45.15623" lon="5.78206">
        <ele>715</ele>
        <time>2019-05-24T10:54:22.080Z</time>
      </trkpt>
      <trkpt lat="45.15622" lon="5.78209">
        <ele>717</ele>
        <time>2019-05-24T10:54:23.080Z</time>
      </trkpt>
      <trkpt lat="45.1562" lon="5.78211">
        <ele>718</ele>
        <time>2019-05-24T10:54:24.080Z</time>
      </trkpt>
      <trkpt lat="45.15618" lon="5.78214">
        <ele>718</ele>
        <time>2019-05-24T10:54:25.080Z</time>
      </trkpt>
      <trkpt lat="45.15617" lon="5.78216">
        <ele>717</ele>
        <time>2019-05-24T10:54:26.080Z</time>
      </trkpt>
      <trkpt lat="45.15615" lon="5.78219">
        <ele>717</ele>
        <time>2019-05-24T10:54:27.080Z</time>
      </trkpt>
      <trkpt lat="45.15614" lon="5.78221">
        <ele>717</ele>
        <time>2019-05-24T10:54:28.080Z</time>
      </trkpt>
      <trkpt lat="45.15614" lon="5.78224">
        <ele>716</ele>
        <time>2019-05-24T10:54:29.080Z</time>
      </trkpt>
      <trkpt lat="45.15613" lon="5.78227">
        <ele>716</ele>
        <time>2019-05-24T10:54:30.080Z</time>
      </trkpt>
      <trkpt lat="45.15612" lon="5.7823">
        <ele>717</ele>
        <time>2019-05-24T10:54:31.080Z</time>
      </trkpt>
      <trkpt lat="45.15612" lon="5.78234">
        <ele>718</ele>
        <time>2019-05-24T10:54:32.080Z</time>
      </trkpt>
      <trkpt lat="45.1561" lon="5.78237">
        <ele>716</ele>
        <time>2019-05-24T10:54:33.080Z</time>
      </trkpt>
      <trkpt lat="45.15609" lon="5.78241">
        <ele>716</ele>
        <time>2019-05-24T10:54:34.080Z</time>
      </trkpt>
      <trkpt lat="45.15608" lon="5.78245">
        <ele>715</ele>
        <time>2019-05-24T10:54:35.080Z</time>
      </trkpt>
      <trkpt lat="45.15608" lon="5.78248">
        <ele>714</ele>
        <time>2019-05-24T10:54:36.080Z</time>
      </trkpt>
      <trkpt lat="45.15608" lon="5.78251">
        <ele>712</ele>
        <time>2019-05-24T10:54:37.080Z</time>
      </trkpt>
      <trkpt lat="45.15608" lon="5.78254">
        <ele>711</ele>
        <time>2019-05-24T10:54:38.080Z</time>
      </trkpt>
      <trkpt lat="45.15608" lon="5.78257">
        <ele>711</ele>
        <time>2019-05-24T10:54:39.080Z</time>
      </trkpt>
      <trkpt lat="45.15608" lon="5.7826">
        <ele>709</ele>
        <time>2019-05-24T10:54:40.080Z</time>
      </trkpt>
      <trkpt lat="45.15608" lon="5.78263">
        <ele>710</ele>
        <time>2019-05-24T10:54:41.080Z</time>
      </trkpt>
      <trkpt lat="45.15608" lon="5.78265">
        <ele>709</ele>
        <time>2019-05-24T10:54:42.080Z</time>
      </trkpt>
      <trkpt lat="45.15609" lon="5.78267">
        <ele>708</ele>
        <time>2019-05-24T10:54:43.080Z</time>
      </trkpt>
      <trkpt lat="45.15609" lon="5.78269">
        <ele>708</ele>
        <time>2019-05-24T10:54:44.080Z</time>
      </trkpt>
      <trkpt lat="45.1561" lon="5.78271">
        <ele>707</ele>
        <time>2019-05-24T10:54:45.080Z</time>
      </trkpt>
      <trkpt lat="45.15612" lon="5.78273">
        <ele>709</ele>
        <time>2019-05-24T10:54:46.080Z</time>
      </trkpt>
      <trkpt lat="45.15612" lon="5.78275">
        <ele>709</ele>
        <time>2019-05-24T10:54:47.080Z</time>
      </trkpt>
      <trkpt lat="45.15613" lon="5.78278">
        <ele>709</ele>
        <time>2019-05-24T10:54:48.080Z</time>
      </trkpt>
      <trkpt lat="45.15614" lon="5.78281">
        <ele>708</ele>
        <time>2019-05-24T10:54:49.080Z</time>
      </trkpt>
      <trkpt lat="45.15615" lon="5.78285">
        <ele>705</ele>
        <time>2019-05-24T10:54:50.080Z</time>
      </trkpt>
      <trkpt lat="45.15616" lon="5.78288">
        <ele>704</ele>
        <time>2019-05-24T10:54:51.080Z</time>
      </trkpt>
      <trkpt lat="45.15616" lon="5.78291">
        <ele>703</ele>
        <time>2019-05-24T10:54:52.080Z</time>
      </trkpt>
      <trkpt lat="45.15617" lon="5.78294">
        <ele>704</ele>
        <time>2019-05-24T10:54:53.080Z</time>
      </trkpt>
      <trkpt lat="45.15617" lon="5.78297">
        <ele>704</ele>
        <time>2019-05-24T10:54:54.080Z</time>
      </trkpt>
      <trkpt lat="45.15618" lon="5.783">
        <ele>706</ele>
        <time>2019-05-24T10:54:55.080Z</time>
      </trkpt>
      <trkpt lat="45.15618" lon="5.78303">
        <ele>710</ele>
        <time>2019-05-24T10:54:56.080Z</time>
      </trkpt>
      <trkpt lat="45.15618" lon="5.78305">
        <ele>714</ele>
        <time>2019-05-24T10:54:57.080Z</time>
      </trkpt>
      <trkpt lat="45.15618" lon="5.78308">
        <ele>712</ele>
        <time>2019-05-24T10:54:58.080Z</time>
      </trkpt>
      <trkpt lat="45.15617" lon="5.78311">
        <ele>712</ele>
        <time>2019-05-24T10:54:59.080Z</time>
      </trkpt>
      <trkpt lat="45.15617" lon="5.78314">
        <ele>710</ele>
        <time>2019-05-24T10:55:00.080Z</time>
      </trkpt>
      <trkpt lat="45.15617" lon="5.78316">
        <ele>709</ele>
        <time>2019-05-24T10:55:01.080Z</time>
      </trkpt>
      <trkpt lat="45.15618" lon="5.78319">
        <ele>709</ele>
        <time>2019-05-24T10:55:02.080Z</time>
      </trkpt>
      <trkpt lat="45.15619" lon="5.78321">
        <ele>709</ele>
        <time>2019-05-24T10:55:03.080Z</time>
      </trkpt>
      <trkpt lat="45.15619" lon="5.78323">
        <ele>710</ele>
        <time>2019-05-24T10:55:04.080Z</time>
      </trkpt>
      <trkpt lat="45.1562" lon="5.78325">
        <ele>710</ele>
        <time>2019-05-24T10:55:05.080Z</time>
      </trkpt>
      <trkpt lat="45.1562" lon="5.78327">
        <ele>707</ele>
        <time>2019-05-24T10:55:06.080Z</time>
      </trkpt>
      <trkpt lat="45.1562" lon="5.7833">
        <ele>706</ele>
        <time>2019-05-24T10:55:07.080Z</time>
      </trkpt>
      <trkpt lat="45.15621" lon="5.78332">
        <ele>706</ele>
        <time>2019-05-24T10:55:08.080Z</time>
      </trkpt>
      <trkpt lat="45.15621" lon="5.78334">
        <ele>707</ele>
        <time>2019-05-24T10:55:09.080Z</time>
      </trkpt>
      <trkpt lat="45.15622" lon="5.78335">
        <ele>708</ele>
        <time>2019-05-24T10:55:10.080Z</time>
      </trkpt>
      <trkpt lat="45.15622" lon="5.78337">
        <ele>708</ele>
        <time>2019-05-24T10:55:11.080Z</time>
      </trkpt>
      <trkpt lat="45.15623" lon="5.78339">
        <ele>708</ele>
        <time>2019-05-24T10:55:12.080Z</time>
      </trkpt>
      <trkpt lat="45.15623" lon="5.78341">
        <ele>709</ele>
        <time>2019-05-24T10:55:13.080Z</time>
      </trkpt>
      <trkpt lat="45.15623" lon="5.78343">
        <ele>705</ele>
        <time>2019-05-24T10:55:14.080Z</time>
      </trkpt>
      <trkpt lat="45.15622" lon="5.78346">
        <ele>707</ele>
        <time>2019-05-24T10:55:15.080Z</time>
      </trkpt>
      <trkpt lat="45.15622" lon="5.78348">
        <ele>711</ele>
        <time>2019-05-24T10:55:16.080Z</time>
      </trkpt>
      <trkpt lat="45.15622" lon="5.7835">
        <ele>710</ele>
        <time>2019-05-24T10:55:17.080Z</time>
      </trkpt>
      <trkpt lat="45.15622" lon="5.78352">
        <ele>709</ele>
        <time>2019-05-24T10:55:18.080Z</time>
      </trkpt>
      <trkpt lat="45.15621" lon="5.78354">
        <ele>708</ele>
        <time>2019-05-24T10:55:19.080Z</time>
      </trkpt>
      <trkpt lat="45.15621" lon="5.78356">
        <ele>708</ele>
        <time>2019-05-24T10:55:20.080Z</time>
      </trkpt>
      <trkpt lat="45.1562" lon="5.78358">
        <ele>708</ele>
        <time>2019-05-24T10:55:21.080Z</time>
      </trkpt>
      <trkpt lat="45.15619" lon="5.7836">
        <ele>710</ele>
        <time>2019-05-24T10:55:22.080Z</time>
      </trkpt>
      <trkpt lat="45.15618" lon="5.78362">
        <ele>711</ele>
        <time>2019-05-24T10:55:23.080Z</time>
      </trkpt>
      <trkpt lat="45.15617" lon="5.78363">
        <ele>711</ele>
        <time>2019-05-24T10:55:24.080Z</time>
      </trkpt>
      <trkpt lat="45.15616" lon="5.78364">
        <ele>711</ele>
        <time>2019-05-24T10:55:25.080Z</time>
      </trkpt>
      <trkpt lat="45.15615" lon="5.78366">
        <ele>712</ele>
        <time>2019-05-24T10:55:26.080Z</time>
      </trkpt>
      <trkpt lat="45.15614" lon="5.78367">
        <ele>712</ele>
        <time>2019-05-24T10:55:27.080Z</time>
      </trkpt>
      <trkpt lat="45.15613" lon="5.78368">
        <ele>710</ele>
        <time>2019-05-24T10:55:28.080Z</time>
      </trkpt>
      <trkpt lat="45.15612" lon="5.78369">
        <ele>706</ele>
        <time>2019-05-24T10:55:29.080Z</time>
      </trkpt>
      <trkpt lat="45.15611" lon="5.78371">
        <ele>706</ele>
        <time>2019-05-24T10:55:30.080Z</time>
      </trkpt>
      <trkpt lat="45.1561" lon="5.78372">
        <ele>708</ele>
        <time>2019-05-24T10:55:31.080Z</time>
      </trkpt>
      <trkpt lat="45.15609" lon="5.78373">
        <ele>710</ele>
        <time>2019-05-24T10:55:32.080Z</time>
      </trkpt>
      <trkpt lat="45.15609" lon="5.78374">
        <ele>712</ele>
        <time>2019-05-24T10:55:33.080Z</time>
      </trkpt>
      <trkpt lat="45.15608" lon="5.78375">
        <ele>714</ele>
        <time>2019-05-24T10:55:34.080Z</time>
      </trkpt>
      <trkpt lat="45.15608" lon="5.78377">
        <ele>713</ele>
        <time>2019-05-24T10:55:35.080Z</time>
      </trkpt>
      <trkpt lat="45.15607" lon="5.78378">
        <ele>710</ele>
        <time>2019-05-24T10:55:36.080Z</time>
      </trkpt>
      <trkpt lat="45.15606" lon="5.78379">
        <ele>710</ele>
        <time>2019-05-24T10:55:37.080Z</time>
      </trkpt>
      <trkpt lat="45.15605" lon="5.7838">
        <ele>711</ele>
        <time>2019-05-24T10:55:38.080Z</time>
      </trkpt>
      <trkpt lat="45.15605" lon="5.78381">
        <ele>712</ele>
        <time>2019-05-24T10:55:39.080Z</time>
      </trkpt>
      <trkpt lat="45.15605" lon="5.78383">
        <ele>712</ele>
        <time>2019-05-24T10:55:40.080Z</time>
      </trkpt>
      <trkpt lat="45.15604" lon="5.78384">
        <ele>714</ele>
        <time>2019-05-24T10:55:41.080Z</time>
      </trkpt>
      <trkpt lat="45.15603" lon="5.78385">
        <ele>718</ele>
        <time>2019-05-24T10:55:42.080Z</time>
      </trkpt>
      <trkpt lat="45.15602" lon="5.78386">
        <ele>718</ele>
        <time>2019-05-24T10:55:43.080Z</time>
      </trkpt>
      <trkpt lat="45.15601" lon="5.78387">
        <ele>719</ele>
        <time>2019-05-24T10:55:44.080Z</time>
      </trkpt>
      <trkpt lat="45.156" lon="5.78388">
        <ele>719</ele>
        <time>2019-05-24T10:55:45.080Z</time>
      </trkpt>
      <trkpt lat="45.156" lon="5.78389">
        <ele>719</ele>
        <time>2019-05-24T10:55:46.080Z</time>
      </trkpt>
      <trkpt lat="45.15599" lon="5.7839">
        <ele>718</ele>
        <time>2019-05-24T10:55:47.080Z</time>
      </trkpt>
      <trkpt lat="45.15598" lon="5.78391">
        <ele>719</ele>
        <time>2019-05-24T10:55:48.080Z</time>
      </trkpt>
      <trkpt lat="45.15598" lon="5.78392">
        <ele>720</ele>
        <time>2019-05-24T10:55:49.080Z</time>
      </trkpt>
      <trkpt lat="45.15597" lon="5.78393">
        <ele>720</ele>
        <time>2019-05-24T10:55:50.080Z</time>
      </trkpt>
      <trkpt lat="45.15596" lon="5.78393">
        <ele>720</ele>
        <time>2019-05-24T10:55:51.080Z</time>
      </trkpt>
      <trkpt lat="45.15595" lon="5.78394">
        <ele>719</ele>
        <time>2019-05-24T10:55:52.080Z</time>
      </trkpt>
      <trkpt lat="45.15594" lon="5.78395">
        <ele>718</ele>
        <time>2019-05-24T10:55:53.080Z</time>
      </trkpt>
      <trkpt lat="45.15593" lon="5.78396">
        <ele>717</ele>
        <time>2019-05-24T10:55:54.080Z</time>
      </trkpt>
      <trkpt lat="45.15592" lon="5.78397">
        <ele>717</ele>
        <time>2019-05-24T10:55:55.080Z</time>
      </trkpt>
      <trkpt lat="45.15591" lon="5.78398">
        <ele>718</ele>
        <time>2019-05-24T10:55:56.080Z</time>
      </trkpt>
      <trkpt lat="45.1559" lon="5.78399">
        <ele>720</ele>
        <time>2019-05-24T10:55:57.080Z</time>
      </trkpt>
      <trkpt lat="45.15588" lon="5.78401">
        <ele>720</ele>
        <time>2019-05-24T10:55:58.080Z</time>
      </trkpt>
      <trkpt lat="45.15587" lon="5.78402">
        <ele>721</ele>
        <time>2019-05-24T10:55:59.080Z</time>
      </trkpt>
      <trkpt lat="45.15586" lon="5.78403">
        <ele>720</ele>
        <time>2019-05-24T10:56:00.080Z</time>
      </trkpt>
      <trkpt lat="45.15585" lon="5.78405">
        <ele>722</ele>
        <time>2019-05-24T10:56:01.080Z</time>
      </trkpt>
      <trkpt lat="45.15584" lon="5.78406">
        <ele>725</ele>
        <time>2019-05-24T10:56:02.080Z</time>
      </trkpt>
      <trkpt lat="45.15584" lon="5.78407">
        <ele>726</ele>
        <time>2019-05-24T10:56:03.080Z</time>
      </trkpt>
      <trkpt lat="45.15583" lon="5.78408">
        <ele>725</ele>
        <time>2019-05-24T10:56:04.080Z</time>
      </trkpt>
      <trkpt lat="45.15583" lon="5.78409">
        <ele>724</ele>
        <time>2019-05-24T10:56:05.080Z</time>
      </trkpt>
      <trkpt lat="45.15582" lon="5.7841">
        <ele>724</ele>
        <time>2019-05-24T10:56:06.080Z</time>
      </trkpt>
      <trkpt lat="45.15582" lon="5.78411">
        <ele>724</ele>
        <time>2019-05-24T10:56:07.080Z</time>
      </trkpt>
      <trkpt lat="45.15582" lon="5.78411">
        <ele>724</ele>
        <time>2019-05-24T10:56:08.080Z</time>
      </trkpt>
      <trkpt lat="45.15582" lon="5.78412">
        <ele>724</ele>
        <time>2019-05-24T10:56:09.080Z</time>
      </trkpt>
      <trkpt lat="45.15582" lon="5.78413">
        <ele>725</ele>
        <time>2019-05-24T10:56:10.080Z</time>
      </trkpt>
      <trkpt lat="45.15582" lon="5.78414">
        <ele>728</ele>
        <time>2019-05-24T10:56:11.080Z</time>
      </trkpt>
      <trkpt lat="45.15582" lon="5.78416">
        <ele>728</ele>
        <time>2019-05-24T10:56:12.080Z</time>
      </trkpt>
      <trkpt lat="45.15581" lon="5.78417">
        <ele>728</ele>
        <time>2019-05-24T10:56:13.080Z</time>
      </trkpt>
      <trkpt lat="45.1558" lon="5.78419">
        <ele>726</ele>
        <time>2019-05-24T10:56:14.080Z</time>
      </trkpt>
      <trkpt lat="45.1558" lon="5.7842">
        <ele>726</ele>
        <time>2019-05-24T10:56:15.080Z</time>
      </trkpt>
      <trkpt lat="45.1558" lon="5.78422">
        <ele>728</ele>
        <time>2019-05-24T10:56:16.080Z</time>
      </trkpt>
      <trkpt lat="45.15579" lon="5.78423">
        <ele>728</ele>
        <time>2019-05-24T10:56:17.080Z</time>
      </trkpt>
      <trkpt lat="45.15579" lon="5.78425">
        <ele>729</ele>
        <time>2019-05-24T10:56:18.080Z</time>
      </trkpt>
      <trkpt lat="45.15579" lon="5.78426">
        <ele>730</ele>
        <time>2019-05-24T10:56:19.080Z</time>
      </trkpt>
      <trkpt lat="45.15579" lon="5.78427">
        <ele>730</ele>
        <time>2019-05-24T10:56:20.080Z</time>
      </trkpt>
      <trkpt lat="45.15579" lon="5.78428">
        <ele>729</ele>
        <time>2019-05-24T10:56:21.080Z</time>
      </trkpt>
      <trkpt lat="45.15579" lon="5.78429">
        <ele>729</ele>
        <time>2019-05-24T10:56:22.080Z</time>
      </trkpt>
      <trkpt lat="45.15578" lon="5.7843">
        <ele>731</ele>
        <time>2019-05-24T10:56:23.080Z</time>
      </trkpt>
      <trkpt lat="45.15578" lon="5.78431">
        <ele>733</ele>
        <time>2019-05-24T10:56:24.080Z</time>
      </trkpt>
      <trkpt lat="45.15578" lon="5.78433">
        <ele>736</ele>
        <time>2019-05-24T10:56:25.080Z</time>
      </trkpt>
      <trkpt lat="45.15578" lon="5.78434">
        <ele>736</ele>
        <time>2019-05-24T10:56:26.080Z</time>
      </trkpt>
      <trkpt lat="45.15578" lon="5.78436">
        <ele>736</ele>
        <time>2019-05-24T10:56:27.080Z</time>
      </trkpt>
      <trkpt lat="45.15578" lon="5.78438">
        <ele>738</ele>
        <time>2019-05-24T10:56:28.080Z</time>
      </trkpt>
      <trkpt lat="45.15579" lon="5.7844">
        <ele>737</ele>
        <time>2019-05-24T10:56:29.080Z</time>
      </trkpt>
      <trkpt lat="45.15579" lon="5.78442">
        <ele>737</ele>
        <time>2019-05-24T10:56:30.080Z</time>
      </trkpt>
      <trkpt lat="45.1558" lon="5.78443">
        <ele>737</ele>
        <time>2019-05-24T10:56:31.080Z</time>
      </trkpt>
      <trkpt lat="45.1558" lon="5.78445">
        <ele>737</ele>
        <time>2019-05-24T10:56:32.080Z</time>
      </trkpt>
      <trkpt lat="45.1558" lon="5.78446">
        <ele>740</ele>
        <time>2019-05-24T10:56:33.080Z</time>
      </trkpt>
      <trkpt lat="45.1558" lon="5.78447">
        <ele>739</ele>
        <time>2019-05-24T10:56:34.080Z</time>
      </trkpt>
      <trkpt lat="45.15579" lon="5.78449">
        <ele>736</ele>
        <time>2019-05-24T10:56:35.080Z</time>
      </trkpt>
      <trkpt lat="45.15579" lon="5.78451">
        <ele>736</ele>
        <time>2019-05-24T10:56:36.080Z</time>
      </trkpt>
      <trkpt lat="45.15579" lon="5.78452">
        <ele>735</ele>
        <time>2019-05-24T10:56:37.080Z</time>
      </trkpt>
      <trkpt lat="45.15579" lon="5.78454">
        <ele>735</ele>
        <time>2019-05-24T10:56:38.080Z</time>
      </trkpt>
      <trkpt lat="45.15579" lon="5.78456">
        <ele>735</ele>
        <time>2019-05-24T10:56:39.080Z</time>
      </trkpt>
      <trkpt lat="45.15579" lon="5.78457">
        <ele>734</ele>
        <time>2019-05-24T10:56:40.080Z</time>
      </trkpt>
      <trkpt lat="45.15579" lon="5.78459">
        <ele>735</ele>
        <time>2019-05-24T10:56:41.080Z</time>
      </trkpt>
      <trkpt lat="45.15578" lon="5.78461">
        <ele>733</ele>
        <time>2019-05-24T10:56:42.080Z</time>
      </trkpt>
      <trkpt lat="45.15577" lon="5.78463">
        <ele>731</ele>
        <time>2019-05-24T10:56:43.080Z</time>
      </trkpt>
      <trkpt lat="45.15578" lon="5.78465">
        <ele>732</ele>
        <time>2019-05-24T10:56:44.080Z</time>
      </trkpt>
      <trkpt lat="45.15577" lon="5.78467">
        <ele>733</ele>
        <time>2019-05-24T10:56:45.080Z</time>
      </trkpt>
      <trkpt lat="45.15578" lon="5.78469">
        <ele>736</ele>
        <time>2019-05-24T10:56:46.080Z</time>
      </trkpt>
      <trkpt lat="45.15578" lon="5.78471">
        <ele>737</ele>
        <time>2019-05-24T10:56:47.080Z</time>
      </trkpt>
      <trkpt lat="45.15577" lon="5.78473">
        <ele>735</ele>
        <time>2019-05-24T10:56:48.080Z</time>
      </trkpt>
      <trkpt lat="45.15576" lon="5.78475">
        <ele>736</ele>
        <time>2019-05-24T10:56:49.080Z</time>
      </trkpt>
      <trkpt lat="45.15575" lon="5.78477">
        <ele>736</ele>
        <time>2019-05-24T10:56:50.080Z</time>
      </trkpt>
      <trkpt lat="45.15575" lon="5.78479">
        <ele>736</ele>
        <time>2019-05-24T10:56:51.080Z</time>
      </trkpt>
      <trkpt lat="45.15574" lon="5.78481">
        <ele>740</ele>
        <time>2019-05-24T10:56:52.080Z</time>
      </trkpt>
      <trkpt lat="45.15574" lon="5.78484">
        <ele>741</ele>
        <time>2019-05-24T10:56:53.080Z</time>
      </trkpt>
      <trkpt lat="45.15574" lon="5.78486">
        <ele>741</ele>
        <time>2019-05-24T10:56:54.080Z</time>
      </trkpt>
      <trkpt lat="45.15573" lon="5.78489">
        <ele>741</ele>
        <time>2019-05-24T10:56:55.080Z</time>
      </trkpt>
      <trkpt lat="45.15572" lon="5.78492">
        <ele>741</ele>
        <time>2019-05-24T10:56:56.080Z</time>
      </trkpt>
      <trkpt lat="45.15572" lon="5.78495">
        <ele>743</ele>
        <time>2019-05-24T10:56:57.080Z</time>
      </trkpt>
      <trkpt lat="45.15572" lon="5.78498">
        <ele>743</ele>
        <time>2019-05-24T10:56:58.080Z</time>
      </trkpt>
      <trkpt lat="45.15571" lon="5.785">
        <ele>744</ele>
        <time>2019-05-24T10:56:59.080Z</time>
      </trkpt>
      <trkpt lat="45.15571" lon="5.78502">
        <ele>744</ele>
        <time>2019-05-24T10:57:00.080Z</time>
      </trkpt>
      <trkpt lat="45.1557" lon="5.78504">
        <ele>743</ele>
        <time>2019-05-24T10:57:01.080Z</time>
      </trkpt>
      <trkpt lat="45.1557" lon="5.78506">
        <ele>742</ele>
        <time>2019-05-24T10:57:02.080Z</time>
      </trkpt>
      <trkpt lat="45.15569" lon="5.78507">
        <ele>741</ele>
        <time>2019-05-24T10:57:03.080Z</time>
      </trkpt>
      <trkpt lat="45.15568" lon="5.78508">
        <ele>742</ele>
        <time>2019-05-24T10:57:04.080Z</time>
      </trkpt>
      <trkpt lat="45.15567" lon="5.78508">
        <ele>742</ele>
        <time>2019-05-24T10:57:05.080Z</time>
      </trkpt>
      <trkpt lat="45.15565" lon="5.78509">
        <ele>739</ele>
        <time>2019-05-24T10:57:06.080Z</time>
      </trkpt>
      <trkpt lat="45.15564" lon="5.7851">
        <ele>739</ele>
        <time>2019-05-24T10:57:07.080Z</time>
      </trkpt>
      <trkpt lat="45.15562" lon="5.7851">
        <ele>737</ele>
        <time>2019-05-24T10:57:08.080Z</time>
      </trkpt>
      <trkpt lat="45.15561" lon="5.7851">
        <ele>737</ele>
        <time>2019-05-24T10:57:09.080Z</time>
      </trkpt>
      <trkpt lat="45.15561" lon="5.7851">
        <ele>738</ele>
        <time>2019-05-24T10:57:10.080Z</time>
      </trkpt>
      <trkpt lat="45.1556" lon="5.7851">
        <ele>739</ele>
        <time>2019-05-24T10:57:11.080Z</time>
      </trkpt>
      <trkpt lat="45.15558" lon="5.78509">
        <ele>739</ele>
        <time>2019-05-24T10:57:12.080Z</time>
      </trkpt>
      <trkpt lat="45.15556" lon="5.78509">
        <ele>740</ele>
        <time>2019-05-24T10:57:13.080Z</time>
      </trkpt>
      <trkpt lat="45.15554" lon="5.78508">
        <ele>737</ele>
        <time>2019-05-24T10:57:14.080Z</time>
      </trkpt>
      <trkpt lat="45.15553" lon="5.78507">
        <ele>736</ele>
        <time>2019-05-24T10:57:15.080Z</time>
      </trkpt>
      <trkpt lat="45.15552" lon="5.78507">
        <ele>737</ele>
        <time>2019-05-24T10:57:16.080Z</time>
      </trkpt>
      <trkpt lat="45.15552" lon="5.78507">
        <ele>738</ele>
        <time>2019-05-24T10:57:17.080Z</time>
      </trkpt>
      <trkpt lat="45.15552" lon="5.78507">
        <ele>738</ele>
        <time>2019-05-24T10:57:18.080Z</time>
      </trkpt>
      <trkpt lat="45.15551" lon="5.78507">
        <ele>738</ele>
        <time>2019-05-24T10:57:19.080Z</time>
      </trkpt>
      <trkpt lat="45.15551" lon="5.78506">
        <ele>739</ele>
        <time>2019-05-24T10:57:20.080Z</time>
      </trkpt>
      <trkpt lat="45.1555" lon="5.78507">
        <ele>740</ele>
        <time>2019-05-24T10:57:21.080Z</time>
      </trkpt>
      <trkpt lat="45.15549" lon="5.78508">
        <ele>741</ele>
        <time>2019-05-24T10:57:22.080Z</time>
      </trkpt>
      <trkpt lat="45.15548" lon="5.78509">
        <ele>740</ele>
        <time>2019-05-24T10:57:23.080Z</time>
      </trkpt>
      <trkpt lat="45.15547" lon="5.7851">
        <ele>740</ele>
        <time>2019-05-24T10:57:24.080Z</time>
      </trkpt>
      <trkpt lat="45.15546" lon="5.78511">
        <ele>740</ele>
        <time>2019-05-24T10:57:25.080Z</time>
      </trkpt>
      <trkpt lat="45.15545" lon="5.78512">
        <ele>739</ele>
        <time>2019-05-24T10:57:26.080Z</time>
      </trkpt>
      <trkpt lat="45.15543" lon="5.78512">
        <ele>737</ele>
        <time>2019-05-24T10:57:27.080Z</time>
      </trkpt>
      <trkpt lat="45.15542" lon="5.78513">
        <ele>737</ele>
        <time>2019-05-24T10:57:28.080Z</time>
      </trkpt>
      <trkpt lat="45.1554" lon="5.78514">
        <ele>737</ele>
        <time>2019-05-24T10:57:29.080Z</time>
      </trkpt>
      <trkpt lat="45.15538" lon="5.78515">
        <ele>737</ele>
        <time>2019-05-24T10:57:30.080Z</time>
      </trkpt>
      <trkpt lat="45.15537" lon="5.78516">
        <ele>735</ele>
        <time>2019-05-24T10:57:31.080Z</time>
      </trkpt>
      <trkpt lat="45.15535" lon="5.78517">
        <ele>734</ele>
        <time>2019-05-24T10:57:32.080Z</time>
      </trkpt>
      <trkpt lat="45.15534" lon="5.78519">
        <ele>734</ele>
        <time>2019-05-24T10:57:33.080Z</time>
      </trkpt>
      <trkpt lat="45.15533" lon="5.7852">
        <ele>734</ele>
        <time>2019-05-24T10:57:34.080Z</time>
      </trkpt>
      <trkpt lat="45.15531" lon="5.78522">
        <ele>732</ele>
        <time>2019-05-24T10:57:35.080Z</time>
      </trkpt>
      <trkpt lat="45.1553" lon="5.78523">
        <ele>733</ele>
        <time>2019-05-24T10:57:36.080Z</time>
      </trkpt>
      <trkpt lat="45.1553" lon="5.78525">
        <ele>735</ele>
        <time>2019-05-24T10:57:37.080Z</time>
      </trkpt>
      <trkpt lat="45.15529" lon="5.78526">
        <ele>736</ele>
        <time>2019-05-24T10:57:38.080Z</time>
      </trkpt>
      <trkpt lat="45.15528" lon="5.78527">
        <ele>737</ele>
        <time>2019-05-24T10:57:39.080Z</time>
      </trkpt>
      <trkpt lat="45.15526" lon="5.78528">
        <ele>737</ele>
        <time>2019-05-24T10:57:40.080Z</time>
      </trkpt>
      <trkpt lat="45.15525" lon="5.7853">
        <ele>737</ele>
        <time>2019-05-24T10:57:41.080Z</time>
      </trkpt>
      <trkpt lat="45.15524" lon="5.78531">
        <ele>738</ele>
        <time>2019-05-24T10:57:42.080Z</time>
      </trkpt>
      <trkpt lat="45.15524" lon="5.78532">
        <ele>738</ele>
        <time>2019-05-24T10:57:43.080Z</time>
      </trkpt>
      <trkpt lat="45.15523" lon="5.78533">
        <ele>736</ele>
        <time>2019-05-24T10:57:44.080Z</time>
      </trkpt>
      <trkpt lat="45.15521" lon="5.78534">
        <ele>736</ele>
        <time>2019-05-24T10:57:45.080Z</time>
      </trkpt>
      <trkpt lat="45.15521" lon="5.78536">
        <ele>736</ele>
        <time>2019-05-24T10:57:46.080Z</time>
      </trkpt>
      <trkpt lat="45.1552" lon="5.78537">
        <ele>737</ele>
        <time>2019-05-24T10:57:47.080Z</time>
      </trkpt>
      <trkpt lat="45.15519" lon="5.78539">
        <ele>739</ele>
        <time>2019-05-24T10:57:48.080Z</time>
      </trkpt>
      <trkpt lat="45.15518" lon="5.7854">
        <ele>742</ele>
        <time>2019-05-24T10:57:49.080Z</time>
      </trkpt>
      <trkpt lat="45.15518" lon="5.78541">
        <ele>742</ele>
        <time>2019-05-24T10:57:50.080Z</time>
      </trkpt>
      <trkpt lat="45.15519" lon="5.78542">
        <ele>742</ele>
        <time>2019-05-24T10:57:51.080Z</time>
      </trkpt>
      <trkpt lat="45.15518" lon="5.78542">
        <ele>741</ele>
        <time>2019-05-24T10:57:52.080Z</time>
      </trkpt>
      <trkpt lat="45.15517" lon="5.78542">
        <ele>742</ele>
        <time>2019-05-24T10:57:53.080Z</time>
      </trkpt>
      <trkpt lat="45.15516" lon="5.78542">
        <ele>743</ele>
        <time>2019-05-24T10:57:54.080Z</time>
      </trkpt>
      <trkpt lat="45.15515" lon="5.78542">
        <ele>740</ele>
        <time>2019-05-24T10:57:55.080Z</time>
      </trkpt>
      <trkpt lat="45.15514" lon="5.78542">
        <ele>740</ele>
        <time>2019-05-24T10:57:56.080Z</time>
      </trkpt>
      <trkpt lat="45.15513" lon="5.78543">
        <ele>741</ele>
        <time>2019-05-24T10:57:57.080Z</time>
      </trkpt>
      <trkpt lat="45.15513" lon="5.78543">
        <ele>743</ele>
        <time>2019-05-24T10:57:58.080Z</time>
      </trkpt>
      <trkpt lat="45.15513" lon="5.78544">
        <ele>745</ele>
        <time>2019-05-24T10:57:59.080Z</time>
      </trkpt>
      <trkpt lat="45.15513" lon="5.78546">
        <ele>744</ele>
        <time>2019-05-24T10:58:00.080Z</time>
      </trkpt>
      <trkpt lat="45.15513" lon="5.78547">
        <ele>745</ele>
        <time>2019-05-24T10:58:01.080Z</time>
      </trkpt>
      <trkpt lat="45.15512" lon="5.78549">
        <ele>746</ele>
        <time>2019-05-24T10:58:02.080Z</time>
      </trkpt>
      <trkpt lat="45.15512" lon="5.78551">
        <ele>746</ele>
        <time>2019-05-24T10:58:03.080Z</time>
      </trkpt>
      <trkpt lat="45.15513" lon="5.78554">
        <ele>746</ele>
        <time>2019-05-24T10:58:04.080Z</time>
      </trkpt>
      <trkpt lat="45.15513" lon="5.78556">
        <ele>745</ele>
        <time>2019-05-24T10:58:05.080Z</time>
      </trkpt>
      <trkpt lat="45.15514" lon="5.78558">
        <ele>745</ele>
        <time>2019-05-24T10:58:06.080Z</time>
      </trkpt>
      <trkpt lat="45.15514" lon="5.7856">
        <ele>747</ele>
        <time>2019-05-24T10:58:07.080Z</time>
      </trkpt>
      <trkpt lat="45.15514" lon="5.78563">
        <ele>744</ele>
        <time>2019-05-24T10:58:08.080Z</time>
      </trkpt>
      <trkpt lat="45.15514" lon="5.78566">
        <ele>745</ele>
        <time>2019-05-24T10:58:09.080Z</time>
      </trkpt>
      <trkpt lat="45.15515" lon="5.78568">
        <ele>745</ele>
        <time>2019-05-24T10:58:10.080Z</time>
      </trkpt>
      <trkpt lat="45.15516" lon="5.7857">
        <ele>745</ele>
        <time>2019-05-24T10:58:11.080Z</time>
      </trkpt>
      <trkpt lat="45.15517" lon="5.78572">
        <ele>744</ele>
        <time>2019-05-24T10:58:12.080Z</time>
      </trkpt>
      <trkpt lat="45.15518" lon="5.78575">
        <ele>745</ele>
        <time>2019-05-24T10:58:13.080Z</time>
      </trkpt>
      <trkpt lat="45.15519" lon="5.78577">
        <ele>747</ele>
        <time>2019-05-24T10:58:14.080Z</time>
      </trkpt>
      <trkpt lat="45.15519" lon="5.78579">
        <ele>751</ele>
        <time>2019-05-24T10:58:15.080Z</time>
      </trkpt>
      <trkpt lat="45.1552" lon="5.78582">
        <ele>751</ele>
        <time>2019-05-24T10:58:16.080Z</time>
      </trkpt>
      <trkpt lat="45.15521" lon="5.78585">
        <ele>751</ele>
        <time>2019-05-24T10:58:17.080Z</time>
      </trkpt>
      <trkpt lat="45.15522" lon="5.78587">
        <ele>752</ele>
        <time>2019-05-24T10:58:18.080Z</time>
      </trkpt>
      <trkpt lat="45.15522" lon="5.78591">
        <ele>753</ele>
        <time>2019-05-24T10:58:19.080Z</time>
      </trkpt>
      <trkpt lat="45.15524" lon="5.78594">
        <ele>753</ele>
        <time>2019-05-24T10:58:20.080Z</time>
      </trkpt>
      <trkpt lat="45.15525" lon="5.78596">
        <ele>754</ele>
        <time>2019-05-24T10:58:21.080Z</time>
      </trkpt>
      <trkpt lat="45.15526" lon="5.78599">
        <ele>754</ele>
        <time>2019-05-24T10:58:22.080Z</time>
      </trkpt>
      <trkpt lat="45.15527" lon="5.78601">
        <ele>755</ele>
        <time>2019-05-24T10:58:23.080Z</time>
      </trkpt>
      <trkpt lat="45.15527" lon="5.78602">
        <ele>755</ele>
        <time>2019-05-24T10:58:24.080Z</time>
      </trkpt>
      <trkpt lat="45.15528" lon="5.78604">
        <ele>754</ele>
        <time>2019-05-24T10:58:25.080Z</time>
      </trkpt>
      <trkpt lat="45.15528" lon="5.78606">
        <ele>752</ele>
        <time>2019-05-24T10:58:26.080Z</time>
      </trkpt>
      <trkpt lat="45.15528" lon="5.78608">
        <ele>751</ele>
        <time>2019-05-24T10:58:27.080Z</time>
      </trkpt>
      <trkpt lat="45.15528" lon="5.78608">
        <ele>750</ele>
        <time>2019-05-24T10:58:28.080Z</time>
      </trkpt>
      <trkpt lat="45.15529" lon="5.7861">
        <ele>750</ele>
        <time>2019-05-24T10:58:29.080Z</time>
      </trkpt>
      <trkpt lat="45.15529" lon="5.78612">
        <ele>750</ele>
        <time>2019-05-24T10:58:30.080Z</time>
      </trkpt>
      <trkpt lat="45.1553" lon="5.78613">
        <ele>750</ele>
        <time>2019-05-24T10:58:31.080Z</time>
      </trkpt>
      <trkpt lat="45.15531" lon="5.78614">
        <ele>749</ele>
        <time>2019-05-24T10:58:32.080Z</time>
      </trkpt>
      <trkpt lat="45.15531" lon="5.78616">
        <ele>750</ele>
        <time>2019-05-24T10:58:33.080Z</time>
      </trkpt>
      <trkpt lat="45.15531" lon="5.78617">
        <ele>753</ele>
        <time>2019-05-24T10:58:34.080Z</time>
      </trkpt>
      <trkpt lat="45.15531" lon="5.78619">
        <ele>752</ele>
        <time>2019-05-24T10:58:35.080Z</time>
      </trkpt>
      <trkpt lat="45.15531" lon="5.7862">
        <ele>755</ele>
        <time>2019-05-24T10:58:36.080Z</time>
      </trkpt>
      <trkpt lat="45.15531" lon="5.78621">
        <ele>757</ele>
        <time>2019-05-24T10:58:37.080Z</time>
      </trkpt>
      <trkpt lat="45.1553" lon="5.78622">
        <ele>756</ele>
        <time>2019-05-24T10:58:38.080Z</time>
      </trkpt>
      <trkpt lat="45.1553" lon="5.78623">
        <ele>756</ele>
        <time>2019-05-24T10:58:39.080Z</time>
      </trkpt>
      <trkpt lat="45.15529" lon="5.78623">
        <ele>756</ele>
        <time>2019-05-24T10:58:40.080Z</time>
      </trkpt>
      <trkpt lat="45.15528" lon="5.78623">
        <ele>756</ele>
        <time>2019-05-24T10:58:41.080Z</time>
      </trkpt>
      <trkpt lat="45.15528" lon="5.78623">
        <ele>753</ele>
        <time>2019-05-24T10:58:42.080Z</time>
      </trkpt>
      <trkpt lat="45.15528" lon="5.78622">
        <ele>754</ele>
        <time>2019-05-24T10:58:43.080Z</time>
      </trkpt>
      <trkpt lat="45.15528" lon="5.78621">
        <ele>758</ele>
        <time>2019-05-24T10:58:44.080Z</time>
      </trkpt>
      <trkpt lat="45.15527" lon="5.7862">
        <ele>761</ele>
        <time>2019-05-24T10:58:45.080Z</time>
      </trkpt>
      <trkpt lat="45.15527" lon="5.7862">
        <ele>761</ele>
        <time>2019-05-24T10:58:46.080Z</time>
      </trkpt>
      <trkpt lat="45.15526" lon="5.78619">
        <ele>760</ele>
        <time>2019-05-24T10:58:47.080Z</time>
      </trkpt>
      <trkpt lat="45.15526" lon="5.78619">
        <ele>759</ele>
        <time>2019-05-24T10:58:48.080Z</time>
      </trkpt>
      <trkpt lat="45.15525" lon="5.78617">
        <ele>758</ele>
        <time>2019-05-24T10:58:49.080Z</time>
      </trkpt>
      <trkpt lat="45.15525" lon="5.78617">
        <ele>756</ele>
        <time>2019-05-24T10:58:50.080Z</time>
      </trkpt>
      <trkpt lat="45.15525" lon="5.78616">
        <ele>754</ele>
        <time>2019-05-24T10:58:51.080Z</time>
      </trkpt>
      <trkpt lat="45.15524" lon="5.78616">
        <ele>754</ele>
        <time>2019-05-24T10:58:52.080Z</time>
      </trkpt>
      <trkpt lat="45.15523" lon="5.78617">
        <ele>751</ele>
        <time>2019-05-24T10:58:53.080Z</time>
      </trkpt>
      <trkpt lat="45.15522" lon="5.78617">
        <ele>747</ele>
        <time>2019-05-24T10:58:54.080Z</time>
      </trkpt>
      <trkpt lat="45.15522" lon="5.78618">
        <ele>744</ele>
        <time>2019-05-24T10:58:55.080Z</time>
      </trkpt>
      <trkpt lat="45.15522" lon="5.78619">
        <ele>744</ele>
        <time>2019-05-24T10:58:56.080Z</time>
      </trkpt>
      <trkpt lat="45.15522" lon="5.78619">
        <ele>744</ele>
        <time>2019-05-24T10:58:57.080Z</time>
      </trkpt>
      <trkpt lat="45.15522" lon="5.78621">
        <ele>744</ele>
        <time>2019-05-24T10:58:58.080Z</time>
      </trkpt>
      <trkpt lat="45.15523" lon="5.78622">
        <ele>744</ele>
        <time>2019-05-24T10:58:59.080Z</time>
      </trkpt>
      <trkpt lat="45.15523" lon="5.78625">
        <ele>744</ele>
        <time>2019-05-24T10:59:00.080Z</time>
      </trkpt>
      <trkpt lat="45.15523" lon="5.78627">
        <ele>743</ele>
        <time>2019-05-24T10:59:01.080Z</time>
      </trkpt>
      <trkpt lat="45.15524" lon="5.78629">
        <ele>741</ele>
        <time>2019-05-24T10:59:02.080Z</time>
      </trkpt>
      <trkpt lat="45.15524" lon="5.78632">
        <ele>740</ele>
        <time>2019-05-24T10:59:03.080Z</time>
      </trkpt>
      <trkpt lat="45.15525" lon="5.78635">
        <ele>739</ele>
        <time>2019-05-24T10:59:04.080Z</time>
      </trkpt>
      <trkpt lat="45.15525" lon="5.78637">
        <ele>739</ele>
        <time>2019-05-24T10:59:05.080Z</time>
      </trkpt>
      <trkpt lat="45.15525" lon="5.7864">
        <ele>739</ele>
        <time>2019-05-24T10:59:06.080Z</time>
      </trkpt>
      <trkpt lat="45.15526" lon="5.78642">
        <ele>740</ele>
        <time>2019-05-24T10:59:07.080Z</time>
      </trkpt>
      <trkpt lat="45.15527" lon="5.78645">
        <ele>740</ele>
        <time>2019-05-24T10:59:08.080Z</time>
      </trkpt>
      <trkpt lat="45.15527" lon="5.78647">
        <ele>740</ele>
        <time>2019-05-24T10:59:09.080Z</time>
      </trkpt>
      <trkpt lat="45.15528" lon="5.7865">
        <ele>739</ele>
        <time>2019-05-24T10:59:10.080Z</time>
      </trkpt>
      <trkpt lat="45.15528" lon="5.78653">
        <ele>739</ele>
        <time>2019-05-24T10:59:11.080Z</time>
      </trkpt>
      <trkpt lat="45.15529" lon="5.78657">
        <ele>739</ele>
        <time>2019-05-24T10:59:12.080Z</time>
      </trkpt>
      <trkpt lat="45.15529" lon="5.78659">
        <ele>739</ele>
        <time>2019-05-24T10:59:13.080Z</time>
      </trkpt>
      <trkpt lat="45.1553" lon="5.78662">
        <ele>739</ele>
        <time>2019-05-24T10:59:14.080Z</time>
      </trkpt>
      <trkpt lat="45.1553" lon="5.78666">
        <ele>738</ele>
        <time>2019-05-24T10:59:15.080Z</time>
      </trkpt>
      <trkpt lat="45.15531" lon="5.78669">
        <ele>737</ele>
        <time>2019-05-24T10:59:16.080Z</time>
      </trkpt>
      <trkpt lat="45.15532" lon="5.78671">
        <ele>738</ele>
        <time>2019-05-24T10:59:17.080Z</time>
      </trkpt>
      <trkpt lat="45.15533" lon="5.78674">
        <ele>739</ele>
        <time>2019-05-24T10:59:18.080Z</time>
      </trkpt>
      <trkpt lat="45.15534" lon="5.78676">
        <ele>743</ele>
        <time>2019-05-24T10:59:19.080Z</time>
      </trkpt>
      <trkpt lat="45.15535" lon="5.78678">
        <ele>747</ele>
        <time>2019-05-24T10:59:20.080Z</time>
      </trkpt>
      <trkpt lat="45.15536" lon="5.78681">
        <ele>747</ele>
        <time>2019-05-24T10:59:21.080Z</time>
      </trkpt>
      <trkpt lat="45.15537" lon="5.78683">
        <ele>746</ele>
        <time>2019-05-24T10:59:22.080Z</time>
      </trkpt>
      <trkpt lat="45.15538" lon="5.78685">
        <ele>746</ele>
        <time>2019-05-24T10:59:23.080Z</time>
      </trkpt>
      <trkpt lat="45.1554" lon="5.78688">
        <ele>747</ele>
        <time>2019-05-24T10:59:24.080Z</time>
      </trkpt>
      <trkpt lat="45.15541" lon="5.78691">
        <ele>745</ele>
        <time>2019-05-24T10:59:25.080Z</time>
      </trkpt>
      <trkpt lat="45.15542" lon="5.78694">
        <ele>745</ele>
        <time>2019-05-24T10:59:26.080Z</time>
      </trkpt>
      <trkpt lat="45.15543" lon="5.78697">
        <ele>746</ele>
        <time>2019-05-24T10:59:27.080Z</time>
      </trkpt>
      <trkpt lat="45.15544" lon="5.78701">
        <ele>745</ele>
        <time>2019-05-24T10:59:28.080Z</time>
      </trkpt>
      <trkpt lat="45.15546" lon="5.78704">
        <ele>744</ele>
        <time>2019-05-24T10:59:29.080Z</time>
      </trkpt>
      <trkpt lat="45.15547" lon="5.78707">
        <ele>743</ele>
        <time>2019-05-24T10:59:30.080Z</time>
      </trkpt>
      <trkpt lat="45.15549" lon="5.78709">
        <ele>743</ele>
        <time>2019-05-24T10:59:31.080Z</time>
      </trkpt>
      <trkpt lat="45.1555" lon="5.78712">
        <ele>743</ele>
        <time>2019-05-24T10:59:32.080Z</time>
      </trkpt>
      <trkpt lat="45.15552" lon="5.78714">
        <ele>743</ele>
        <time>2019-05-24T10:59:33.080Z</time>
      </trkpt>
      <trkpt lat="45.15552" lon="5.78717">
        <ele>744</ele>
        <time>2019-05-24T10:59:34.080Z</time>
      </trkpt>
      <trkpt lat="45.15553" lon="5.78719">
        <ele>746</ele>
        <time>2019-05-24T10:59:35.080Z</time>
      </trkpt>
      <trkpt lat="45.15553" lon="5.78723">
        <ele>745</ele>
        <time>2019-05-24T10:59:36.080Z</time>
      </trkpt>
      <trkpt lat="45.15554" lon="5.78726">
        <ele>744</ele>
        <time>2019-05-24T10:59:37.080Z</time>
      </trkpt>
      <trkpt lat="45.15555" lon="5.78729">
        <ele>745</ele>
        <time>2019-05-24T10:59:38.080Z</time>
      </trkpt>
      <trkpt lat="45.15556" lon="5.78732">
        <ele>746</ele>
        <time>2019-05-24T10:59:39.080Z</time>
      </trkpt>
      <trkpt lat="45.15556" lon="5.78735">
        <ele>746</ele>
        <time>2019-05-24T10:59:40.080Z</time>
      </trkpt>
      <trkpt lat="45.15557" lon="5.78739">
        <ele>746</ele>
        <time>2019-05-24T10:59:41.080Z</time>
      </trkpt>
      <trkpt lat="45.15558" lon="5.78742">
        <ele>748</ele>
        <time>2019-05-24T10:59:42.080Z</time>
      </trkpt>
      <trkpt lat="45.15558" lon="5.78745">
        <ele>748</ele>
        <time>2019-05-24T10:59:43.080Z</time>
      </trkpt>
      <trkpt lat="45.15558" lon="5.78748">
        <ele>750</ele>
        <time>2019-05-24T10:59:44.080Z</time>
      </trkpt>
      <trkpt lat="45.15559" lon="5.7875">
        <ele>751</ele>
        <time>2019-05-24T10:59:45.080Z</time>
      </trkpt>
      <trkpt lat="45.1556" lon="5.78754">
        <ele>752</ele>
        <time>2019-05-24T10:59:46.080Z</time>
      </trkpt>
      <trkpt lat="45.1556" lon="5.78757">
        <ele>754</ele>
        <time>2019-05-24T10:59:47.080Z</time>
      </trkpt>
      <trkpt lat="45.15561" lon="5.7876">
        <ele>756</ele>
        <time>2019-05-24T10:59:48.080Z</time>
      </trkpt>
      <trkpt lat="45.15562" lon="5.78764">
        <ele>757</ele>
        <time>2019-05-24T10:59:49.080Z</time>
      </trkpt>
      <trkpt lat="45.15563" lon="5.78767">
        <ele>758</ele>
        <time>2019-05-24T10:59:50.080Z</time>
      </trkpt>
      <trkpt lat="45.15564" lon="5.7877">
        <ele>758</ele>
        <time>2019-05-24T10:59:51.080Z</time>
      </trkpt>
      <trkpt lat="45.15566" lon="5.78773">
        <ele>758</ele>
        <time>2019-05-24T10:59:52.080Z</time>
      </trkpt>
      <trkpt lat="45.15568" lon="5.78776">
        <ele>760</ele>
        <time>2019-05-24T10:59:53.080Z</time>
      </trkpt>
      <trkpt lat="45.1557" lon="5.78779">
        <ele>763</ele>
        <time>2019-05-24T10:59:54.080Z</time>
      </trkpt>
      <trkpt lat="45.15571" lon="5.78783">
        <ele>765</ele>
        <time>2019-05-24T10:59:55.080Z</time>
      </trkpt>
      <trkpt lat="45.15574" lon="5.78785">
        <ele>765</ele>
        <time>2019-05-24T10:59:56.080Z</time>
      </trkpt>
      <trkpt lat="45.15575" lon="5.78789">
        <ele>765</ele>
        <time>2019-05-24T10:59:57.080Z</time>
      </trkpt>
      <trkpt lat="45.15577" lon="5.78792">
        <ele>766</ele>
        <time>2019-05-24T10:59:58.080Z</time>
      </trkpt>
      <trkpt lat="45.15579" lon="5.78795">
        <ele>770</ele>
        <time>2019-05-24T10:59:59.080Z</time>
      </trkpt>
      <trkpt lat="45.15581" lon="5.78799">
        <ele>772</ele>
        <time>2019-05-24T11:00:00.080Z</time>
      </trkpt>
      <trkpt lat="45.15583" lon="5.78802">
        <ele>774</ele>
        <time>2019-05-24T11:00:01.080Z</time>
      </trkpt>
      <trkpt lat="45.15586" lon="5.78805">
        <ele>774</ele>
        <time>2019-05-24T11:00:02.080Z</time>
      </trkpt>
      <trkpt lat="45.15587" lon="5.78809">
        <ele>774</ele>
        <time>2019-05-24T11:00:03.080Z</time>
      </trkpt>
      <trkpt lat="45.15588" lon="5.78812">
        <ele>773</ele>
        <time>2019-05-24T11:00:04.080Z</time>
      </trkpt>
      <trkpt lat="45.1559" lon="5.78814">
        <ele>774</ele>
        <time>2019-05-24T11:00:05.080Z</time>
      </trkpt>
      <trkpt lat="45.15592" lon="5.78816">
        <ele>774</ele>
        <time>2019-05-24T11:00:06.080Z</time>
      </trkpt>
      <trkpt lat="45.15594" lon="5.78818">
        <ele>777</ele>
        <time>2019-05-24T11:00:07.080Z</time>
      </trkpt>
      <trkpt lat="45.15595" lon="5.78819">
        <ele>780</ele>
        <time>2019-05-24T11:00:08.080Z</time>
      </trkpt>
      <trkpt lat="45.15597" lon="5.7882">
        <ele>782</ele>
        <time>2019-05-24T11:00:09.080Z</time>
      </trkpt>
      <trkpt lat="45.15598" lon="5.78822">
        <ele>783</ele>
        <time>2019-05-24T11:00:10.080Z</time>
      </trkpt>
      <trkpt lat="45.15599" lon="5.78822">
        <ele>785</ele>
        <time>2019-05-24T11:00:11.080Z</time>
      </trkpt>
      <trkpt lat="45.15599" lon="5.78823">
        <ele>789</ele>
        <time>2019-05-24T11:00:12.080Z</time>
      </trkpt>
      <trkpt lat="45.156" lon="5.78824">
        <ele>788</ele>
        <time>2019-05-24T11:00:13.080Z</time>
      </trkpt>
      <trkpt lat="45.15602" lon="5.78824">
        <ele>788</ele>
        <time>2019-05-24T11:00:14.080Z</time>
      </trkpt>
      <trkpt lat="45.15604" lon="5.78825">
        <ele>792</ele>
        <time>2019-05-24T11:00:15.080Z</time>
      </trkpt>
      <trkpt lat="45.15605" lon="5.78827">
        <ele>793</ele>
        <time>2019-05-24T11:00:16.080Z</time>
      </trkpt>
      <trkpt lat="45.15606" lon="5.78828">
        <ele>795</ele>
        <time>2019-05-24T11:00:17.080Z</time>
      </trkpt>
      <trkpt lat="45.15608" lon="5.78829">
        <ele>793</ele>
        <time>2019-05-24T11:00:18.080Z</time>
      </trkpt>
      <trkpt lat="45.15609" lon="5.7883">
        <ele>792</ele>
        <time>2019-05-24T11:00:19.080Z</time>
      </trkpt>
      <trkpt lat="45.15609" lon="5.78831">
        <ele>791</ele>
        <time>2019-05-24T11:00:20.080Z</time>
      </trkpt>
      <trkpt lat="45.15611" lon="5.78832">
        <ele>790</ele>
        <time>2019-05-24T11:00:21.080Z</time>
      </trkpt>
      <trkpt lat="45.15612" lon="5.78833">
        <ele>789</ele>
        <time>2019-05-24T11:00:22.080Z</time>
      </trkpt>
      <trkpt lat="45.15614" lon="5.78833">
        <ele>789</ele>
        <time>2019-05-24T11:00:23.080Z</time>
      </trkpt>
      <trkpt lat="45.15615" lon="5.78833">
        <ele>790</ele>
        <time>2019-05-24T11:00:24.080Z</time>
      </trkpt>
      <trkpt lat="45.15616" lon="5.78833">
        <ele>789</ele>
        <time>2019-05-24T11:00:25.080Z</time>
      </trkpt>
      <trkpt lat="45.15618" lon="5.78834">
        <ele>790</ele>
        <time>2019-05-24T11:00:26.080Z</time>
      </trkpt>
      <trkpt lat="45.1562" lon="5.78834">
        <ele>788</ele>
        <time>2019-05-24T11:00:27.080Z</time>
      </trkpt>
      <trkpt lat="45.15623" lon="5.78835">
        <ele>788</ele>
        <time>2019-05-24T11:00:28.080Z</time>
      </trkpt>
      <trkpt lat="45.15624" lon="5.78836">
        <ele>785</ele>
        <time>2019-05-24T11:00:29.080Z</time>
      </trkpt>
      <trkpt lat="45.15626" lon="5.78837">
        <ele>784</ele>
        <time>2019-05-24T11:00:30.080Z</time>
      </trkpt>
      <trkpt lat="45.15629" lon="5.78838">
        <ele>783</ele>
        <time>2019-05-24T11:00:31.080Z</time>
      </trkpt>
      <trkpt lat="45.15632" lon="5.78839">
        <ele>781</ele>
        <time>2019-05-24T11:00:32.080Z</time>
      </trkpt>
      <trkpt lat="45.15634" lon="5.7884">
        <ele>778</ele>
        <time>2019-05-24T11:00:33.080Z</time>
      </trkpt>
      <trkpt lat="45.15635" lon="5.78841">
        <ele>771</ele>
        <time>2019-05-24T11:00:34.080Z</time>
      </trkpt>
      <trkpt lat="45.15637" lon="5.78842">
        <ele>771</ele>
        <time>2019-05-24T11:00:35.080Z</time>
      </trkpt>
      <trkpt lat="45.15639" lon="5.78843">
        <ele>771</ele>
        <time>2019-05-24T11:00:36.080Z</time>
      </trkpt>
      <trkpt lat="45.15642" lon="5.78844">
        <ele>770</ele>
        <time>2019-05-24T11:00:37.080Z</time>
      </trkpt>
      <trkpt lat="45.15643" lon="5.78844">
        <ele>771</ele>
        <time>2019-05-24T11:00:38.080Z</time>
      </trkpt>
      <trkpt lat="45.15646" lon="5.78844">
        <ele>771</ele>
        <time>2019-05-24T11:00:39.080Z</time>
      </trkpt>
      <trkpt lat="45.15648" lon="5.78845">
        <ele>770</ele>
        <time>2019-05-24T11:00:40.080Z</time>
      </trkpt>
      <trkpt lat="45.1565" lon="5.78846">
        <ele>769</ele>
        <time>2019-05-24T11:00:41.080Z</time>
      </trkpt>
      <trkpt lat="45.15652" lon="5.78846">
        <ele>768</ele>
        <time>2019-05-24T11:00:42.080Z</time>
      </trkpt>
      <trkpt lat="45.15654" lon="5.78848">
        <ele>767</ele>
        <time>2019-05-24T11:00:43.080Z</time>
      </trkpt>
      <trkpt lat="45.15656" lon="5.78849">
        <ele>767</ele>
        <time>2019-05-24T11:00:44.080Z</time>
      </trkpt>
      <trkpt lat="45.15658" lon="5.7885">
        <ele>768</ele>
        <time>2019-05-24T11:00:45.080Z</time>
      </trkpt>
      <trkpt lat="45.1566" lon="5.7885">
        <ele>769</ele>
        <time>2019-05-24T11:00:46.080Z</time>
      </trkpt>
      <trkpt lat="45.15663" lon="5.78851">
        <ele>770</ele>
        <time>2019-05-24T11:00:47.080Z</time>
      </trkpt>
      <trkpt lat="45.15666" lon="5.78852">
        <ele>771</ele>
        <time>2019-05-24T11:00:48.080Z</time>
      </trkpt>
      <trkpt lat="45.15668" lon="5.78853">
        <ele>770</ele>
        <time>2019-05-24T11:00:49.080Z</time>
      </trkpt>
      <trkpt lat="45.15671" lon="5.78855">
        <ele>769</ele>
        <time>2019-05-24T11:00:50.080Z</time>
      </trkpt>
      <trkpt lat="45.15674" lon="5.78855">
        <ele>767</ele>
        <time>2019-05-24T11:00:51.080Z</time>
      </trkpt>
      <trkpt lat="45.15676" lon="5.78855">
        <ele>767</ele>
        <time>2019-05-24T11:00:52.080Z</time>
      </trkpt>
      <trkpt lat="45.15679" lon="5.78855">
        <ele>769</ele>
        <time>2019-05-24T11:00:53.080Z</time>
      </trkpt>
      <trkpt lat="45.15682" lon="5.78855">
        <ele>770</ele>
        <time>2019-05-24T11:00:54.080Z</time>
      </trkpt>
      <trkpt lat="45.15684" lon="5.78855">
        <ele>771</ele>
        <time>2019-05-24T11:00:55.080Z</time>
      </trkpt>
      <trkpt lat="45.15685" lon="5.78856">
        <ele>770</ele>
        <time>2019-05-24T11:00:56.080Z</time>
      </trkpt>
      <trkpt lat="45.15688" lon="5.78858">
        <ele>769</ele>
        <time>2019-05-24T11:00:57.080Z</time>
      </trkpt>
      <trkpt lat="45.1569" lon="5.78859">
        <ele>769</ele>
        <time>2019-05-24T11:00:58.080Z</time>
      </trkpt>
      <trkpt lat="45.15693" lon="5.7886">
        <ele>767</ele>
        <time>2019-05-24T11:00:59.080Z</time>
      </trkpt>
      <trkpt lat="45.15695" lon="5.78863">
        <ele>765</ele>
        <time>2019-05-24T11:01:00.080Z</time>
      </trkpt>
      <trkpt lat="45.15698" lon="5.78864">
        <ele>765</ele>
        <time>2019-05-24T11:01:01.080Z</time>
      </trkpt>
      <trkpt lat="45.157" lon="5.78865">
        <ele>766</ele>
        <time>2019-05-24T11:01:02.080Z</time>
      </trkpt>
      <trkpt lat="45.15702" lon="5.78865">
        <ele>766</ele>
        <time>2019-05-24T11:01:03.080Z</time>
      </trkpt>
      <trkpt lat="45.15704" lon="5.78867">
        <ele>766</ele>
        <time>2019-05-24T11:01:04.080Z</time>
      </trkpt>
      <trkpt lat="45.15707" lon="5.78869">
        <ele>764</ele>
        <time>2019-05-24T11:01:05.080Z</time>
      </trkpt>
      <trkpt lat="45.15709" lon="5.78871">
        <ele>764</ele>
        <time>2019-05-24T11:01:06.080Z</time>
      </trkpt>
      <trkpt lat="45.15711" lon="5.78873">
        <ele>760</ele>
        <time>2019-05-24T11:01:07.080Z</time>
      </trkpt>
      <trkpt lat="45.15714" lon="5.78874">
        <ele>759</ele>
        <time>2019-05-24T11:01:08.080Z</time>
      </trkpt>
      <trkpt lat="45.15717" lon="5.78876">
        <ele>759</ele>
        <time>2019-05-24T11:01:09.080Z</time>
      </trkpt>
      <trkpt lat="45.15719" lon="5.78877">
        <ele>762</ele>
        <time>2019-05-24T11:01:10.080Z</time>
      </trkpt>
      <trkpt lat="45.15721" lon="5.78879">
        <ele>762</ele>
        <time>2019-05-24T11:01:11.080Z</time>
      </trkpt>
      <trkpt lat="45.15723" lon="5.78881">
        <ele>763</ele>
        <time>2019-05-24T11:01:12.080Z</time>
      </trkpt>
      <trkpt lat="45.15725" lon="5.78883">
        <ele>762</ele>
        <time>2019-05-24T11:01:13.080Z</time>
      </trkpt>
      <trkpt lat="45.15728" lon="5.78885">
        <ele>761</ele>
        <time>2019-05-24T11:01:14.080Z</time>
      </trkpt>
      <trkpt lat="45.15731" lon="5.78886">
        <ele>761</ele>
        <time>2019-05-24T11:01:15.080Z</time>
      </trkpt>
      <trkpt lat="45.15733" lon="5.78888">
        <ele>760</ele>
        <time>2019-05-24T11:01:16.080Z</time>
      </trkpt>
      <trkpt lat="45.15736" lon="5.7889">
        <ele>759</ele>
        <time>2019-05-24T11:01:17.080Z</time>
      </trkpt>
      <trkpt lat="45.15738" lon="5.78892">
        <ele>759</ele>
        <time>2019-05-24T11:01:18.080Z</time>
      </trkpt>
      <trkpt lat="45.15741" lon="5.78893">
        <ele>757</ele>
        <time>2019-05-24T11:01:19.080Z</time>
      </trkpt>
      <trkpt lat="45.15743" lon="5.78895">
        <ele>755</ele>
        <time>2019-05-24T11:01:20.080Z</time>
      </trkpt>
      <trkpt lat="45.15746" lon="5.78897">
        <ele>755</ele>
        <time>2019-05-24T11:01:21.080Z</time>
      </trkpt>
      <trkpt lat="45.15748" lon="5.789">
        <ele>755</ele>
        <time>2019-05-24T11:01:22.080Z</time>
      </trkpt>
      <trkpt lat="45.1575" lon="5.78902">
        <ele>754</ele>
        <time>2019-05-24T11:01:23.080Z</time>
      </trkpt>
      <trkpt lat="45.15752" lon="5.78905">
        <ele>755</ele>
        <time>2019-05-24T11:01:24.080Z</time>
      </trkpt>
      <trkpt lat="45.15755" lon="5.78907">
        <ele>756</ele>
        <time>2019-05-24T11:01:25.080Z</time>
      </trkpt>
      <trkpt lat="45.15757" lon="5.78907">
        <ele>758</ele>
        <time>2019-05-24T11:01:26.080Z</time>
      </trkpt>
      <trkpt lat="45.15759" lon="5.78908">
        <ele>760</ele>
        <time>2019-05-24T11:01:27.080Z</time>
      </trkpt>
      <trkpt lat="45.15762" lon="5.78909">
        <ele>760</ele>
        <time>2019-05-24T11:01:28.080Z</time>
      </trkpt>
      <trkpt lat="45.15764" lon="5.78909">
        <ele>760</ele>
        <time>2019-05-24T11:01:29.080Z</time>
      </trkpt>
      <trkpt lat="45.15766" lon="5.7891">
        <ele>760</ele>
        <time>2019-05-24T11:01:30.080Z</time>
      </trkpt>
      <trkpt lat="45.15769" lon="5.78911">
        <ele>761</ele>
        <time>2019-05-24T11:01:31.080Z</time>
      </trkpt>
      <trkpt lat="45.15771" lon="5.78912">
        <ele>762</ele>
        <time>2019-05-24T11:01:32.080Z</time>
      </trkpt>
      <trkpt lat="45.15773" lon="5.78914">
        <ele>763</ele>
        <time>2019-05-24T11:01:33.080Z</time>
      </trkpt>
      <trkpt lat="45.15775" lon="5.78915">
        <ele>763</ele>
        <time>2019-05-24T11:01:34.080Z</time>
      </trkpt>
      <trkpt lat="45.15776" lon="5.78917">
        <ele>762</ele>
        <time>2019-05-24T11:01:35.080Z</time>
      </trkpt>
      <trkpt lat="45.15779" lon="5.78919">
        <ele>761</ele>
        <time>2019-05-24T11:01:36.080Z</time>
      </trkpt>
      <trkpt lat="45.15781" lon="5.78921">
        <ele>760</ele>
        <time>2019-05-24T11:01:37.080Z</time>
      </trkpt>
      <trkpt lat="45.15784" lon="5.78922">
        <ele>759</ele>
        <time>2019-05-24T11:01:38.080Z</time>
      </trkpt>
      <trkpt lat="45.15786" lon="5.78924">
        <ele>762</ele>
        <time>2019-05-24T11:01:39.080Z</time>
      </trkpt>
      <trkpt lat="45.15788" lon="5.78925">
        <ele>762</ele>
        <time>2019-05-24T11:01:40.080Z</time>
      </trkpt>
      <trkpt lat="45.1579" lon="5.78928">
        <ele>760</ele>
        <time>2019-05-24T11:01:41.080Z</time>
      </trkpt>
      <trkpt lat="45.15792" lon="5.7893">
        <ele>759</ele>
        <time>2019-05-24T11:01:42.080Z</time>
      </trkpt>
      <trkpt lat="45.15794" lon="5.78932">
        <ele>757</ele>
        <time>2019-05-24T11:01:43.080Z</time>
      </trkpt>
      <trkpt lat="45.15796" lon="5.78934">
        <ele>757</ele>
        <time>2019-05-24T11:01:44.080Z</time>
      </trkpt>
      <trkpt lat="45.15798" lon="5.78936">
        <ele>755</ele>
        <time>2019-05-24T11:01:45.080Z</time>
      </trkpt>
      <trkpt lat="45.158" lon="5.78938">
        <ele>754</ele>
        <time>2019-05-24T11:01:46.080Z</time>
      </trkpt>
      <trkpt lat="45.15802" lon="5.7894">
        <ele>754</ele>
        <time>2019-05-24T11:01:47.080Z</time>
      </trkpt>
      <trkpt lat="45.15804" lon="5.78942">
        <ele>756</ele>
        <time>2019-05-24T11:01:48.080Z</time>
      </trkpt>
      <trkpt lat="45.15806" lon="5.78944">
        <ele>752</ele>
        <time>2019-05-24T11:01:49.080Z</time>
      </trkpt>
      <trkpt lat="45.15808" lon="5.78946">
        <ele>747</ele>
        <time>2019-05-24T11:01:50.080Z</time>
      </trkpt>
      <trkpt lat="45.15811" lon="5.78949">
        <ele>745</ele>
        <time>2019-05-24T11:01:51.080Z</time>
      </trkpt>
      <trkpt lat="45.15813" lon="5.78951">
        <ele>743</ele>
        <time>2019-05-24T11:01:52.080Z</time>
      </trkpt>
      <trkpt lat="45.15815" lon="5.78954">
        <ele>744</ele>
        <time>2019-05-24T11:01:53.080Z</time>
      </trkpt>
      <trkpt lat="45.15818" lon="5.78958">
        <ele>744</ele>
        <time>2019-05-24T11:01:54.080Z</time>
      </trkpt>
      <trkpt lat="45.15819" lon="5.7896">
        <ele>745</ele>
        <time>2019-05-24T11:01:55.080Z</time>
      </trkpt>
      <trkpt lat="45.15821" lon="5.78963">
        <ele>744</ele>
        <time>2019-05-24T11:01:56.080Z</time>
      </trkpt>
      <trkpt lat="45.15824" lon="5.78966">
        <ele>744</ele>
        <time>2019-05-24T11:01:57.080Z</time>
      </trkpt>
      <trkpt lat="45.15826" lon="5.78968">
        <ele>743</ele>
        <time>2019-05-24T11:01:58.080Z</time>
      </trkpt>
      <trkpt lat="45.15829" lon="5.7897">
        <ele>743</ele>
        <time>2019-05-24T11:01:59.080Z</time>
      </trkpt>
      <trkpt lat="45.15831" lon="5.78972">
        <ele>743</ele>
        <time>2019-05-24T11:02:00.080Z</time>
      </trkpt>
      <trkpt lat="45.15833" lon="5.78975">
        <ele>742</ele>
        <time>2019-05-24T11:02:01.080Z</time>
      </trkpt>
      <trkpt lat="45.15835" lon="5.78977">
        <ele>743</ele>
        <time>2019-05-24T11:02:02.080Z</time>
      </trkpt>
      <trkpt lat="45.15838" lon="5.78979">
        <ele>743</ele>
        <time>2019-05-24T11:02:03.080Z</time>
      </trkpt>
      <trkpt lat="45.15839" lon="5.78981">
        <ele>744</ele>
        <time>2019-05-24T11:02:04.080Z</time>
      </trkpt>
      <trkpt lat="45.15842" lon="5.78983">
        <ele>744</ele>
        <time>2019-05-24T11:02:05.080Z</time>
      </trkpt>
      <trkpt lat="45.15844" lon="5.78985">
        <ele>743</ele>
        <time>2019-05-24T11:02:06.080Z</time>
      </trkpt>
      <trkpt lat="45.15847" lon="5.78987">
        <ele>742</ele>
        <time>2019-05-24T11:02:07.080Z</time>
      </trkpt>
      <trkpt lat="45.15848" lon="5.78989">
        <ele>740</ele>
        <time>2019-05-24T11:02:08.080Z</time>
      </trkpt>
      <trkpt lat="45.1585" lon="5.78992">
        <ele>740</ele>
        <time>2019-05-24T11:02:09.080Z</time>
      </trkpt>
      <trkpt lat="45.15852" lon="5.78994">
        <ele>740</ele>
        <time>2019-05-24T11:02:10.080Z</time>
      </trkpt>
      <trkpt lat="45.15854" lon="5.78997">
        <ele>739</ele>
        <time>2019-05-24T11:02:11.080Z</time>
      </trkpt>
      <trkpt lat="45.15856" lon="5.78999">
        <ele>739</ele>
        <time>2019-05-24T11:02:12.080Z</time>
      </trkpt>
      <trkpt lat="45.15858" lon="5.79002">
        <ele>738</ele>
        <time>2019-05-24T11:02:13.080Z</time>
      </trkpt>
      <trkpt lat="45.15861" lon="5.79005">
        <ele>738</ele>
        <time>2019-05-24T11:02:14.080Z</time>
      </trkpt>
      <trkpt lat="45.15863" lon="5.79008">
        <ele>737</ele>
        <time>2019-05-24T11:02:15.080Z</time>
      </trkpt>
      <trkpt lat="45.15864" lon="5.79011">
        <ele>736</ele>
        <time>2019-05-24T11:02:16.080Z</time>
      </trkpt>
      <trkpt lat="45.15866" lon="5.79013">
        <ele>737</ele>
        <time>2019-05-24T11:02:17.080Z</time>
      </trkpt>
      <trkpt lat="45.15868" lon="5.79016">
        <ele>737</ele>
        <time>2019-05-24T11:02:18.080Z</time>
      </trkpt>
      <trkpt lat="45.1587" lon="5.79017">
        <ele>736</ele>
        <time>2019-05-24T11:02:19.080Z</time>
      </trkpt>
      <trkpt lat="45.15872" lon="5.79019">
        <ele>738</ele>
        <time>2019-05-24T11:02:20.080Z</time>
      </trkpt>
      <trkpt lat="45.15874" lon="5.79021">
        <ele>740</ele>
        <time>2019-05-24T11:02:21.080Z</time>
      </trkpt>
      <trkpt lat="45.15876" lon="5.79023">
        <ele>740</ele>
        <time>2019-05-24T11:02:22.080Z</time>
      </trkpt>
      <trkpt lat="45.15878" lon="5.79025">
        <ele>740</ele>
        <time>2019-05-24T11:02:23.080Z</time>
      </trkpt>
      <trkpt lat="45.1588" lon="5.79027">
        <ele>740</ele>
        <time>2019-05-24T11:02:24.080Z</time>
      </trkpt>
      <trkpt lat="45.15883" lon="5.79028">
        <ele>740</ele>
        <time>2019-05-24T11:02:25.080Z</time>
      </trkpt>
      <trkpt lat="45.15886" lon="5.7903">
        <ele>739</ele>
        <time>2019-05-24T11:02:26.080Z</time>
      </trkpt>
      <trkpt lat="45.15889" lon="5.79032">
        <ele>738</ele>
        <time>2019-05-24T11:02:27.080Z</time>
      </trkpt>
      <trkpt lat="45.15891" lon="5.79033">
        <ele>739</ele>
        <time>2019-05-24T11:02:28.080Z</time>
      </trkpt>
      <trkpt lat="45.15893" lon="5.79035">
        <ele>739</ele>
        <time>2019-05-24T11:02:29.080Z</time>
      </trkpt>
      <trkpt lat="45.15895" lon="5.79037">
        <ele>741</ele>
        <time>2019-05-24T11:02:30.080Z</time>
      </trkpt>
      <trkpt lat="45.15897" lon="5.79038">
        <ele>742</ele>
        <time>2019-05-24T11:02:31.080Z</time>
      </trkpt>
      <trkpt lat="45.15899" lon="5.79041">
        <ele>742</ele>
        <time>2019-05-24T11:02:32.080Z</time>
      </trkpt>
      <trkpt lat="45.15902" lon="5.79044">
        <ele>743</ele>
        <time>2019-05-24T11:02:33.080Z</time>
      </trkpt>
      <trkpt lat="45.15904" lon="5.79047">
        <ele>742</ele>
        <time>2019-05-24T11:02:34.080Z</time>
      </trkpt>
      <trkpt lat="45.15907" lon="5.7905">
        <ele>740</ele>
        <time>2019-05-24T11:02:35.080Z</time>
      </trkpt>
      <trkpt lat="45.15909" lon="5.79053">
        <ele>740</ele>
        <time>2019-05-24T11:02:36.080Z</time>
      </trkpt>
      <trkpt lat="45.15911" lon="5.79056">
        <ele>739</ele>
        <time>2019-05-24T11:02:37.080Z</time>
      </trkpt>
      <trkpt lat="45.15913" lon="5.79059">
        <ele>739</ele>
        <time>2019-05-24T11:02:38.080Z</time>
      </trkpt>
      <trkpt lat="45.15916" lon="5.79062">
        <ele>738</ele>
        <time>2019-05-24T11:02:39.080Z</time>
      </trkpt>
      <trkpt lat="45.15918" lon="5.79065">
        <ele>737</ele>
        <time>2019-05-24T11:02:40.080Z</time>
      </trkpt>
      <trkpt lat="45.1592" lon="5.79069">
        <ele>737</ele>
        <time>2019-05-24T11:02:41.080Z</time>
      </trkpt>
      <trkpt lat="45.15922" lon="5.79073">
        <ele>737</ele>
        <time>2019-05-24T11:02:42.080Z</time>
      </trkpt>
      <trkpt lat="45.15924" lon="5.79076">
        <ele>738</ele>
        <time>2019-05-24T11:02:43.080Z</time>
      </trkpt>
      <trkpt lat="45.15925" lon="5.7908">
        <ele>738</ele>
        <time>2019-05-24T11:02:44.080Z</time>
      </trkpt>
      <trkpt lat="45.15927" lon="5.79083">
        <ele>738</ele>
        <time>2019-05-24T11:02:45.080Z</time>
      </trkpt>
      <trkpt lat="45.15929" lon="5.79087">
        <ele>738</ele>
        <time>2019-05-24T11:02:46.080Z</time>
      </trkpt>
      <trkpt lat="45.15931" lon="5.7909">
        <ele>738</ele>
        <time>2019-05-24T11:02:47.080Z</time>
      </trkpt>
      <trkpt lat="45.15932" lon="5.79093">
        <ele>738</ele>
        <time>2019-05-24T11:02:48.080Z</time>
      </trkpt>
      <trkpt lat="45.15935" lon="5.79097">
        <ele>738</ele>
        <time>2019-05-24T11:02:49.080Z</time>
      </trkpt>
      <trkpt lat="45.15937" lon="5.791">
        <ele>738</ele>
        <time>2019-05-24T11:02:50.080Z</time>
      </trkpt>
      <trkpt lat="45.15939" lon="5.79103">
        <ele>738</ele>
        <time>2019-05-24T11:02:51.080Z</time>
      </trkpt>
      <trkpt lat="45.1594" lon="5.79107">
        <ele>739</ele>
        <time>2019-05-24T11:02:52.080Z</time>
      </trkpt>
      <trkpt lat="45.15942" lon="5.79111">
        <ele>741</ele>
        <time>2019-05-24T11:02:53.080Z</time>
      </trkpt>
      <trkpt lat="45.15943" lon="5.79115">
        <ele>740</ele>
        <time>2019-05-24T11:02:54.080Z</time>
      </trkpt>
      <trkpt lat="45.15944" lon="5.79119">
        <ele>742</ele>
        <time>2019-05-24T11:02:55.080Z</time>
      </trkpt>
      <trkpt lat="45.15946" lon="5.79123">
        <ele>739</ele>
        <time>2019-05-24T11:02:56.080Z</time>
      </trkpt>
      <trkpt lat="45.15948" lon="5.79127">
        <ele>739</ele>
        <time>2019-05-24T11:02:57.080Z</time>
      </trkpt>
      <trkpt lat="45.1595" lon="5.79131">
        <ele>739</ele>
        <time>2019-05-24T11:02:58.080Z</time>
      </trkpt>
      <trkpt lat="45.15952" lon="5.79135">
        <ele>740</ele>
        <time>2019-05-24T11:02:59.080Z</time>
      </trkpt>
      <trkpt lat="45.15953" lon="5.79139">
        <ele>741</ele>
        <time>2019-05-24T11:03:00.080Z</time>
      </trkpt>
      <trkpt lat="45.15955" lon="5.79143">
        <ele>743</ele>
        <time>2019-05-24T11:03:01.080Z</time>
      </trkpt>
      <trkpt lat="45.15956" lon="5.79147">
        <ele>744</ele>
        <time>2019-05-24T11:03:02.080Z</time>
      </trkpt>
      <trkpt lat="45.15958" lon="5.79151">
        <ele>746</ele>
        <time>2019-05-24T11:03:03.080Z</time>
      </trkpt>
      <trkpt lat="45.15959" lon="5.79155">
        <ele>747</ele>
        <time>2019-05-24T11:03:04.080Z</time>
      </trkpt>
      <trkpt lat="45.15961" lon="5.79159">
        <ele>746</ele>
        <time>2019-05-24T11:03:05.080Z</time>
      </trkpt>
      <trkpt lat="45.15962" lon="5.79164">
        <ele>746</ele>
        <time>2019-05-24T11:03:06.080Z</time>
      </trkpt>
      <trkpt lat="45.15964" lon="5.79168">
        <ele>747</ele>
        <time>2019-05-24T11:03:07.080Z</time>
      </trkpt>
      <trkpt lat="45.15964" lon="5.79172">
        <ele>745</ele>
        <time>2019-05-24T11:03:08.080Z</time>
      </trkpt>
      <trkpt lat="45.15965" lon="5.79177">
        <ele>742</ele>
        <time>2019-05-24T11:03:09.080Z</time>
      </trkpt>
      <trkpt lat="45.15967" lon="5.79181">
        <ele>741</ele>
        <time>2019-05-24T11:03:10.080Z</time>
      </trkpt>
      <trkpt lat="45.15968" lon="5.79185">
        <ele>742</ele>
        <time>2019-05-24T11:03:11.080Z</time>
      </trkpt>
      <trkpt lat="45.15968" lon="5.79189">
        <ele>743</ele>
        <time>2019-05-24T11:03:12.080Z</time>
      </trkpt>
      <trkpt lat="45.15968" lon="5.79193">
        <ele>743</ele>
        <time>2019-05-24T11:03:13.080Z</time>
      </trkpt>
      <trkpt lat="45.15967" lon="5.79197">
        <ele>742</ele>
        <time>2019-05-24T11:03:14.080Z</time>
      </trkpt>
      <trkpt lat="45.15967" lon="5.79201">
        <ele>742</ele>
        <time>2019-05-24T11:03:15.080Z</time>
      </trkpt>
      <trkpt lat="45.15967" lon="5.79205">
        <ele>743</ele>
        <time>2019-05-24T11:03:16.080Z</time>
      </trkpt>
      <trkpt lat="45.15968" lon="5.79209">
        <ele>744</ele>
        <time>2019-05-24T11:03:17.080Z</time>
      </trkpt>
      <trkpt lat="45.15969" lon="5.79213">
        <ele>744</ele>
        <time>2019-05-24T11:03:18.080Z</time>
      </trkpt>
      <trkpt lat="45.15969" lon="5.79218">
        <ele>743</ele>
        <time>2019-05-24T11:03:19.080Z</time>
      </trkpt>
      <trkpt lat="45.1597" lon="5.79222">
        <ele>743</ele>
        <time>2019-05-24T11:03:20.080Z</time>
      </trkpt>
      <trkpt lat="45.15971" lon="5.79226">
        <ele>743</ele>
        <time>2019-05-24T11:03:21.080Z</time>
      </trkpt>
      <trkpt lat="45.15971" lon="5.7923">
        <ele>741</ele>
        <time>2019-05-24T11:03:22.080Z</time>
      </trkpt>
      <trkpt lat="45.1597" lon="5.79233">
        <ele>740</ele>
        <time>2019-05-24T11:03:23.080Z</time>
      </trkpt>
      <trkpt lat="45.1597" lon="5.79237">
        <ele>741</ele>
        <time>2019-05-24T11:03:24.080Z</time>
      </trkpt>
      <trkpt lat="45.1597" lon="5.79242">
        <ele>741</ele>
        <time>2019-05-24T11:03:25.080Z</time>
      </trkpt>
      <trkpt lat="45.15969" lon="5.79246">
        <ele>743</ele>
        <time>2019-05-24T11:03:26.080Z</time>
      </trkpt>
      <trkpt lat="45.1597" lon="5.7925">
        <ele>743</ele>
        <time>2019-05-24T11:03:27.080Z</time>
      </trkpt>
      <trkpt lat="45.1597" lon="5.79254">
        <ele>744</ele>
        <time>2019-05-24T11:03:28.080Z</time>
      </trkpt>
      <trkpt lat="45.1597" lon="5.79257">
        <ele>744</ele>
        <time>2019-05-24T11:03:29.080Z</time>
      </trkpt>
      <trkpt lat="45.1597" lon="5.79261">
        <ele>743</ele>
        <time>2019-05-24T11:03:30.080Z</time>
      </trkpt>
      <trkpt lat="45.1597" lon="5.79264">
        <ele>745</ele>
        <time>2019-05-24T11:03:31.080Z</time>
      </trkpt>
      <trkpt lat="45.15971" lon="5.79268">
        <ele>747</ele>
        <time>2019-05-24T11:03:32.080Z</time>
      </trkpt>
      <trkpt lat="45.1597" lon="5.79271">
        <ele>745</ele>
        <time>2019-05-24T11:03:33.080Z</time>
      </trkpt>
      <trkpt lat="45.1597" lon="5.79274">
        <ele>744</ele>
        <time>2019-05-24T11:03:34.080Z</time>
      </trkpt>
      <trkpt lat="45.1597" lon="5.79277">
        <ele>744</ele>
        <time>2019-05-24T11:03:35.080Z</time>
      </trkpt>
      <trkpt lat="45.15969" lon="5.79281">
        <ele>743</ele>
        <time>2019-05-24T11:03:36.080Z</time>
      </trkpt>
      <trkpt lat="45.15969" lon="5.79284">
        <ele>742</ele>
        <time>2019-05-24T11:03:37.080Z</time>
      </trkpt>
      <trkpt lat="45.15968" lon="5.79286">
        <ele>742</ele>
        <time>2019-05-24T11:03:38.080Z</time>
      </trkpt>
      <trkpt lat="45.15968" lon="5.79289">
        <ele>746</ele>
        <time>2019-05-24T11:03:39.080Z</time>
      </trkpt>
      <trkpt lat="45.15968" lon="5.79291">
        <ele>746</ele>
        <time>2019-05-24T11:03:40.080Z</time>
      </trkpt>
      <trkpt lat="45.15968" lon="5.79293">
        <ele>745</ele>
        <time>2019-05-24T11:03:41.080Z</time>
      </trkpt>
      <trkpt lat="45.15967" lon="5.79295">
        <ele>744</ele>
        <time>2019-05-24T11:03:42.080Z</time>
      </trkpt>
      <trkpt lat="45.15967" lon="5.79297">
        <ele>744</ele>
        <time>2019-05-24T11:03:43.080Z</time>
      </trkpt>
      <trkpt lat="45.15967" lon="5.79299">
        <ele>743</ele>
        <time>2019-05-24T11:03:44.080Z</time>
      </trkpt>
      <trkpt lat="45.15966" lon="5.79302">
        <ele>740</ele>
        <time>2019-05-24T11:03:45.080Z</time>
      </trkpt>
      <trkpt lat="45.15965" lon="5.79305">
        <ele>741</ele>
        <time>2019-05-24T11:03:46.080Z</time>
      </trkpt>
      <trkpt lat="45.15964" lon="5.79309">
        <ele>742</ele>
        <time>2019-05-24T11:03:47.080Z</time>
      </trkpt>
      <trkpt lat="45.15964" lon="5.79312">
        <ele>741</ele>
        <time>2019-05-24T11:03:48.080Z</time>
      </trkpt>
      <trkpt lat="45.15964" lon="5.79316">
        <ele>740</ele>
        <time>2019-05-24T11:03:49.080Z</time>
      </trkpt>
      <trkpt lat="45.15964" lon="5.7932">
        <ele>738</ele>
        <time>2019-05-24T11:03:50.080Z</time>
      </trkpt>
      <trkpt lat="45.15964" lon="5.79323">
        <ele>739</ele>
        <time>2019-05-24T11:03:51.080Z</time>
      </trkpt>
      <trkpt lat="45.15963" lon="5.79325">
        <ele>739</ele>
        <time>2019-05-24T11:03:52.080Z</time>
      </trkpt>
      <trkpt lat="45.15962" lon="5.79328">
        <ele>739</ele>
        <time>2019-05-24T11:03:53.080Z</time>
      </trkpt>
      <trkpt lat="45.15961" lon="5.79331">
        <ele>740</ele>
        <time>2019-05-24T11:03:54.080Z</time>
      </trkpt>
      <trkpt lat="45.1596" lon="5.79333">
        <ele>738</ele>
        <time>2019-05-24T11:03:55.080Z</time>
      </trkpt>
      <trkpt lat="45.1596" lon="5.79336">
        <ele>739</ele>
        <time>2019-05-24T11:03:56.080Z</time>
      </trkpt>
      <trkpt lat="45.1596" lon="5.79338">
        <ele>740</ele>
        <time>2019-05-24T11:03:57.080Z</time>
      </trkpt>
      <trkpt lat="45.15959" lon="5.79341">
        <ele>739</ele>
        <time>2019-05-24T11:03:58.080Z</time>
      </trkpt>
      <trkpt lat="45.15959" lon="5.79344">
        <ele>739</ele>
        <time>2019-05-24T11:03:59.080Z</time>
      </trkpt>
      <trkpt lat="45.1596" lon="5.79347">
        <ele>738</ele>
        <time>2019-05-24T11:04:00.080Z</time>
      </trkpt>
      <trkpt lat="45.15961" lon="5.7935">
        <ele>739</ele>
        <time>2019-05-24T11:04:01.080Z</time>
      </trkpt>
      <trkpt lat="45.15961" lon="5.79353">
        <ele>741</ele>
        <time>2019-05-24T11:04:02.080Z</time>
      </trkpt>
      <trkpt lat="45.15961" lon="5.79356">
        <ele>742</ele>
        <time>2019-05-24T11:04:03.080Z</time>
      </trkpt>
      <trkpt lat="45.15961" lon="5.79358">
        <ele>742</ele>
        <time>2019-05-24T11:04:04.080Z</time>
      </trkpt>
      <trkpt lat="45.1596" lon="5.79361">
        <ele>742</ele>
        <time>2019-05-24T11:04:05.080Z</time>
      </trkpt>
      <trkpt lat="45.15959" lon="5.79364">
        <ele>740</ele>
        <time>2019-05-24T11:04:06.080Z</time>
      </trkpt>
      <trkpt lat="45.15959" lon="5.79366">
        <ele>741</ele>
        <time>2019-05-24T11:04:07.080Z</time>
      </trkpt>
      <trkpt lat="45.15959" lon="5.79369">
        <ele>738</ele>
        <time>2019-05-24T11:04:08.080Z</time>
      </trkpt>
      <trkpt lat="45.15959" lon="5.79372">
        <ele>738</ele>
        <time>2019-05-24T11:04:09.080Z</time>
      </trkpt>
      <trkpt lat="45.1596" lon="5.79375">
        <ele>738</ele>
        <time>2019-05-24T11:04:10.080Z</time>
      </trkpt>
      <trkpt lat="45.15961" lon="5.79377">
        <ele>739</ele>
        <time>2019-05-24T11:04:11.080Z</time>
      </trkpt>
      <trkpt lat="45.1596" lon="5.79379">
        <ele>738</ele>
        <time>2019-05-24T11:04:12.080Z</time>
      </trkpt>
      <trkpt lat="45.1596" lon="5.7938">
        <ele>738</ele>
        <time>2019-05-24T11:04:13.080Z</time>
      </trkpt>
      <trkpt lat="45.15961" lon="5.79381">
        <ele>738</ele>
        <time>2019-05-24T11:04:14.080Z</time>
      </trkpt>
      <trkpt lat="45.15961" lon="5.79383">
        <ele>739</ele>
        <time>2019-05-24T11:04:15.080Z</time>
      </trkpt>
      <trkpt lat="45.15962" lon="5.79385">
        <ele>740</ele>
        <time>2019-05-24T11:04:16.080Z</time>
      </trkpt>
      <trkpt lat="45.15962" lon="5.79387">
        <ele>741</ele>
        <time>2019-05-24T11:04:17.080Z</time>
      </trkpt>
      <trkpt lat="45.15963" lon="5.79388">
        <ele>741</ele>
        <time>2019-05-24T11:04:18.080Z</time>
      </trkpt>
      <trkpt lat="45.15964" lon="5.79389">
        <ele>742</ele>
        <time>2019-05-24T11:04:19.080Z</time>
      </trkpt>
      <trkpt lat="45.15966" lon="5.7939">
        <ele>744</ele>
        <time>2019-05-24T11:04:20.080Z</time>
      </trkpt>
      <trkpt lat="45.15968" lon="5.79391">
        <ele>743</ele>
        <time>2019-05-24T11:04:21.080Z</time>
      </trkpt>
      <trkpt lat="45.1597" lon="5.79393">
        <ele>743</ele>
        <time>2019-05-24T11:04:22.080Z</time>
      </trkpt>
      <trkpt lat="45.15972" lon="5.79395">
        <ele>740</ele>
        <time>2019-05-24T11:04:23.080Z</time>
      </trkpt>
      <trkpt lat="45.15974" lon="5.79397">
        <ele>738</ele>
        <time>2019-05-24T11:04:24.080Z</time>
      </trkpt>
      <trkpt lat="45.15977" lon="5.794">
        <ele>738</ele>
        <time>2019-05-24T11:04:25.080Z</time>
      </trkpt>
      <trkpt lat="45.15979" lon="5.79402">
        <ele>738</ele>
        <time>2019-05-24T11:04:26.080Z</time>
      </trkpt>
      <trkpt lat="45.15981" lon="5.79404">
        <ele>737</ele>
        <time>2019-05-24T11:04:27.080Z</time>
      </trkpt>
      <trkpt lat="45.15983" lon="5.79407">
        <ele>736</ele>
        <time>2019-05-24T11:04:28.080Z</time>
      </trkpt>
      <trkpt lat="45.15984" lon="5.7941">
        <ele>736</ele>
        <time>2019-05-24T11:04:29.080Z</time>
      </trkpt>
      <trkpt lat="45.15986" lon="5.79413">
        <ele>733</ele>
        <time>2019-05-24T11:04:30.080Z</time>
      </trkpt>
      <trkpt lat="45.15988" lon="5.79417">
        <ele>731</ele>
        <time>2019-05-24T11:04:31.080Z</time>
      </trkpt>
      <trkpt lat="45.1599" lon="5.7942">
        <ele>731</ele>
        <time>2019-05-24T11:04:32.080Z</time>
      </trkpt>
      <trkpt lat="45.15991" lon="5.79423">
        <ele>730</ele>
        <time>2019-05-24T11:04:33.080Z</time>
      </trkpt>
      <trkpt lat="45.15993" lon="5.79427">
        <ele>729</ele>
        <time>2019-05-24T11:04:34.080Z</time>
      </trkpt>
      <trkpt lat="45.15994" lon="5.7943">
        <ele>729</ele>
        <time>2019-05-24T11:04:35.080Z</time>
      </trkpt>
      <trkpt lat="45.15994" lon="5.79434">
        <ele>728</ele>
        <time>2019-05-24T11:04:36.080Z</time>
      </trkpt>
      <trkpt lat="45.15996" lon="5.79438">
        <ele>728</ele>
        <time>2019-05-24T11:04:37.080Z</time>
      </trkpt>
      <trkpt lat="45.15997" lon="5.79442">
        <ele>725</ele>
        <time>2019-05-24T11:04:38.080Z</time>
      </trkpt>
      <trkpt lat="45.15997" lon="5.79445">
        <ele>722</ele>
        <time>2019-05-24T11:04:39.080Z</time>
      </trkpt>
      <trkpt lat="45.15998" lon="5.7945">
        <ele>722</ele>
        <time>2019-05-24T11:04:40.080Z</time>
      </trkpt>
      <trkpt lat="45.15999" lon="5.79454">
        <ele>723</ele>
        <time>2019-05-24T11:04:41.080Z</time>
      </trkpt>
      <trkpt lat="45.16" lon="5.79458">
        <ele>723</ele>
        <time>2019-05-24T11:04:42.080Z</time>
      </trkpt>
      <trkpt lat="45.16" lon="5.79462">
        <ele>722</ele>
        <time>2019-05-24T11:04:43.080Z</time>
      </trkpt>
      <trkpt lat="45.16" lon="5.79466">
        <ele>720</ele>
        <time>2019-05-24T11:04:44.080Z</time>
      </trkpt>
      <trkpt lat="45.16001" lon="5.7947">
        <ele>720</ele>
        <time>2019-05-24T11:04:45.080Z</time>
      </trkpt>
      <trkpt lat="45.16001" lon="5.79474">
        <ele>721</ele>
        <time>2019-05-24T11:04:46.080Z</time>
      </trkpt>
      <trkpt lat="45.16001" lon="5.79478">
        <ele>723</ele>
        <time>2019-05-24T11:04:47.080Z</time>
      </trkpt>
      <trkpt lat="45.16002" lon="5.79482">
        <ele>723</ele>
        <time>2019-05-24T11:04:48.080Z</time>
      </trkpt>
      <trkpt lat="45.16003" lon="5.79486">
        <ele>723</ele>
        <time>2019-05-24T11:04:49.080Z</time>
      </trkpt>
      <trkpt lat="45.16003" lon="5.79489">
        <ele>722</ele>
        <time>2019-05-24T11:04:50.080Z</time>
      </trkpt>
      <trkpt lat="45.16004" lon="5.79494">
        <ele>723</ele>
        <time>2019-05-24T11:04:51.080Z</time>
      </trkpt>
      <trkpt lat="45.16005" lon="5.79498">
        <ele>721</ele>
        <time>2019-05-24T11:04:52.080Z</time>
      </trkpt>
      <trkpt lat="45.16006" lon="5.79502">
        <ele>718</ele>
        <time>2019-05-24T11:04:53.080Z</time>
      </trkpt>
      <trkpt lat="45.16006" lon="5.79506">
        <ele>717</ele>
        <time>2019-05-24T11:04:54.080Z</time>
      </trkpt>
      <trkpt lat="45.16006" lon="5.7951">
        <ele>719</ele>
        <time>2019-05-24T11:04:55.080Z</time>
      </trkpt>
      <trkpt lat="45.16006" lon="5.79514">
        <ele>720</ele>
        <time>2019-05-24T11:04:56.080Z</time>
      </trkpt>
      <trkpt lat="45.16007" lon="5.79517">
        <ele>719</ele>
        <time>2019-05-24T11:04:57.080Z</time>
      </trkpt>
      <trkpt lat="45.16007" lon="5.7952">
        <ele>718</ele>
        <time>2019-05-24T11:04:58.080Z</time>
      </trkpt>
      <trkpt lat="45.16007" lon="5.79524">
        <ele>720</ele>
        <time>2019-05-24T11:04:59.080Z</time>
      </trkpt>
      <trkpt lat="45.16007" lon="5.79527">
        <ele>721</ele>
        <time>2019-05-24T11:05:00.080Z</time>
      </trkpt>
      <trkpt lat="45.16008" lon="5.79531">
        <ele>721</ele>
        <time>2019-05-24T11:05:01.080Z</time>
      </trkpt>
      <trkpt lat="45.16007" lon="5.79535">
        <ele>721</ele>
        <time>2019-05-24T11:05:02.080Z</time>
      </trkpt>
      <trkpt lat="45.16007" lon="5.79539">
        <ele>722</ele>
        <time>2019-05-24T11:05:03.080Z</time>
      </trkpt>
      <trkpt lat="45.16007" lon="5.79543">
        <ele>725</ele>
        <time>2019-05-24T11:05:04.080Z</time>
      </trkpt>
      <trkpt lat="45.16006" lon="5.79546">
        <ele>727</ele>
        <time>2019-05-24T11:05:05.080Z</time>
      </trkpt>
      <trkpt lat="45.16004" lon="5.79549">
        <ele>729</ele>
        <time>2019-05-24T11:05:06.080Z</time>
      </trkpt>
      <trkpt lat="45.16004" lon="5.79551">
        <ele>728</ele>
        <time>2019-05-24T11:05:07.080Z</time>
      </trkpt>
      <trkpt lat="45.16003" lon="5.79554">
        <ele>726</ele>
        <time>2019-05-24T11:05:08.080Z</time>
      </trkpt>
      <trkpt lat="45.16001" lon="5.79556">
        <ele>725</ele>
        <time>2019-05-24T11:05:09.080Z</time>
      </trkpt>
      <trkpt lat="45.16001" lon="5.79559">
        <ele>726</ele>
        <time>2019-05-24T11:05:10.080Z</time>
      </trkpt>
      <trkpt lat="45.15999" lon="5.79562">
        <ele>728</ele>
        <time>2019-05-24T11:05:11.080Z</time>
      </trkpt>
      <trkpt lat="45.15998" lon="5.79565">
        <ele>730</ele>
        <time>2019-05-24T11:05:12.080Z</time>
      </trkpt>
      <trkpt lat="45.15997" lon="5.79568">
        <ele>730</ele>
        <time>2019-05-24T11:05:13.080Z</time>
      </trkpt>
      <trkpt lat="45.15997" lon="5.79571">
        <ele>730</ele>
        <time>2019-05-24T11:05:14.080Z</time>
      </trkpt>
      <trkpt lat="45.15996" lon="5.79573">
        <ele>726</ele>
        <time>2019-05-24T11:05:15.080Z</time>
      </trkpt>
      <trkpt lat="45.15995" lon="5.79576">
        <ele>725</ele>
        <time>2019-05-24T11:05:16.080Z</time>
      </trkpt>
      <trkpt lat="45.15994" lon="5.79579">
        <ele>726</ele>
        <time>2019-05-24T11:05:17.080Z</time>
      </trkpt>
      <trkpt lat="45.15994" lon="5.79581">
        <ele>728</ele>
        <time>2019-05-24T11:05:18.080Z</time>
      </trkpt>
      <trkpt lat="45.15994" lon="5.79584">
        <ele>727</ele>
        <time>2019-05-24T11:05:19.080Z</time>
      </trkpt>
      <trkpt lat="45.15993" lon="5.79586">
        <ele>727</ele>
        <time>2019-05-24T11:05:20.080Z</time>
      </trkpt>
      <trkpt lat="45.15992" lon="5.79588">
        <ele>727</ele>
        <time>2019-05-24T11:05:21.080Z</time>
      </trkpt>
      <trkpt lat="45.15993" lon="5.7959">
        <ele>728</ele>
        <time>2019-05-24T11:05:22.080Z</time>
      </trkpt>
      <trkpt lat="45.15993" lon="5.79593">
        <ele>730</ele>
        <time>2019-05-24T11:05:23.080Z</time>
      </trkpt>
      <trkpt lat="45.15992" lon="5.79595">
        <ele>729</ele>
        <time>2019-05-24T11:05:24.080Z</time>
      </trkpt>
      <trkpt lat="45.15991" lon="5.79596">
        <ele>726</ele>
        <time>2019-05-24T11:05:25.080Z</time>
      </trkpt>
      <trkpt lat="45.15991" lon="5.79598">
        <ele>725</ele>
        <time>2019-05-24T11:05:26.080Z</time>
      </trkpt>
      <trkpt lat="45.15991" lon="5.796">
        <ele>725</ele>
        <time>2019-05-24T11:05:27.080Z</time>
      </trkpt>
      <trkpt lat="45.1599" lon="5.79603">
        <ele>725</ele>
        <time>2019-05-24T11:05:28.080Z</time>
      </trkpt>
      <trkpt lat="45.1599" lon="5.79606">
        <ele>728</ele>
        <time>2019-05-24T11:05:29.080Z</time>
      </trkpt>
      <trkpt lat="45.15989" lon="5.79608">
        <ele>725</ele>
        <time>2019-05-24T11:05:30.080Z</time>
      </trkpt>
      <trkpt lat="45.15987" lon="5.7961">
        <ele>724</ele>
        <time>2019-05-24T11:05:31.080Z</time>
      </trkpt>
      <trkpt lat="45.15987" lon="5.79612">
        <ele>724</ele>
        <time>2019-05-24T11:05:32.080Z</time>
      </trkpt>
      <trkpt lat="45.15986" lon="5.79615">
        <ele>724</ele>
        <time>2019-05-24T11:05:33.080Z</time>
      </trkpt>
      <trkpt lat="45.15985" lon="5.79618">
        <ele>723</ele>
        <time>2019-05-24T11:05:34.080Z</time>
      </trkpt>
      <trkpt lat="45.15985" lon="5.79621">
        <ele>724</ele>
        <time>2019-05-24T11:05:35.080Z</time>
      </trkpt>
      <trkpt lat="45.15985" lon="5.79624">
        <ele>723</ele>
        <time>2019-05-24T11:05:36.080Z</time>
      </trkpt>
      <trkpt lat="45.15984" lon="5.79627">
        <ele>722</ele>
        <time>2019-05-24T11:05:37.080Z</time>
      </trkpt>
      <trkpt lat="45.15984" lon="5.79631">
        <ele>721</ele>
        <time>2019-05-24T11:05:38.080Z</time>
      </trkpt>
      <trkpt lat="45.15983" lon="5.79634">
        <ele>722</ele>
        <time>2019-05-24T11:05:39.080Z</time>
      </trkpt>
      <trkpt lat="45.15982" lon="5.79637">
        <ele>721</ele>
        <time>2019-05-24T11:05:40.080Z</time>
      </trkpt>
      <trkpt lat="45.1598" lon="5.7964">
        <ele>719</ele>
        <time>2019-05-24T11:05:41.080Z</time>
      </trkpt>
      <trkpt lat="45.15979" lon="5.79643">
        <ele>720</ele>
        <time>2019-05-24T11:05:42.080Z</time>
      </trkpt>
      <trkpt lat="45.15978" lon="5.79645">
        <ele>718</ele>
        <time>2019-05-24T11:05:43.080Z</time>
      </trkpt>
      <trkpt lat="45.15977" lon="5.79648">
        <ele>717</ele>
        <time>2019-05-24T11:05:44.080Z</time>
      </trkpt>
      <trkpt lat="45.15976" lon="5.79651">
        <ele>718</ele>
        <time>2019-05-24T11:05:45.080Z</time>
      </trkpt>
      <trkpt lat="45.15976" lon="5.79653">
        <ele>719</ele>
        <time>2019-05-24T11:05:46.080Z</time>
      </trkpt>
      <trkpt lat="45.15975" lon="5.79655">
        <ele>719</ele>
        <time>2019-05-24T11:05:47.080Z</time>
      </trkpt>
      <trkpt lat="45.15975" lon="5.79657">
        <ele>721</ele>
        <time>2019-05-24T11:05:48.080Z</time>
      </trkpt>
      <trkpt lat="45.15974" lon="5.79659">
        <ele>722</ele>
        <time>2019-05-24T11:05:49.080Z</time>
      </trkpt>
      <trkpt lat="45.15973" lon="5.79661">
        <ele>720</ele>
        <time>2019-05-24T11:05:50.080Z</time>
      </trkpt>
      <trkpt lat="45.15973" lon="5.79663">
        <ele>722</ele>
        <time>2019-05-24T11:05:51.080Z</time>
      </trkpt>
      <trkpt lat="45.15972" lon="5.79665">
        <ele>722</ele>
        <time>2019-05-24T11:05:52.080Z</time>
      </trkpt>
      <trkpt lat="45.15972" lon="5.79666">
        <ele>720</ele>
        <time>2019-05-24T11:05:53.080Z</time>
      </trkpt>
      <trkpt lat="45.15971" lon="5.79668">
        <ele>721</ele>
        <time>2019-05-24T11:05:54.080Z</time>
      </trkpt>
      <trkpt lat="45.1597" lon="5.7967">
        <ele>719</ele>
        <time>2019-05-24T11:05:55.080Z</time>
      </trkpt>
      <trkpt lat="45.15969" lon="5.79672">
        <ele>720</ele>
        <time>2019-05-24T11:05:56.080Z</time>
      </trkpt>
      <trkpt lat="45.15968" lon="5.79675">
        <ele>721</ele>
        <time>2019-05-24T11:05:57.080Z</time>
      </trkpt>
      <trkpt lat="45.15967" lon="5.79677">
        <ele>721</ele>
        <time>2019-05-24T11:05:58.080Z</time>
      </trkpt>
      <trkpt lat="45.15965" lon="5.7968">
        <ele>722</ele>
        <time>2019-05-24T11:05:59.080Z</time>
      </trkpt>
      <trkpt lat="45.15963" lon="5.79682">
        <ele>723</ele>
        <time>2019-05-24T11:06:00.080Z</time>
      </trkpt>
      <trkpt lat="45.15961" lon="5.79684">
        <ele>723</ele>
        <time>2019-05-24T11:06:01.080Z</time>
      </trkpt>
      <trkpt lat="45.1596" lon="5.79685">
        <ele>722</ele>
        <time>2019-05-24T11:06:02.080Z</time>
      </trkpt>
      <trkpt lat="45.15959" lon="5.79688">
        <ele>724</ele>
        <time>2019-05-24T11:06:03.080Z</time>
      </trkpt>
      <trkpt lat="45.15958" lon="5.7969">
        <ele>725</ele>
        <time>2019-05-24T11:06:04.080Z</time>
      </trkpt>
      <trkpt lat="45.15957" lon="5.79692">
        <ele>723</ele>
        <time>2019-05-24T11:06:05.080Z</time>
      </trkpt>
      <trkpt lat="45.15956" lon="5.79694">
        <ele>722</ele>
        <time>2019-05-24T11:06:06.080Z</time>
      </trkpt>
      <trkpt lat="45.15956" lon="5.79696">
        <ele>722</ele>
        <time>2019-05-24T11:06:07.080Z</time>
      </trkpt>
      <trkpt lat="45.15955" lon="5.79699">
        <ele>721</ele>
        <time>2019-05-24T11:06:08.080Z</time>
      </trkpt>
      <trkpt lat="45.15954" lon="5.79701">
        <ele>722</ele>
        <time>2019-05-24T11:06:09.080Z</time>
      </trkpt>
      <trkpt lat="45.15954" lon="5.79703">
        <ele>725</ele>
        <time>2019-05-24T11:06:10.080Z</time>
      </trkpt>
      <trkpt lat="45.15953" lon="5.79705">
        <ele>725</ele>
        <time>2019-05-24T11:06:11.080Z</time>
      </trkpt>
      <trkpt lat="45.15953" lon="5.79707">
        <ele>725</ele>
        <time>2019-05-24T11:06:12.080Z</time>
      </trkpt>
      <trkpt lat="45.15953" lon="5.79708">
        <ele>724</ele>
        <time>2019-05-24T11:06:13.080Z</time>
      </trkpt>
      <trkpt lat="45.15953" lon="5.79708">
        <ele>723</ele>
        <time>2019-05-24T11:06:14.080Z</time>
      </trkpt>
      <trkpt lat="45.15952" lon="5.79707">
        <ele>722</ele>
        <time>2019-05-24T11:06:15.080Z</time>
      </trkpt>
      <trkpt lat="45.15952" lon="5.79707">
        <ele>723</ele>
        <time>2019-05-24T11:06:16.080Z</time>
      </trkpt>
      <trkpt lat="45.15952" lon="5.79707">
        <ele>721</ele>
        <time>2019-05-24T11:06:17.080Z</time>
      </trkpt>
      <trkpt lat="45.15952" lon="5.79706">
        <ele>720</ele>
        <time>2019-05-24T11:06:18.080Z</time>
      </trkpt>
      <trkpt lat="45.15952" lon="5.79705">
        <ele>719</ele>
        <time>2019-05-24T11:06:19.080Z</time>
      </trkpt>
      <trkpt lat="45.15952" lon="5.79704">
        <ele>720</ele>
        <time>2019-05-24T11:06:20.080Z</time>
      </trkpt>
      <trkpt lat="45.15952" lon="5.79704">
        <ele>721</ele>
        <time>2019-05-24T11:06:21.080Z</time>
      </trkpt>
      <trkpt lat="45.15952" lon="5.79703">
        <ele>719</ele>
        <time>2019-05-24T11:06:22.080Z</time>
      </trkpt>
      <trkpt lat="45.15952" lon="5.79702">
        <ele>719</ele>
        <time>2019-05-24T11:06:23.080Z</time>
      </trkpt>
      <trkpt lat="45.15953" lon="5.79701">
        <ele>719</ele>
        <time>2019-05-24T11:06:24.080Z</time>
      </trkpt>
      <trkpt lat="45.15954" lon="5.79701">
        <ele>720</ele>
        <time>2019-05-24T11:06:25.080Z</time>
      </trkpt>
      <trkpt lat="45.15955" lon="5.797">
        <ele>719</ele>
        <time>2019-05-24T11:06:26.080Z</time>
      </trkpt>
      <trkpt lat="45.15956" lon="5.797">
        <ele>719</ele>
        <time>2019-05-24T11:06:27.080Z</time>
      </trkpt>
      <trkpt lat="45.15957" lon="5.797">
        <ele>719</ele>
        <time>2019-05-24T11:06:28.080Z</time>
      </trkpt>
      <trkpt lat="45.15957" lon="5.797">
        <ele>719</ele>
        <time>2019-05-24T11:06:29.080Z</time>
      </trkpt>
      <trkpt lat="45.15958" lon="5.797">
        <ele>718</ele>
        <time>2019-05-24T11:06:30.080Z</time>
      </trkpt>
      <trkpt lat="45.15959" lon="5.797">
        <ele>719</ele>
        <time>2019-05-24T11:06:31.080Z</time>
      </trkpt>
      <trkpt lat="45.15959" lon="5.79699">
        <ele>719</ele>
        <time>2019-05-24T11:06:32.080Z</time>
      </trkpt>
      <trkpt lat="45.15959" lon="5.79698">
        <ele>719</ele>
        <time>2019-05-24T11:06:33.080Z</time>
      </trkpt>
      <trkpt lat="45.15959" lon="5.79697">
        <ele>720</ele>
        <time>2019-05-24T11:06:34.080Z</time>
      </trkpt>
      <trkpt lat="45.15959" lon="5.79696">
        <ele>720</ele>
        <time>2019-05-24T11:06:35.080Z</time>
      </trkpt>
      <trkpt lat="45.15958" lon="5.79695">
        <ele>720</ele>
        <time>2019-05-24T11:06:36.080Z</time>
      </trkpt>
      <trkpt lat="45.15959" lon="5.79695">
        <ele>719</ele>
        <time>2019-05-24T11:06:37.080Z</time>
      </trkpt>
      <trkpt lat="45.15958" lon="5.79695">
        <ele>720</ele>
        <time>2019-05-24T11:06:38.080Z</time>
      </trkpt>
      <trkpt lat="45.15958" lon="5.79696">
        <ele>721</ele>
        <time>2019-05-24T11:06:39.080Z</time>
      </trkpt>
      <trkpt lat="45.15957" lon="5.79696">
        <ele>720</ele>
        <time>2019-05-24T11:06:40.080Z</time>
      </trkpt>
      <trkpt lat="45.15957" lon="5.79696">
        <ele>720</ele>
        <time>2019-05-24T11:06:41.080Z</time>
      </trkpt>
      <trkpt lat="45.15956" lon="5.79695">
        <ele>718</ele>
        <time>2019-05-24T11:06:42.080Z</time>
      </trkpt>
      <trkpt lat="45.15956" lon="5.79695">
        <ele>718</ele>
        <time>2019-05-24T11:06:43.080Z</time>
      </trkpt>
      <trkpt lat="45.15957" lon="5.79695">
        <ele>718</ele>
        <time>2019-05-24T11:06:44.080Z</time>
      </trkpt>
      <trkpt lat="45.15957" lon="5.79695">
        <ele>715</ele>
        <time>2019-05-24T11:06:45.080Z</time>
      </trkpt>
      <trkpt lat="45.15958" lon="5.79695">
        <ele>715</ele>
        <time>2019-05-24T11:06:46.080Z</time>
      </trkpt>
      <trkpt lat="45.15959" lon="5.79695">
        <ele>717</ele>
        <time>2019-05-24T11:06:47.080Z</time>
      </trkpt>
      <trkpt lat="45.15959" lon="5.79695">
        <ele>713</ele>
        <time>2019-05-24T11:06:48.080Z</time>
      </trkpt>
      <trkpt lat="45.15959" lon="5.79695">
        <ele>713</ele>
        <time>2019-05-24T11:06:49.080Z</time>
      </trkpt>
      <trkpt lat="45.15959" lon="5.79694">
        <ele>713</ele>
        <time>2019-05-24T11:06:50.080Z</time>
      </trkpt>
      <trkpt lat="45.15959" lon="5.79694">
        <ele>714</ele>
        <time>2019-05-24T11:06:51.080Z</time>
      </trkpt>
      <trkpt lat="45.1596" lon="5.79693">
        <ele>714</ele>
        <time>2019-05-24T11:06:52.080Z</time>
      </trkpt>
      <trkpt lat="45.1596" lon="5.79693">
        <ele>714</ele>
        <time>2019-05-24T11:06:53.080Z</time>
      </trkpt>
      <trkpt lat="45.1596" lon="5.79692">
        <ele>714</ele>
        <time>2019-05-24T11:06:54.080Z</time>
      </trkpt>
      <trkpt lat="45.15961" lon="5.79692">
        <ele>712</ele>
        <time>2019-05-24T11:06:55.080Z</time>
      </trkpt>
      <trkpt lat="45.15961" lon="5.79692">
        <ele>711</ele>
        <time>2019-05-24T11:06:56.080Z</time>
      </trkpt>
      <trkpt lat="45.15962" lon="5.79692">
        <ele>710</ele>
        <time>2019-05-24T11:06:57.080Z</time>
      </trkpt>
      <trkpt lat="45.15963" lon="5.79691">
        <ele>711</ele>
        <time>2019-05-24T11:06:58.080Z</time>
      </trkpt>
      <trkpt lat="45.15963" lon="5.79691">
        <ele>708</ele>
        <time>2019-05-24T11:06:59.080Z</time>
      </trkpt>
      <trkpt lat="45.15963" lon="5.7969">
        <ele>707</ele>
        <time>2019-05-24T11:07:00.080Z</time>
      </trkpt>
      <trkpt lat="45.15963" lon="5.7969">
        <ele>709</ele>
        <time>2019-05-24T11:07:01.080Z</time>
      </trkpt>
      <trkpt lat="45.15964" lon="5.79689">
        <ele>710</ele>
        <time>2019-05-24T11:07:02.080Z</time>
      </trkpt>
      <trkpt lat="45.15965" lon="5.79689">
        <ele>710</ele>
        <time>2019-05-24T11:07:03.080Z</time>
      </trkpt>
      <trkpt lat="45.15965" lon="5.79689">
        <ele>709</ele>
        <time>2019-05-24T11:07:04.080Z</time>
      </trkpt>
      <trkpt lat="45.15965" lon="5.79688">
        <ele>708</ele>
        <time>2019-05-24T11:07:05.080Z</time>
      </trkpt>
      <trkpt lat="45.15965" lon="5.79687">
        <ele>706</ele>
        <time>2019-05-24T11:07:06.080Z</time>
      </trkpt>
      <trkpt lat="45.15965" lon="5.79686">
        <ele>703</ele>
        <time>2019-05-24T11:07:07.080Z</time>
      </trkpt>
      <trkpt lat="45.15965" lon="5.79685">
        <ele>701</ele>
        <time>2019-05-24T11:07:08.080Z</time>
      </trkpt>
      <trkpt lat="45.15965" lon="5.79683">
        <ele>701</ele>
        <time>2019-05-24T11:07:09.080Z</time>
      </trkpt>
      <trkpt lat="45.15966" lon="5.79682">
        <ele>702</ele>
        <time>2019-05-24T11:07:10.080Z</time>
      </trkpt>
      <trkpt lat="45.15966" lon="5.79681">
        <ele>704</ele>
        <time>2019-05-24T11:07:11.080Z</time>
      </trkpt>
      <trkpt lat="45.15966" lon="5.7968">
        <ele>703</ele>
        <time>2019-05-24T11:07:12.080Z</time>
      </trkpt>
      <trkpt lat="45.15967" lon="5.79678">
        <ele>703</ele>
        <time>2019-05-24T11:07:13.080Z</time>
      </trkpt>
      <trkpt lat="45.15968" lon="5.79676">
        <ele>701</ele>
        <time>2019-05-24T11:07:14.080Z</time>
      </trkpt>
      <trkpt lat="45.15969" lon="5.79674">
        <ele>702</ele>
        <time>2019-05-24T11:07:15.080Z</time>
      </trkpt>
      <trkpt lat="45.15971" lon="5.79671">
        <ele>701</ele>
        <time>2019-05-24T11:07:16.080Z</time>
      </trkpt>
      <trkpt lat="45.15973" lon="5.79669">
        <ele>700</ele>
        <time>2019-05-24T11:07:17.080Z</time>
      </trkpt>
      <trkpt lat="45.15974" lon="5.79666">
        <ele>699</ele>
        <time>2019-05-24T11:07:18.080Z</time>
      </trkpt>
      <trkpt lat="45.15974" lon="5.79663">
        <ele>699</ele>
        <time>2019-05-24T11:07:19.080Z</time>
      </trkpt>
      <trkpt lat="45.15974" lon="5.7966">
        <ele>698</ele>
        <time>2019-05-24T11:07:20.080Z</time>
      </trkpt>
      <trkpt lat="45.15975" lon="5.79658">
        <ele>698</ele>
        <time>2019-05-24T11:07:21.080Z</time>
      </trkpt>
      <trkpt lat="45.15976" lon="5.79656">
        <ele>699</ele>
        <time>2019-05-24T11:07:22.080Z</time>
      </trkpt>
      <trkpt lat="45.15977" lon="5.79654">
        <ele>699</ele>
        <time>2019-05-24T11:07:23.080Z</time>
      </trkpt>
      <trkpt lat="45.15978" lon="5.79653">
        <ele>702</ele>
        <time>2019-05-24T11:07:24.080Z</time>
      </trkpt>
      <trkpt lat="45.15979" lon="5.79652">
        <ele>702</ele>
        <time>2019-05-24T11:07:25.080Z</time>
      </trkpt>
      <trkpt lat="45.15979" lon="5.7965">
        <ele>702</ele>
        <time>2019-05-24T11:07:26.080Z</time>
      </trkpt>
      <trkpt lat="45.15982" lon="5.79647">
        <ele>703</ele>
        <time>2019-05-24T11:07:27.080Z</time>
      </trkpt>
      <trkpt lat="45.15983" lon="5.79644">
        <ele>704</ele>
        <time>2019-05-24T11:07:28.080Z</time>
      </trkpt>
      <trkpt lat="45.15983" lon="5.79641">
        <ele>703</ele>
        <time>2019-05-24T11:07:29.080Z</time>
      </trkpt>
      <trkpt lat="45.15983" lon="5.79639">
        <ele>703</ele>
        <time>2019-05-24T11:07:30.080Z</time>
      </trkpt>
      <trkpt lat="45.15983" lon="5.79638">
        <ele>702</ele>
        <time>2019-05-24T11:07:31.080Z</time>
      </trkpt>
      <trkpt lat="45.15984" lon="5.79636">
        <ele>702</ele>
        <time>2019-05-24T11:07:32.080Z</time>
      </trkpt>
      <trkpt lat="45.15986" lon="5.79633">
        <ele>699</ele>
        <time>2019-05-24T11:07:33.080Z</time>
      </trkpt>
      <trkpt lat="45.15987" lon="5.79631">
        <ele>697</ele>
        <time>2019-05-24T11:07:34.080Z</time>
      </trkpt>
      <trkpt lat="45.15989" lon="5.7963">
        <ele>697</ele>
        <time>2019-05-24T11:07:35.080Z</time>
      </trkpt>
      <trkpt lat="45.1599" lon="5.79628">
        <ele>696</ele>
        <time>2019-05-24T11:07:36.080Z</time>
      </trkpt>
      <trkpt lat="45.15992" lon="5.79627">
        <ele>696</ele>
        <time>2019-05-24T11:07:37.080Z</time>
      </trkpt>
      <trkpt lat="45.15993" lon="5.79626">
        <ele>695</ele>
        <time>2019-05-24T11:07:38.080Z</time>
      </trkpt>
      <trkpt lat="45.15995" lon="5.79624">
        <ele>695</ele>
        <time>2019-05-24T11:07:39.080Z</time>
      </trkpt>
      <trkpt lat="45.15996" lon="5.79623">
        <ele>695</ele>
        <time>2019-05-24T11:07:40.080Z</time>
      </trkpt>
      <trkpt lat="45.15998" lon="5.79622">
        <ele>694</ele>
        <time>2019-05-24T11:07:41.080Z</time>
      </trkpt>
      <trkpt lat="45.15998" lon="5.79621">
        <ele>695</ele>
        <time>2019-05-24T11:07:42.080Z</time>
      </trkpt>
      <trkpt lat="45.15999" lon="5.79621">
        <ele>697</ele>
        <time>2019-05-24T11:07:43.080Z</time>
      </trkpt>
      <trkpt lat="45.16" lon="5.7962">
        <ele>699</ele>
        <time>2019-05-24T11:07:44.080Z</time>
      </trkpt>
      <trkpt lat="45.16001" lon="5.7962">
        <ele>700</ele>
        <time>2019-05-24T11:07:45.080Z</time>
      </trkpt>
      <trkpt lat="45.16002" lon="5.79619">
        <ele>704</ele>
        <time>2019-05-24T11:07:46.080Z</time>
      </trkpt>
      <trkpt lat="45.16003" lon="5.79619">
        <ele>705</ele>
        <time>2019-05-24T11:07:47.080Z</time>
      </trkpt>
      <trkpt lat="45.16004" lon="5.79619">
        <ele>706</ele>
        <time>2019-05-24T11:07:48.080Z</time>
      </trkpt>
      <trkpt lat="45.16005" lon="5.79618">
        <ele>705</ele>
        <time>2019-05-24T11:07:49.080Z</time>
      </trkpt>
      <trkpt lat="45.16007" lon="5.79618">
        <ele>705</ele>
        <time>2019-05-24T11:07:50.080Z</time>
      </trkpt>
      <trkpt lat="45.16009" lon="5.79618">
        <ele>703</ele>
        <time>2019-05-24T11:07:51.080Z</time>
      </trkpt>
      <trkpt lat="45.16011" lon="5.79618">
        <ele>701</ele>
        <time>2019-05-24T11:07:52.080Z</time>
      </trkpt>
      <trkpt lat="45.16013" lon="5.79617">
        <ele>701</ele>
        <time>2019-05-24T11:07:53.080Z</time>
      </trkpt>
      <trkpt lat="45.16015" lon="5.79617">
        <ele>700</ele>
        <time>2019-05-24T11:07:54.080Z</time>
      </trkpt>
      <trkpt lat="45.16017" lon="5.79617">
        <ele>700</ele>
        <time>2019-05-24T11:07:55.080Z</time>
      </trkpt>
      <trkpt lat="45.16018" lon="5.79617">
        <ele>698</ele>
        <time>2019-05-24T11:07:56.080Z</time>
      </trkpt>
      <trkpt lat="45.16019" lon="5.79618">
        <ele>697</ele>
        <time>2019-05-24T11:07:57.080Z</time>
      </trkpt>
      <trkpt lat="45.1602" lon="5.79617">
        <ele>694</ele>
        <time>2019-05-24T11:07:58.080Z</time>
      </trkpt>
      <trkpt lat="45.16021" lon="5.79616">
        <ele>692</ele>
        <time>2019-05-24T11:07:59.080Z</time>
      </trkpt>
      <trkpt lat="45.16023" lon="5.79616">
        <ele>692</ele>
        <time>2019-05-24T11:08:00.080Z</time>
      </trkpt>
      <trkpt lat="45.16025" lon="5.79615">
        <ele>690</ele>
        <time>2019-05-24T11:08:01.080Z</time>
      </trkpt>
      <trkpt lat="45.16027" lon="5.79614">
        <ele>689</ele>
        <time>2019-05-24T11:08:02.080Z</time>
      </trkpt>
      <trkpt lat="45.16028" lon="5.79614">
        <ele>686</ele>
        <time>2019-05-24T11:08:03.080Z</time>
      </trkpt>
      <trkpt lat="45.1603" lon="5.79613">
        <ele>686</ele>
        <time>2019-05-24T11:08:04.080Z</time>
      </trkpt>
      <trkpt lat="45.16031" lon="5.79612">
        <ele>687</ele>
        <time>2019-05-24T11:08:05.080Z</time>
      </trkpt>
      <trkpt lat="45.16033" lon="5.79612">
        <ele>686</ele>
        <time>2019-05-24T11:08:06.080Z</time>
      </trkpt>
      <trkpt lat="45.16034" lon="5.79611">
        <ele>686</ele>
        <time>2019-05-24T11:08:07.080Z</time>
      </trkpt>
      <trkpt lat="45.16035" lon="5.79611">
        <ele>685</ele>
        <time>2019-05-24T11:08:08.080Z</time>
      </trkpt>
      <trkpt lat="45.16036" lon="5.79611">
        <ele>684</ele>
        <time>2019-05-24T11:08:09.080Z</time>
      </trkpt>
      <trkpt lat="45.16037" lon="5.79611">
        <ele>684</ele>
        <time>2019-05-24T11:08:10.080Z</time>
      </trkpt>
      <trkpt lat="45.16038" lon="5.7961">
        <ele>683</ele>
        <time>2019-05-24T11:08:11.080Z</time>
      </trkpt>
      <trkpt lat="45.16039" lon="5.7961">
        <ele>682</ele>
        <time>2019-05-24T11:08:12.080Z</time>
      </trkpt>
      <trkpt lat="45.1604" lon="5.79609">
        <ele>679</ele>
        <time>2019-05-24T11:08:13.080Z</time>
      </trkpt>
      <trkpt lat="45.16041" lon="5.79608">
        <ele>678</ele>
        <time>2019-05-24T11:08:14.080Z</time>
      </trkpt>
      <trkpt lat="45.16041" lon="5.79607">
        <ele>675</ele>
        <time>2019-05-24T11:08:15.080Z</time>
      </trkpt>
      <trkpt lat="45.16042" lon="5.79606">
        <ele>675</ele>
        <time>2019-05-24T11:08:16.080Z</time>
      </trkpt>
      <trkpt lat="45.16042" lon="5.79605">
        <ele>675</ele>
        <time>2019-05-24T11:08:17.080Z</time>
      </trkpt>
      <trkpt lat="45.16042" lon="5.79603">
        <ele>677</ele>
        <time>2019-05-24T11:08:18.080Z</time>
      </trkpt>
      <trkpt lat="45.16042" lon="5.796">
        <ele>676</ele>
        <time>2019-05-24T11:08:19.080Z</time>
      </trkpt>
      <trkpt lat="45.16042" lon="5.79597">
        <ele>674</ele>
        <time>2019-05-24T11:08:20.080Z</time>
      </trkpt>
      <trkpt lat="45.16041" lon="5.79594">
        <ele>673</ele>
        <time>2019-05-24T11:08:21.080Z</time>
      </trkpt>
      <trkpt lat="45.16042" lon="5.7959">
        <ele>674</ele>
        <time>2019-05-24T11:08:22.080Z</time>
      </trkpt>
      <trkpt lat="45.16042" lon="5.79586">
        <ele>675</ele>
        <time>2019-05-24T11:08:23.080Z</time>
      </trkpt>
      <trkpt lat="45.16041" lon="5.79582">
        <ele>674</ele>
        <time>2019-05-24T11:08:24.080Z</time>
      </trkpt>
      <trkpt lat="45.16041" lon="5.79579">
        <ele>673</ele>
        <time>2019-05-24T11:08:25.080Z</time>
      </trkpt>
      <trkpt lat="45.16041" lon="5.79576">
        <ele>671</ele>
        <time>2019-05-24T11:08:26.080Z</time>
      </trkpt>
      <trkpt lat="45.1604" lon="5.79572">
        <ele>668</ele>
        <time>2019-05-24T11:08:27.080Z</time>
      </trkpt>
      <trkpt lat="45.16041" lon="5.79567">
        <ele>667</ele>
        <time>2019-05-24T11:08:28.080Z</time>
      </trkpt>
      <trkpt lat="45.16042" lon="5.79563">
        <ele>667</ele>
        <time>2019-05-24T11:08:29.080Z</time>
      </trkpt>
      <trkpt lat="45.16045" lon="5.79559">
        <ele>669</ele>
        <time>2019-05-24T11:08:30.080Z</time>
      </trkpt>
      <trkpt lat="45.16047" lon="5.79555">
        <ele>671</ele>
        <time>2019-05-24T11:08:31.080Z</time>
      </trkpt>
      <trkpt lat="45.16047" lon="5.79551">
        <ele>669</ele>
        <time>2019-05-24T11:08:32.080Z</time>
      </trkpt>
      <trkpt lat="45.16047" lon="5.79548">
        <ele>667</ele>
        <time>2019-05-24T11:08:33.080Z</time>
      </trkpt>
      <trkpt lat="45.16047" lon="5.79544">
        <ele>667</ele>
        <time>2019-05-24T11:08:34.080Z</time>
      </trkpt>
      <trkpt lat="45.16046" lon="5.7954">
        <ele>666</ele>
        <time>2019-05-24T11:08:35.080Z</time>
      </trkpt>
      <trkpt lat="45.16045" lon="5.79536">
        <ele>665</ele>
        <time>2019-05-24T11:08:36.080Z</time>
      </trkpt>
      <trkpt lat="45.16045" lon="5.79533">
        <ele>662</ele>
        <time>2019-05-24T11:08:37.080Z</time>
      </trkpt>
      <trkpt lat="45.16044" lon="5.79529">
        <ele>661</ele>
        <time>2019-05-24T11:08:38.080Z</time>
      </trkpt>
      <trkpt lat="45.16043" lon="5.79526">
        <ele>661</ele>
        <time>2019-05-24T11:08:39.080Z</time>
      </trkpt>
      <trkpt lat="45.16042" lon="5.79522">
        <ele>659</ele>
        <time>2019-05-24T11:08:40.080Z</time>
      </trkpt>
      <trkpt lat="45.16042" lon="5.79519">
        <ele>658</ele>
        <time>2019-05-24T11:08:41.080Z</time>
      </trkpt>
      <trkpt lat="45.16042" lon="5.79515">
        <ele>659</ele>
        <time>2019-05-24T11:08:42.080Z</time>
      </trkpt>
      <trkpt lat="45.16043" lon="5.79511">
        <ele>658</ele>
        <time>2019-05-24T11:08:43.080Z</time>
      </trkpt>
      <trkpt lat="45.16043" lon="5.79507">
        <ele>657</ele>
        <time>2019-05-24T11:08:44.080Z</time>
      </trkpt>
      <trkpt lat="45.16043" lon="5.79502">
        <ele>655</ele>
        <time>2019-05-24T11:08:45.080Z</time>
      </trkpt>
      <trkpt lat="45.16041" lon="5.79498">
        <ele>654</ele>
        <time>2019-05-24T11:08:46.080Z</time>
      </trkpt>
      <trkpt lat="45.1604" lon="5.79494">
        <ele>654</ele>
        <time>2019-05-24T11:08:47.080Z</time>
      </trkpt>
      <trkpt lat="45.16039" lon="5.7949">
        <ele>652</ele>
        <time>2019-05-24T11:08:48.080Z</time>
      </trkpt>
      <trkpt lat="45.16039" lon="5.79486">
        <ele>652</ele>
        <time>2019-05-24T11:08:49.080Z</time>
      </trkpt>
      <trkpt lat="45.16037" lon="5.79482">
        <ele>651</ele>
        <time>2019-05-24T11:08:50.080Z</time>
      </trkpt>
      <trkpt lat="45.16037" lon="5.79479">
        <ele>650</ele>
        <time>2019-05-24T11:08:51.080Z</time>
      </trkpt>
      <trkpt lat="45.16037" lon="5.79476">
        <ele>649</ele>
        <time>2019-05-24T11:08:52.080Z</time>
      </trkpt>
      <trkpt lat="45.16036" lon="5.79474">
        <ele>649</ele>
        <time>2019-05-24T11:08:53.080Z</time>
      </trkpt>
      <trkpt lat="45.16036" lon="5.79471">
        <ele>650</ele>
        <time>2019-05-24T11:08:54.080Z</time>
      </trkpt>
      <trkpt lat="45.16035" lon="5.79467">
        <ele>650</ele>
        <time>2019-05-24T11:08:55.080Z</time>
      </trkpt>
      <trkpt lat="45.16033" lon="5.79463">
        <ele>650</ele>
        <time>2019-05-24T11:08:56.080Z</time>
      </trkpt>
      <trkpt lat="45.16031" lon="5.79459">
        <ele>648</ele>
        <time>2019-05-24T11:08:57.080Z</time>
      </trkpt>
      <trkpt lat="45.16029" lon="5.79455">
        <ele>648</ele>
        <time>2019-05-24T11:08:58.080Z</time>
      </trkpt>
      <trkpt lat="45.16027" lon="5.79452">
        <ele>648</ele>
        <time>2019-05-24T11:08:59.080Z</time>
      </trkpt>
      <trkpt lat="45.16026" lon="5.79449">
        <ele>649</ele>
        <time>2019-05-24T11:09:00.080Z</time>
      </trkpt>
      <trkpt lat="45.16025" lon="5.79446">
        <ele>649</ele>
        <time>2019-05-24T11:09:01.080Z</time>
      </trkpt>
      <trkpt lat="45.16024" lon="5.79444">
        <ele>649</ele>
        <time>2019-05-24T11:09:02.080Z</time>
      </trkpt>
      <trkpt lat="45.16023" lon="5.79441">
        <ele>650</ele>
        <time>2019-05-24T11:09:03.080Z</time>
      </trkpt>
      <trkpt lat="45.16022" lon="5.79439">
        <ele>653</ele>
        <time>2019-05-24T11:09:04.080Z</time>
      </trkpt>
      <trkpt lat="45.16022" lon="5.79437">
        <ele>656</ele>
        <time>2019-05-24T11:09:05.080Z</time>
      </trkpt>
      <trkpt lat="45.16022" lon="5.79435">
        <ele>657</ele>
        <time>2019-05-24T11:09:06.080Z</time>
      </trkpt>
      <trkpt lat="45.16022" lon="5.79433">
        <ele>658</ele>
        <time>2019-05-24T11:09:07.080Z</time>
      </trkpt>
      <trkpt lat="45.16022" lon="5.7943">
        <ele>658</ele>
        <time>2019-05-24T11:09:08.080Z</time>
      </trkpt>
      <trkpt lat="45.16022" lon="5.79428">
        <ele>659</ele>
        <time>2019-05-24T11:09:09.080Z</time>
      </trkpt>
      <trkpt lat="45.16022" lon="5.79426">
        <ele>659</ele>
        <time>2019-05-24T11:09:10.080Z</time>
      </trkpt>
      <trkpt lat="45.16022" lon="5.79424">
        <ele>658</ele>
        <time>2019-05-24T11:09:11.080Z</time>
      </trkpt>
      <trkpt lat="45.16021" lon="5.79424">
        <ele>659</ele>
        <time>2019-05-24T11:09:12.080Z</time>
      </trkpt>
      <trkpt lat="45.16021" lon="5.79423">
        <ele>659</ele>
        <time>2019-05-24T11:09:13.080Z</time>
      </trkpt>
      <trkpt lat="45.16022" lon="5.79422">
        <ele>659</ele>
        <time>2019-05-24T11:09:14.080Z</time>
      </trkpt>
      <trkpt lat="45.16022" lon="5.79421">
        <ele>657</ele>
        <time>2019-05-24T11:09:15.080Z</time>
      </trkpt>
      <trkpt lat="45.16022" lon="5.79419">
        <ele>655</ele>
        <time>2019-05-24T11:09:16.080Z</time>
      </trkpt>
      <trkpt lat="45.16022" lon="5.79418">
        <ele>655</ele>
        <time>2019-05-24T11:09:17.080Z</time>
      </trkpt>
      <trkpt lat="45.16022" lon="5.79418">
        <ele>654</ele>
        <time>2019-05-24T11:09:18.080Z</time>
      </trkpt>
      <trkpt lat="45.16023" lon="5.79417">
        <ele>656</ele>
        <time>2019-05-24T11:09:19.080Z</time>
      </trkpt>
      <trkpt lat="45.16024" lon="5.79416">
        <ele>655</ele>
        <time>2019-05-24T11:09:20.080Z</time>
      </trkpt>
      <trkpt lat="45.16025" lon="5.79415">
        <ele>656</ele>
        <time>2019-05-24T11:09:21.080Z</time>
      </trkpt>
      <trkpt lat="45.16025" lon="5.79415">
        <ele>655</ele>
        <time>2019-05-24T11:09:22.080Z</time>
      </trkpt>
      <trkpt lat="45.16025" lon="5.79414">
        <ele>655</ele>
        <time>2019-05-24T11:09:23.080Z</time>
      </trkpt>
      <trkpt lat="45.16025" lon="5.79414">
        <ele>655</ele>
        <time>2019-05-24T11:09:24.080Z</time>
      </trkpt>
      <trkpt lat="45.16025" lon="5.79414">
        <ele>657</ele>
        <time>2019-05-24T11:09:25.080Z</time>
      </trkpt>
      <trkpt lat="45.16026" lon="5.79412">
        <ele>658</ele>
        <time>2019-05-24T11:09:26.080Z</time>
      </trkpt>
      <trkpt lat="45.16026" lon="5.79411">
        <ele>659</ele>
        <time>2019-05-24T11:09:27.080Z</time>
      </trkpt>
      <trkpt lat="45.16026" lon="5.79411">
        <ele>662</ele>
        <time>2019-05-24T11:09:28.080Z</time>
      </trkpt>
      <trkpt lat="45.16026" lon="5.7941">
        <ele>665</ele>
        <time>2019-05-24T11:09:29.080Z</time>
      </trkpt>
      <trkpt lat="45.16026" lon="5.79409">
        <ele>667</ele>
        <time>2019-05-24T11:09:30.080Z</time>
      </trkpt>
      <trkpt lat="45.16026" lon="5.79408">
        <ele>668</ele>
        <time>2019-05-24T11:09:31.080Z</time>
      </trkpt>
      <trkpt lat="45.16026" lon="5.79405">
        <ele>668</ele>
        <time>2019-05-24T11:09:32.080Z</time>
      </trkpt>
      <trkpt lat="45.16026" lon="5.79403">
        <ele>668</ele>
        <time>2019-05-24T11:09:33.080Z</time>
      </trkpt>
      <trkpt lat="45.16027" lon="5.79401">
        <ele>668</ele>
        <time>2019-05-24T11:09:34.080Z</time>
      </trkpt>
      <trkpt lat="45.16027" lon="5.79399">
        <ele>667</ele>
        <time>2019-05-24T11:09:35.080Z</time>
      </trkpt>
      <trkpt lat="45.16027" lon="5.79397">
        <ele>668</ele>
        <time>2019-05-24T11:09:36.080Z</time>
      </trkpt>
      <trkpt lat="45.16025" lon="5.79394">
        <ele>668</ele>
        <time>2019-05-24T11:09:37.080Z</time>
      </trkpt>
      <trkpt lat="45.16024" lon="5.79392">
        <ele>672</ele>
        <time>2019-05-24T11:09:38.080Z</time>
      </trkpt>
      <trkpt lat="45.16023" lon="5.7939">
        <ele>674</ele>
        <time>2019-05-24T11:09:39.080Z</time>
      </trkpt>
      <trkpt lat="45.16022" lon="5.79389">
        <ele>678</ele>
        <time>2019-05-24T11:09:40.080Z</time>
      </trkpt>
      <trkpt lat="45.16022" lon="5.79387">
        <ele>680</ele>
        <time>2019-05-24T11:09:41.080Z</time>
      </trkpt>
      <trkpt lat="45.16021" lon="5.79386">
        <ele>679</ele>
        <time>2019-05-24T11:09:42.080Z</time>
      </trkpt>
      <trkpt lat="45.16022" lon="5.79385">
        <ele>677</ele>
        <time>2019-05-24T11:09:43.080Z</time>
      </trkpt>
      <trkpt lat="45.16022" lon="5.79384">
        <ele>680</ele>
        <time>2019-05-24T11:09:44.080Z</time>
      </trkpt>
      <trkpt lat="45.16022" lon="5.79383">
        <ele>680</ele>
        <time>2019-05-24T11:09:45.080Z</time>
      </trkpt>
      <trkpt lat="45.16022" lon="5.79382">
        <ele>680</ele>
        <time>2019-05-24T11:09:46.080Z</time>
      </trkpt>
      <trkpt lat="45.16022" lon="5.79382">
        <ele>680</ele>
        <time>2019-05-24T11:09:47.080Z</time>
      </trkpt>
      <trkpt lat="45.16023" lon="5.79381">
        <ele>680</ele>
        <time>2019-05-24T11:09:48.080Z</time>
      </trkpt>
      <trkpt lat="45.16023" lon="5.7938">
        <ele>681</ele>
        <time>2019-05-24T11:09:49.080Z</time>
      </trkpt>
      <trkpt lat="45.16023" lon="5.79379">
        <ele>683</ele>
        <time>2019-05-24T11:09:50.080Z</time>
      </trkpt>
      <trkpt lat="45.16023" lon="5.79378">
        <ele>688</ele>
        <time>2019-05-24T11:09:51.080Z</time>
      </trkpt>
      <trkpt lat="45.16024" lon="5.79376">
        <ele>689</ele>
        <time>2019-05-24T11:09:52.080Z</time>
      </trkpt>
      <trkpt lat="45.16024" lon="5.79375">
        <ele>693</ele>
        <time>2019-05-24T11:09:53.080Z</time>
      </trkpt>
      <trkpt lat="45.16025" lon="5.79374">
        <ele>697</ele>
        <time>2019-05-24T11:09:54.080Z</time>
      </trkpt>
      <trkpt lat="45.16026" lon="5.79373">
        <ele>697</ele>
        <time>2019-05-24T11:09:55.080Z</time>
      </trkpt>
      <trkpt lat="45.16027" lon="5.79372">
        <ele>697</ele>
        <time>2019-05-24T11:09:56.080Z</time>
      </trkpt>
      <trkpt lat="45.16028" lon="5.79371">
        <ele>697</ele>
        <time>2019-05-24T11:09:57.080Z</time>
      </trkpt>
      <trkpt lat="45.16029" lon="5.7937">
        <ele>696</ele>
        <time>2019-05-24T11:09:58.080Z</time>
      </trkpt>
      <trkpt lat="45.1603" lon="5.79369">
        <ele>696</ele>
        <time>2019-05-24T11:09:59.080Z</time>
      </trkpt>
      <trkpt lat="45.16031" lon="5.79368">
        <ele>696</ele>
        <time>2019-05-24T11:10:00.080Z</time>
      </trkpt>
      <trkpt lat="45.16031" lon="5.79367">
        <ele>696</ele>
        <time>2019-05-24T11:10:01.080Z</time>
      </trkpt>
      <trkpt lat="45.1603" lon="5.79366">
        <ele>695</ele>
        <time>2019-05-24T11:10:02.080Z</time>
      </trkpt>
      <trkpt lat="45.1603" lon="5.79366">
        <ele>693</ele>
        <time>2019-05-24T11:10:03.080Z</time>
      </trkpt>
      <trkpt lat="45.1603" lon="5.79366">
        <ele>691</ele>
        <time>2019-05-24T11:10:04.080Z</time>
      </trkpt>
      <trkpt lat="45.16031" lon="5.79366">
        <ele>696</ele>
        <time>2019-05-24T11:10:05.080Z</time>
      </trkpt>
      <trkpt lat="45.16031" lon="5.79366">
        <ele>701</ele>
        <time>2019-05-24T11:10:06.080Z</time>
      </trkpt>
      <trkpt lat="45.16031" lon="5.79365">
        <ele>701</ele>
        <time>2019-05-24T11:10:07.080Z</time>
      </trkpt>
      <trkpt lat="45.16031" lon="5.79365">
        <ele>699</ele>
        <time>2019-05-24T11:10:08.080Z</time>
      </trkpt>
      <trkpt lat="45.16032" lon="5.79364">
        <ele>696</ele>
        <time>2019-05-24T11:10:09.080Z</time>
      </trkpt>
      <trkpt lat="45.16032" lon="5.79363">
        <ele>694</ele>
        <time>2019-05-24T11:10:10.080Z</time>
      </trkpt>
      <trkpt lat="45.16032" lon="5.79362">
        <ele>693</ele>
        <time>2019-05-24T11:10:11.080Z</time>
      </trkpt>
      <trkpt lat="45.16032" lon="5.7936">
        <ele>691</ele>
        <time>2019-05-24T11:10:12.080Z</time>
      </trkpt>
      <trkpt lat="45.16032" lon="5.79358">
        <ele>692</ele>
        <time>2019-05-24T11:10:13.080Z</time>
      </trkpt>
      <trkpt lat="45.16033" lon="5.79356">
        <ele>691</ele>
        <time>2019-05-24T11:10:14.080Z</time>
      </trkpt>
      <trkpt lat="45.16033" lon="5.79354">
        <ele>690</ele>
        <time>2019-05-24T11:10:15.080Z</time>
      </trkpt>
      <trkpt lat="45.16034" lon="5.79351">
        <ele>689</ele>
        <time>2019-05-24T11:10:16.080Z</time>
      </trkpt>
      <trkpt lat="45.16035" lon="5.79349">
        <ele>689</ele>
        <time>2019-05-24T11:10:17.080Z</time>
      </trkpt>
      <trkpt lat="45.16036" lon="5.79346">
        <ele>689</ele>
        <time>2019-05-24T11:10:18.080Z</time>
      </trkpt>
      <trkpt lat="45.16037" lon="5.79343">
        <ele>689</ele>
        <time>2019-05-24T11:10:19.080Z</time>
      </trkpt>
      <trkpt lat="45.16038" lon="5.79341">
        <ele>689</ele>
        <time>2019-05-24T11:10:20.080Z</time>
      </trkpt>
      <trkpt lat="45.16038" lon="5.79338">
        <ele>690</ele>
        <time>2019-05-24T11:10:21.080Z</time>
      </trkpt>
      <trkpt lat="45.16038" lon="5.79336">
        <ele>689</ele>
        <time>2019-05-24T11:10:22.080Z</time>
      </trkpt>
      <trkpt lat="45.16038" lon="5.79333">
        <ele>686</ele>
        <time>2019-05-24T11:10:23.080Z</time>
      </trkpt>
      <trkpt lat="45.16038" lon="5.79331">
        <ele>684</ele>
        <time>2019-05-24T11:10:24.080Z</time>
      </trkpt>
      <trkpt lat="45.16037" lon="5.7933">
        <ele>682</ele>
        <time>2019-05-24T11:10:25.080Z</time>
      </trkpt>
      <trkpt lat="45.16037" lon="5.79328">
        <ele>679</ele>
        <time>2019-05-24T11:10:26.080Z</time>
      </trkpt>
      <trkpt lat="45.16037" lon="5.79327">
        <ele>677</ele>
        <time>2019-05-24T11:10:27.080Z</time>
      </trkpt>
      <trkpt lat="45.16037" lon="5.79325">
        <ele>676</ele>
        <time>2019-05-24T11:10:28.080Z</time>
      </trkpt>
      <trkpt lat="45.16037" lon="5.79324">
        <ele>676</ele>
        <time>2019-05-24T11:10:29.080Z</time>
      </trkpt>
      <trkpt lat="45.16038" lon="5.79322">
        <ele>673</ele>
        <time>2019-05-24T11:10:30.080Z</time>
      </trkpt>
      <trkpt lat="45.1604" lon="5.79321">
        <ele>672</ele>
        <time>2019-05-24T11:10:31.080Z</time>
      </trkpt>
      <trkpt lat="45.16041" lon="5.7932">
        <ele>673</ele>
        <time>2019-05-24T11:10:32.080Z</time>
      </trkpt>
      <trkpt lat="45.16041" lon="5.79318">
        <ele>673</ele>
        <time>2019-05-24T11:10:33.080Z</time>
      </trkpt>
      <trkpt lat="45.16041" lon="5.79316">
        <ele>673</ele>
        <time>2019-05-24T11:10:34.080Z</time>
      </trkpt>
      <trkpt lat="45.16041" lon="5.79314">
        <ele>675</ele>
        <time>2019-05-24T11:10:35.080Z</time>
      </trkpt>
      <trkpt lat="45.1604" lon="5.79312">
        <ele>674</ele>
        <time>2019-05-24T11:10:36.080Z</time>
      </trkpt>
      <trkpt lat="45.16041" lon="5.7931">
        <ele>674</ele>
        <time>2019-05-24T11:10:37.080Z</time>
      </trkpt>
      <trkpt lat="45.16041" lon="5.79307">
        <ele>674</ele>
        <time>2019-05-24T11:10:38.080Z</time>
      </trkpt>
      <trkpt lat="45.16042" lon="5.79305">
        <ele>675</ele>
        <time>2019-05-24T11:10:39.080Z</time>
      </trkpt>
      <trkpt lat="45.16043" lon="5.79303">
        <ele>677</ele>
        <time>2019-05-24T11:10:40.080Z</time>
      </trkpt>
      <trkpt lat="45.16043" lon="5.793">
        <ele>677</ele>
        <time>2019-05-24T11:10:41.080Z</time>
      </trkpt>
      <trkpt lat="45.16045" lon="5.79299">
        <ele>675</ele>
        <time>2019-05-24T11:10:42.080Z</time>
      </trkpt>
      <trkpt lat="45.16047" lon="5.79297">
        <ele>675</ele>
        <time>2019-05-24T11:10:43.080Z</time>
      </trkpt>
      <trkpt lat="45.16048" lon="5.79296">
        <ele>674</ele>
        <time>2019-05-24T11:10:44.080Z</time>
      </trkpt>
      <trkpt lat="45.16047" lon="5.79295">
        <ele>673</ele>
        <time>2019-05-24T11:10:45.080Z</time>
      </trkpt>
      <trkpt lat="45.16047" lon="5.79294">
        <ele>672</ele>
        <time>2019-05-24T11:10:46.080Z</time>
      </trkpt>
      <trkpt lat="45.16047" lon="5.79293">
        <ele>673</ele>
        <time>2019-05-24T11:10:47.080Z</time>
      </trkpt>
      <trkpt lat="45.16048" lon="5.79291">
        <ele>673</ele>
        <time>2019-05-24T11:10:48.080Z</time>
      </trkpt>
      <trkpt lat="45.16049" lon="5.7929">
        <ele>673</ele>
        <time>2019-05-24T11:10:49.080Z</time>
      </trkpt>
      <trkpt lat="45.16049" lon="5.79289">
        <ele>675</ele>
        <time>2019-05-24T11:10:50.080Z</time>
      </trkpt>
      <trkpt lat="45.16049" lon="5.79287">
        <ele>674</ele>
        <time>2019-05-24T11:10:51.080Z</time>
      </trkpt>
      <trkpt lat="45.16049" lon="5.79285">
        <ele>674</ele>
        <time>2019-05-24T11:10:52.080Z</time>
      </trkpt>
      <trkpt lat="45.16049" lon="5.79284">
        <ele>674</ele>
        <time>2019-05-24T11:10:53.080Z</time>
      </trkpt>
      <trkpt lat="45.16049" lon="5.79282">
        <ele>674</ele>
        <time>2019-05-24T11:10:54.080Z</time>
      </trkpt>
      <trkpt lat="45.16049" lon="5.79282">
        <ele>674</ele>
        <time>2019-05-24T11:10:55.080Z</time>
      </trkpt>
      <trkpt lat="45.16049" lon="5.79281">
        <ele>675</ele>
        <time>2019-05-24T11:10:56.080Z</time>
      </trkpt>
      <trkpt lat="45.16051" lon="5.7928">
        <ele>676</ele>
        <time>2019-05-24T11:10:57.080Z</time>
      </trkpt>
      <trkpt lat="45.16051" lon="5.79279">
        <ele>675</ele>
        <time>2019-05-24T11:10:58.080Z</time>
      </trkpt>
      <trkpt lat="45.16052" lon="5.79277">
        <ele>675</ele>
        <time>2019-05-24T11:10:59.080Z</time>
      </trkpt>
      <trkpt lat="45.16053" lon="5.79276">
        <ele>676</ele>
        <time>2019-05-24T11:11:00.080Z</time>
      </trkpt>
      <trkpt lat="45.16054" lon="5.79274">
        <ele>675</ele>
        <time>2019-05-24T11:11:01.080Z</time>
      </trkpt>
      <trkpt lat="45.16055" lon="5.79272">
        <ele>673</ele>
        <time>2019-05-24T11:11:02.080Z</time>
      </trkpt>
      <trkpt lat="45.16056" lon="5.79271">
        <ele>673</ele>
        <time>2019-05-24T11:11:03.080Z</time>
      </trkpt>
      <trkpt lat="45.16057" lon="5.7927">
        <ele>674</ele>
        <time>2019-05-24T11:11:04.080Z</time>
      </trkpt>
      <trkpt lat="45.16058" lon="5.79268">
        <ele>675</ele>
        <time>2019-05-24T11:11:05.080Z</time>
      </trkpt>
      <trkpt lat="45.16059" lon="5.79267">
        <ele>677</ele>
        <time>2019-05-24T11:11:06.080Z</time>
      </trkpt>
      <trkpt lat="45.1606" lon="5.79266">
        <ele>677</ele>
        <time>2019-05-24T11:11:07.080Z</time>
      </trkpt>
      <trkpt lat="45.16061" lon="5.79265">
        <ele>680</ele>
        <time>2019-05-24T11:11:08.080Z</time>
      </trkpt>
      <trkpt lat="45.16063" lon="5.79264">
        <ele>682</ele>
        <time>2019-05-24T11:11:09.080Z</time>
      </trkpt>
      <trkpt lat="45.16064" lon="5.79262">
        <ele>683</ele>
        <time>2019-05-24T11:11:10.080Z</time>
      </trkpt>
      <trkpt lat="45.16064" lon="5.7926">
        <ele>682</ele>
        <time>2019-05-24T11:11:11.080Z</time>
      </trkpt>
      <trkpt lat="45.16064" lon="5.79257">
        <ele>683</ele>
        <time>2019-05-24T11:11:12.080Z</time>
      </trkpt>
      <trkpt lat="45.16063" lon="5.79255">
        <ele>684</ele>
        <time>2019-05-24T11:11:13.080Z</time>
      </trkpt>
      <trkpt lat="45.16063" lon="5.79253">
        <ele>684</ele>
        <time>2019-05-24T11:11:14.080Z</time>
      </trkpt>
      <trkpt lat="45.16063" lon="5.7925">
        <ele>683</ele>
        <time>2019-05-24T11:11:15.080Z</time>
      </trkpt>
      <trkpt lat="45.16063" lon="5.79247">
        <ele>683</ele>
        <time>2019-05-24T11:11:16.080Z</time>
      </trkpt>
      <trkpt lat="45.16063" lon="5.79246">
        <ele>684</ele>
        <time>2019-05-24T11:11:17.080Z</time>
      </trkpt>
      <trkpt lat="45.16063" lon="5.79245">
        <ele>686</ele>
        <time>2019-05-24T11:11:18.080Z</time>
      </trkpt>
      <trkpt lat="45.16064" lon="5.79243">
        <ele>688</ele>
        <time>2019-05-24T11:11:19.080Z</time>
      </trkpt>
      <trkpt lat="45.16065" lon="5.79241">
        <ele>689</ele>
        <time>2019-05-24T11:11:20.080Z</time>
      </trkpt>
      <trkpt lat="45.16067" lon="5.7924">
        <ele>687</ele>
        <time>2019-05-24T11:11:21.080Z</time>
      </trkpt>
      <trkpt lat="45.16069" lon="5.79238">
        <ele>688</ele>
        <time>2019-05-24T11:11:22.080Z</time>
      </trkpt>
      <trkpt lat="45.16069" lon="5.79237">
        <ele>688</ele>
        <time>2019-05-24T11:11:23.080Z</time>
      </trkpt>
      <trkpt lat="45.16068" lon="5.79234">
        <ele>688</ele>
        <time>2019-05-24T11:11:24.080Z</time>
      </trkpt>
      <trkpt lat="45.16068" lon="5.79232">
        <ele>686</ele>
        <time>2019-05-24T11:11:25.080Z</time>
      </trkpt>
      <trkpt lat="45.16068" lon="5.7923">
        <ele>686</ele>
        <time>2019-05-24T11:11:26.080Z</time>
      </trkpt>
      <trkpt lat="45.16069" lon="5.79228">
        <ele>687</ele>
        <time>2019-05-24T11:11:27.080Z</time>
      </trkpt>
      <trkpt lat="45.1607" lon="5.79226">
        <ele>689</ele>
        <time>2019-05-24T11:11:28.080Z</time>
      </trkpt>
      <trkpt lat="45.1607" lon="5.79224">
        <ele>690</ele>
        <time>2019-05-24T11:11:29.080Z</time>
      </trkpt>
      <trkpt lat="45.16071" lon="5.79222">
        <ele>689</ele>
        <time>2019-05-24T11:11:30.080Z</time>
      </trkpt>
      <trkpt lat="45.16071" lon="5.79222">
        <ele>685</ele>
        <time>2019-05-24T11:11:31.080Z</time>
      </trkpt>
      <trkpt lat="45.16071" lon="5.7922">
        <ele>684</ele>
        <time>2019-05-24T11:11:32.080Z</time>
      </trkpt>
      <trkpt lat="45.16071" lon="5.7922">
        <ele>682</ele>
        <time>2019-05-24T11:11:33.080Z</time>
      </trkpt>
      <trkpt lat="45.16071" lon="5.79218">
        <ele>682</ele>
        <time>2019-05-24T11:11:34.080Z</time>
      </trkpt>
      <trkpt lat="45.16072" lon="5.79218">
        <ele>681</ele>
        <time>2019-05-24T11:11:35.080Z</time>
      </trkpt>
      <trkpt lat="45.16072" lon="5.79215">
        <ele>681</ele>
        <time>2019-05-24T11:11:36.080Z</time>
      </trkpt>
      <trkpt lat="45.16073" lon="5.79213">
        <ele>683</ele>
        <time>2019-05-24T11:11:37.080Z</time>
      </trkpt>
      <trkpt lat="45.16073" lon="5.7921">
        <ele>683</ele>
        <time>2019-05-24T11:11:38.080Z</time>
      </trkpt>
      <trkpt lat="45.16074" lon="5.79208">
        <ele>683</ele>
        <time>2019-05-24T11:11:39.080Z</time>
      </trkpt>
      <trkpt lat="45.16075" lon="5.79206">
        <ele>683</ele>
        <time>2019-05-24T11:11:40.080Z</time>
      </trkpt>
      <trkpt lat="45.16076" lon="5.79203">
        <ele>686</ele>
        <time>2019-05-24T11:11:41.080Z</time>
      </trkpt>
      <trkpt lat="45.16075" lon="5.79202">
        <ele>690</ele>
        <time>2019-05-24T11:11:42.080Z</time>
      </trkpt>
      <trkpt lat="45.16074" lon="5.79199">
        <ele>691</ele>
        <time>2019-05-24T11:11:43.080Z</time>
      </trkpt>
      <trkpt lat="45.16072" lon="5.79197">
        <ele>691</ele>
        <time>2019-05-24T11:11:44.080Z</time>
      </trkpt>
      <trkpt lat="45.1607" lon="5.79195">
        <ele>689</ele>
        <time>2019-05-24T11:11:45.080Z</time>
      </trkpt>
      <trkpt lat="45.16068" lon="5.79193">
        <ele>689</ele>
        <time>2019-05-24T11:11:46.080Z</time>
      </trkpt>
      <trkpt lat="45.16067" lon="5.79191">
        <ele>688</ele>
        <time>2019-05-24T11:11:47.080Z</time>
      </trkpt>
      <trkpt lat="45.16066" lon="5.79188">
        <ele>687</ele>
        <time>2019-05-24T11:11:48.080Z</time>
      </trkpt>
      <trkpt lat="45.16064" lon="5.79186">
        <ele>686</ele>
        <time>2019-05-24T11:11:49.080Z</time>
      </trkpt>
      <trkpt lat="45.16063" lon="5.79183">
        <ele>682</ele>
        <time>2019-05-24T11:11:50.080Z</time>
      </trkpt>
      <trkpt lat="45.16061" lon="5.7918">
        <ele>679</ele>
        <time>2019-05-24T11:11:51.080Z</time>
      </trkpt>
      <trkpt lat="45.1606" lon="5.79177">
        <ele>677</ele>
        <time>2019-05-24T11:11:52.080Z</time>
      </trkpt>
      <trkpt lat="45.16059" lon="5.79175">
        <ele>678</ele>
        <time>2019-05-24T11:11:53.080Z</time>
      </trkpt>
      <trkpt lat="45.16058" lon="5.79172">
        <ele>680</ele>
        <time>2019-05-24T11:11:54.080Z</time>
      </trkpt>
      <trkpt lat="45.16057" lon="5.79169">
        <ele>681</ele>
        <time>2019-05-24T11:11:55.080Z</time>
      </trkpt>
      <trkpt lat="45.16057" lon="5.79167">
        <ele>681</ele>
        <time>2019-05-24T11:11:56.080Z</time>
      </trkpt>
      <trkpt lat="45.16057" lon="5.79163">
        <ele>679</ele>
        <time>2019-05-24T11:11:57.080Z</time>
      </trkpt>
      <trkpt lat="45.16056" lon="5.7916">
        <ele>678</ele>
        <time>2019-05-24T11:11:58.080Z</time>
      </trkpt>
      <trkpt lat="45.16055" lon="5.79158">
        <ele>677</ele>
        <time>2019-05-24T11:11:59.080Z</time>
      </trkpt>
      <trkpt lat="45.16056" lon="5.79155">
        <ele>677</ele>
        <time>2019-05-24T11:12:00.080Z</time>
      </trkpt>
      <trkpt lat="45.16056" lon="5.79152">
        <ele>678</ele>
        <time>2019-05-24T11:12:01.080Z</time>
      </trkpt>
      <trkpt lat="45.16055" lon="5.79149">
        <ele>678</ele>
        <time>2019-05-24T11:12:02.080Z</time>
      </trkpt>
      <trkpt lat="45.16054" lon="5.79146">
        <ele>678</ele>
        <time>2019-05-24T11:12:03.080Z</time>
      </trkpt>
      <trkpt lat="45.16053" lon="5.79143">
        <ele>677</ele>
        <time>2019-05-24T11:12:04.080Z</time>
      </trkpt>
      <trkpt lat="45.16051" lon="5.7914">
        <ele>678</ele>
        <time>2019-05-24T11:12:05.080Z</time>
      </trkpt>
      <trkpt lat="45.1605" lon="5.79137">
        <ele>680</ele>
        <time>2019-05-24T11:12:06.080Z</time>
      </trkpt>
      <trkpt lat="45.16049" lon="5.79134">
        <ele>682</ele>
        <time>2019-05-24T11:12:07.080Z</time>
      </trkpt>
      <trkpt lat="45.16048" lon="5.79132">
        <ele>683</ele>
        <time>2019-05-24T11:12:08.080Z</time>
      </trkpt>
      <trkpt lat="45.16048" lon="5.79129">
        <ele>684</ele>
        <time>2019-05-24T11:12:09.080Z</time>
      </trkpt>
      <trkpt lat="45.16048" lon="5.79125">
        <ele>683</ele>
        <time>2019-05-24T11:12:10.080Z</time>
      </trkpt>
      <trkpt lat="45.16048" lon="5.79122">
        <ele>681</ele>
        <time>2019-05-24T11:12:11.080Z</time>
      </trkpt>
      <trkpt lat="45.16048" lon="5.79119">
        <ele>679</ele>
        <time>2019-05-24T11:12:12.080Z</time>
      </trkpt>
      <trkpt lat="45.16046" lon="5.79116">
        <ele>678</ele>
        <time>2019-05-24T11:12:13.080Z</time>
      </trkpt>
      <trkpt lat="45.16044" lon="5.79113">
        <ele>677</ele>
        <time>2019-05-24T11:12:14.080Z</time>
      </trkpt>
      <trkpt lat="45.16042" lon="5.79111">
        <ele>677</ele>
        <time>2019-05-24T11:12:15.080Z</time>
      </trkpt>
      <trkpt lat="45.16041" lon="5.79108">
        <ele>678</ele>
        <time>2019-05-24T11:12:16.080Z</time>
      </trkpt>
      <trkpt lat="45.1604" lon="5.79105">
        <ele>679</ele>
        <time>2019-05-24T11:12:17.080Z</time>
      </trkpt>
      <trkpt lat="45.16038" lon="5.79102">
        <ele>680</ele>
        <time>2019-05-24T11:12:18.080Z</time>
      </trkpt>
      <trkpt lat="45.16037" lon="5.79099">
        <ele>679</ele>
        <time>2019-05-24T11:12:19.080Z</time>
      </trkpt>
      <trkpt lat="45.16035" lon="5.79095">
        <ele>679</ele>
        <time>2019-05-24T11:12:20.080Z</time>
      </trkpt>
      <trkpt lat="45.16033" lon="5.79092">
        <ele>676</ele>
        <time>2019-05-24T11:12:21.080Z</time>
      </trkpt>
      <trkpt lat="45.16031" lon="5.79089">
        <ele>675</ele>
        <time>2019-05-24T11:12:22.080Z</time>
      </trkpt>
      <trkpt lat="45.16029" lon="5.79087">
        <ele>675</ele>
        <time>2019-05-24T11:12:23.080Z</time>
      </trkpt>
      <trkpt lat="45.16027" lon="5.79085">
        <ele>677</ele>
        <time>2019-05-24T11:12:24.080Z</time>
      </trkpt>
      <trkpt lat="45.16026" lon="5.79083">
        <ele>680</ele>
        <time>2019-05-24T11:12:25.080Z</time>
      </trkpt>
      <trkpt lat="45.16026" lon="5.79081">
        <ele>683</ele>
        <time>2019-05-24T11:12:26.080Z</time>
      </trkpt>
      <trkpt lat="45.16025" lon="5.79079">
        <ele>685</ele>
        <time>2019-05-24T11:12:27.080Z</time>
      </trkpt>
      <trkpt lat="45.16025" lon="5.79077">
        <ele>683</ele>
        <time>2019-05-24T11:12:28.080Z</time>
      </trkpt>
      <trkpt lat="45.16023" lon="5.79075">
        <ele>682</ele>
        <time>2019-05-24T11:12:29.080Z</time>
      </trkpt>
      <trkpt lat="45.16021" lon="5.79072">
        <ele>681</ele>
        <time>2019-05-24T11:12:30.080Z</time>
      </trkpt>
      <trkpt lat="45.16018" lon="5.79069">
        <ele>680</ele>
        <time>2019-05-24T11:12:31.080Z</time>
      </trkpt>
      <trkpt lat="45.16017" lon="5.79066">
        <ele>676</ele>
        <time>2019-05-24T11:12:32.080Z</time>
      </trkpt>
      <trkpt lat="45.16015" lon="5.79063">
        <ele>674</ele>
        <time>2019-05-24T11:12:33.080Z</time>
      </trkpt>
      <trkpt lat="45.16013" lon="5.79061">
        <ele>672</ele>
        <time>2019-05-24T11:12:34.080Z</time>
      </trkpt>
      <trkpt lat="45.16012" lon="5.79058">
        <ele>671</ele>
        <time>2019-05-24T11:12:35.080Z</time>
      </trkpt>
      <trkpt lat="45.16011" lon="5.79056">
        <ele>670</ele>
        <time>2019-05-24T11:12:36.080Z</time>
      </trkpt>
      <trkpt lat="45.1601" lon="5.79052">
        <ele>671</ele>
        <time>2019-05-24T11:12:37.080Z</time>
      </trkpt>
      <trkpt lat="45.16008" lon="5.79049">
        <ele>672</ele>
        <time>2019-05-24T11:12:38.080Z</time>
      </trkpt>
      <trkpt lat="45.16007" lon="5.79045">
        <ele>671</ele>
        <time>2019-05-24T11:12:39.080Z</time>
      </trkpt>
      <trkpt lat="45.16006" lon="5.79043">
        <ele>671</ele>
        <time>2019-05-24T11:12:40.080Z</time>
      </trkpt>
      <trkpt lat="45.16004" lon="5.7904">
        <ele>670</ele>
        <time>2019-05-24T11:12:41.080Z</time>
      </trkpt>
      <trkpt lat="45.16003" lon="5.79037">
        <ele>670</ele>
        <time>2019-05-24T11:12:42.080Z</time>
      </trkpt>
      <trkpt lat="45.16001" lon="5.79035">
        <ele>670</ele>
        <time>2019-05-24T11:12:43.080Z</time>
      </trkpt>
      <trkpt lat="45.16" lon="5.79031">
        <ele>670</ele>
        <time>2019-05-24T11:12:44.080Z</time>
      </trkpt>
      <trkpt lat="45.15998" lon="5.79028">
        <ele>670</ele>
        <time>2019-05-24T11:12:45.080Z</time>
      </trkpt>
      <trkpt lat="45.15996" lon="5.79025">
        <ele>670</ele>
        <time>2019-05-24T11:12:46.080Z</time>
      </trkpt>
      <trkpt lat="45.15994" lon="5.79022">
        <ele>669</ele>
        <time>2019-05-24T11:12:47.080Z</time>
      </trkpt>
      <trkpt lat="45.15993" lon="5.79018">
        <ele>668</ele>
        <time>2019-05-24T11:12:48.080Z</time>
      </trkpt>
      <trkpt lat="45.15992" lon="5.79015">
        <ele>667</ele>
        <time>2019-05-24T11:12:49.080Z</time>
      </trkpt>
      <trkpt lat="45.15992" lon="5.79012">
        <ele>665</ele>
        <time>2019-05-24T11:12:50.080Z</time>
      </trkpt>
      <trkpt lat="45.15991" lon="5.79008">
        <ele>664</ele>
        <time>2019-05-24T11:12:51.080Z</time>
      </trkpt>
      <trkpt lat="45.15989" lon="5.79005">
        <ele>666</ele>
        <time>2019-05-24T11:12:52.080Z</time>
      </trkpt>
      <trkpt lat="45.15988" lon="5.79001">
        <ele>669</ele>
        <time>2019-05-24T11:12:53.080Z</time>
      </trkpt>
      <trkpt lat="45.15987" lon="5.78998">
        <ele>670</ele>
        <time>2019-05-24T11:12:54.080Z</time>
      </trkpt>
      <trkpt lat="45.15984" lon="5.78995">
        <ele>670</ele>
        <time>2019-05-24T11:12:55.080Z</time>
      </trkpt>
      <trkpt lat="45.1598" lon="5.78991">
        <ele>669</ele>
        <time>2019-05-24T11:12:56.080Z</time>
      </trkpt>
      <trkpt lat="45.15977" lon="5.78987">
        <ele>667</ele>
        <time>2019-05-24T11:12:57.080Z</time>
      </trkpt>
      <trkpt lat="45.15975" lon="5.78983">
        <ele>665</ele>
        <time>2019-05-24T11:12:58.080Z</time>
      </trkpt>
      <trkpt lat="45.15974" lon="5.78978">
        <ele>665</ele>
        <time>2019-05-24T11:12:59.080Z</time>
      </trkpt>
      <trkpt lat="45.15973" lon="5.78974">
        <ele>665</ele>
        <time>2019-05-24T11:13:00.080Z</time>
      </trkpt>
      <trkpt lat="45.15973" lon="5.78971">
        <ele>670</ele>
        <time>2019-05-24T11:13:01.080Z</time>
      </trkpt>
      <trkpt lat="45.15972" lon="5.78968">
        <ele>670</ele>
        <time>2019-05-24T11:13:02.080Z</time>
      </trkpt>
      <trkpt lat="45.15971" lon="5.78964">
        <ele>670</ele>
        <time>2019-05-24T11:13:03.080Z</time>
      </trkpt>
      <trkpt lat="45.15969" lon="5.7896">
        <ele>669</ele>
        <time>2019-05-24T11:13:04.080Z</time>
      </trkpt>
      <trkpt lat="45.15967" lon="5.78958">
        <ele>668</ele>
        <time>2019-05-24T11:13:05.080Z</time>
      </trkpt>
      <trkpt lat="45.15966" lon="5.78955">
        <ele>668</ele>
        <time>2019-05-24T11:13:06.080Z</time>
      </trkpt>
      <trkpt lat="45.15964" lon="5.78952">
        <ele>668</ele>
        <time>2019-05-24T11:13:07.080Z</time>
      </trkpt>
      <trkpt lat="45.15963" lon="5.78948">
        <ele>668</ele>
        <time>2019-05-24T11:13:08.080Z</time>
      </trkpt>
      <trkpt lat="45.15962" lon="5.78945">
        <ele>668</ele>
        <time>2019-05-24T11:13:09.080Z</time>
      </trkpt>
      <trkpt lat="45.15961" lon="5.78941">
        <ele>667</ele>
        <time>2019-05-24T11:13:10.080Z</time>
      </trkpt>
      <trkpt lat="45.1596" lon="5.78938">
        <ele>664</ele>
        <time>2019-05-24T11:13:11.080Z</time>
      </trkpt>
      <trkpt lat="45.15959" lon="5.78934">
        <ele>662</ele>
        <time>2019-05-24T11:13:12.080Z</time>
      </trkpt>
      <trkpt lat="45.15959" lon="5.78931">
        <ele>662</ele>
        <time>2019-05-24T11:13:13.080Z</time>
      </trkpt>
      <trkpt lat="45.15958" lon="5.78927">
        <ele>666</ele>
        <time>2019-05-24T11:13:14.080Z</time>
      </trkpt>
      <trkpt lat="45.15958" lon="5.78924">
        <ele>666</ele>
        <time>2019-05-24T11:13:15.080Z</time>
      </trkpt>
      <trkpt lat="45.15958" lon="5.78921">
        <ele>667</ele>
        <time>2019-05-24T11:13:16.080Z</time>
      </trkpt>
      <trkpt lat="45.15958" lon="5.78918">
        <ele>668</ele>
        <time>2019-05-24T11:13:17.080Z</time>
      </trkpt>
      <trkpt lat="45.15957" lon="5.78916">
        <ele>669</ele>
        <time>2019-05-24T11:13:18.080Z</time>
      </trkpt>
      <trkpt lat="45.15956" lon="5.78913">
        <ele>667</ele>
        <time>2019-05-24T11:13:19.080Z</time>
      </trkpt>
      <trkpt lat="45.15954" lon="5.7891">
        <ele>662</ele>
        <time>2019-05-24T11:13:20.080Z</time>
      </trkpt>
      <trkpt lat="45.15953" lon="5.78908">
        <ele>659</ele>
        <time>2019-05-24T11:13:21.080Z</time>
      </trkpt>
      <trkpt lat="45.15951" lon="5.78905">
        <ele>658</ele>
        <time>2019-05-24T11:13:22.080Z</time>
      </trkpt>
      <trkpt lat="45.15949" lon="5.78902">
        <ele>658</ele>
        <time>2019-05-24T11:13:23.080Z</time>
      </trkpt>
      <trkpt lat="45.15948" lon="5.78899">
        <ele>659</ele>
        <time>2019-05-24T11:13:24.080Z</time>
      </trkpt>
      <trkpt lat="45.15946" lon="5.78896">
        <ele>660</ele>
        <time>2019-05-24T11:13:25.080Z</time>
      </trkpt>
      <trkpt lat="45.15945" lon="5.78893">
        <ele>661</ele>
        <time>2019-05-24T11:13:26.080Z</time>
      </trkpt>
      <trkpt lat="45.15943" lon="5.7889">
        <ele>661</ele>
        <time>2019-05-24T11:13:27.080Z</time>
      </trkpt>
      <trkpt lat="45.15942" lon="5.78886">
        <ele>662</ele>
        <time>2019-05-24T11:13:28.080Z</time>
      </trkpt>
      <trkpt lat="45.1594" lon="5.78883">
        <ele>663</ele>
        <time>2019-05-24T11:13:29.080Z</time>
      </trkpt>
      <trkpt lat="45.15938" lon="5.7888">
        <ele>663</ele>
        <time>2019-05-24T11:13:30.080Z</time>
      </trkpt>
      <trkpt lat="45.15936" lon="5.78877">
        <ele>664</ele>
        <time>2019-05-24T11:13:31.080Z</time>
      </trkpt>
      <trkpt lat="45.15934" lon="5.78875">
        <ele>665</ele>
        <time>2019-05-24T11:13:32.080Z</time>
      </trkpt>
      <trkpt lat="45.15932" lon="5.78872">
        <ele>664</ele>
        <time>2019-05-24T11:13:33.080Z</time>
      </trkpt>
      <trkpt lat="45.1593" lon="5.78869">
        <ele>666</ele>
        <time>2019-05-24T11:13:34.080Z</time>
      </trkpt>
      <trkpt lat="45.15928" lon="5.78866">
        <ele>665</ele>
        <time>2019-05-24T11:13:35.080Z</time>
      </trkpt>
      <trkpt lat="45.15926" lon="5.78863">
        <ele>663</ele>
        <time>2019-05-24T11:13:36.080Z</time>
      </trkpt>
      <trkpt lat="45.15924" lon="5.78859">
        <ele>662</ele>
        <time>2019-05-24T11:13:37.080Z</time>
      </trkpt>
      <trkpt lat="45.15923" lon="5.78857">
        <ele>661</ele>
        <time>2019-05-24T11:13:38.080Z</time>
      </trkpt>
      <trkpt lat="45.15921" lon="5.78854">
        <ele>663</ele>
        <time>2019-05-24T11:13:39.080Z</time>
      </trkpt>
      <trkpt lat="45.1592" lon="5.78851">
        <ele>665</ele>
        <time>2019-05-24T11:13:40.080Z</time>
      </trkpt>
      <trkpt lat="45.15919" lon="5.78849">
        <ele>666</ele>
        <time>2019-05-24T11:13:41.080Z</time>
      </trkpt>
      <trkpt lat="45.15917" lon="5.78847">
        <ele>667</ele>
        <time>2019-05-24T11:13:42.080Z</time>
      </trkpt>
      <trkpt lat="45.15916" lon="5.78845">
        <ele>666</ele>
        <time>2019-05-24T11:13:43.080Z</time>
      </trkpt>
      <trkpt lat="45.15914" lon="5.78842">
        <ele>664</ele>
        <time>2019-05-24T11:13:44.080Z</time>
      </trkpt>
      <trkpt lat="45.15912" lon="5.7884">
        <ele>663</ele>
        <time>2019-05-24T11:13:45.080Z</time>
      </trkpt>
      <trkpt lat="45.1591" lon="5.78837">
        <ele>661</ele>
        <time>2019-05-24T11:13:46.080Z</time>
      </trkpt>
      <trkpt lat="45.15909" lon="5.78836">
        <ele>659</ele>
        <time>2019-05-24T11:13:47.080Z</time>
      </trkpt>
      <trkpt lat="45.15907" lon="5.78834">
        <ele>659</ele>
        <time>2019-05-24T11:13:48.080Z</time>
      </trkpt>
      <trkpt lat="45.15905" lon="5.78832">
        <ele>659</ele>
        <time>2019-05-24T11:13:49.080Z</time>
      </trkpt>
      <trkpt lat="45.15904" lon="5.7883">
        <ele>657</ele>
        <time>2019-05-24T11:13:50.080Z</time>
      </trkpt>
      <trkpt lat="45.15902" lon="5.78827">
        <ele>657</ele>
        <time>2019-05-24T11:13:51.080Z</time>
      </trkpt>
      <trkpt lat="45.159" lon="5.78825">
        <ele>657</ele>
        <time>2019-05-24T11:13:52.080Z</time>
      </trkpt>
      <trkpt lat="45.159" lon="5.78823">
        <ele>658</ele>
        <time>2019-05-24T11:13:53.080Z</time>
      </trkpt>
      <trkpt lat="45.159" lon="5.78821">
        <ele>659</ele>
        <time>2019-05-24T11:13:54.080Z</time>
      </trkpt>
      <trkpt lat="45.15899" lon="5.78819">
        <ele>660</ele>
        <time>2019-05-24T11:13:55.080Z</time>
      </trkpt>
      <trkpt lat="45.15898" lon="5.78817">
        <ele>660</ele>
        <time>2019-05-24T11:13:56.080Z</time>
      </trkpt>
      <trkpt lat="45.15897" lon="5.78815">
        <ele>659</ele>
        <time>2019-05-24T11:13:57.080Z</time>
      </trkpt>
      <trkpt lat="45.15896" lon="5.78812">
        <ele>658</ele>
        <time>2019-05-24T11:13:58.080Z</time>
      </trkpt>
      <trkpt lat="45.15895" lon="5.7881">
        <ele>656</ele>
        <time>2019-05-24T11:13:59.080Z</time>
      </trkpt>
      <trkpt lat="45.15893" lon="5.78807">
        <ele>658</ele>
        <time>2019-05-24T11:14:00.080Z</time>
      </trkpt>
      <trkpt lat="45.15892" lon="5.78804">
        <ele>659</ele>
        <time>2019-05-24T11:14:01.080Z</time>
      </trkpt>
      <trkpt lat="45.15892" lon="5.78802">
        <ele>659</ele>
        <time>2019-05-24T11:14:02.080Z</time>
      </trkpt>
      <trkpt lat="45.1589" lon="5.78799">
        <ele>658</ele>
        <time>2019-05-24T11:14:03.080Z</time>
      </trkpt>
      <trkpt lat="45.15887" lon="5.78797">
        <ele>657</ele>
        <time>2019-05-24T11:14:04.080Z</time>
      </trkpt>
      <trkpt lat="45.15885" lon="5.78796">
        <ele>656</ele>
        <time>2019-05-24T11:14:05.080Z</time>
      </trkpt>
      <trkpt lat="45.15883" lon="5.78795">
        <ele>655</ele>
        <time>2019-05-24T11:14:06.080Z</time>
      </trkpt>
      <trkpt lat="45.15881" lon="5.78793">
        <ele>656</ele>
        <time>2019-05-24T11:14:07.080Z</time>
      </trkpt>
      <trkpt lat="45.15878" lon="5.78791">
        <ele>657</ele>
        <time>2019-05-24T11:14:08.080Z</time>
      </trkpt>
      <trkpt lat="45.15876" lon="5.7879">
        <ele>657</ele>
        <time>2019-05-24T11:14:09.080Z</time>
      </trkpt>
      <trkpt lat="45.15873" lon="5.78789">
        <ele>657</ele>
        <time>2019-05-24T11:14:10.080Z</time>
      </trkpt>
      <trkpt lat="45.15871" lon="5.78787">
        <ele>656</ele>
        <time>2019-05-24T11:14:11.080Z</time>
      </trkpt>
      <trkpt lat="45.15869" lon="5.78786">
        <ele>655</ele>
        <time>2019-05-24T11:14:12.080Z</time>
      </trkpt>
      <trkpt lat="45.15867" lon="5.78784">
        <ele>657</ele>
        <time>2019-05-24T11:14:13.080Z</time>
      </trkpt>
      <trkpt lat="45.15866" lon="5.78782">
        <ele>661</ele>
        <time>2019-05-24T11:14:14.080Z</time>
      </trkpt>
      <trkpt lat="45.15864" lon="5.78781">
        <ele>660</ele>
        <time>2019-05-24T11:14:15.080Z</time>
      </trkpt>
      <trkpt lat="45.15862" lon="5.78779">
        <ele>658</ele>
        <time>2019-05-24T11:14:16.080Z</time>
      </trkpt>
      <trkpt lat="45.1586" lon="5.78778">
        <ele>656</ele>
        <time>2019-05-24T11:14:17.080Z</time>
      </trkpt>
      <trkpt lat="45.15858" lon="5.78776">
        <ele>656</ele>
        <time>2019-05-24T11:14:18.080Z</time>
      </trkpt>
      <trkpt lat="45.15856" lon="5.78775">
        <ele>657</ele>
        <time>2019-05-24T11:14:19.080Z</time>
      </trkpt>
      <trkpt lat="45.15854" lon="5.78774">
        <ele>657</ele>
        <time>2019-05-24T11:14:20.080Z</time>
      </trkpt>
      <trkpt lat="45.15853" lon="5.78773">
        <ele>657</ele>
        <time>2019-05-24T11:14:21.080Z</time>
      </trkpt>
      <trkpt lat="45.15852" lon="5.78772">
        <ele>658</ele>
        <time>2019-05-24T11:14:22.080Z</time>
      </trkpt>
      <trkpt lat="45.1585" lon="5.78771">
        <ele>657</ele>
        <time>2019-05-24T11:14:23.080Z</time>
      </trkpt>
      <trkpt lat="45.15848" lon="5.7877">
        <ele>657</ele>
        <time>2019-05-24T11:14:24.080Z</time>
      </trkpt>
      <trkpt lat="45.15846" lon="5.78769">
        <ele>658</ele>
        <time>2019-05-24T11:14:25.080Z</time>
      </trkpt>
      <trkpt lat="45.15845" lon="5.78767">
        <ele>660</ele>
        <time>2019-05-24T11:14:26.080Z</time>
      </trkpt>
      <trkpt lat="45.15843" lon="5.78766">
        <ele>660</ele>
        <time>2019-05-24T11:14:27.080Z</time>
      </trkpt>
      <trkpt lat="45.15842" lon="5.78764">
        <ele>660</ele>
        <time>2019-05-24T11:14:28.080Z</time>
      </trkpt>
      <trkpt lat="45.1584" lon="5.78762">
        <ele>659</ele>
        <time>2019-05-24T11:14:29.080Z</time>
      </trkpt>
      <trkpt lat="45.15839" lon="5.7876">
        <ele>660</ele>
        <time>2019-05-24T11:14:30.080Z</time>
      </trkpt>
      <trkpt lat="45.15838" lon="5.78758">
        <ele>663</ele>
        <time>2019-05-24T11:14:31.080Z</time>
      </trkpt>
      <trkpt lat="45.15836" lon="5.78757">
        <ele>665</ele>
        <time>2019-05-24T11:14:32.080Z</time>
      </trkpt>
      <trkpt lat="45.15835" lon="5.78755">
        <ele>664</ele>
        <time>2019-05-24T11:14:33.080Z</time>
      </trkpt>
      <trkpt lat="45.15833" lon="5.78753">
        <ele>659</ele>
        <time>2019-05-24T11:14:34.080Z</time>
      </trkpt>
      <trkpt lat="45.15832" lon="5.78751">
        <ele>657</ele>
        <time>2019-05-24T11:14:35.080Z</time>
      </trkpt>
      <trkpt lat="45.15832" lon="5.7875">
        <ele>657</ele>
        <time>2019-05-24T11:14:36.080Z</time>
      </trkpt>
      <trkpt lat="45.15831" lon="5.78748">
        <ele>658</ele>
        <time>2019-05-24T11:14:37.080Z</time>
      </trkpt>
      <trkpt lat="45.15831" lon="5.78747">
        <ele>659</ele>
        <time>2019-05-24T11:14:38.080Z</time>
      </trkpt>
      <trkpt lat="45.15831" lon="5.78746">
        <ele>660</ele>
        <time>2019-05-24T11:14:39.080Z</time>
      </trkpt>
      <trkpt lat="45.1583" lon="5.78745">
        <ele>660</ele>
        <time>2019-05-24T11:14:40.080Z</time>
      </trkpt>
      <trkpt lat="45.15829" lon="5.78745">
        <ele>659</ele>
        <time>2019-05-24T11:14:41.080Z</time>
      </trkpt>
      <trkpt lat="45.15828" lon="5.78743">
        <ele>657</ele>
        <time>2019-05-24T11:14:42.080Z</time>
      </trkpt>
      <trkpt lat="45.15828" lon="5.78742">
        <ele>655</ele>
        <time>2019-05-24T11:14:43.080Z</time>
      </trkpt>
      <trkpt lat="45.15827" lon="5.7874">
        <ele>657</ele>
        <time>2019-05-24T11:14:44.080Z</time>
      </trkpt>
      <trkpt lat="45.15826" lon="5.78738">
        <ele>658</ele>
        <time>2019-05-24T11:14:45.080Z</time>
      </trkpt>
      <trkpt lat="45.15826" lon="5.78736">
        <ele>661</ele>
        <time>2019-05-24T11:14:46.080Z</time>
      </trkpt>
      <trkpt lat="45.15825" lon="5.78735">
        <ele>662</ele>
        <time>2019-05-24T11:14:47.080Z</time>
      </trkpt>
      <trkpt lat="45.15824" lon="5.78734">
        <ele>662</ele>
        <time>2019-05-24T11:14:48.080Z</time>
      </trkpt>
      <trkpt lat="45.15822" lon="5.78734">
        <ele>660</ele>
        <time>2019-05-24T11:14:49.080Z</time>
      </trkpt>
      <trkpt lat="45.15819" lon="5.78733">
        <ele>658</ele>
        <time>2019-05-24T11:14:50.080Z</time>
      </trkpt>
      <trkpt lat="45.15817" lon="5.78732">
        <ele>656</ele>
        <time>2019-05-24T11:14:51.080Z</time>
      </trkpt>
      <trkpt lat="45.15815" lon="5.7873">
        <ele>655</ele>
        <time>2019-05-24T11:14:52.080Z</time>
      </trkpt>
      <trkpt lat="45.15814" lon="5.78729">
        <ele>655</ele>
        <time>2019-05-24T11:14:53.080Z</time>
      </trkpt>
      <trkpt lat="45.15812" lon="5.78728">
        <ele>656</ele>
        <time>2019-05-24T11:14:54.080Z</time>
      </trkpt>
      <trkpt lat="45.15811" lon="5.78727">
        <ele>657</ele>
        <time>2019-05-24T11:14:55.080Z</time>
      </trkpt>
      <trkpt lat="45.1581" lon="5.78727">
        <ele>657</ele>
        <time>2019-05-24T11:14:56.080Z</time>
      </trkpt>
      <trkpt lat="45.15809" lon="5.78726">
        <ele>658</ele>
        <time>2019-05-24T11:14:57.080Z</time>
      </trkpt>
      <trkpt lat="45.15809" lon="5.78725">
        <ele>658</ele>
        <time>2019-05-24T11:14:58.080Z</time>
      </trkpt>
      <trkpt lat="45.15808" lon="5.78724">
        <ele>658</ele>
        <time>2019-05-24T11:14:59.080Z</time>
      </trkpt>
      <trkpt lat="45.15807" lon="5.78723">
        <ele>657</ele>
        <time>2019-05-24T11:15:00.080Z</time>
      </trkpt>
      <trkpt lat="45.15807" lon="5.78722">
        <ele>656</ele>
        <time>2019-05-24T11:15:01.080Z</time>
      </trkpt>
      <trkpt lat="45.15807" lon="5.78721">
        <ele>656</ele>
        <time>2019-05-24T11:15:02.080Z</time>
      </trkpt>
      <trkpt lat="45.15808" lon="5.7872">
        <ele>656</ele>
        <time>2019-05-24T11:15:03.080Z</time>
      </trkpt>
      <trkpt lat="45.15807" lon="5.78718">
        <ele>659</ele>
        <time>2019-05-24T11:15:04.080Z</time>
      </trkpt>
      <trkpt lat="45.15806" lon="5.78717">
        <ele>654</ele>
        <time>2019-05-24T11:15:05.080Z</time>
      </trkpt>
      <trkpt lat="45.15805" lon="5.78715">
        <ele>655</ele>
        <time>2019-05-24T11:15:06.080Z</time>
      </trkpt>
      <trkpt lat="45.15805" lon="5.78714">
        <ele>659</ele>
        <time>2019-05-24T11:15:07.080Z</time>
      </trkpt>
      <trkpt lat="45.15804" lon="5.78712">
        <ele>660</ele>
        <time>2019-05-24T11:15:08.080Z</time>
      </trkpt>
      <trkpt lat="45.15804" lon="5.78711">
        <ele>660</ele>
        <time>2019-05-24T11:15:09.080Z</time>
      </trkpt>
      <trkpt lat="45.15803" lon="5.78709">
        <ele>661</ele>
        <time>2019-05-24T11:15:10.080Z</time>
      </trkpt>
      <trkpt lat="45.15803" lon="5.78708">
        <ele>660</ele>
        <time>2019-05-24T11:15:11.080Z</time>
      </trkpt>
      <trkpt lat="45.15802" lon="5.78706">
        <ele>656</ele>
        <time>2019-05-24T11:15:12.080Z</time>
      </trkpt>
      <trkpt lat="45.15801" lon="5.78704">
        <ele>656</ele>
        <time>2019-05-24T11:15:13.080Z</time>
      </trkpt>
      <trkpt lat="45.158" lon="5.78703">
        <ele>655</ele>
        <time>2019-05-24T11:15:14.080Z</time>
      </trkpt>
      <trkpt lat="45.15798" lon="5.78702">
        <ele>653</ele>
        <time>2019-05-24T11:15:15.080Z</time>
      </trkpt>
      <trkpt lat="45.15796" lon="5.787">
        <ele>651</ele>
        <time>2019-05-24T11:15:16.080Z</time>
      </trkpt>
      <trkpt lat="45.15794" lon="5.78698">
        <ele>649</ele>
        <time>2019-05-24T11:15:17.080Z</time>
      </trkpt>
      <trkpt lat="45.15793" lon="5.78696">
        <ele>646</ele>
        <time>2019-05-24T11:15:18.080Z</time>
      </trkpt>
      <trkpt lat="45.15792" lon="5.78694">
        <ele>648</ele>
        <time>2019-05-24T11:15:19.080Z</time>
      </trkpt>
      <trkpt lat="45.15791" lon="5.78692">
        <ele>650</ele>
        <time>2019-05-24T11:15:20.080Z</time>
      </trkpt>
      <trkpt lat="45.1579" lon="5.7869">
        <ele>651</ele>
        <time>2019-05-24T11:15:21.080Z</time>
      </trkpt>
      <trkpt lat="45.1579" lon="5.78688">
        <ele>653</ele>
        <time>2019-05-24T11:15:22.080Z</time>
      </trkpt>
      <trkpt lat="45.15789" lon="5.78686">
        <ele>654</ele>
        <time>2019-05-24T11:15:23.080Z</time>
      </trkpt>
      <trkpt lat="45.15789" lon="5.78684">
        <ele>654</ele>
        <time>2019-05-24T11:15:24.080Z</time>
      </trkpt>
      <trkpt lat="45.15788" lon="5.78682">
        <ele>653</ele>
        <time>2019-05-24T11:15:25.080Z</time>
      </trkpt>
      <trkpt lat="45.15787" lon="5.7868">
        <ele>653</ele>
        <time>2019-05-24T11:15:26.080Z</time>
      </trkpt>
      <trkpt lat="45.15786" lon="5.78678">
        <ele>653</ele>
        <time>2019-05-24T11:15:27.080Z</time>
      </trkpt>
      <trkpt lat="45.15784" lon="5.78675">
        <ele>653</ele>
        <time>2019-05-24T11:15:28.080Z</time>
      </trkpt>
      <trkpt lat="45.15784" lon="5.78672">
        <ele>653</ele>
        <time>2019-05-24T11:15:29.080Z</time>
      </trkpt>
      <trkpt lat="45.15783" lon="5.7867">
        <ele>653</ele>
        <time>2019-05-24T11:15:30.080Z</time>
      </trkpt>
      <trkpt lat="45.15781" lon="5.78667">
        <ele>652</ele>
        <time>2019-05-24T11:15:31.080Z</time>
      </trkpt>
      <trkpt lat="45.1578" lon="5.78665">
        <ele>650</ele>
        <time>2019-05-24T11:15:32.080Z</time>
      </trkpt>
      <trkpt lat="45.15779" lon="5.78661">
        <ele>646</ele>
        <time>2019-05-24T11:15:33.080Z</time>
      </trkpt>
      <trkpt lat="45.15779" lon="5.78658">
        <ele>646</ele>
        <time>2019-05-24T11:15:34.080Z</time>
      </trkpt>
      <trkpt lat="45.15777" lon="5.78655">
        <ele>646</ele>
        <time>2019-05-24T11:15:35.080Z</time>
      </trkpt>
      <trkpt lat="45.15776" lon="5.78652">
        <ele>646</ele>
        <time>2019-05-24T11:15:36.080Z</time>
      </trkpt>
      <trkpt lat="45.15775" lon="5.78649">
        <ele>646</ele>
        <time>2019-05-24T11:15:37.080Z</time>
      </trkpt>
      <trkpt lat="45.15774" lon="5.78646">
        <ele>647</ele>
        <time>2019-05-24T11:15:38.080Z</time>
      </trkpt>
      <trkpt lat="45.15773" lon="5.78644">
        <ele>650</ele>
        <time>2019-05-24T11:15:39.080Z</time>
      </trkpt>
      <trkpt lat="45.15771" lon="5.78641">
        <ele>651</ele>
        <time>2019-05-24T11:15:40.080Z</time>
      </trkpt>
      <trkpt lat="45.1577" lon="5.78638">
        <ele>651</ele>
        <time>2019-05-24T11:15:41.080Z</time>
      </trkpt>
      <trkpt lat="45.15768" lon="5.78635">
        <ele>649</ele>
        <time>2019-05-24T11:15:42.080Z</time>
      </trkpt>
      <trkpt lat="45.15766" lon="5.78632">
        <ele>644</ele>
        <time>2019-05-24T11:15:43.080Z</time>
      </trkpt>
      <trkpt lat="45.15764" lon="5.78629">
        <ele>643</ele>
        <time>2019-05-24T11:15:44.080Z</time>
      </trkpt>
      <trkpt lat="45.15762" lon="5.78626">
        <ele>642</ele>
        <time>2019-05-24T11:15:45.080Z</time>
      </trkpt>
      <trkpt lat="45.15759" lon="5.78623">
        <ele>642</ele>
        <time>2019-05-24T11:15:46.080Z</time>
      </trkpt>
      <trkpt lat="45.15758" lon="5.7862">
        <ele>642</ele>
        <time>2019-05-24T11:15:47.080Z</time>
      </trkpt>
      <trkpt lat="45.15756" lon="5.78617">
        <ele>642</ele>
        <time>2019-05-24T11:15:48.080Z</time>
      </trkpt>
      <trkpt lat="45.15755" lon="5.78614">
        <ele>638</ele>
        <time>2019-05-24T11:15:49.080Z</time>
      </trkpt>
      <trkpt lat="45.15753" lon="5.7861">
        <ele>635</ele>
        <time>2019-05-24T11:15:50.080Z</time>
      </trkpt>
      <trkpt lat="45.15751" lon="5.78607">
        <ele>633</ele>
        <time>2019-05-24T11:15:51.080Z</time>
      </trkpt>
      <trkpt lat="45.1575" lon="5.78604">
        <ele>633</ele>
        <time>2019-05-24T11:15:52.080Z</time>
      </trkpt>
      <trkpt lat="45.15748" lon="5.786">
        <ele>634</ele>
        <time>2019-05-24T11:15:53.080Z</time>
      </trkpt>
      <trkpt lat="45.15745" lon="5.78597">
        <ele>635</ele>
        <time>2019-05-24T11:15:54.080Z</time>
      </trkpt>
      <trkpt lat="45.15743" lon="5.78593">
        <ele>638</ele>
        <time>2019-05-24T11:15:55.080Z</time>
      </trkpt>
      <trkpt lat="45.1574" lon="5.78589">
        <ele>637</ele>
        <time>2019-05-24T11:15:56.080Z</time>
      </trkpt>
      <trkpt lat="45.15738" lon="5.78583">
        <ele>637</ele>
        <time>2019-05-24T11:15:57.080Z</time>
      </trkpt>
      <trkpt lat="45.15737" lon="5.7858">
        <ele>638</ele>
        <time>2019-05-24T11:15:58.080Z</time>
      </trkpt>
      <trkpt lat="45.15736" lon="5.78574">
        <ele>640</ele>
        <time>2019-05-24T11:15:59.080Z</time>
      </trkpt>
      <trkpt lat="45.15736" lon="5.7857">
        <ele>642</ele>
        <time>2019-05-24T11:16:00.080Z</time>
      </trkpt>
      <trkpt lat="45.15735" lon="5.78566">
        <ele>642</ele>
        <time>2019-05-24T11:16:01.080Z</time>
      </trkpt>
      <trkpt lat="45.15736" lon="5.78562">
        <ele>642</ele>
        <time>2019-05-24T11:16:02.080Z</time>
      </trkpt>
      <trkpt lat="45.15735" lon="5.78558">
        <ele>641</ele>
        <time>2019-05-24T11:16:03.080Z</time>
      </trkpt>
      <trkpt lat="45.15736" lon="5.78555">
        <ele>642</ele>
        <time>2019-05-24T11:16:04.080Z</time>
      </trkpt>
      <trkpt lat="45.15736" lon="5.78551">
        <ele>645</ele>
        <time>2019-05-24T11:16:05.080Z</time>
      </trkpt>
      <trkpt lat="45.15735" lon="5.78548">
        <ele>646</ele>
        <time>2019-05-24T11:16:06.080Z</time>
      </trkpt>
      <trkpt lat="45.15735" lon="5.78544">
        <ele>648</ele>
        <time>2019-05-24T11:16:07.080Z</time>
      </trkpt>
      <trkpt lat="45.15733" lon="5.78541">
        <ele>649</ele>
        <time>2019-05-24T11:16:08.080Z</time>
      </trkpt>
      <trkpt lat="45.15731" lon="5.78537">
        <ele>646</ele>
        <time>2019-05-24T11:16:09.080Z</time>
      </trkpt>
      <trkpt lat="45.15729" lon="5.78533">
        <ele>644</ele>
        <time>2019-05-24T11:16:10.080Z</time>
      </trkpt>
      <trkpt lat="45.15727" lon="5.78529">
        <ele>641</ele>
        <time>2019-05-24T11:16:11.080Z</time>
      </trkpt>
      <trkpt lat="45.15725" lon="5.78525">
        <ele>640</ele>
        <time>2019-05-24T11:16:12.080Z</time>
      </trkpt>
      <trkpt lat="45.15723" lon="5.78521">
        <ele>640</ele>
        <time>2019-05-24T11:16:13.080Z</time>
      </trkpt>
      <trkpt lat="45.15722" lon="5.78516">
        <ele>640</ele>
        <time>2019-05-24T11:16:14.080Z</time>
      </trkpt>
      <trkpt lat="45.15721" lon="5.78512">
        <ele>640</ele>
        <time>2019-05-24T11:16:15.080Z</time>
      </trkpt>
      <trkpt lat="45.15721" lon="5.78508">
        <ele>639</ele>
        <time>2019-05-24T11:16:16.080Z</time>
      </trkpt>
      <trkpt lat="45.15722" lon="5.78504">
        <ele>637</ele>
        <time>2019-05-24T11:16:17.080Z</time>
      </trkpt>
      <trkpt lat="45.15722" lon="5.785">
        <ele>638</ele>
        <time>2019-05-24T11:16:18.080Z</time>
      </trkpt>
      <trkpt lat="45.15723" lon="5.78495">
        <ele>639</ele>
        <time>2019-05-24T11:16:19.080Z</time>
      </trkpt>
      <trkpt lat="45.15724" lon="5.78491">
        <ele>639</ele>
        <time>2019-05-24T11:16:20.080Z</time>
      </trkpt>
      <trkpt lat="45.15724" lon="5.78487">
        <ele>641</ele>
        <time>2019-05-24T11:16:21.080Z</time>
      </trkpt>
      <trkpt lat="45.15725" lon="5.78482">
        <ele>642</ele>
        <time>2019-05-24T11:16:22.080Z</time>
      </trkpt>
      <trkpt lat="45.15726" lon="5.78478">
        <ele>642</ele>
        <time>2019-05-24T11:16:23.080Z</time>
      </trkpt>
      <trkpt lat="45.15727" lon="5.78474">
        <ele>644</ele>
        <time>2019-05-24T11:16:24.080Z</time>
      </trkpt>
      <trkpt lat="45.15728" lon="5.7847">
        <ele>646</ele>
        <time>2019-05-24T11:16:25.080Z</time>
      </trkpt>
      <trkpt lat="45.15729" lon="5.78467">
        <ele>648</ele>
        <time>2019-05-24T11:16:26.080Z</time>
      </trkpt>
      <trkpt lat="45.15731" lon="5.78464">
        <ele>649</ele>
        <time>2019-05-24T11:16:27.080Z</time>
      </trkpt>
      <trkpt lat="45.15732" lon="5.7846">
        <ele>649</ele>
        <time>2019-05-24T11:16:28.080Z</time>
      </trkpt>
      <trkpt lat="45.15732" lon="5.78457">
        <ele>648</ele>
        <time>2019-05-24T11:16:29.080Z</time>
      </trkpt>
      <trkpt lat="45.15732" lon="5.78453">
        <ele>647</ele>
        <time>2019-05-24T11:16:30.080Z</time>
      </trkpt>
      <trkpt lat="45.15732" lon="5.7845">
        <ele>648</ele>
        <time>2019-05-24T11:16:31.080Z</time>
      </trkpt>
      <trkpt lat="45.15731" lon="5.78447">
        <ele>648</ele>
        <time>2019-05-24T11:16:32.080Z</time>
      </trkpt>
      <trkpt lat="45.15731" lon="5.78444">
        <ele>648</ele>
        <time>2019-05-24T11:16:33.080Z</time>
      </trkpt>
      <trkpt lat="45.15731" lon="5.78442">
        <ele>648</ele>
        <time>2019-05-24T11:16:34.080Z</time>
      </trkpt>
      <trkpt lat="45.15731" lon="5.78438">
        <ele>647</ele>
        <time>2019-05-24T11:16:35.080Z</time>
      </trkpt>
      <trkpt lat="45.1573" lon="5.78436">
        <ele>647</ele>
        <time>2019-05-24T11:16:36.080Z</time>
      </trkpt>
      <trkpt lat="45.15729" lon="5.78433">
        <ele>648</ele>
        <time>2019-05-24T11:16:37.080Z</time>
      </trkpt>
      <trkpt lat="45.15729" lon="5.7843">
        <ele>649</ele>
        <time>2019-05-24T11:16:38.080Z</time>
      </trkpt>
      <trkpt lat="45.15729" lon="5.78427">
        <ele>648</ele>
        <time>2019-05-24T11:16:39.080Z</time>
      </trkpt>
      <trkpt lat="45.15729" lon="5.78423">
        <ele>646</ele>
        <time>2019-05-24T11:16:40.080Z</time>
      </trkpt>
      <trkpt lat="45.15727" lon="5.78421">
        <ele>646</ele>
        <time>2019-05-24T11:16:41.080Z</time>
      </trkpt>
      <trkpt lat="45.15728" lon="5.78417">
        <ele>645</ele>
        <time>2019-05-24T11:16:42.080Z</time>
      </trkpt>
      <trkpt lat="45.1573" lon="5.78413">
        <ele>645</ele>
        <time>2019-05-24T11:16:43.080Z</time>
      </trkpt>
      <trkpt lat="45.15732" lon="5.7841">
        <ele>645</ele>
        <time>2019-05-24T11:16:44.080Z</time>
      </trkpt>
      <trkpt lat="45.15735" lon="5.78406">
        <ele>645</ele>
        <time>2019-05-24T11:16:45.080Z</time>
      </trkpt>
      <trkpt lat="45.15737" lon="5.78402">
        <ele>646</ele>
        <time>2019-05-24T11:16:46.080Z</time>
      </trkpt>
      <trkpt lat="45.15738" lon="5.78399">
        <ele>646</ele>
        <time>2019-05-24T11:16:47.080Z</time>
      </trkpt>
      <trkpt lat="45.15739" lon="5.78396">
        <ele>646</ele>
        <time>2019-05-24T11:16:48.080Z</time>
      </trkpt>
      <trkpt lat="45.15741" lon="5.78393">
        <ele>645</ele>
        <time>2019-05-24T11:16:49.080Z</time>
      </trkpt>
      <trkpt lat="45.15743" lon="5.78389">
        <ele>646</ele>
        <time>2019-05-24T11:16:50.080Z</time>
      </trkpt>
      <trkpt lat="45.15743" lon="5.78385">
        <ele>648</ele>
        <time>2019-05-24T11:16:51.080Z</time>
      </trkpt>
      <trkpt lat="45.15742" lon="5.78381">
        <ele>649</ele>
        <time>2019-05-24T11:16:52.080Z</time>
      </trkpt>
      <trkpt lat="45.15742" lon="5.78377">
        <ele>651</ele>
        <time>2019-05-24T11:16:53.080Z</time>
      </trkpt>
      <trkpt lat="45.15742" lon="5.78373">
        <ele>652</ele>
        <time>2019-05-24T11:16:54.080Z</time>
      </trkpt>
      <trkpt lat="45.15742" lon="5.78369">
        <ele>653</ele>
        <time>2019-05-24T11:16:55.080Z</time>
      </trkpt>
      <trkpt lat="45.15742" lon="5.78365">
        <ele>651</ele>
        <time>2019-05-24T11:16:56.080Z</time>
      </trkpt>
      <trkpt lat="45.15742" lon="5.78361">
        <ele>649</ele>
        <time>2019-05-24T11:16:57.080Z</time>
      </trkpt>
      <trkpt lat="45.15743" lon="5.78357">
        <ele>647</ele>
        <time>2019-05-24T11:16:58.080Z</time>
      </trkpt>
      <trkpt lat="45.15743" lon="5.78353">
        <ele>647</ele>
        <time>2019-05-24T11:16:59.080Z</time>
      </trkpt>
      <trkpt lat="45.15743" lon="5.7835">
        <ele>646</ele>
        <time>2019-05-24T11:17:00.080Z</time>
      </trkpt>
      <trkpt lat="45.15742" lon="5.78346">
        <ele>646</ele>
        <time>2019-05-24T11:17:01.080Z</time>
      </trkpt>
      <trkpt lat="45.15742" lon="5.78342">
        <ele>646</ele>
        <time>2019-05-24T11:17:02.080Z</time>
      </trkpt>
      <trkpt lat="45.15743" lon="5.78338">
        <ele>645</ele>
        <time>2019-05-24T11:17:03.080Z</time>
      </trkpt>
      <trkpt lat="45.15744" lon="5.78335">
        <ele>643</ele>
        <time>2019-05-24T11:17:04.080Z</time>
      </trkpt>
      <trkpt lat="45.15744" lon="5.78333">
        <ele>642</ele>
        <time>2019-05-24T11:17:05.080Z</time>
      </trkpt>
      <trkpt lat="45.15745" lon="5.7833">
        <ele>641</ele>
        <time>2019-05-24T11:17:06.080Z</time>
      </trkpt>
      <trkpt lat="45.15744" lon="5.78328">
        <ele>642</ele>
        <time>2019-05-24T11:17:07.080Z</time>
      </trkpt>
      <trkpt lat="45.15743" lon="5.78326">
        <ele>645</ele>
        <time>2019-05-24T11:17:08.080Z</time>
      </trkpt>
      <trkpt lat="45.15743" lon="5.78323">
        <ele>648</ele>
        <time>2019-05-24T11:17:09.080Z</time>
      </trkpt>
      <trkpt lat="45.15743" lon="5.7832">
        <ele>650</ele>
        <time>2019-05-24T11:17:10.080Z</time>
      </trkpt>
      <trkpt lat="45.15744" lon="5.78318">
        <ele>651</ele>
        <time>2019-05-24T11:17:11.080Z</time>
      </trkpt>
      <trkpt lat="45.15744" lon="5.78315">
        <ele>653</ele>
        <time>2019-05-24T11:17:12.080Z</time>
      </trkpt>
      <trkpt lat="45.15744" lon="5.78313">
        <ele>653</ele>
        <time>2019-05-24T11:17:13.080Z</time>
      </trkpt>
      <trkpt lat="45.15745" lon="5.78311">
        <ele>651</ele>
        <time>2019-05-24T11:17:14.080Z</time>
      </trkpt>
      <trkpt lat="45.15745" lon="5.78308">
        <ele>649</ele>
        <time>2019-05-24T11:17:15.080Z</time>
      </trkpt>
      <trkpt lat="45.15746" lon="5.78306">
        <ele>647</ele>
        <time>2019-05-24T11:17:16.080Z</time>
      </trkpt>
      <trkpt lat="45.15747" lon="5.78303">
        <ele>646</ele>
        <time>2019-05-24T11:17:17.080Z</time>
      </trkpt>
      <trkpt lat="45.15749" lon="5.783">
        <ele>646</ele>
        <time>2019-05-24T11:17:18.080Z</time>
      </trkpt>
      <trkpt lat="45.15751" lon="5.78297">
        <ele>647</ele>
        <time>2019-05-24T11:17:19.080Z</time>
      </trkpt>
      <trkpt lat="45.15753" lon="5.78295">
        <ele>649</ele>
        <time>2019-05-24T11:17:20.080Z</time>
      </trkpt>
      <trkpt lat="45.15755" lon="5.78292">
        <ele>651</ele>
        <time>2019-05-24T11:17:21.080Z</time>
      </trkpt>
      <trkpt lat="45.15756" lon="5.78289">
        <ele>652</ele>
        <time>2019-05-24T11:17:22.080Z</time>
      </trkpt>
      <trkpt lat="45.15756" lon="5.78287">
        <ele>651</ele>
        <time>2019-05-24T11:17:23.080Z</time>
      </trkpt>
      <trkpt lat="45.15757" lon="5.78284">
        <ele>650</ele>
        <time>2019-05-24T11:17:24.080Z</time>
      </trkpt>
      <trkpt lat="45.15757" lon="5.78282">
        <ele>647</ele>
        <time>2019-05-24T11:17:25.080Z</time>
      </trkpt>
      <trkpt lat="45.15758" lon="5.78279">
        <ele>646</ele>
        <time>2019-05-24T11:17:26.080Z</time>
      </trkpt>
      <trkpt lat="45.15759" lon="5.78275">
        <ele>645</ele>
        <time>2019-05-24T11:17:27.080Z</time>
      </trkpt>
      <trkpt lat="45.15759" lon="5.78271">
        <ele>644</ele>
        <time>2019-05-24T11:17:28.080Z</time>
      </trkpt>
      <trkpt lat="45.15759" lon="5.78269">
        <ele>644</ele>
        <time>2019-05-24T11:17:29.080Z</time>
      </trkpt>
      <trkpt lat="45.1576" lon="5.78266">
        <ele>642</ele>
        <time>2019-05-24T11:17:30.080Z</time>
      </trkpt>
      <trkpt lat="45.15761" lon="5.78263">
        <ele>645</ele>
        <time>2019-05-24T11:17:31.080Z</time>
      </trkpt>
      <trkpt lat="45.15763" lon="5.7826">
        <ele>647</ele>
        <time>2019-05-24T11:17:32.080Z</time>
      </trkpt>
      <trkpt lat="45.15764" lon="5.78258">
        <ele>649</ele>
        <time>2019-05-24T11:17:33.080Z</time>
      </trkpt>
      <trkpt lat="45.15765" lon="5.78256">
        <ele>648</ele>
        <time>2019-05-24T11:17:34.080Z</time>
      </trkpt>
      <trkpt lat="45.15767" lon="5.78254">
        <ele>646</ele>
        <time>2019-05-24T11:17:35.080Z</time>
      </trkpt>
      <trkpt lat="45.15768" lon="5.78252">
        <ele>644</ele>
        <time>2019-05-24T11:17:36.080Z</time>
      </trkpt>
      <trkpt lat="45.15769" lon="5.7825">
        <ele>640</ele>
        <time>2019-05-24T11:17:37.080Z</time>
      </trkpt>
      <trkpt lat="45.15769" lon="5.78248">
        <ele>637</ele>
        <time>2019-05-24T11:17:38.080Z</time>
      </trkpt>
      <trkpt lat="45.1577" lon="5.78246">
        <ele>633</ele>
        <time>2019-05-24T11:17:39.080Z</time>
      </trkpt>
      <trkpt lat="45.15771" lon="5.78244">
        <ele>635</ele>
        <time>2019-05-24T11:17:40.080Z</time>
      </trkpt>
      <trkpt lat="45.15772" lon="5.78242">
        <ele>636</ele>
        <time>2019-05-24T11:17:41.080Z</time>
      </trkpt>
      <trkpt lat="45.15773" lon="5.7824">
        <ele>636</ele>
        <time>2019-05-24T11:17:42.080Z</time>
      </trkpt>
      <trkpt lat="45.15774" lon="5.78239">
        <ele>637</ele>
        <time>2019-05-24T11:17:43.080Z</time>
      </trkpt>
      <trkpt lat="45.15774" lon="5.78237">
        <ele>638</ele>
        <time>2019-05-24T11:17:44.080Z</time>
      </trkpt>
      <trkpt lat="45.15775" lon="5.78235">
        <ele>640</ele>
        <time>2019-05-24T11:17:45.080Z</time>
      </trkpt>
      <trkpt lat="45.15776" lon="5.78233">
        <ele>641</ele>
        <time>2019-05-24T11:17:46.080Z</time>
      </trkpt>
      <trkpt lat="45.15776" lon="5.78231">
        <ele>640</ele>
        <time>2019-05-24T11:17:47.080Z</time>
      </trkpt>
      <trkpt lat="45.15777" lon="5.78229">
        <ele>639</ele>
        <time>2019-05-24T11:17:48.080Z</time>
      </trkpt>
      <trkpt lat="45.15778" lon="5.78226">
        <ele>639</ele>
        <time>2019-05-24T11:17:49.080Z</time>
      </trkpt>
      <trkpt lat="45.15779" lon="5.78223">
        <ele>639</ele>
        <time>2019-05-24T11:17:50.080Z</time>
      </trkpt>
      <trkpt lat="45.15779" lon="5.78219">
        <ele>640</ele>
        <time>2019-05-24T11:17:51.080Z</time>
      </trkpt>
      <trkpt lat="45.15779" lon="5.78215">
        <ele>642</ele>
        <time>2019-05-24T11:17:52.080Z</time>
      </trkpt>
      <trkpt lat="45.15779" lon="5.78213">
        <ele>640</ele>
        <time>2019-05-24T11:17:53.080Z</time>
      </trkpt>
      <trkpt lat="45.15779" lon="5.7821">
        <ele>639</ele>
        <time>2019-05-24T11:17:54.080Z</time>
      </trkpt>
      <trkpt lat="45.15781" lon="5.78208">
        <ele>639</ele>
        <time>2019-05-24T11:17:55.080Z</time>
      </trkpt>
      <trkpt lat="45.15783" lon="5.78206">
        <ele>639</ele>
        <time>2019-05-24T11:17:56.080Z</time>
      </trkpt>
      <trkpt lat="45.15785" lon="5.78204">
        <ele>639</ele>
        <time>2019-05-24T11:17:57.080Z</time>
      </trkpt>
      <trkpt lat="45.15787" lon="5.78201">
        <ele>639</ele>
        <time>2019-05-24T11:17:58.080Z</time>
      </trkpt>
      <trkpt lat="45.15789" lon="5.78198">
        <ele>639</ele>
        <time>2019-05-24T11:17:59.080Z</time>
      </trkpt>
      <trkpt lat="45.15789" lon="5.78196">
        <ele>640</ele>
        <time>2019-05-24T11:18:00.080Z</time>
      </trkpt>
      <trkpt lat="45.1579" lon="5.78193">
        <ele>639</ele>
        <time>2019-05-24T11:18:01.080Z</time>
      </trkpt>
      <trkpt lat="45.15792" lon="5.7819">
        <ele>638</ele>
        <time>2019-05-24T11:18:02.080Z</time>
      </trkpt>
      <trkpt lat="45.15792" lon="5.78187">
        <ele>639</ele>
        <time>2019-05-24T11:18:03.080Z</time>
      </trkpt>
      <trkpt lat="45.15792" lon="5.78184">
        <ele>638</ele>
        <time>2019-05-24T11:18:04.080Z</time>
      </trkpt>
      <trkpt lat="45.15792" lon="5.78181">
        <ele>638</ele>
        <time>2019-05-24T11:18:05.080Z</time>
      </trkpt>
      <trkpt lat="45.15792" lon="5.78178">
        <ele>638</ele>
        <time>2019-05-24T11:18:06.080Z</time>
      </trkpt>
      <trkpt lat="45.15793" lon="5.78175">
        <ele>638</ele>
        <time>2019-05-24T11:18:07.080Z</time>
      </trkpt>
      <trkpt lat="45.15794" lon="5.78172">
        <ele>639</ele>
        <time>2019-05-24T11:18:08.080Z</time>
      </trkpt>
      <trkpt lat="45.15796" lon="5.78169">
        <ele>640</ele>
        <time>2019-05-24T11:18:09.080Z</time>
      </trkpt>
      <trkpt lat="45.15797" lon="5.78166">
        <ele>641</ele>
        <time>2019-05-24T11:18:10.080Z</time>
      </trkpt>
      <trkpt lat="45.15798" lon="5.78163">
        <ele>643</ele>
        <time>2019-05-24T11:18:11.080Z</time>
      </trkpt>
      <trkpt lat="45.158" lon="5.78159">
        <ele>642</ele>
        <time>2019-05-24T11:18:12.080Z</time>
      </trkpt>
      <trkpt lat="45.158" lon="5.78155">
        <ele>642</ele>
        <time>2019-05-24T11:18:13.080Z</time>
      </trkpt>
      <trkpt lat="45.158" lon="5.78151">
        <ele>640</ele>
        <time>2019-05-24T11:18:14.080Z</time>
      </trkpt>
      <trkpt lat="45.158" lon="5.78146">
        <ele>638</ele>
        <time>2019-05-24T11:18:15.080Z</time>
      </trkpt>
      <trkpt lat="45.158" lon="5.78141">
        <ele>637</ele>
        <time>2019-05-24T11:18:16.080Z</time>
      </trkpt>
      <trkpt lat="45.15801" lon="5.78137">
        <ele>636</ele>
        <time>2019-05-24T11:18:17.080Z</time>
      </trkpt>
      <trkpt lat="45.15801" lon="5.78131">
        <ele>636</ele>
        <time>2019-05-24T11:18:18.080Z</time>
      </trkpt>
      <trkpt lat="45.15801" lon="5.78127">
        <ele>636</ele>
        <time>2019-05-24T11:18:19.080Z</time>
      </trkpt>
      <trkpt lat="45.15801" lon="5.78122">
        <ele>637</ele>
        <time>2019-05-24T11:18:20.080Z</time>
      </trkpt>
      <trkpt lat="45.15801" lon="5.78118">
        <ele>637</ele>
        <time>2019-05-24T11:18:21.080Z</time>
      </trkpt>
      <trkpt lat="45.15802" lon="5.78113">
        <ele>638</ele>
        <time>2019-05-24T11:18:22.080Z</time>
      </trkpt>
      <trkpt lat="45.15803" lon="5.78108">
        <ele>637</ele>
        <time>2019-05-24T11:18:23.080Z</time>
      </trkpt>
      <trkpt lat="45.15804" lon="5.78104">
        <ele>635</ele>
        <time>2019-05-24T11:18:24.080Z</time>
      </trkpt>
      <trkpt lat="45.15805" lon="5.781">
        <ele>635</ele>
        <time>2019-05-24T11:18:25.080Z</time>
      </trkpt>
      <trkpt lat="45.15806" lon="5.78097">
        <ele>634</ele>
        <time>2019-05-24T11:18:26.080Z</time>
      </trkpt>
      <trkpt lat="45.15805" lon="5.78094">
        <ele>635</ele>
        <time>2019-05-24T11:18:27.080Z</time>
      </trkpt>
      <trkpt lat="45.15805" lon="5.78091">
        <ele>635</ele>
        <time>2019-05-24T11:18:28.080Z</time>
      </trkpt>
      <trkpt lat="45.15807" lon="5.78088">
        <ele>637</ele>
        <time>2019-05-24T11:18:29.080Z</time>
      </trkpt>
      <trkpt lat="45.15808" lon="5.78084">
        <ele>638</ele>
        <time>2019-05-24T11:18:30.080Z</time>
      </trkpt>
      <trkpt lat="45.15809" lon="5.78081">
        <ele>638</ele>
        <time>2019-05-24T11:18:31.080Z</time>
      </trkpt>
      <trkpt lat="45.1581" lon="5.78078">
        <ele>639</ele>
        <time>2019-05-24T11:18:32.080Z</time>
      </trkpt>
      <trkpt lat="45.1581" lon="5.78076">
        <ele>639</ele>
        <time>2019-05-24T11:18:33.080Z</time>
      </trkpt>
      <trkpt lat="45.1581" lon="5.78073">
        <ele>637</ele>
        <time>2019-05-24T11:18:34.080Z</time>
      </trkpt>
      <trkpt lat="45.15808" lon="5.7807">
        <ele>635</ele>
        <time>2019-05-24T11:18:35.080Z</time>
      </trkpt>
      <trkpt lat="45.15807" lon="5.78066">
        <ele>634</ele>
        <time>2019-05-24T11:18:36.080Z</time>
      </trkpt>
      <trkpt lat="45.15806" lon="5.78063">
        <ele>634</ele>
        <time>2019-05-24T11:18:37.080Z</time>
      </trkpt>
      <trkpt lat="45.15807" lon="5.78059">
        <ele>636</ele>
        <time>2019-05-24T11:18:38.080Z</time>
      </trkpt>
      <trkpt lat="45.15807" lon="5.78056">
        <ele>636</ele>
        <time>2019-05-24T11:18:39.080Z</time>
      </trkpt>
      <trkpt lat="45.15808" lon="5.78053">
        <ele>633</ele>
        <time>2019-05-24T11:18:40.080Z</time>
      </trkpt>
      <trkpt lat="45.15809" lon="5.7805">
        <ele>629</ele>
        <time>2019-05-24T11:18:41.080Z</time>
      </trkpt>
      <trkpt lat="45.15809" lon="5.78048">
        <ele>627</ele>
        <time>2019-05-24T11:18:42.080Z</time>
      </trkpt>
      <trkpt lat="45.15809" lon="5.78045">
        <ele>628</ele>
        <time>2019-05-24T11:18:43.080Z</time>
      </trkpt>
      <trkpt lat="45.1581" lon="5.78043">
        <ele>630</ele>
        <time>2019-05-24T11:18:44.080Z</time>
      </trkpt>
      <trkpt lat="45.15811" lon="5.7804">
        <ele>633</ele>
        <time>2019-05-24T11:18:45.080Z</time>
      </trkpt>
      <trkpt lat="45.15812" lon="5.78038">
        <ele>635</ele>
        <time>2019-05-24T11:18:46.080Z</time>
      </trkpt>
      <trkpt lat="45.15813" lon="5.78036">
        <ele>634</ele>
        <time>2019-05-24T11:18:47.080Z</time>
      </trkpt>
      <trkpt lat="45.15813" lon="5.78033">
        <ele>635</ele>
        <time>2019-05-24T11:18:48.080Z</time>
      </trkpt>
      <trkpt lat="45.15814" lon="5.78031">
        <ele>634</ele>
        <time>2019-05-24T11:18:49.080Z</time>
      </trkpt>
      <trkpt lat="45.15815" lon="5.78028">
        <ele>633</ele>
        <time>2019-05-24T11:18:50.080Z</time>
      </trkpt>
      <trkpt lat="45.15815" lon="5.78025">
        <ele>630</ele>
        <time>2019-05-24T11:18:51.080Z</time>
      </trkpt>
      <trkpt lat="45.15816" lon="5.78022">
        <ele>628</ele>
        <time>2019-05-24T11:18:52.080Z</time>
      </trkpt>
      <trkpt lat="45.15816" lon="5.7802">
        <ele>629</ele>
        <time>2019-05-24T11:18:53.080Z</time>
      </trkpt>
      <trkpt lat="45.15815" lon="5.78018">
        <ele>630</ele>
        <time>2019-05-24T11:18:54.080Z</time>
      </trkpt>
      <trkpt lat="45.15815" lon="5.78017">
        <ele>632</ele>
        <time>2019-05-24T11:18:55.080Z</time>
      </trkpt>
      <trkpt lat="45.15814" lon="5.78014">
        <ele>635</ele>
        <time>2019-05-24T11:18:56.080Z</time>
      </trkpt>
      <trkpt lat="45.15814" lon="5.78013">
        <ele>635</ele>
        <time>2019-05-24T11:18:57.080Z</time>
      </trkpt>
      <trkpt lat="45.15814" lon="5.7801">
        <ele>634</ele>
        <time>2019-05-24T11:18:58.080Z</time>
      </trkpt>
      <trkpt lat="45.15814" lon="5.78008">
        <ele>632</ele>
        <time>2019-05-24T11:18:59.080Z</time>
      </trkpt>
      <trkpt lat="45.15813" lon="5.78006">
        <ele>629</ele>
        <time>2019-05-24T11:19:00.080Z</time>
      </trkpt>
      <trkpt lat="45.15813" lon="5.78003">
        <ele>628</ele>
        <time>2019-05-24T11:19:01.080Z</time>
      </trkpt>
      <trkpt lat="45.15813" lon="5.78001">
        <ele>627</ele>
        <time>2019-05-24T11:19:02.080Z</time>
      </trkpt>
      <trkpt lat="45.15813" lon="5.77997">
        <ele>628</ele>
        <time>2019-05-24T11:19:03.080Z</time>
      </trkpt>
      <trkpt lat="45.15814" lon="5.77995">
        <ele>628</ele>
        <time>2019-05-24T11:19:04.080Z</time>
      </trkpt>
      <trkpt lat="45.15815" lon="5.77993">
        <ele>629</ele>
        <time>2019-05-24T11:19:05.080Z</time>
      </trkpt>
      <trkpt lat="45.15815" lon="5.77991">
        <ele>629</ele>
        <time>2019-05-24T11:19:06.080Z</time>
      </trkpt>
      <trkpt lat="45.15816" lon="5.77989">
        <ele>630</ele>
        <time>2019-05-24T11:19:07.080Z</time>
      </trkpt>
      <trkpt lat="45.15816" lon="5.77986">
        <ele>632</ele>
        <time>2019-05-24T11:19:08.080Z</time>
      </trkpt>
      <trkpt lat="45.15816" lon="5.77985">
        <ele>631</ele>
        <time>2019-05-24T11:19:09.080Z</time>
      </trkpt>
      <trkpt lat="45.15817" lon="5.77983">
        <ele>631</ele>
        <time>2019-05-24T11:19:10.080Z</time>
      </trkpt>
      <trkpt lat="45.15817" lon="5.77981">
        <ele>628</ele>
        <time>2019-05-24T11:19:11.080Z</time>
      </trkpt>
      <trkpt lat="45.15818" lon="5.77979">
        <ele>625</ele>
        <time>2019-05-24T11:19:12.080Z</time>
      </trkpt>
      <trkpt lat="45.15819" lon="5.77978">
        <ele>624</ele>
        <time>2019-05-24T11:19:13.080Z</time>
      </trkpt>
      <trkpt lat="45.1582" lon="5.77976">
        <ele>624</ele>
        <time>2019-05-24T11:19:14.080Z</time>
      </trkpt>
      <trkpt lat="45.15821" lon="5.77974">
        <ele>622</ele>
        <time>2019-05-24T11:19:15.080Z</time>
      </trkpt>
      <trkpt lat="45.15822" lon="5.77972">
        <ele>622</ele>
        <time>2019-05-24T11:19:16.080Z</time>
      </trkpt>
      <trkpt lat="45.15823" lon="5.7797">
        <ele>624</ele>
        <time>2019-05-24T11:19:17.080Z</time>
      </trkpt>
      <trkpt lat="45.15823" lon="5.77968">
        <ele>624</ele>
        <time>2019-05-24T11:19:18.080Z</time>
      </trkpt>
      <trkpt lat="45.15823" lon="5.77965">
        <ele>624</ele>
        <time>2019-05-24T11:19:19.080Z</time>
      </trkpt>
      <trkpt lat="45.15822" lon="5.77961">
        <ele>623</ele>
        <time>2019-05-24T11:19:20.080Z</time>
      </trkpt>
      <trkpt lat="45.15821" lon="5.77958">
        <ele>621</ele>
        <time>2019-05-24T11:19:21.080Z</time>
      </trkpt>
      <trkpt lat="45.1582" lon="5.77954">
        <ele>620</ele>
        <time>2019-05-24T11:19:22.080Z</time>
      </trkpt>
      <trkpt lat="45.1582" lon="5.77951">
        <ele>619</ele>
        <time>2019-05-24T11:19:23.080Z</time>
      </trkpt>
      <trkpt lat="45.15821" lon="5.77947">
        <ele>619</ele>
        <time>2019-05-24T11:19:24.080Z</time>
      </trkpt>
      <trkpt lat="45.15821" lon="5.77943">
        <ele>618</ele>
        <time>2019-05-24T11:19:25.080Z</time>
      </trkpt>
      <trkpt lat="45.1582" lon="5.7794">
        <ele>618</ele>
        <time>2019-05-24T11:19:26.080Z</time>
      </trkpt>
      <trkpt lat="45.1582" lon="5.77937">
        <ele>618</ele>
        <time>2019-05-24T11:19:27.080Z</time>
      </trkpt>
      <trkpt lat="45.15819" lon="5.77932">
        <ele>617</ele>
        <time>2019-05-24T11:19:28.080Z</time>
      </trkpt>
      <trkpt lat="45.15817" lon="5.77928">
        <ele>618</ele>
        <time>2019-05-24T11:19:29.080Z</time>
      </trkpt>
      <trkpt lat="45.15815" lon="5.77924">
        <ele>620</ele>
        <time>2019-05-24T11:19:30.080Z</time>
      </trkpt>
      <trkpt lat="45.15813" lon="5.77921">
        <ele>621</ele>
        <time>2019-05-24T11:19:31.080Z</time>
      </trkpt>
      <trkpt lat="45.15812" lon="5.77918">
        <ele>623</ele>
        <time>2019-05-24T11:19:32.080Z</time>
      </trkpt>
      <trkpt lat="45.15811" lon="5.77915">
        <ele>623</ele>
        <time>2019-05-24T11:19:33.080Z</time>
      </trkpt>
      <trkpt lat="45.15812" lon="5.77912">
        <ele>622</ele>
        <time>2019-05-24T11:19:34.080Z</time>
      </trkpt>
      <trkpt lat="45.15812" lon="5.77908">
        <ele>621</ele>
        <time>2019-05-24T11:19:35.080Z</time>
      </trkpt>
      <trkpt lat="45.15812" lon="5.77904">
        <ele>620</ele>
        <time>2019-05-24T11:19:36.080Z</time>
      </trkpt>
      <trkpt lat="45.15811" lon="5.779">
        <ele>619</ele>
        <time>2019-05-24T11:19:37.080Z</time>
      </trkpt>
      <trkpt lat="45.1581" lon="5.77897">
        <ele>619</ele>
        <time>2019-05-24T11:19:38.080Z</time>
      </trkpt>
      <trkpt lat="45.15809" lon="5.77894">
        <ele>619</ele>
        <time>2019-05-24T11:19:39.080Z</time>
      </trkpt>
      <trkpt lat="45.15809" lon="5.77891">
        <ele>619</ele>
        <time>2019-05-24T11:19:40.080Z</time>
      </trkpt>
      <trkpt lat="45.15808" lon="5.77888">
        <ele>620</ele>
        <time>2019-05-24T11:19:41.080Z</time>
      </trkpt>
      <trkpt lat="45.15808" lon="5.77885">
        <ele>617</ele>
        <time>2019-05-24T11:19:42.080Z</time>
      </trkpt>
      <trkpt lat="45.15808" lon="5.77882">
        <ele>616</ele>
        <time>2019-05-24T11:19:43.080Z</time>
      </trkpt>
      <trkpt lat="45.15808" lon="5.77879">
        <ele>616</ele>
        <time>2019-05-24T11:19:44.080Z</time>
      </trkpt>
      <trkpt lat="45.15808" lon="5.77876">
        <ele>614</ele>
        <time>2019-05-24T11:19:45.080Z</time>
      </trkpt>
      <trkpt lat="45.15808" lon="5.77873">
        <ele>614</ele>
        <time>2019-05-24T11:19:46.080Z</time>
      </trkpt>
      <trkpt lat="45.15808" lon="5.7787">
        <ele>615</ele>
        <time>2019-05-24T11:19:47.080Z</time>
      </trkpt>
      <trkpt lat="45.15809" lon="5.77867">
        <ele>614</ele>
        <time>2019-05-24T11:19:48.080Z</time>
      </trkpt>
      <trkpt lat="45.15809" lon="5.77865">
        <ele>612</ele>
        <time>2019-05-24T11:19:49.080Z</time>
      </trkpt>
      <trkpt lat="45.15807" lon="5.77862">
        <ele>611</ele>
        <time>2019-05-24T11:19:50.080Z</time>
      </trkpt>
      <trkpt lat="45.15806" lon="5.7786">
        <ele>613</ele>
        <time>2019-05-24T11:19:51.080Z</time>
      </trkpt>
      <trkpt lat="45.15805" lon="5.77857">
        <ele>613</ele>
        <time>2019-05-24T11:19:52.080Z</time>
      </trkpt>
      <trkpt lat="45.15804" lon="5.77854">
        <ele>612</ele>
        <time>2019-05-24T11:19:53.080Z</time>
      </trkpt>
      <trkpt lat="45.15804" lon="5.77852">
        <ele>611</ele>
        <time>2019-05-24T11:19:54.080Z</time>
      </trkpt>
      <trkpt lat="45.15805" lon="5.77849">
        <ele>610</ele>
        <time>2019-05-24T11:19:55.080Z</time>
      </trkpt>
      <trkpt lat="45.15805" lon="5.77848">
        <ele>610</ele>
        <time>2019-05-24T11:19:56.080Z</time>
      </trkpt>
      <trkpt lat="45.15805" lon="5.77845">
        <ele>612</ele>
        <time>2019-05-24T11:19:57.080Z</time>
      </trkpt>
      <trkpt lat="45.15806" lon="5.77843">
        <ele>616</ele>
        <time>2019-05-24T11:19:58.080Z</time>
      </trkpt>
      <trkpt lat="45.15807" lon="5.7784">
        <ele>616</ele>
        <time>2019-05-24T11:19:59.080Z</time>
      </trkpt>
      <trkpt lat="45.15807" lon="5.77838">
        <ele>616</ele>
        <time>2019-05-24T11:20:00.080Z</time>
      </trkpt>
      <trkpt lat="45.15808" lon="5.77835">
        <ele>616</ele>
        <time>2019-05-24T11:20:01.080Z</time>
      </trkpt>
      <trkpt lat="45.15808" lon="5.77833">
        <ele>614</ele>
        <time>2019-05-24T11:20:02.080Z</time>
      </trkpt>
      <trkpt lat="45.15808" lon="5.77833">
        <ele>613</ele>
        <time>2019-05-24T11:20:03.080Z</time>
      </trkpt>
      <trkpt lat="45.15808" lon="5.77831">
        <ele>612</ele>
        <time>2019-05-24T11:20:04.080Z</time>
      </trkpt>
      <trkpt lat="45.15808" lon="5.77831">
        <ele>611</ele>
        <time>2019-05-24T11:20:05.080Z</time>
      </trkpt>
      <trkpt lat="45.15808" lon="5.77831">
        <ele>611</ele>
        <time>2019-05-24T11:20:06.080Z</time>
      </trkpt>
      <trkpt lat="45.15809" lon="5.77832">
        <ele>612</ele>
        <time>2019-05-24T11:20:07.080Z</time>
      </trkpt>
      <trkpt lat="45.15809" lon="5.77833">
        <ele>613</ele>
        <time>2019-05-24T11:20:08.080Z</time>
      </trkpt>
      <trkpt lat="45.1581" lon="5.77834">
        <ele>614</ele>
        <time>2019-05-24T11:20:09.080Z</time>
      </trkpt>
      <trkpt lat="45.1581" lon="5.77834">
        <ele>614</ele>
        <time>2019-05-24T11:20:10.080Z</time>
      </trkpt>
      <trkpt lat="45.15811" lon="5.77833">
        <ele>613</ele>
        <time>2019-05-24T11:20:11.080Z</time>
      </trkpt>
      <trkpt lat="45.15811" lon="5.77832">
        <ele>614</ele>
        <time>2019-05-24T11:20:12.080Z</time>
      </trkpt>
      <trkpt lat="45.15809" lon="5.7783">
        <ele>614</ele>
        <time>2019-05-24T11:20:13.080Z</time>
      </trkpt>
      <trkpt lat="45.15807" lon="5.77828">
        <ele>614</ele>
        <time>2019-05-24T11:20:14.080Z</time>
      </trkpt>
      <trkpt lat="45.15806" lon="5.77826">
        <ele>612</ele>
        <time>2019-05-24T11:20:15.080Z</time>
      </trkpt>
      <trkpt lat="45.15805" lon="5.77824">
        <ele>611</ele>
        <time>2019-05-24T11:20:16.080Z</time>
      </trkpt>
      <trkpt lat="45.15805" lon="5.77822">
        <ele>611</ele>
        <time>2019-05-24T11:20:17.080Z</time>
      </trkpt>
      <trkpt lat="45.15804" lon="5.7782">
        <ele>611</ele>
        <time>2019-05-24T11:20:18.080Z</time>
      </trkpt>
      <trkpt lat="45.15803" lon="5.77817">
        <ele>610</ele>
        <time>2019-05-24T11:20:19.080Z</time>
      </trkpt>
      <trkpt lat="45.15801" lon="5.77814">
        <ele>609</ele>
        <time>2019-05-24T11:20:20.080Z</time>
      </trkpt>
      <trkpt lat="45.158" lon="5.77811">
        <ele>610</ele>
        <time>2019-05-24T11:20:21.080Z</time>
      </trkpt>
      <trkpt lat="45.15798" lon="5.77808">
        <ele>611</ele>
        <time>2019-05-24T11:20:22.080Z</time>
      </trkpt>
      <trkpt lat="45.15797" lon="5.77805">
        <ele>612</ele>
        <time>2019-05-24T11:20:23.080Z</time>
      </trkpt>
      <trkpt lat="45.15796" lon="5.77802">
        <ele>612</ele>
        <time>2019-05-24T11:20:24.080Z</time>
      </trkpt>
      <trkpt lat="45.15795" lon="5.77799">
        <ele>612</ele>
        <time>2019-05-24T11:20:25.080Z</time>
      </trkpt>
      <trkpt lat="45.15793" lon="5.77797">
        <ele>613</ele>
        <time>2019-05-24T11:20:26.080Z</time>
      </trkpt>
      <trkpt lat="45.1579" lon="5.77794">
        <ele>612</ele>
        <time>2019-05-24T11:20:27.080Z</time>
      </trkpt>
      <trkpt lat="45.15789" lon="5.77791">
        <ele>611</ele>
        <time>2019-05-24T11:20:28.080Z</time>
      </trkpt>
      <trkpt lat="45.15787" lon="5.77787">
        <ele>609</ele>
        <time>2019-05-24T11:20:29.080Z</time>
      </trkpt>
      <trkpt lat="45.15786" lon="5.77784">
        <ele>608</ele>
        <time>2019-05-24T11:20:30.080Z</time>
      </trkpt>
      <trkpt lat="45.15785" lon="5.77782">
        <ele>607</ele>
        <time>2019-05-24T11:20:31.080Z</time>
      </trkpt>
      <trkpt lat="45.15783" lon="5.77778">
        <ele>607</ele>
        <time>2019-05-24T11:20:32.080Z</time>
      </trkpt>
      <trkpt lat="45.1578" lon="5.77775">
        <ele>607</ele>
        <time>2019-05-24T11:20:33.080Z</time>
      </trkpt>
      <trkpt lat="45.15777" lon="5.77771">
        <ele>607</ele>
        <time>2019-05-24T11:20:34.080Z</time>
      </trkpt>
      <trkpt lat="45.15774" lon="5.77769">
        <ele>608</ele>
        <time>2019-05-24T11:20:35.080Z</time>
      </trkpt>
      <trkpt lat="45.15774" lon="5.77766">
        <ele>605</ele>
        <time>2019-05-24T11:20:36.080Z</time>
      </trkpt>
      <trkpt lat="45.15774" lon="5.77764">
        <ele>605</ele>
        <time>2019-05-24T11:20:37.080Z</time>
      </trkpt>
      <trkpt lat="45.15773" lon="5.77762">
        <ele>606</ele>
        <time>2019-05-24T11:20:38.080Z</time>
      </trkpt>
      <trkpt lat="45.15773" lon="5.7776">
        <ele>605</ele>
        <time>2019-05-24T11:20:39.080Z</time>
      </trkpt>
      <trkpt lat="45.15772" lon="5.77758">
        <ele>605</ele>
        <time>2019-05-24T11:20:40.080Z</time>
      </trkpt>
      <trkpt lat="45.15769" lon="5.77756">
        <ele>604</ele>
        <time>2019-05-24T11:20:41.080Z</time>
      </trkpt>
      <trkpt lat="45.15768" lon="5.77754">
        <ele>603</ele>
        <time>2019-05-24T11:20:42.080Z</time>
      </trkpt>
      <trkpt lat="45.15766" lon="5.77752">
        <ele>601</ele>
        <time>2019-05-24T11:20:43.080Z</time>
      </trkpt>
      <trkpt lat="45.15765" lon="5.7775">
        <ele>601</ele>
        <time>2019-05-24T11:20:44.080Z</time>
      </trkpt>
      <trkpt lat="45.15765" lon="5.77747">
        <ele>601</ele>
        <time>2019-05-24T11:20:45.080Z</time>
      </trkpt>
      <trkpt lat="45.15765" lon="5.77745">
        <ele>602</ele>
        <time>2019-05-24T11:20:46.080Z</time>
      </trkpt>
      <trkpt lat="45.15764" lon="5.77743">
        <ele>603</ele>
        <time>2019-05-24T11:20:47.080Z</time>
      </trkpt>
      <trkpt lat="45.15763" lon="5.77742">
        <ele>604</ele>
        <time>2019-05-24T11:20:48.080Z</time>
      </trkpt>
      <trkpt lat="45.15761" lon="5.7774">
        <ele>604</ele>
        <time>2019-05-24T11:20:49.080Z</time>
      </trkpt>
      <trkpt lat="45.1576" lon="5.7774">
        <ele>604</ele>
        <time>2019-05-24T11:20:50.080Z</time>
      </trkpt>
      <trkpt lat="45.15758" lon="5.7774">
        <ele>604</ele>
        <time>2019-05-24T11:20:51.080Z</time>
      </trkpt>
      <trkpt lat="45.15757" lon="5.77739">
        <ele>603</ele>
        <time>2019-05-24T11:20:52.080Z</time>
      </trkpt>
      <trkpt lat="45.15756" lon="5.77738">
        <ele>604</ele>
        <time>2019-05-24T11:20:53.080Z</time>
      </trkpt>
      <trkpt lat="45.15755" lon="5.77736">
        <ele>606</ele>
        <time>2019-05-24T11:20:54.080Z</time>
      </trkpt>
      <trkpt lat="45.15755" lon="5.77734">
        <ele>607</ele>
        <time>2019-05-24T11:20:55.080Z</time>
      </trkpt>
      <trkpt lat="45.15756" lon="5.77732">
        <ele>606</ele>
        <time>2019-05-24T11:20:56.080Z</time>
      </trkpt>
      <trkpt lat="45.15755" lon="5.77729">
        <ele>605</ele>
        <time>2019-05-24T11:20:57.080Z</time>
      </trkpt>
      <trkpt lat="45.15754" lon="5.77726">
        <ele>604</ele>
        <time>2019-05-24T11:20:58.080Z</time>
      </trkpt>
      <trkpt lat="45.15752" lon="5.77724">
        <ele>602</ele>
        <time>2019-05-24T11:20:59.080Z</time>
      </trkpt>
      <trkpt lat="45.1575" lon="5.77721">
        <ele>603</ele>
        <time>2019-05-24T11:21:00.080Z</time>
      </trkpt>
      <trkpt lat="45.15748" lon="5.77717">
        <ele>604</ele>
        <time>2019-05-24T11:21:01.080Z</time>
      </trkpt>
      <trkpt lat="45.15747" lon="5.77714">
        <ele>604</ele>
        <time>2019-05-24T11:21:02.080Z</time>
      </trkpt>
      <trkpt lat="45.15746" lon="5.77711">
        <ele>605</ele>
        <time>2019-05-24T11:21:03.080Z</time>
      </trkpt>
      <trkpt lat="45.15744" lon="5.77709">
        <ele>605</ele>
        <time>2019-05-24T11:21:04.080Z</time>
      </trkpt>
      <trkpt lat="45.15742" lon="5.77706">
        <ele>605</ele>
        <time>2019-05-24T11:21:05.080Z</time>
      </trkpt>
      <trkpt lat="45.1574" lon="5.77704">
        <ele>603</ele>
        <time>2019-05-24T11:21:06.080Z</time>
      </trkpt>
      <trkpt lat="45.15738" lon="5.77702">
        <ele>601</ele>
        <time>2019-05-24T11:21:07.080Z</time>
      </trkpt>
      <trkpt lat="45.15736" lon="5.77697">
        <ele>598</ele>
        <time>2019-05-24T11:21:08.080Z</time>
      </trkpt>
      <trkpt lat="45.15734" lon="5.77694">
        <ele>598</ele>
        <time>2019-05-24T11:21:09.080Z</time>
      </trkpt>
      <trkpt lat="45.15732" lon="5.7769">
        <ele>597</ele>
        <time>2019-05-24T11:21:10.080Z</time>
      </trkpt>
      <trkpt lat="45.15729" lon="5.77687">
        <ele>598</ele>
        <time>2019-05-24T11:21:11.080Z</time>
      </trkpt>
      <trkpt lat="45.15728" lon="5.77684">
        <ele>597</ele>
        <time>2019-05-24T11:21:12.080Z</time>
      </trkpt>
      <trkpt lat="45.15725" lon="5.77681">
        <ele>595</ele>
        <time>2019-05-24T11:21:13.080Z</time>
      </trkpt>
      <trkpt lat="45.15722" lon="5.77678">
        <ele>595</ele>
        <time>2019-05-24T11:21:14.080Z</time>
      </trkpt>
      <trkpt lat="45.15721" lon="5.77675">
        <ele>593</ele>
        <time>2019-05-24T11:21:15.080Z</time>
      </trkpt>
      <trkpt lat="45.15719" lon="5.77671">
        <ele>590</ele>
        <time>2019-05-24T11:21:16.080Z</time>
      </trkpt>
      <trkpt lat="45.15718" lon="5.77667">
        <ele>590</ele>
        <time>2019-05-24T11:21:17.080Z</time>
      </trkpt>
      <trkpt lat="45.15717" lon="5.77663">
        <ele>590</ele>
        <time>2019-05-24T11:21:18.080Z</time>
      </trkpt>
      <trkpt lat="45.15714" lon="5.77659">
        <ele>590</ele>
        <time>2019-05-24T11:21:19.080Z</time>
      </trkpt>
      <trkpt lat="45.15712" lon="5.77655">
        <ele>590</ele>
        <time>2019-05-24T11:21:20.080Z</time>
      </trkpt>
      <trkpt lat="45.1571" lon="5.77652">
        <ele>588</ele>
        <time>2019-05-24T11:21:21.080Z</time>
      </trkpt>
      <trkpt lat="45.15708" lon="5.77648">
        <ele>584</ele>
        <time>2019-05-24T11:21:22.080Z</time>
      </trkpt>
      <trkpt lat="45.15706" lon="5.77644">
        <ele>582</ele>
        <time>2019-05-24T11:21:23.080Z</time>
      </trkpt>
      <trkpt lat="45.15705" lon="5.7764">
        <ele>582</ele>
        <time>2019-05-24T11:21:24.080Z</time>
      </trkpt>
      <trkpt lat="45.15705" lon="5.77637">
        <ele>582</ele>
        <time>2019-05-24T11:21:25.080Z</time>
      </trkpt>
      <trkpt lat="45.15703" lon="5.77634">
        <ele>583</ele>
        <time>2019-05-24T11:21:26.080Z</time>
      </trkpt>
      <trkpt lat="45.15701" lon="5.7763">
        <ele>585</ele>
        <time>2019-05-24T11:21:27.080Z</time>
      </trkpt>
      <trkpt lat="45.15699" lon="5.77626">
        <ele>587</ele>
        <time>2019-05-24T11:21:28.080Z</time>
      </trkpt>
      <trkpt lat="45.15697" lon="5.77622">
        <ele>588</ele>
        <time>2019-05-24T11:21:29.080Z</time>
      </trkpt>
      <trkpt lat="45.15696" lon="5.77618">
        <ele>588</ele>
        <time>2019-05-24T11:21:30.080Z</time>
      </trkpt>
      <trkpt lat="45.15694" lon="5.77614">
        <ele>587</ele>
        <time>2019-05-24T11:21:31.080Z</time>
      </trkpt>
      <trkpt lat="45.15693" lon="5.7761">
        <ele>586</ele>
        <time>2019-05-24T11:21:32.080Z</time>
      </trkpt>
      <trkpt lat="45.15691" lon="5.77607">
        <ele>587</ele>
        <time>2019-05-24T11:21:33.080Z</time>
      </trkpt>
      <trkpt lat="45.1569" lon="5.77604">
        <ele>587</ele>
        <time>2019-05-24T11:21:34.080Z</time>
      </trkpt>
      <trkpt lat="45.15688" lon="5.776">
        <ele>589</ele>
        <time>2019-05-24T11:21:35.080Z</time>
      </trkpt>
      <trkpt lat="45.15688" lon="5.77598">
        <ele>590</ele>
        <time>2019-05-24T11:21:36.080Z</time>
      </trkpt>
      <trkpt lat="45.15686" lon="5.77596">
        <ele>591</ele>
        <time>2019-05-24T11:21:37.080Z</time>
      </trkpt>
      <trkpt lat="45.15683" lon="5.77592">
        <ele>589</ele>
        <time>2019-05-24T11:21:38.080Z</time>
      </trkpt>
      <trkpt lat="45.1568" lon="5.7759">
        <ele>585</ele>
        <time>2019-05-24T11:21:39.080Z</time>
      </trkpt>
      <trkpt lat="45.15678" lon="5.77587">
        <ele>583</ele>
        <time>2019-05-24T11:21:40.080Z</time>
      </trkpt>
      <trkpt lat="45.15675" lon="5.77584">
        <ele>584</ele>
        <time>2019-05-24T11:21:41.080Z</time>
      </trkpt>
      <trkpt lat="45.15673" lon="5.7758">
        <ele>585</ele>
        <time>2019-05-24T11:21:42.080Z</time>
      </trkpt>
      <trkpt lat="45.15672" lon="5.77576">
        <ele>585</ele>
        <time>2019-05-24T11:21:43.080Z</time>
      </trkpt>
      <trkpt lat="45.1567" lon="5.77572">
        <ele>585</ele>
        <time>2019-05-24T11:21:44.080Z</time>
      </trkpt>
      <trkpt lat="45.15668" lon="5.77568">
        <ele>585</ele>
        <time>2019-05-24T11:21:45.080Z</time>
      </trkpt>
      <trkpt lat="45.15666" lon="5.77565">
        <ele>586</ele>
        <time>2019-05-24T11:21:46.080Z</time>
      </trkpt>
      <trkpt lat="45.15664" lon="5.77561">
        <ele>586</ele>
        <time>2019-05-24T11:21:47.080Z</time>
      </trkpt>
      <trkpt lat="45.15661" lon="5.77557">
        <ele>586</ele>
        <time>2019-05-24T11:21:48.080Z</time>
      </trkpt>
      <trkpt lat="45.15659" lon="5.77554">
        <ele>585</ele>
        <time>2019-05-24T11:21:49.080Z</time>
      </trkpt>
      <trkpt lat="45.15655" lon="5.77551">
        <ele>581</ele>
        <time>2019-05-24T11:21:50.080Z</time>
      </trkpt>
      <trkpt lat="45.15652" lon="5.77548">
        <ele>582</ele>
        <time>2019-05-24T11:21:51.080Z</time>
      </trkpt>
      <trkpt lat="45.15649" lon="5.77545">
        <ele>582</ele>
        <time>2019-05-24T11:21:52.080Z</time>
      </trkpt>
      <trkpt lat="45.15646" lon="5.77543">
        <ele>581</ele>
        <time>2019-05-24T11:21:53.080Z</time>
      </trkpt>
      <trkpt lat="45.15643" lon="5.77541">
        <ele>581</ele>
        <time>2019-05-24T11:21:54.080Z</time>
      </trkpt>
      <trkpt lat="45.1564" lon="5.77539">
        <ele>579</ele>
        <time>2019-05-24T11:21:55.080Z</time>
      </trkpt>
      <trkpt lat="45.15638" lon="5.77538">
        <ele>576</ele>
        <time>2019-05-24T11:21:56.080Z</time>
      </trkpt>
      <trkpt lat="45.15636" lon="5.77537">
        <ele>576</ele>
        <time>2019-05-24T11:21:57.080Z</time>
      </trkpt>
      <trkpt lat="45.15633" lon="5.77535">
        <ele>577</ele>
        <time>2019-05-24T11:21:58.080Z</time>
      </trkpt>
      <trkpt lat="45.15632" lon="5.77535">
        <ele>577</ele>
        <time>2019-05-24T11:21:59.080Z</time>
      </trkpt>
      <trkpt lat="45.15631" lon="5.77534">
        <ele>576</ele>
        <time>2019-05-24T11:22:00.080Z</time>
      </trkpt>
      <trkpt lat="45.1563" lon="5.77533">
        <ele>575</ele>
        <time>2019-05-24T11:22:01.080Z</time>
      </trkpt>
      <trkpt lat="45.1563" lon="5.77532">
        <ele>574</ele>
        <time>2019-05-24T11:22:02.080Z</time>
      </trkpt>
      <trkpt lat="45.15629" lon="5.7753">
        <ele>573</ele>
        <time>2019-05-24T11:22:03.080Z</time>
      </trkpt>
      <trkpt lat="45.15627" lon="5.77528">
        <ele>575</ele>
        <time>2019-05-24T11:22:04.080Z</time>
      </trkpt>
      <trkpt lat="45.15626" lon="5.77527">
        <ele>575</ele>
        <time>2019-05-24T11:22:05.080Z</time>
      </trkpt>
      <trkpt lat="45.15625" lon="5.77525">
        <ele>575</ele>
        <time>2019-05-24T11:22:06.080Z</time>
      </trkpt>
      <trkpt lat="45.15624" lon="5.77523">
        <ele>573</ele>
        <time>2019-05-24T11:22:07.080Z</time>
      </trkpt>
      <trkpt lat="45.15622" lon="5.77521">
        <ele>571</ele>
        <time>2019-05-24T11:22:08.080Z</time>
      </trkpt>
      <trkpt lat="45.1562" lon="5.7752">
        <ele>568</ele>
        <time>2019-05-24T11:22:09.080Z</time>
      </trkpt>
      <trkpt lat="45.15618" lon="5.77518">
        <ele>566</ele>
        <time>2019-05-24T11:22:10.080Z</time>
      </trkpt>
      <trkpt lat="45.15617" lon="5.77515">
        <ele>567</ele>
        <time>2019-05-24T11:22:11.080Z</time>
      </trkpt>
      <trkpt lat="45.15615" lon="5.77513">
        <ele>567</ele>
        <time>2019-05-24T11:22:12.080Z</time>
      </trkpt>
      <trkpt lat="45.15613" lon="5.77511">
        <ele>567</ele>
        <time>2019-05-24T11:22:13.080Z</time>
      </trkpt>
      <trkpt lat="45.1561" lon="5.7751">
        <ele>568</ele>
        <time>2019-05-24T11:22:14.080Z</time>
      </trkpt>
      <trkpt lat="45.15606" lon="5.77509">
        <ele>567</ele>
        <time>2019-05-24T11:22:15.080Z</time>
      </trkpt>
      <trkpt lat="45.15603" lon="5.77507">
        <ele>565</ele>
        <time>2019-05-24T11:22:16.080Z</time>
      </trkpt>
      <trkpt lat="45.156" lon="5.77506">
        <ele>564</ele>
        <time>2019-05-24T11:22:17.080Z</time>
      </trkpt>
      <trkpt lat="45.15597" lon="5.77505">
        <ele>565</ele>
        <time>2019-05-24T11:22:18.080Z</time>
      </trkpt>
      <trkpt lat="45.15595" lon="5.77503">
        <ele>565</ele>
        <time>2019-05-24T11:22:19.080Z</time>
      </trkpt>
      <trkpt lat="45.15592" lon="5.77501">
        <ele>567</ele>
        <time>2019-05-24T11:22:20.080Z</time>
      </trkpt>
      <trkpt lat="45.1559" lon="5.77499">
        <ele>567</ele>
        <time>2019-05-24T11:22:21.080Z</time>
      </trkpt>
      <trkpt lat="45.15588" lon="5.77496">
        <ele>566</ele>
        <time>2019-05-24T11:22:22.080Z</time>
      </trkpt>
      <trkpt lat="45.15586" lon="5.77494">
        <ele>565</ele>
        <time>2019-05-24T11:22:23.080Z</time>
      </trkpt>
      <trkpt lat="45.15584" lon="5.77492">
        <ele>564</ele>
        <time>2019-05-24T11:22:24.080Z</time>
      </trkpt>
      <trkpt lat="45.15582" lon="5.7749">
        <ele>565</ele>
        <time>2019-05-24T11:22:25.080Z</time>
      </trkpt>
      <trkpt lat="45.15581" lon="5.77488">
        <ele>565</ele>
        <time>2019-05-24T11:22:26.080Z</time>
      </trkpt>
      <trkpt lat="45.15579" lon="5.77487">
        <ele>564</ele>
        <time>2019-05-24T11:22:27.080Z</time>
      </trkpt>
      <trkpt lat="45.15577" lon="5.77485">
        <ele>564</ele>
        <time>2019-05-24T11:22:28.080Z</time>
      </trkpt>
      <trkpt lat="45.15574" lon="5.77483">
        <ele>563</ele>
        <time>2019-05-24T11:22:29.080Z</time>
      </trkpt>
      <trkpt lat="45.15573" lon="5.77482">
        <ele>562</ele>
        <time>2019-05-24T11:22:30.080Z</time>
      </trkpt>
      <trkpt lat="45.15572" lon="5.77481">
        <ele>562</ele>
        <time>2019-05-24T11:22:31.080Z</time>
      </trkpt>
      <trkpt lat="45.1557" lon="5.7748">
        <ele>563</ele>
        <time>2019-05-24T11:22:32.080Z</time>
      </trkpt>
      <trkpt lat="45.15568" lon="5.77479">
        <ele>563</ele>
        <time>2019-05-24T11:22:33.080Z</time>
      </trkpt>
      <trkpt lat="45.15565" lon="5.77478">
        <ele>560</ele>
        <time>2019-05-24T11:22:34.080Z</time>
      </trkpt>
      <trkpt lat="45.15562" lon="5.77476">
        <ele>557</ele>
        <time>2019-05-24T11:22:35.080Z</time>
      </trkpt>
      <trkpt lat="45.15558" lon="5.77474">
        <ele>555</ele>
        <time>2019-05-24T11:22:36.080Z</time>
      </trkpt>
      <trkpt lat="45.15556" lon="5.77472">
        <ele>555</ele>
        <time>2019-05-24T11:22:37.080Z</time>
      </trkpt>
      <trkpt lat="45.15554" lon="5.7747">
        <ele>556</ele>
        <time>2019-05-24T11:22:38.080Z</time>
      </trkpt>
      <trkpt lat="45.15549" lon="5.77467">
        <ele>557</ele>
        <time>2019-05-24T11:22:39.080Z</time>
      </trkpt>
      <trkpt lat="45.15546" lon="5.77465">
        <ele>557</ele>
        <time>2019-05-24T11:22:40.080Z</time>
      </trkpt>
      <trkpt lat="45.15543" lon="5.77463">
        <ele>557</ele>
        <time>2019-05-24T11:22:41.080Z</time>
      </trkpt>
      <trkpt lat="45.15539" lon="5.7746">
        <ele>558</ele>
        <time>2019-05-24T11:22:42.080Z</time>
      </trkpt>
      <trkpt lat="45.15537" lon="5.77457">
        <ele>558</ele>
        <time>2019-05-24T11:22:43.080Z</time>
      </trkpt>
      <trkpt lat="45.15536" lon="5.77455">
        <ele>559</ele>
        <time>2019-05-24T11:22:44.080Z</time>
      </trkpt>
      <trkpt lat="45.15534" lon="5.77453">
        <ele>560</ele>
        <time>2019-05-24T11:22:45.080Z</time>
      </trkpt>
      <trkpt lat="45.15533" lon="5.77451">
        <ele>560</ele>
        <time>2019-05-24T11:22:46.080Z</time>
      </trkpt>
      <trkpt lat="45.15532" lon="5.7745">
        <ele>559</ele>
        <time>2019-05-24T11:22:47.080Z</time>
      </trkpt>
      <trkpt lat="45.1553" lon="5.77448">
        <ele>557</ele>
        <time>2019-05-24T11:22:48.080Z</time>
      </trkpt>
      <trkpt lat="45.15528" lon="5.77446">
        <ele>556</ele>
        <time>2019-05-24T11:22:49.080Z</time>
      </trkpt>
      <trkpt lat="45.15526" lon="5.77445">
        <ele>557</ele>
        <time>2019-05-24T11:22:50.080Z</time>
      </trkpt>
      <trkpt lat="45.15523" lon="5.77442">
        <ele>558</ele>
        <time>2019-05-24T11:22:51.080Z</time>
      </trkpt>
      <trkpt lat="45.15521" lon="5.7744">
        <ele>559</ele>
        <time>2019-05-24T11:22:52.080Z</time>
      </trkpt>
      <trkpt lat="45.1552" lon="5.77438">
        <ele>561</ele>
        <time>2019-05-24T11:22:53.080Z</time>
      </trkpt>
      <trkpt lat="45.15518" lon="5.77436">
        <ele>562</ele>
        <time>2019-05-24T11:22:54.080Z</time>
      </trkpt>
      <trkpt lat="45.15518" lon="5.77435">
        <ele>563</ele>
        <time>2019-05-24T11:22:55.080Z</time>
      </trkpt>
      <trkpt lat="45.15516" lon="5.77434">
        <ele>563</ele>
        <time>2019-05-24T11:22:56.080Z</time>
      </trkpt>
      <trkpt lat="45.15513" lon="5.77433">
        <ele>562</ele>
        <time>2019-05-24T11:22:57.080Z</time>
      </trkpt>
      <trkpt lat="45.15511" lon="5.77431">
        <ele>561</ele>
        <time>2019-05-24T11:22:58.080Z</time>
      </trkpt>
      <trkpt lat="45.15508" lon="5.77429">
        <ele>561</ele>
        <time>2019-05-24T11:22:59.080Z</time>
      </trkpt>
      <trkpt lat="45.15505" lon="5.77428">
        <ele>563</ele>
        <time>2019-05-24T11:23:00.080Z</time>
      </trkpt>
      <trkpt lat="45.15502" lon="5.77427">
        <ele>563</ele>
        <time>2019-05-24T11:23:01.080Z</time>
      </trkpt>
      <trkpt lat="45.15498" lon="5.77425">
        <ele>563</ele>
        <time>2019-05-24T11:23:02.080Z</time>
      </trkpt>
      <trkpt lat="45.15495" lon="5.77423">
        <ele>564</ele>
        <time>2019-05-24T11:23:03.080Z</time>
      </trkpt>
      <trkpt lat="45.15491" lon="5.7742">
        <ele>565</ele>
        <time>2019-05-24T11:23:04.080Z</time>
      </trkpt>
      <trkpt lat="45.15487" lon="5.77417">
        <ele>567</ele>
        <time>2019-05-24T11:23:05.080Z</time>
      </trkpt>
      <trkpt lat="45.15484" lon="5.77413">
        <ele>567</ele>
        <time>2019-05-24T11:23:06.080Z</time>
      </trkpt>
      <trkpt lat="45.15481" lon="5.77411">
        <ele>566</ele>
        <time>2019-05-24T11:23:07.080Z</time>
      </trkpt>
      <trkpt lat="45.15477" lon="5.77409">
        <ele>564</ele>
        <time>2019-05-24T11:23:08.080Z</time>
      </trkpt>
      <trkpt lat="45.15475" lon="5.77408">
        <ele>563</ele>
        <time>2019-05-24T11:23:09.080Z</time>
      </trkpt>
      <trkpt lat="45.15472" lon="5.77406">
        <ele>563</ele>
        <time>2019-05-24T11:23:10.080Z</time>
      </trkpt>
      <trkpt lat="45.1547" lon="5.77405">
        <ele>563</ele>
        <time>2019-05-24T11:23:11.080Z</time>
      </trkpt>
      <trkpt lat="45.15467" lon="5.77404">
        <ele>563</ele>
        <time>2019-05-24T11:23:12.080Z</time>
      </trkpt>
      <trkpt lat="45.15464" lon="5.77402">
        <ele>563</ele>
        <time>2019-05-24T11:23:13.080Z</time>
      </trkpt>
      <trkpt lat="45.15462" lon="5.77401">
        <ele>563</ele>
        <time>2019-05-24T11:23:14.080Z</time>
      </trkpt>
      <trkpt lat="45.1546" lon="5.77399">
        <ele>563</ele>
        <time>2019-05-24T11:23:15.080Z</time>
      </trkpt>
      <trkpt lat="45.15457" lon="5.77397">
        <ele>562</ele>
        <time>2019-05-24T11:23:16.080Z</time>
      </trkpt>
      <trkpt lat="45.15453" lon="5.77394">
        <ele>564</ele>
        <time>2019-05-24T11:23:17.080Z</time>
      </trkpt>
      <trkpt lat="45.1545" lon="5.7739">
        <ele>564</ele>
        <time>2019-05-24T11:23:18.080Z</time>
      </trkpt>
      <trkpt lat="45.15446" lon="5.77387">
        <ele>566</ele>
        <time>2019-05-24T11:23:19.080Z</time>
      </trkpt>
      <trkpt lat="45.15443" lon="5.77383">
        <ele>566</ele>
        <time>2019-05-24T11:23:20.080Z</time>
      </trkpt>
      <trkpt lat="45.1544" lon="5.77381">
        <ele>565</ele>
        <time>2019-05-24T11:23:21.080Z</time>
      </trkpt>
      <trkpt lat="45.15439" lon="5.7738">
        <ele>565</ele>
        <time>2019-05-24T11:23:22.080Z</time>
      </trkpt>
      <trkpt lat="45.15437" lon="5.77378">
        <ele>567</ele>
        <time>2019-05-24T11:23:23.080Z</time>
      </trkpt>
      <trkpt lat="45.15435" lon="5.77376">
        <ele>566</ele>
        <time>2019-05-24T11:23:24.080Z</time>
      </trkpt>
      <trkpt lat="45.15434" lon="5.77374">
        <ele>566</ele>
        <time>2019-05-24T11:23:25.080Z</time>
      </trkpt>
      <trkpt lat="45.15433" lon="5.77373">
        <ele>567</ele>
        <time>2019-05-24T11:23:26.080Z</time>
      </trkpt>
      <trkpt lat="45.15431" lon="5.77371">
        <ele>569</ele>
        <time>2019-05-24T11:23:27.080Z</time>
      </trkpt>
      <trkpt lat="45.1543" lon="5.7737">
        <ele>570</ele>
        <time>2019-05-24T11:23:28.080Z</time>
      </trkpt>
      <trkpt lat="45.15428" lon="5.77369">
        <ele>571</ele>
        <time>2019-05-24T11:23:29.080Z</time>
      </trkpt>
      <trkpt lat="45.15426" lon="5.77368">
        <ele>574</ele>
        <time>2019-05-24T11:23:30.080Z</time>
      </trkpt>
      <trkpt lat="45.15424" lon="5.77367">
        <ele>574</ele>
        <time>2019-05-24T11:23:31.080Z</time>
      </trkpt>
      <trkpt lat="45.15422" lon="5.77366">
        <ele>574</ele>
        <time>2019-05-24T11:23:32.080Z</time>
      </trkpt>
      <trkpt lat="45.15419" lon="5.77365">
        <ele>575</ele>
        <time>2019-05-24T11:23:33.080Z</time>
      </trkpt>
      <trkpt lat="45.15416" lon="5.77364">
        <ele>576</ele>
        <time>2019-05-24T11:23:34.080Z</time>
      </trkpt>
      <trkpt lat="45.15413" lon="5.77363">
        <ele>579</ele>
        <time>2019-05-24T11:23:35.080Z</time>
      </trkpt>
      <trkpt lat="45.1541" lon="5.77361">
        <ele>580</ele>
        <time>2019-05-24T11:23:36.080Z</time>
      </trkpt>
      <trkpt lat="45.15407" lon="5.7736">
        <ele>581</ele>
        <time>2019-05-24T11:23:37.080Z</time>
      </trkpt>
      <trkpt lat="45.15404" lon="5.77359">
        <ele>582</ele>
        <time>2019-05-24T11:23:38.080Z</time>
      </trkpt>
      <trkpt lat="45.15399" lon="5.77357">
        <ele>582</ele>
        <time>2019-05-24T11:23:39.080Z</time>
      </trkpt>
      <trkpt lat="45.15396" lon="5.77356">
        <ele>581</ele>
        <time>2019-05-24T11:23:40.080Z</time>
      </trkpt>
      <trkpt lat="45.15393" lon="5.77355">
        <ele>580</ele>
        <time>2019-05-24T11:23:41.080Z</time>
      </trkpt>
      <trkpt lat="45.15391" lon="5.77353">
        <ele>579</ele>
        <time>2019-05-24T11:23:42.080Z</time>
      </trkpt>
      <trkpt lat="45.15388" lon="5.77352">
        <ele>579</ele>
        <time>2019-05-24T11:23:43.080Z</time>
      </trkpt>
      <trkpt lat="45.15385" lon="5.7735">
        <ele>579</ele>
        <time>2019-05-24T11:23:44.080Z</time>
      </trkpt>
      <trkpt lat="45.15383" lon="5.77349">
        <ele>580</ele>
        <time>2019-05-24T11:23:45.080Z</time>
      </trkpt>
      <trkpt lat="45.15379" lon="5.77348">
        <ele>581</ele>
        <time>2019-05-24T11:23:46.080Z</time>
      </trkpt>
      <trkpt lat="45.15376" lon="5.77348">
        <ele>580</ele>
        <time>2019-05-24T11:23:47.080Z</time>
      </trkpt>
      <trkpt lat="45.15373" lon="5.77347">
        <ele>580</ele>
        <time>2019-05-24T11:23:48.080Z</time>
      </trkpt>
      <trkpt lat="45.15369" lon="5.77345">
        <ele>578</ele>
        <time>2019-05-24T11:23:49.080Z</time>
      </trkpt>
      <trkpt lat="45.15366" lon="5.77344">
        <ele>575</ele>
        <time>2019-05-24T11:23:50.080Z</time>
      </trkpt>
      <trkpt lat="45.15364" lon="5.77344">
        <ele>575</ele>
        <time>2019-05-24T11:23:51.080Z</time>
      </trkpt>
      <trkpt lat="45.15361" lon="5.77344">
        <ele>575</ele>
        <time>2019-05-24T11:23:52.080Z</time>
      </trkpt>
      <trkpt lat="45.15358" lon="5.77343">
        <ele>575</ele>
        <time>2019-05-24T11:23:53.080Z</time>
      </trkpt>
      <trkpt lat="45.15356" lon="5.77343">
        <ele>575</ele>
        <time>2019-05-24T11:23:54.080Z</time>
      </trkpt>
      <trkpt lat="45.15355" lon="5.77342">
        <ele>572</ele>
        <time>2019-05-24T11:23:55.080Z</time>
      </trkpt>
      <trkpt lat="45.15353" lon="5.77342">
        <ele>573</ele>
        <time>2019-05-24T11:23:56.080Z</time>
      </trkpt>
      <trkpt lat="45.15351" lon="5.77342">
        <ele>574</ele>
        <time>2019-05-24T11:23:57.080Z</time>
      </trkpt>
      <trkpt lat="45.1535" lon="5.77342">
        <ele>573</ele>
        <time>2019-05-24T11:23:58.080Z</time>
      </trkpt>
      <trkpt lat="45.15348" lon="5.77341">
        <ele>573</ele>
        <time>2019-05-24T11:23:59.080Z</time>
      </trkpt>
      <trkpt lat="45.15346" lon="5.7734">
        <ele>573</ele>
        <time>2019-05-24T11:24:00.080Z</time>
      </trkpt>
      <trkpt lat="45.15344" lon="5.7734">
        <ele>573</ele>
        <time>2019-05-24T11:24:01.080Z</time>
      </trkpt>
      <trkpt lat="45.15343" lon="5.7734">
        <ele>573</ele>
        <time>2019-05-24T11:24:02.080Z</time>
      </trkpt>
      <trkpt lat="45.15343" lon="5.77339">
        <ele>573</ele>
        <time>2019-05-24T11:24:03.080Z</time>
      </trkpt>
      <trkpt lat="45.15342" lon="5.77339">
        <ele>573</ele>
        <time>2019-05-24T11:24:04.080Z</time>
      </trkpt>
      <trkpt lat="45.15341" lon="5.77339">
        <ele>573</ele>
        <time>2019-05-24T11:24:05.080Z</time>
      </trkpt>
      <trkpt lat="45.15341" lon="5.77338">
        <ele>575</ele>
        <time>2019-05-24T11:24:06.080Z</time>
      </trkpt>
      <trkpt lat="45.1534" lon="5.77338">
        <ele>574</ele>
        <time>2019-05-24T11:24:07.080Z</time>
      </trkpt>
      <trkpt lat="45.15339" lon="5.77337">
        <ele>572</ele>
        <time>2019-05-24T11:24:08.080Z</time>
      </trkpt>
      <trkpt lat="45.15338" lon="5.77337">
        <ele>571</ele>
        <time>2019-05-24T11:24:09.080Z</time>
      </trkpt>
      <trkpt lat="45.15338" lon="5.77336">
        <ele>572</ele>
        <time>2019-05-24T11:24:10.080Z</time>
      </trkpt>
      <trkpt lat="45.15337" lon="5.77335">
        <ele>577</ele>
        <time>2019-05-24T11:24:11.080Z</time>
      </trkpt>
      <trkpt lat="45.15337" lon="5.77334">
        <ele>576</ele>
        <time>2019-05-24T11:24:12.080Z</time>
      </trkpt>
      <trkpt lat="45.15337" lon="5.77333">
        <ele>576</ele>
        <time>2019-05-24T11:24:13.080Z</time>
      </trkpt>
      <trkpt lat="45.15338" lon="5.77332">
        <ele>576</ele>
        <time>2019-05-24T11:24:14.080Z</time>
      </trkpt>
      <trkpt lat="45.15339" lon="5.77331">
        <ele>576</ele>
        <time>2019-05-24T11:24:15.080Z</time>
      </trkpt>
      <trkpt lat="45.15341" lon="5.77329">
        <ele>575</ele>
        <time>2019-05-24T11:24:16.080Z</time>
      </trkpt>
      <trkpt lat="45.15342" lon="5.77327">
        <ele>573</ele>
        <time>2019-05-24T11:24:17.080Z</time>
      </trkpt>
      <trkpt lat="45.15344" lon="5.77326">
        <ele>570</ele>
        <time>2019-05-24T11:24:18.080Z</time>
      </trkpt>
      <trkpt lat="45.15346" lon="5.77325">
        <ele>567</ele>
        <time>2019-05-24T11:24:19.080Z</time>
      </trkpt>
      <trkpt lat="45.15348" lon="5.77324">
        <ele>565</ele>
        <time>2019-05-24T11:24:20.080Z</time>
      </trkpt>
      <trkpt lat="45.15349" lon="5.77322">
        <ele>566</ele>
        <time>2019-05-24T11:24:21.080Z</time>
      </trkpt>
      <trkpt lat="45.15351" lon="5.77321">
        <ele>566</ele>
        <time>2019-05-24T11:24:22.080Z</time>
      </trkpt>
      <trkpt lat="45.15353" lon="5.7732">
        <ele>565</ele>
        <time>2019-05-24T11:24:23.080Z</time>
      </trkpt>
      <trkpt lat="45.15355" lon="5.77318">
        <ele>562</ele>
        <time>2019-05-24T11:24:24.080Z</time>
      </trkpt>
      <trkpt lat="45.15357" lon="5.77316">
        <ele>560</ele>
        <time>2019-05-24T11:24:25.080Z</time>
      </trkpt>
      <trkpt lat="45.15358" lon="5.77316">
        <ele>561</ele>
        <time>2019-05-24T11:24:26.080Z</time>
      </trkpt>
      <trkpt lat="45.1536" lon="5.77315">
        <ele>562</ele>
        <time>2019-05-24T11:24:27.080Z</time>
      </trkpt>
      <trkpt lat="45.15362" lon="5.77313">
        <ele>562</ele>
        <time>2019-05-24T11:24:28.080Z</time>
      </trkpt>
      <trkpt lat="45.15364" lon="5.77311">
        <ele>562</ele>
        <time>2019-05-24T11:24:29.080Z</time>
      </trkpt>
      <trkpt lat="45.15366" lon="5.7731">
        <ele>562</ele>
        <time>2019-05-24T11:24:30.080Z</time>
      </trkpt>
      <trkpt lat="45.15368" lon="5.77309">
        <ele>560</ele>
        <time>2019-05-24T11:24:31.080Z</time>
      </trkpt>
      <trkpt lat="45.15371" lon="5.77308">
        <ele>560</ele>
        <time>2019-05-24T11:24:32.080Z</time>
      </trkpt>
      <trkpt lat="45.15373" lon="5.77306">
        <ele>560</ele>
        <time>2019-05-24T11:24:33.080Z</time>
      </trkpt>
      <trkpt lat="45.15376" lon="5.77305">
        <ele>560</ele>
        <time>2019-05-24T11:24:34.080Z</time>
      </trkpt>
      <trkpt lat="45.15378" lon="5.77304">
        <ele>559</ele>
        <time>2019-05-24T11:24:35.080Z</time>
      </trkpt>
      <trkpt lat="45.15382" lon="5.77303">
        <ele>558</ele>
        <time>2019-05-24T11:24:36.080Z</time>
      </trkpt>
      <trkpt lat="45.15385" lon="5.77302">
        <ele>554</ele>
        <time>2019-05-24T11:24:37.080Z</time>
      </trkpt>
      <trkpt lat="45.15388" lon="5.77301">
        <ele>550</ele>
        <time>2019-05-24T11:24:38.080Z</time>
      </trkpt>
      <trkpt lat="45.15391" lon="5.77299">
        <ele>552</ele>
        <time>2019-05-24T11:24:39.080Z</time>
      </trkpt>
      <trkpt lat="45.15394" lon="5.77298">
        <ele>555</ele>
        <time>2019-05-24T11:24:40.080Z</time>
      </trkpt>
      <trkpt lat="45.15396" lon="5.77296">
        <ele>558</ele>
        <time>2019-05-24T11:24:41.080Z</time>
      </trkpt>
      <trkpt lat="45.15399" lon="5.77295">
        <ele>558</ele>
        <time>2019-05-24T11:24:42.080Z</time>
      </trkpt>
      <trkpt lat="45.15402" lon="5.77295">
        <ele>558</ele>
        <time>2019-05-24T11:24:43.080Z</time>
      </trkpt>
      <trkpt lat="45.15405" lon="5.77294">
        <ele>556</ele>
        <time>2019-05-24T11:24:44.080Z</time>
      </trkpt>
      <trkpt lat="45.15408" lon="5.77294">
        <ele>555</ele>
        <time>2019-05-24T11:24:45.080Z</time>
      </trkpt>
      <trkpt lat="45.1541" lon="5.77295">
        <ele>556</ele>
        <time>2019-05-24T11:24:46.080Z</time>
      </trkpt>
      <trkpt lat="45.15413" lon="5.77295">
        <ele>557</ele>
        <time>2019-05-24T11:24:47.080Z</time>
      </trkpt>
      <trkpt lat="45.15416" lon="5.77295">
        <ele>557</ele>
        <time>2019-05-24T11:24:48.080Z</time>
      </trkpt>
      <trkpt lat="45.1542" lon="5.77295">
        <ele>555</ele>
        <time>2019-05-24T11:24:49.080Z</time>
      </trkpt>
      <trkpt lat="45.15423" lon="5.77295">
        <ele>552</ele>
        <time>2019-05-24T11:24:50.080Z</time>
      </trkpt>
      <trkpt lat="45.15426" lon="5.77295">
        <ele>552</ele>
        <time>2019-05-24T11:24:51.080Z</time>
      </trkpt>
      <trkpt lat="45.15429" lon="5.77295">
        <ele>553</ele>
        <time>2019-05-24T11:24:52.080Z</time>
      </trkpt>
      <trkpt lat="45.15432" lon="5.77295">
        <ele>555</ele>
        <time>2019-05-24T11:24:53.080Z</time>
      </trkpt>
      <trkpt lat="45.15435" lon="5.77296">
        <ele>557</ele>
        <time>2019-05-24T11:24:54.080Z</time>
      </trkpt>
      <trkpt lat="45.15439" lon="5.77297">
        <ele>557</ele>
        <time>2019-05-24T11:24:55.080Z</time>
      </trkpt>
      <trkpt lat="45.15442" lon="5.77299">
        <ele>559</ele>
        <time>2019-05-24T11:24:56.080Z</time>
      </trkpt>
      <trkpt lat="45.15444" lon="5.77301">
        <ele>560</ele>
        <time>2019-05-24T11:24:57.080Z</time>
      </trkpt>
      <trkpt lat="45.15447" lon="5.77303">
        <ele>559</ele>
        <time>2019-05-24T11:24:58.080Z</time>
      </trkpt>
      <trkpt lat="45.15449" lon="5.77304">
        <ele>558</ele>
        <time>2019-05-24T11:24:59.080Z</time>
      </trkpt>
      <trkpt lat="45.15452" lon="5.77304">
        <ele>559</ele>
        <time>2019-05-24T11:25:00.080Z</time>
      </trkpt>
      <trkpt lat="45.15455" lon="5.77305">
        <ele>561</ele>
        <time>2019-05-24T11:25:01.080Z</time>
      </trkpt>
      <trkpt lat="45.15458" lon="5.77305">
        <ele>565</ele>
        <time>2019-05-24T11:25:02.080Z</time>
      </trkpt>
      <trkpt lat="45.1546" lon="5.77306">
        <ele>567</ele>
        <time>2019-05-24T11:25:03.080Z</time>
      </trkpt>
      <trkpt lat="45.15463" lon="5.77305">
        <ele>569</ele>
        <time>2019-05-24T11:25:04.080Z</time>
      </trkpt>
      <trkpt lat="45.15466" lon="5.77305">
        <ele>569</ele>
        <time>2019-05-24T11:25:05.080Z</time>
      </trkpt>
      <trkpt lat="45.15469" lon="5.77306">
        <ele>573</ele>
        <time>2019-05-24T11:25:06.080Z</time>
      </trkpt>
      <trkpt lat="45.15471" lon="5.77306">
        <ele>575</ele>
        <time>2019-05-24T11:25:07.080Z</time>
      </trkpt>
      <trkpt lat="45.15473" lon="5.77307">
        <ele>578</ele>
        <time>2019-05-24T11:25:08.080Z</time>
      </trkpt>
      <trkpt lat="45.15476" lon="5.77307">
        <ele>578</ele>
        <time>2019-05-24T11:25:09.080Z</time>
      </trkpt>
      <trkpt lat="45.15478" lon="5.77307">
        <ele>578</ele>
        <time>2019-05-24T11:25:10.080Z</time>
      </trkpt>
      <trkpt lat="45.15483" lon="5.77308">
        <ele>574</ele>
        <time>2019-05-24T11:25:11.080Z</time>
      </trkpt>
      <trkpt lat="45.15486" lon="5.77308">
        <ele>573</ele>
        <time>2019-05-24T11:25:12.080Z</time>
      </trkpt>
      <trkpt lat="45.1549" lon="5.7731">
        <ele>570</ele>
        <time>2019-05-24T11:25:13.080Z</time>
      </trkpt>
      <trkpt lat="45.15493" lon="5.77312">
        <ele>568</ele>
        <time>2019-05-24T11:25:14.080Z</time>
      </trkpt>
      <trkpt lat="45.15496" lon="5.77314">
        <ele>566</ele>
        <time>2019-05-24T11:25:15.080Z</time>
      </trkpt>
      <trkpt lat="45.15499" lon="5.77315">
        <ele>564</ele>
        <time>2019-05-24T11:25:16.080Z</time>
      </trkpt>
      <trkpt lat="45.15502" lon="5.77316">
        <ele>563</ele>
        <time>2019-05-24T11:25:17.080Z</time>
      </trkpt>
      <trkpt lat="45.15504" lon="5.77317">
        <ele>563</ele>
        <time>2019-05-24T11:25:18.080Z</time>
      </trkpt>
      <trkpt lat="45.15507" lon="5.77319">
        <ele>559</ele>
        <time>2019-05-24T11:25:19.080Z</time>
      </trkpt>
      <trkpt lat="45.1551" lon="5.77321">
        <ele>557</ele>
        <time>2019-05-24T11:25:20.080Z</time>
      </trkpt>
      <trkpt lat="45.15513" lon="5.77323">
        <ele>555</ele>
        <time>2019-05-24T11:25:21.080Z</time>
      </trkpt>
      <trkpt lat="45.15516" lon="5.77324">
        <ele>555</ele>
        <time>2019-05-24T11:25:22.080Z</time>
      </trkpt>
      <trkpt lat="45.15518" lon="5.77325">
        <ele>554</ele>
        <time>2019-05-24T11:25:23.080Z</time>
      </trkpt>
      <trkpt lat="45.1552" lon="5.77326">
        <ele>554</ele>
        <time>2019-05-24T11:25:24.080Z</time>
      </trkpt>
      <trkpt lat="45.15523" lon="5.77327">
        <ele>553</ele>
        <time>2019-05-24T11:25:25.080Z</time>
      </trkpt>
      <trkpt lat="45.15525" lon="5.77327">
        <ele>556</ele>
        <time>2019-05-24T11:25:26.080Z</time>
      </trkpt>
      <trkpt lat="45.15527" lon="5.77328">
        <ele>557</ele>
        <time>2019-05-24T11:25:27.080Z</time>
      </trkpt>
      <trkpt lat="45.15529" lon="5.7733">
        <ele>558</ele>
        <time>2019-05-24T11:25:28.080Z</time>
      </trkpt>
      <trkpt lat="45.15531" lon="5.77331">
        <ele>559</ele>
        <time>2019-05-24T11:25:29.080Z</time>
      </trkpt>
      <trkpt lat="45.15532" lon="5.77332">
        <ele>559</ele>
        <time>2019-05-24T11:25:30.080Z</time>
      </trkpt>
      <trkpt lat="45.15533" lon="5.77334">
        <ele>558</ele>
        <time>2019-05-24T11:25:31.080Z</time>
      </trkpt>
      <trkpt lat="45.15534" lon="5.77337">
        <ele>557</ele>
        <time>2019-05-24T11:25:32.080Z</time>
      </trkpt>
      <trkpt lat="45.15535" lon="5.7734">
        <ele>557</ele>
        <time>2019-05-24T11:25:33.080Z</time>
      </trkpt>
      <trkpt lat="45.15536" lon="5.77343">
        <ele>557</ele>
        <time>2019-05-24T11:25:34.080Z</time>
      </trkpt>
      <trkpt lat="45.15537" lon="5.77345">
        <ele>558</ele>
        <time>2019-05-24T11:25:35.080Z</time>
      </trkpt>
      <trkpt lat="45.15539" lon="5.77347">
        <ele>560</ele>
        <time>2019-05-24T11:25:36.080Z</time>
      </trkpt>
      <trkpt lat="45.15541" lon="5.77348">
        <ele>561</ele>
        <time>2019-05-24T11:25:37.080Z</time>
      </trkpt>
      <trkpt lat="45.15543" lon="5.7735">
        <ele>562</ele>
        <time>2019-05-24T11:25:38.080Z</time>
      </trkpt>
      <trkpt lat="45.15544" lon="5.77351">
        <ele>561</ele>
        <time>2019-05-24T11:25:39.080Z</time>
      </trkpt>
      <trkpt lat="45.15545" lon="5.77353">
        <ele>559</ele>
        <time>2019-05-24T11:25:40.080Z</time>
      </trkpt>
      <trkpt lat="45.15546" lon="5.77356">
        <ele>554</ele>
        <time>2019-05-24T11:25:41.080Z</time>
      </trkpt>
      <trkpt lat="45.15549" lon="5.77358">
        <ele>549</ele>
        <time>2019-05-24T11:25:42.080Z</time>
      </trkpt>
      <trkpt lat="45.15552" lon="5.77361">
        <ele>546</ele>
        <time>2019-05-24T11:25:43.080Z</time>
      </trkpt>
      <trkpt lat="45.15554" lon="5.77363">
        <ele>544</ele>
        <time>2019-05-24T11:25:44.080Z</time>
      </trkpt>
      <trkpt lat="45.15557" lon="5.77366">
        <ele>541</ele>
        <time>2019-05-24T11:25:45.080Z</time>
      </trkpt>
      <trkpt lat="45.1556" lon="5.77368">
        <ele>541</ele>
        <time>2019-05-24T11:25:46.080Z</time>
      </trkpt>
      <trkpt lat="45.15562" lon="5.77369">
        <ele>542</ele>
        <time>2019-05-24T11:25:47.080Z</time>
      </trkpt>
      <trkpt lat="45.15565" lon="5.7737">
        <ele>543</ele>
        <time>2019-05-24T11:25:48.080Z</time>
      </trkpt>
      <trkpt lat="45.15567" lon="5.77371">
        <ele>543</ele>
        <time>2019-05-24T11:25:49.080Z</time>
      </trkpt>
      <trkpt lat="45.15568" lon="5.77373">
        <ele>543</ele>
        <time>2019-05-24T11:25:50.080Z</time>
      </trkpt>
      <trkpt lat="45.15571" lon="5.77375">
        <ele>546</ele>
        <time>2019-05-24T11:25:51.080Z</time>
      </trkpt>
      <trkpt lat="45.15574" lon="5.77376">
        <ele>548</ele>
        <time>2019-05-24T11:25:52.080Z</time>
      </trkpt>
      <trkpt lat="45.15577" lon="5.77377">
        <ele>549</ele>
        <time>2019-05-24T11:25:53.080Z</time>
      </trkpt>
      <trkpt lat="45.1558" lon="5.77379">
        <ele>550</ele>
        <time>2019-05-24T11:25:54.080Z</time>
      </trkpt>
      <trkpt lat="45.15583" lon="5.77381">
        <ele>552</ele>
        <time>2019-05-24T11:25:55.080Z</time>
      </trkpt>
      <trkpt lat="45.15585" lon="5.77383">
        <ele>553</ele>
        <time>2019-05-24T11:25:56.080Z</time>
      </trkpt>
      <trkpt lat="45.15587" lon="5.77384">
        <ele>554</ele>
        <time>2019-05-24T11:25:57.080Z</time>
      </trkpt>
      <trkpt lat="45.1559" lon="5.77385">
        <ele>557</ele>
        <time>2019-05-24T11:25:58.080Z</time>
      </trkpt>
      <trkpt lat="45.15592" lon="5.77385">
        <ele>558</ele>
        <time>2019-05-24T11:25:59.080Z</time>
      </trkpt>
      <trkpt lat="45.15594" lon="5.77386">
        <ele>557</ele>
        <time>2019-05-24T11:26:00.080Z</time>
      </trkpt>
      <trkpt lat="45.15597" lon="5.77386">
        <ele>554</ele>
        <time>2019-05-24T11:26:01.080Z</time>
      </trkpt>
      <trkpt lat="45.15599" lon="5.77385">
        <ele>553</ele>
        <time>2019-05-24T11:26:02.080Z</time>
      </trkpt>
      <trkpt lat="45.15601" lon="5.77385">
        <ele>552</ele>
        <time>2019-05-24T11:26:03.080Z</time>
      </trkpt>
      <trkpt lat="45.15603" lon="5.77386">
        <ele>553</ele>
        <time>2019-05-24T11:26:04.080Z</time>
      </trkpt>
      <trkpt lat="45.15604" lon="5.77386">
        <ele>554</ele>
        <time>2019-05-24T11:26:05.080Z</time>
      </trkpt>
      <trkpt lat="45.15605" lon="5.77387">
        <ele>554</ele>
        <time>2019-05-24T11:26:06.080Z</time>
      </trkpt>
      <trkpt lat="45.15606" lon="5.77388">
        <ele>553</ele>
        <time>2019-05-24T11:26:07.080Z</time>
      </trkpt>
      <trkpt lat="45.15605" lon="5.77389">
        <ele>553</ele>
        <time>2019-05-24T11:26:08.080Z</time>
      </trkpt>
      <trkpt lat="45.15605" lon="5.7739">
        <ele>553</ele>
        <time>2019-05-24T11:26:09.080Z</time>
      </trkpt>
      <trkpt lat="45.15604" lon="5.77392">
        <ele>553</ele>
        <time>2019-05-24T11:26:10.080Z</time>
      </trkpt>
      <trkpt lat="45.15604" lon="5.77393">
        <ele>552</ele>
        <time>2019-05-24T11:26:11.080Z</time>
      </trkpt>
      <trkpt lat="45.15605" lon="5.77395">
        <ele>551</ele>
        <time>2019-05-24T11:26:12.080Z</time>
      </trkpt>
      <trkpt lat="45.15605" lon="5.77396">
        <ele>551</ele>
        <time>2019-05-24T11:26:13.080Z</time>
      </trkpt>
      <trkpt lat="45.15604" lon="5.77396">
        <ele>551</ele>
        <time>2019-05-24T11:26:14.080Z</time>
      </trkpt>
      <trkpt lat="45.15603" lon="5.77396">
        <ele>551</ele>
        <time>2019-05-24T11:26:15.080Z</time>
      </trkpt>
      <trkpt lat="45.15602" lon="5.77396">
        <ele>551</ele>
        <time>2019-05-24T11:26:16.080Z</time>
      </trkpt>
      <trkpt lat="45.156" lon="5.77396">
        <ele>551</ele>
        <time>2019-05-24T11:26:17.080Z</time>
      </trkpt>
      <trkpt lat="45.15599" lon="5.77396">
        <ele>552</ele>
        <time>2019-05-24T11:26:18.080Z</time>
      </trkpt>
      <trkpt lat="45.15598" lon="5.77397">
        <ele>552</ele>
        <time>2019-05-24T11:26:19.080Z</time>
      </trkpt>
      <trkpt lat="45.15597" lon="5.77397">
        <ele>551</ele>
        <time>2019-05-24T11:26:20.080Z</time>
      </trkpt>
      <trkpt lat="45.15596" lon="5.77397">
        <ele>553</ele>
        <time>2019-05-24T11:26:21.080Z</time>
      </trkpt>
      <trkpt lat="45.15595" lon="5.77397">
        <ele>552</ele>
        <time>2019-05-24T11:26:22.080Z</time>
      </trkpt>
      <trkpt lat="45.15594" lon="5.77397">
        <ele>552</ele>
        <time>2019-05-24T11:26:23.080Z</time>
      </trkpt>
      <trkpt lat="45.15592" lon="5.77397">
        <ele>553</ele>
        <time>2019-05-24T11:26:24.080Z</time>
      </trkpt>
      <trkpt lat="45.1559" lon="5.77397">
        <ele>552</ele>
        <time>2019-05-24T11:26:25.080Z</time>
      </trkpt>
      <trkpt lat="45.15587" lon="5.77397">
        <ele>551</ele>
        <time>2019-05-24T11:26:26.080Z</time>
      </trkpt>
      <trkpt lat="45.15585" lon="5.77395">
        <ele>551</ele>
        <time>2019-05-24T11:26:27.080Z</time>
      </trkpt>
      <trkpt lat="45.15584" lon="5.77394">
        <ele>549</ele>
        <time>2019-05-24T11:26:28.080Z</time>
      </trkpt>
      <trkpt lat="45.15582" lon="5.77393">
        <ele>549</ele>
        <time>2019-05-24T11:26:29.080Z</time>
      </trkpt>
      <trkpt lat="45.1558" lon="5.77392">
        <ele>550</ele>
        <time>2019-05-24T11:26:30.080Z</time>
      </trkpt>
      <trkpt lat="45.15578" lon="5.77392">
        <ele>549</ele>
        <time>2019-05-24T11:26:31.080Z</time>
      </trkpt>
      <trkpt lat="45.15576" lon="5.77391">
        <ele>547</ele>
        <time>2019-05-24T11:26:32.080Z</time>
      </trkpt>
      <trkpt lat="45.15574" lon="5.77389">
        <ele>547</ele>
        <time>2019-05-24T11:26:33.080Z</time>
      </trkpt>
      <trkpt lat="45.15571" lon="5.77387">
        <ele>544</ele>
        <time>2019-05-24T11:26:34.080Z</time>
      </trkpt>
      <trkpt lat="45.15568" lon="5.77384">
        <ele>542</ele>
        <time>2019-05-24T11:26:35.080Z</time>
      </trkpt>
      <trkpt lat="45.15566" lon="5.77383">
        <ele>542</ele>
        <time>2019-05-24T11:26:36.080Z</time>
      </trkpt>
      <trkpt lat="45.15564" lon="5.77381">
        <ele>542</ele>
        <time>2019-05-24T11:26:37.080Z</time>
      </trkpt>
      <trkpt lat="45.15563" lon="5.7738">
        <ele>542</ele>
        <time>2019-05-24T11:26:38.080Z</time>
      </trkpt>
      <trkpt lat="45.15562" lon="5.77379">
        <ele>542</ele>
        <time>2019-05-24T11:26:39.080Z</time>
      </trkpt>
      <trkpt lat="45.15561" lon="5.77377">
        <ele>542</ele>
        <time>2019-05-24T11:26:40.080Z</time>
      </trkpt>
      <trkpt lat="45.1556" lon="5.77376">
        <ele>542</ele>
        <time>2019-05-24T11:26:41.080Z</time>
      </trkpt>
      <trkpt lat="45.15559" lon="5.77375">
        <ele>541</ele>
        <time>2019-05-24T11:26:42.080Z</time>
      </trkpt>
      <trkpt lat="45.15558" lon="5.77373">
        <ele>541</ele>
        <time>2019-05-24T11:26:43.080Z</time>
      </trkpt>
      <trkpt lat="45.15557" lon="5.77372">
        <ele>540</ele>
        <time>2019-05-24T11:26:44.080Z</time>
      </trkpt>
      <trkpt lat="45.15556" lon="5.77371">
        <ele>539</ele>
        <time>2019-05-24T11:26:45.080Z</time>
      </trkpt>
      <trkpt lat="45.15556" lon="5.7737">
        <ele>538</ele>
        <time>2019-05-24T11:26:46.080Z</time>
      </trkpt>
      <trkpt lat="45.15555" lon="5.77369">
        <ele>538</ele>
        <time>2019-05-24T11:26:47.080Z</time>
      </trkpt>
      <trkpt lat="45.15553" lon="5.77368">
        <ele>538</ele>
        <time>2019-05-24T11:26:48.080Z</time>
      </trkpt>
      <trkpt lat="45.1555" lon="5.77366">
        <ele>539</ele>
        <time>2019-05-24T11:26:49.080Z</time>
      </trkpt>
      <trkpt lat="45.15548" lon="5.77363">
        <ele>539</ele>
        <time>2019-05-24T11:26:50.080Z</time>
      </trkpt>
      <trkpt lat="45.15544" lon="5.77361">
        <ele>537</ele>
        <time>2019-05-24T11:26:51.080Z</time>
      </trkpt>
      <trkpt lat="45.15542" lon="5.77359">
        <ele>535</ele>
        <time>2019-05-24T11:26:52.080Z</time>
      </trkpt>
      <trkpt lat="45.15539" lon="5.77358">
        <ele>535</ele>
        <time>2019-05-24T11:26:53.080Z</time>
      </trkpt>
      <trkpt lat="45.15536" lon="5.77356">
        <ele>533</ele>
        <time>2019-05-24T11:26:54.080Z</time>
      </trkpt>
      <trkpt lat="45.15533" lon="5.77354">
        <ele>532</ele>
        <time>2019-05-24T11:26:55.080Z</time>
      </trkpt>
      <trkpt lat="45.15531" lon="5.77353">
        <ele>531</ele>
        <time>2019-05-24T11:26:56.080Z</time>
      </trkpt>
      <trkpt lat="45.15528" lon="5.77352">
        <ele>530</ele>
        <time>2019-05-24T11:26:57.080Z</time>
      </trkpt>
      <trkpt lat="45.15526" lon="5.77351">
        <ele>531</ele>
        <time>2019-05-24T11:26:58.080Z</time>
      </trkpt>
      <trkpt lat="45.15525" lon="5.7735">
        <ele>531</ele>
        <time>2019-05-24T11:26:59.080Z</time>
      </trkpt>
      <trkpt lat="45.15523" lon="5.77348">
        <ele>531</ele>
        <time>2019-05-24T11:27:00.080Z</time>
      </trkpt>
      <trkpt lat="45.15521" lon="5.77347">
        <ele>532</ele>
        <time>2019-05-24T11:27:01.080Z</time>
      </trkpt>
      <trkpt lat="45.1552" lon="5.77346">
        <ele>532</ele>
        <time>2019-05-24T11:27:02.080Z</time>
      </trkpt>
      <trkpt lat="45.15518" lon="5.77344">
        <ele>532</ele>
        <time>2019-05-24T11:27:03.080Z</time>
      </trkpt>
      <trkpt lat="45.15514" lon="5.77342">
        <ele>533</ele>
        <time>2019-05-24T11:27:04.080Z</time>
      </trkpt>
      <trkpt lat="45.15511" lon="5.7734">
        <ele>534</ele>
        <time>2019-05-24T11:27:05.080Z</time>
      </trkpt>
      <trkpt lat="45.15508" lon="5.77339">
        <ele>535</ele>
        <time>2019-05-24T11:27:06.080Z</time>
      </trkpt>
      <trkpt lat="45.15505" lon="5.77337">
        <ele>536</ele>
        <time>2019-05-24T11:27:07.080Z</time>
      </trkpt>
      <trkpt lat="45.15503" lon="5.77336">
        <ele>537</ele>
        <time>2019-05-24T11:27:08.080Z</time>
      </trkpt>
      <trkpt lat="45.15501" lon="5.77336">
        <ele>536</ele>
        <time>2019-05-24T11:27:09.080Z</time>
      </trkpt>
      <trkpt lat="45.15499" lon="5.77335">
        <ele>536</ele>
        <time>2019-05-24T11:27:10.080Z</time>
      </trkpt>
      <trkpt lat="45.15498" lon="5.77334">
        <ele>538</ele>
        <time>2019-05-24T11:27:11.080Z</time>
      </trkpt>
      <trkpt lat="45.15496" lon="5.77333">
        <ele>540</ele>
        <time>2019-05-24T11:27:12.080Z</time>
      </trkpt>
      <trkpt lat="45.15494" lon="5.77333">
        <ele>542</ele>
        <time>2019-05-24T11:27:13.080Z</time>
      </trkpt>
      <trkpt lat="45.15493" lon="5.77333">
        <ele>544</ele>
        <time>2019-05-24T11:27:14.080Z</time>
      </trkpt>
      <trkpt lat="45.15489" lon="5.77332">
        <ele>545</ele>
        <time>2019-05-24T11:27:15.080Z</time>
      </trkpt>
      <trkpt lat="45.15486" lon="5.77332">
        <ele>544</ele>
        <time>2019-05-24T11:27:16.080Z</time>
      </trkpt>
      <trkpt lat="45.15483" lon="5.77331">
        <ele>540</ele>
        <time>2019-05-24T11:27:17.080Z</time>
      </trkpt>
      <trkpt lat="45.15481" lon="5.77328">
        <ele>539</ele>
        <time>2019-05-24T11:27:18.080Z</time>
      </trkpt>
      <trkpt lat="45.15479" lon="5.77327">
        <ele>539</ele>
        <time>2019-05-24T11:27:19.080Z</time>
      </trkpt>
      <trkpt lat="45.15477" lon="5.77325">
        <ele>539</ele>
        <time>2019-05-24T11:27:20.080Z</time>
      </trkpt>
      <trkpt lat="45.15475" lon="5.77323">
        <ele>540</ele>
        <time>2019-05-24T11:27:21.080Z</time>
      </trkpt>
      <trkpt lat="45.15472" lon="5.77322">
        <ele>539</ele>
        <time>2019-05-24T11:27:22.080Z</time>
      </trkpt>
      <trkpt lat="45.15469" lon="5.77321">
        <ele>538</ele>
        <time>2019-05-24T11:27:23.080Z</time>
      </trkpt>
      <trkpt lat="45.15466" lon="5.7732">
        <ele>536</ele>
        <time>2019-05-24T11:27:24.080Z</time>
      </trkpt>
      <trkpt lat="45.15464" lon="5.77318">
        <ele>536</ele>
        <time>2019-05-24T11:27:25.080Z</time>
      </trkpt>
      <trkpt lat="45.15461" lon="5.77317">
        <ele>536</ele>
        <time>2019-05-24T11:27:26.080Z</time>
      </trkpt>
      <trkpt lat="45.15459" lon="5.77316">
        <ele>536</ele>
        <time>2019-05-24T11:27:27.080Z</time>
      </trkpt>
      <trkpt lat="45.15457" lon="5.77315">
        <ele>535</ele>
        <time>2019-05-24T11:27:28.080Z</time>
      </trkpt>
      <trkpt lat="45.15454" lon="5.77313">
        <ele>534</ele>
        <time>2019-05-24T11:27:29.080Z</time>
      </trkpt>
      <trkpt lat="45.15451" lon="5.77312">
        <ele>533</ele>
        <time>2019-05-24T11:27:30.080Z</time>
      </trkpt>
      <trkpt lat="45.15449" lon="5.77311">
        <ele>534</ele>
        <time>2019-05-24T11:27:31.080Z</time>
      </trkpt>
      <trkpt lat="45.15447" lon="5.77311">
        <ele>535</ele>
        <time>2019-05-24T11:27:32.080Z</time>
      </trkpt>
      <trkpt lat="45.15445" lon="5.77311">
        <ele>535</ele>
        <time>2019-05-24T11:27:33.080Z</time>
      </trkpt>
      <trkpt lat="45.15442" lon="5.7731">
        <ele>535</ele>
        <time>2019-05-24T11:27:34.080Z</time>
      </trkpt>
      <trkpt lat="45.15439" lon="5.7731">
        <ele>536</ele>
        <time>2019-05-24T11:27:35.080Z</time>
      </trkpt>
      <trkpt lat="45.15438" lon="5.7731">
        <ele>537</ele>
        <time>2019-05-24T11:27:36.080Z</time>
      </trkpt>
      <trkpt lat="45.15436" lon="5.77309">
        <ele>538</ele>
        <time>2019-05-24T11:27:37.080Z</time>
      </trkpt>
      <trkpt lat="45.15434" lon="5.77309">
        <ele>538</ele>
        <time>2019-05-24T11:27:38.080Z</time>
      </trkpt>
      <trkpt lat="45.15431" lon="5.7731">
        <ele>537</ele>
        <time>2019-05-24T11:27:39.080Z</time>
      </trkpt>
      <trkpt lat="45.15428" lon="5.7731">
        <ele>535</ele>
        <time>2019-05-24T11:27:40.080Z</time>
      </trkpt>
      <trkpt lat="45.15425" lon="5.77312">
        <ele>535</ele>
        <time>2019-05-24T11:27:41.080Z</time>
      </trkpt>
      <trkpt lat="45.15422" lon="5.77312">
        <ele>538</ele>
        <time>2019-05-24T11:27:42.080Z</time>
      </trkpt>
      <trkpt lat="45.1542" lon="5.77312">
        <ele>542</ele>
        <time>2019-05-24T11:27:43.080Z</time>
      </trkpt>
      <trkpt lat="45.15417" lon="5.77313">
        <ele>544</ele>
        <time>2019-05-24T11:27:44.080Z</time>
      </trkpt>
      <trkpt lat="45.15414" lon="5.77314">
        <ele>546</ele>
        <time>2019-05-24T11:27:45.080Z</time>
      </trkpt>
      <trkpt lat="45.15411" lon="5.77314">
        <ele>546</ele>
        <time>2019-05-24T11:27:46.080Z</time>
      </trkpt>
      <trkpt lat="45.15409" lon="5.77314">
        <ele>546</ele>
        <time>2019-05-24T11:27:47.080Z</time>
      </trkpt>
      <trkpt lat="45.15408" lon="5.77314">
        <ele>549</ele>
        <time>2019-05-24T11:27:48.080Z</time>
      </trkpt>
      <trkpt lat="45.15406" lon="5.77315">
        <ele>550</ele>
        <time>2019-05-24T11:27:49.080Z</time>
      </trkpt>
      <trkpt lat="45.15405" lon="5.77315">
        <ele>552</ele>
        <time>2019-05-24T11:27:50.080Z</time>
      </trkpt>
      <trkpt lat="45.15403" lon="5.77316">
        <ele>553</ele>
        <time>2019-05-24T11:27:51.080Z</time>
      </trkpt>
      <trkpt lat="45.154" lon="5.77317">
        <ele>553</ele>
        <time>2019-05-24T11:27:52.080Z</time>
      </trkpt>
      <trkpt lat="45.15398" lon="5.77317">
        <ele>554</ele>
        <time>2019-05-24T11:27:53.080Z</time>
      </trkpt>
      <trkpt lat="45.15396" lon="5.77318">
        <ele>557</ele>
        <time>2019-05-24T11:27:54.080Z</time>
      </trkpt>
      <trkpt lat="45.15394" lon="5.77318">
        <ele>560</ele>
        <time>2019-05-24T11:27:55.080Z</time>
      </trkpt>
      <trkpt lat="45.15391" lon="5.77318">
        <ele>561</ele>
        <time>2019-05-24T11:27:56.080Z</time>
      </trkpt>
      <trkpt lat="45.15389" lon="5.77319">
        <ele>560</ele>
        <time>2019-05-24T11:27:57.080Z</time>
      </trkpt>
      <trkpt lat="45.15387" lon="5.77319">
        <ele>560</ele>
        <time>2019-05-24T11:27:58.080Z</time>
      </trkpt>
      <trkpt lat="45.15384" lon="5.7732">
        <ele>560</ele>
        <time>2019-05-24T11:27:59.080Z</time>
      </trkpt>
      <trkpt lat="45.15383" lon="5.77322">
        <ele>560</ele>
        <time>2019-05-24T11:28:00.080Z</time>
      </trkpt>
      <trkpt lat="45.1538" lon="5.77324">
        <ele>561</ele>
        <time>2019-05-24T11:28:01.080Z</time>
      </trkpt>
      <trkpt lat="45.15378" lon="5.77325">
        <ele>562</ele>
        <time>2019-05-24T11:28:02.080Z</time>
      </trkpt>
      <trkpt lat="45.15375" lon="5.77326">
        <ele>562</ele>
        <time>2019-05-24T11:28:03.080Z</time>
      </trkpt>
      <trkpt lat="45.15372" lon="5.77326">
        <ele>561</ele>
        <time>2019-05-24T11:28:04.080Z</time>
      </trkpt>
      <trkpt lat="45.1537" lon="5.77326">
        <ele>560</ele>
        <time>2019-05-24T11:28:05.080Z</time>
      </trkpt>
      <trkpt lat="45.15367" lon="5.77326">
        <ele>559</ele>
        <time>2019-05-24T11:28:06.080Z</time>
      </trkpt>
      <trkpt lat="45.15365" lon="5.77327">
        <ele>558</ele>
        <time>2019-05-24T11:28:07.080Z</time>
      </trkpt>
      <trkpt lat="45.15363" lon="5.77329">
        <ele>559</ele>
        <time>2019-05-24T11:28:08.080Z</time>
      </trkpt>
      <trkpt lat="45.15362" lon="5.77331">
        <ele>559</ele>
        <time>2019-05-24T11:28:09.080Z</time>
      </trkpt>
      <trkpt lat="45.1536" lon="5.77332">
        <ele>559</ele>
        <time>2019-05-24T11:28:10.080Z</time>
      </trkpt>
      <trkpt lat="45.15358" lon="5.77333">
        <ele>560</ele>
        <time>2019-05-24T11:28:11.080Z</time>
      </trkpt>
      <trkpt lat="45.15356" lon="5.77333">
        <ele>562</ele>
        <time>2019-05-24T11:28:12.080Z</time>
      </trkpt>
      <trkpt lat="45.15354" lon="5.77334">
        <ele>563</ele>
        <time>2019-05-24T11:28:13.080Z</time>
      </trkpt>
      <trkpt lat="45.15353" lon="5.77335">
        <ele>564</ele>
        <time>2019-05-24T11:28:14.080Z</time>
      </trkpt>
      <trkpt lat="45.15351" lon="5.77336">
        <ele>570</ele>
        <time>2019-05-24T11:28:15.080Z</time>
      </trkpt>
      <trkpt lat="45.15349" lon="5.77337">
        <ele>573</ele>
        <time>2019-05-24T11:28:16.080Z</time>
      </trkpt>
      <trkpt lat="45.15348" lon="5.77338">
        <ele>576</ele>
        <time>2019-05-24T11:28:17.080Z</time>
      </trkpt>
      <trkpt lat="45.15346" lon="5.77339">
        <ele>577</ele>
        <time>2019-05-24T11:28:18.080Z</time>
      </trkpt>
      <trkpt lat="45.15344" lon="5.77339">
        <ele>575</ele>
        <time>2019-05-24T11:28:19.080Z</time>
      </trkpt>
      <trkpt lat="45.15341" lon="5.77339">
        <ele>574</ele>
        <time>2019-05-24T11:28:20.080Z</time>
      </trkpt>
      <trkpt lat="45.15339" lon="5.7734">
        <ele>574</ele>
        <time>2019-05-24T11:28:21.080Z</time>
      </trkpt>
      <trkpt lat="45.15337" lon="5.7734">
        <ele>574</ele>
        <time>2019-05-24T11:28:22.080Z</time>
      </trkpt>
      <trkpt lat="45.15335" lon="5.7734">
        <ele>574</ele>
        <time>2019-05-24T11:28:23.080Z</time>
      </trkpt>
      <trkpt lat="45.15333" lon="5.7734">
        <ele>574</ele>
        <time>2019-05-24T11:28:24.080Z</time>
      </trkpt>
      <trkpt lat="45.1533" lon="5.77341">
        <ele>574</ele>
        <time>2019-05-24T11:28:25.080Z</time>
      </trkpt>
      <trkpt lat="45.15327" lon="5.7734">
        <ele>573</ele>
        <time>2019-05-24T11:28:26.080Z</time>
      </trkpt>
      <trkpt lat="45.15325" lon="5.77339">
        <ele>572</ele>
        <time>2019-05-24T11:28:27.080Z</time>
      </trkpt>
      <trkpt lat="45.15322" lon="5.77339">
        <ele>569</ele>
        <time>2019-05-24T11:28:28.080Z</time>
      </trkpt>
      <trkpt lat="45.1532" lon="5.77339">
        <ele>568</ele>
        <time>2019-05-24T11:28:29.080Z</time>
      </trkpt>
      <trkpt lat="45.15318" lon="5.77339">
        <ele>567</ele>
        <time>2019-05-24T11:28:30.080Z</time>
      </trkpt>
      <trkpt lat="45.15315" lon="5.7734">
        <ele>568</ele>
        <time>2019-05-24T11:28:31.080Z</time>
      </trkpt>
      <trkpt lat="45.15313" lon="5.7734">
        <ele>569</ele>
        <time>2019-05-24T11:28:32.080Z</time>
      </trkpt>
      <trkpt lat="45.15311" lon="5.77341">
        <ele>570</ele>
        <time>2019-05-24T11:28:33.080Z</time>
      </trkpt>
      <trkpt lat="45.15308" lon="5.77341">
        <ele>569</ele>
        <time>2019-05-24T11:28:34.080Z</time>
      </trkpt>
      <trkpt lat="45.15305" lon="5.77341">
        <ele>569</ele>
        <time>2019-05-24T11:28:35.080Z</time>
      </trkpt>
      <trkpt lat="45.15303" lon="5.77342">
        <ele>569</ele>
        <time>2019-05-24T11:28:36.080Z</time>
      </trkpt>
      <trkpt lat="45.153" lon="5.77342">
        <ele>566</ele>
        <time>2019-05-24T11:28:37.080Z</time>
      </trkpt>
      <trkpt lat="45.15296" lon="5.77342">
        <ele>565</ele>
        <time>2019-05-24T11:28:38.080Z</time>
      </trkpt>
      <trkpt lat="45.15293" lon="5.77342">
        <ele>566</ele>
        <time>2019-05-24T11:28:39.080Z</time>
      </trkpt>
      <trkpt lat="45.1529" lon="5.77343">
        <ele>566</ele>
        <time>2019-05-24T11:28:40.080Z</time>
      </trkpt>
      <trkpt lat="45.15287" lon="5.77343">
        <ele>566</ele>
        <time>2019-05-24T11:28:41.080Z</time>
      </trkpt>
      <trkpt lat="45.15284" lon="5.77344">
        <ele>566</ele>
        <time>2019-05-24T11:28:42.080Z</time>
      </trkpt>
      <trkpt lat="45.1528" lon="5.77345">
        <ele>567</ele>
        <time>2019-05-24T11:28:43.080Z</time>
      </trkpt>
      <trkpt lat="45.15278" lon="5.77346">
        <ele>568</ele>
        <time>2019-05-24T11:28:44.080Z</time>
      </trkpt>
      <trkpt lat="45.15274" lon="5.77347">
        <ele>568</ele>
        <time>2019-05-24T11:28:45.080Z</time>
      </trkpt>
      <trkpt lat="45.15272" lon="5.77347">
        <ele>568</ele>
        <time>2019-05-24T11:28:46.080Z</time>
      </trkpt>
      <trkpt lat="45.15269" lon="5.77347">
        <ele>569</ele>
        <time>2019-05-24T11:28:47.080Z</time>
      </trkpt>
      <trkpt lat="45.15266" lon="5.77348">
        <ele>569</ele>
        <time>2019-05-24T11:28:48.080Z</time>
      </trkpt>
      <trkpt lat="45.15263" lon="5.77349">
        <ele>569</ele>
        <time>2019-05-24T11:28:49.080Z</time>
      </trkpt>
      <trkpt lat="45.15259" lon="5.77349">
        <ele>568</ele>
        <time>2019-05-24T11:28:50.080Z</time>
      </trkpt>
      <trkpt lat="45.15256" lon="5.7735">
        <ele>568</ele>
        <time>2019-05-24T11:28:51.080Z</time>
      </trkpt>
      <trkpt lat="45.15253" lon="5.77351">
        <ele>568</ele>
        <time>2019-05-24T11:28:52.080Z</time>
      </trkpt>
      <trkpt lat="45.15251" lon="5.77351">
        <ele>568</ele>
        <time>2019-05-24T11:28:53.080Z</time>
      </trkpt>
      <trkpt lat="45.15248" lon="5.77352">
        <ele>568</ele>
        <time>2019-05-24T11:28:54.080Z</time>
      </trkpt>
      <trkpt lat="45.15245" lon="5.77353">
        <ele>568</ele>
        <time>2019-05-24T11:28:55.080Z</time>
      </trkpt>
      <trkpt lat="45.15242" lon="5.77353">
        <ele>567</ele>
        <time>2019-05-24T11:28:56.080Z</time>
      </trkpt>
      <trkpt lat="45.15239" lon="5.77354">
        <ele>566</ele>
        <time>2019-05-24T11:28:57.080Z</time>
      </trkpt>
      <trkpt lat="45.15236" lon="5.77355">
        <ele>566</ele>
        <time>2019-05-24T11:28:58.080Z</time>
      </trkpt>
      <trkpt lat="45.15233" lon="5.77355">
        <ele>566</ele>
        <time>2019-05-24T11:28:59.080Z</time>
      </trkpt>
      <trkpt lat="45.15231" lon="5.77356">
        <ele>566</ele>
        <time>2019-05-24T11:29:00.080Z</time>
      </trkpt>
      <trkpt lat="45.15229" lon="5.77357">
        <ele>566</ele>
        <time>2019-05-24T11:29:01.080Z</time>
      </trkpt>
      <trkpt lat="45.15226" lon="5.77357">
        <ele>565</ele>
        <time>2019-05-24T11:29:02.080Z</time>
      </trkpt>
      <trkpt lat="45.15224" lon="5.77357">
        <ele>564</ele>
        <time>2019-05-24T11:29:03.080Z</time>
      </trkpt>
      <trkpt lat="45.15221" lon="5.77358">
        <ele>563</ele>
        <time>2019-05-24T11:29:04.080Z</time>
      </trkpt>
      <trkpt lat="45.15218" lon="5.77359">
        <ele>564</ele>
        <time>2019-05-24T11:29:05.080Z</time>
      </trkpt>
      <trkpt lat="45.15215" lon="5.77359">
        <ele>564</ele>
        <time>2019-05-24T11:29:06.080Z</time>
      </trkpt>
      <trkpt lat="45.15212" lon="5.7736">
        <ele>564</ele>
        <time>2019-05-24T11:29:07.080Z</time>
      </trkpt>
      <trkpt lat="45.15209" lon="5.77361">
        <ele>565</ele>
        <time>2019-05-24T11:29:08.080Z</time>
      </trkpt>
      <trkpt lat="45.15207" lon="5.77361">
        <ele>566</ele>
        <time>2019-05-24T11:29:09.080Z</time>
      </trkpt>
      <trkpt lat="45.15204" lon="5.77361">
        <ele>566</ele>
        <time>2019-05-24T11:29:10.080Z</time>
      </trkpt>
      <trkpt lat="45.15203" lon="5.77362">
        <ele>565</ele>
        <time>2019-05-24T11:29:11.080Z</time>
      </trkpt>
      <trkpt lat="45.152" lon="5.77363">
        <ele>563</ele>
        <time>2019-05-24T11:29:12.080Z</time>
      </trkpt>
      <trkpt lat="45.15198" lon="5.77364">
        <ele>559</ele>
        <time>2019-05-24T11:29:13.080Z</time>
      </trkpt>
      <trkpt lat="45.15195" lon="5.77365">
        <ele>560</ele>
        <time>2019-05-24T11:29:14.080Z</time>
      </trkpt>
      <trkpt lat="45.15192" lon="5.77367">
        <ele>561</ele>
        <time>2019-05-24T11:29:15.080Z</time>
      </trkpt>
      <trkpt lat="45.1519" lon="5.77368">
        <ele>561</ele>
        <time>2019-05-24T11:29:16.080Z</time>
      </trkpt>
      <trkpt lat="45.15188" lon="5.77369">
        <ele>562</ele>
        <time>2019-05-24T11:29:17.080Z</time>
      </trkpt>
      <trkpt lat="45.15186" lon="5.77371">
        <ele>562</ele>
        <time>2019-05-24T11:29:18.080Z</time>
      </trkpt>
      <trkpt lat="45.15184" lon="5.77373">
        <ele>560</ele>
        <time>2019-05-24T11:29:19.080Z</time>
      </trkpt>
      <trkpt lat="45.15181" lon="5.77375">
        <ele>560</ele>
        <time>2019-05-24T11:29:20.080Z</time>
      </trkpt>
      <trkpt lat="45.15179" lon="5.77377">
        <ele>560</ele>
        <time>2019-05-24T11:29:21.080Z</time>
      </trkpt>
      <trkpt lat="45.15176" lon="5.77379">
        <ele>561</ele>
        <time>2019-05-24T11:29:22.080Z</time>
      </trkpt>
      <trkpt lat="45.15173" lon="5.7738">
        <ele>563</ele>
        <time>2019-05-24T11:29:23.080Z</time>
      </trkpt>
      <trkpt lat="45.15171" lon="5.77382">
        <ele>563</ele>
        <time>2019-05-24T11:29:24.080Z</time>
      </trkpt>
      <trkpt lat="45.15167" lon="5.77384">
        <ele>564</ele>
        <time>2019-05-24T11:29:25.080Z</time>
      </trkpt>
      <trkpt lat="45.15165" lon="5.77385">
        <ele>565</ele>
        <time>2019-05-24T11:29:26.080Z</time>
      </trkpt>
      <trkpt lat="45.15163" lon="5.77388">
        <ele>566</ele>
        <time>2019-05-24T11:29:27.080Z</time>
      </trkpt>
      <trkpt lat="45.1516" lon="5.7739">
        <ele>570</ele>
        <time>2019-05-24T11:29:28.080Z</time>
      </trkpt>
      <trkpt lat="45.15158" lon="5.77393">
        <ele>569</ele>
        <time>2019-05-24T11:29:29.080Z</time>
      </trkpt>
      <trkpt lat="45.15156" lon="5.77396">
        <ele>569</ele>
        <time>2019-05-24T11:29:30.080Z</time>
      </trkpt>
      <trkpt lat="45.15154" lon="5.77399">
        <ele>568</ele>
        <time>2019-05-24T11:29:31.080Z</time>
      </trkpt>
      <trkpt lat="45.15152" lon="5.77401">
        <ele>568</ele>
        <time>2019-05-24T11:29:32.080Z</time>
      </trkpt>
      <trkpt lat="45.1515" lon="5.77403">
        <ele>569</ele>
        <time>2019-05-24T11:29:33.080Z</time>
      </trkpt>
      <trkpt lat="45.15149" lon="5.77405">
        <ele>571</ele>
        <time>2019-05-24T11:29:34.080Z</time>
      </trkpt>
      <trkpt lat="45.15149" lon="5.77409">
        <ele>572</ele>
        <time>2019-05-24T11:29:35.080Z</time>
      </trkpt>
      <trkpt lat="45.15147" lon="5.77412">
        <ele>573</ele>
        <time>2019-05-24T11:29:36.080Z</time>
      </trkpt>
      <trkpt lat="45.15146" lon="5.77414">
        <ele>576</ele>
        <time>2019-05-24T11:29:37.080Z</time>
      </trkpt>
      <trkpt lat="45.15145" lon="5.77416">
        <ele>577</ele>
        <time>2019-05-24T11:29:38.080Z</time>
      </trkpt>
      <trkpt lat="45.15144" lon="5.77418">
        <ele>577</ele>
        <time>2019-05-24T11:29:39.080Z</time>
      </trkpt>
      <trkpt lat="45.15143" lon="5.77419">
        <ele>577</ele>
        <time>2019-05-24T11:29:40.080Z</time>
      </trkpt>
      <trkpt lat="45.15141" lon="5.77421">
        <ele>571</ele>
        <time>2019-05-24T11:29:41.080Z</time>
      </trkpt>
      <trkpt lat="45.15139" lon="5.77422">
        <ele>566</ele>
        <time>2019-05-24T11:29:42.080Z</time>
      </trkpt>
      <trkpt lat="45.15136" lon="5.77424">
        <ele>566</ele>
        <time>2019-05-24T11:29:43.080Z</time>
      </trkpt>
      <trkpt lat="45.15134" lon="5.77426">
        <ele>567</ele>
        <time>2019-05-24T11:29:44.080Z</time>
      </trkpt>
      <trkpt lat="45.15132" lon="5.77429">
        <ele>568</ele>
        <time>2019-05-24T11:29:45.080Z</time>
      </trkpt>
      <trkpt lat="45.15129" lon="5.7743">
        <ele>569</ele>
        <time>2019-05-24T11:29:46.080Z</time>
      </trkpt>
      <trkpt lat="45.15126" lon="5.77432">
        <ele>570</ele>
        <time>2019-05-24T11:29:47.080Z</time>
      </trkpt>
      <trkpt lat="45.15124" lon="5.77434">
        <ele>572</ele>
        <time>2019-05-24T11:29:48.080Z</time>
      </trkpt>
      <trkpt lat="45.15121" lon="5.77436">
        <ele>571</ele>
        <time>2019-05-24T11:29:49.080Z</time>
      </trkpt>
      <trkpt lat="45.15119" lon="5.77439">
        <ele>568</ele>
        <time>2019-05-24T11:29:50.080Z</time>
      </trkpt>
      <trkpt lat="45.15116" lon="5.77441">
        <ele>567</ele>
        <time>2019-05-24T11:29:51.080Z</time>
      </trkpt>
      <trkpt lat="45.15114" lon="5.77443">
        <ele>566</ele>
        <time>2019-05-24T11:29:52.080Z</time>
      </trkpt>
      <trkpt lat="45.1511" lon="5.77445">
        <ele>567</ele>
        <time>2019-05-24T11:29:53.080Z</time>
      </trkpt>
      <trkpt lat="45.15107" lon="5.77447">
        <ele>567</ele>
        <time>2019-05-24T11:29:54.080Z</time>
      </trkpt>
      <trkpt lat="45.15104" lon="5.7745">
        <ele>568</ele>
        <time>2019-05-24T11:29:55.080Z</time>
      </trkpt>
      <trkpt lat="45.15102" lon="5.77451">
        <ele>566</ele>
        <time>2019-05-24T11:29:56.080Z</time>
      </trkpt>
      <trkpt lat="45.151" lon="5.77454">
        <ele>565</ele>
        <time>2019-05-24T11:29:57.080Z</time>
      </trkpt>
      <trkpt lat="45.15097" lon="5.77457">
        <ele>564</ele>
        <time>2019-05-24T11:29:58.080Z</time>
      </trkpt>
      <trkpt lat="45.15093" lon="5.7746">
        <ele>565</ele>
        <time>2019-05-24T11:29:59.080Z</time>
      </trkpt>
      <trkpt lat="45.15091" lon="5.77462">
        <ele>566</ele>
        <time>2019-05-24T11:30:00.080Z</time>
      </trkpt>
      <trkpt lat="45.15089" lon="5.77465">
        <ele>566</ele>
        <time>2019-05-24T11:30:01.080Z</time>
      </trkpt>
      <trkpt lat="45.15087" lon="5.77467">
        <ele>566</ele>
        <time>2019-05-24T11:30:02.080Z</time>
      </trkpt>
      <trkpt lat="45.15084" lon="5.77469">
        <ele>565</ele>
        <time>2019-05-24T11:30:03.080Z</time>
      </trkpt>
      <trkpt lat="45.15081" lon="5.77472">
        <ele>562</ele>
        <time>2019-05-24T11:30:04.080Z</time>
      </trkpt>
      <trkpt lat="45.15078" lon="5.77475">
        <ele>561</ele>
        <time>2019-05-24T11:30:05.080Z</time>
      </trkpt>
      <trkpt lat="45.15075" lon="5.77477">
        <ele>560</ele>
        <time>2019-05-24T11:30:06.080Z</time>
      </trkpt>
      <trkpt lat="45.15073" lon="5.7748">
        <ele>561</ele>
        <time>2019-05-24T11:30:07.080Z</time>
      </trkpt>
      <trkpt lat="45.15071" lon="5.77482">
        <ele>562</ele>
        <time>2019-05-24T11:30:08.080Z</time>
      </trkpt>
      <trkpt lat="45.15069" lon="5.77485">
        <ele>562</ele>
        <time>2019-05-24T11:30:09.080Z</time>
      </trkpt>
      <trkpt lat="45.15067" lon="5.77487">
        <ele>563</ele>
        <time>2019-05-24T11:30:10.080Z</time>
      </trkpt>
      <trkpt lat="45.15065" lon="5.7749">
        <ele>563</ele>
        <time>2019-05-24T11:30:11.080Z</time>
      </trkpt>
      <trkpt lat="45.15063" lon="5.77493">
        <ele>561</ele>
        <time>2019-05-24T11:30:12.080Z</time>
      </trkpt>
      <trkpt lat="45.1506" lon="5.77495">
        <ele>562</ele>
        <time>2019-05-24T11:30:13.080Z</time>
      </trkpt>
      <trkpt lat="45.15058" lon="5.77498">
        <ele>562</ele>
        <time>2019-05-24T11:30:14.080Z</time>
      </trkpt>
      <trkpt lat="45.15056" lon="5.77501">
        <ele>562</ele>
        <time>2019-05-24T11:30:15.080Z</time>
      </trkpt>
      <trkpt lat="45.15054" lon="5.77503">
        <ele>561</ele>
        <time>2019-05-24T11:30:16.080Z</time>
      </trkpt>
      <trkpt lat="45.15051" lon="5.77507">
        <ele>562</ele>
        <time>2019-05-24T11:30:17.080Z</time>
      </trkpt>
      <trkpt lat="45.15049" lon="5.7751">
        <ele>562</ele>
        <time>2019-05-24T11:30:18.080Z</time>
      </trkpt>
      <trkpt lat="45.15047" lon="5.77513">
        <ele>563</ele>
        <time>2019-05-24T11:30:19.080Z</time>
      </trkpt>
      <trkpt lat="45.15045" lon="5.77516">
        <ele>562</ele>
        <time>2019-05-24T11:30:20.080Z</time>
      </trkpt>
      <trkpt lat="45.15042" lon="5.7752">
        <ele>562</ele>
        <time>2019-05-24T11:30:21.080Z</time>
      </trkpt>
      <trkpt lat="45.15039" lon="5.77523">
        <ele>565</ele>
        <time>2019-05-24T11:30:22.080Z</time>
      </trkpt>
      <trkpt lat="45.15037" lon="5.77525">
        <ele>566</ele>
        <time>2019-05-24T11:30:23.080Z</time>
      </trkpt>
      <trkpt lat="45.15033" lon="5.77528">
        <ele>566</ele>
        <time>2019-05-24T11:30:24.080Z</time>
      </trkpt>
      <trkpt lat="45.1503" lon="5.77532">
        <ele>566</ele>
        <time>2019-05-24T11:30:25.080Z</time>
      </trkpt>
      <trkpt lat="45.15028" lon="5.77535">
        <ele>566</ele>
        <time>2019-05-24T11:30:26.080Z</time>
      </trkpt>
      <trkpt lat="45.15027" lon="5.77538">
        <ele>565</ele>
        <time>2019-05-24T11:30:27.080Z</time>
      </trkpt>
      <trkpt lat="45.15025" lon="5.77542">
        <ele>565</ele>
        <time>2019-05-24T11:30:28.080Z</time>
      </trkpt>
      <trkpt lat="45.15024" lon="5.77545">
        <ele>566</ele>
        <time>2019-05-24T11:30:29.080Z</time>
      </trkpt>
      <trkpt lat="45.15022" lon="5.77548">
        <ele>568</ele>
        <time>2019-05-24T11:30:30.080Z</time>
      </trkpt>
      <trkpt lat="45.1502" lon="5.77552">
        <ele>569</ele>
        <time>2019-05-24T11:30:31.080Z</time>
      </trkpt>
      <trkpt lat="45.15018" lon="5.77556">
        <ele>569</ele>
        <time>2019-05-24T11:30:32.080Z</time>
      </trkpt>
      <trkpt lat="45.15016" lon="5.77559">
        <ele>568</ele>
        <time>2019-05-24T11:30:33.080Z</time>
      </trkpt>
      <trkpt lat="45.15014" lon="5.77563">
        <ele>569</ele>
        <time>2019-05-24T11:30:34.080Z</time>
      </trkpt>
      <trkpt lat="45.15013" lon="5.77566">
        <ele>569</ele>
        <time>2019-05-24T11:30:35.080Z</time>
      </trkpt>
      <trkpt lat="45.15012" lon="5.7757">
        <ele>570</ele>
        <time>2019-05-24T11:30:36.080Z</time>
      </trkpt>
      <trkpt lat="45.15011" lon="5.77573">
        <ele>566</ele>
        <time>2019-05-24T11:30:37.080Z</time>
      </trkpt>
      <trkpt lat="45.15011" lon="5.77577">
        <ele>567</ele>
        <time>2019-05-24T11:30:38.080Z</time>
      </trkpt>
      <trkpt lat="45.1501" lon="5.7758">
        <ele>569</ele>
        <time>2019-05-24T11:30:39.080Z</time>
      </trkpt>
      <trkpt lat="45.15009" lon="5.77584">
        <ele>570</ele>
        <time>2019-05-24T11:30:40.080Z</time>
      </trkpt>
      <trkpt lat="45.15007" lon="5.77588">
        <ele>570</ele>
        <time>2019-05-24T11:30:41.080Z</time>
      </trkpt>
      <trkpt lat="45.15006" lon="5.77591">
        <ele>570</ele>
        <time>2019-05-24T11:30:42.080Z</time>
      </trkpt>
      <trkpt lat="45.15004" lon="5.77595">
        <ele>570</ele>
        <time>2019-05-24T11:30:43.080Z</time>
      </trkpt>
      <trkpt lat="45.15002" lon="5.77598">
        <ele>570</ele>
        <time>2019-05-24T11:30:44.080Z</time>
      </trkpt>
      <trkpt lat="45.15001" lon="5.77601">
        <ele>569</ele>
        <time>2019-05-24T11:30:45.080Z</time>
      </trkpt>
      <trkpt lat="45.14999" lon="5.77604">
        <ele>567</ele>
        <time>2019-05-24T11:30:46.080Z</time>
      </trkpt>
      <trkpt lat="45.14998" lon="5.77607">
        <ele>568</ele>
        <time>2019-05-24T11:30:47.080Z</time>
      </trkpt>
      <trkpt lat="45.14996" lon="5.7761">
        <ele>567</ele>
        <time>2019-05-24T11:30:48.080Z</time>
      </trkpt>
      <trkpt lat="45.14993" lon="5.77613">
        <ele>565</ele>
        <time>2019-05-24T11:30:49.080Z</time>
      </trkpt>
      <trkpt lat="45.14991" lon="5.77615">
        <ele>564</ele>
        <time>2019-05-24T11:30:50.080Z</time>
      </trkpt>
      <trkpt lat="45.14988" lon="5.77617">
        <ele>563</ele>
        <time>2019-05-24T11:30:51.080Z</time>
      </trkpt>
      <trkpt lat="45.14986" lon="5.7762">
        <ele>564</ele>
        <time>2019-05-24T11:30:52.080Z</time>
      </trkpt>
      <trkpt lat="45.14983" lon="5.77621">
        <ele>564</ele>
        <time>2019-05-24T11:30:53.080Z</time>
      </trkpt>
      <trkpt lat="45.14981" lon="5.77623">
        <ele>564</ele>
        <time>2019-05-24T11:30:54.080Z</time>
      </trkpt>
      <trkpt lat="45.14978" lon="5.77625">
        <ele>563</ele>
        <time>2019-05-24T11:30:55.080Z</time>
      </trkpt>
      <trkpt lat="45.14976" lon="5.77627">
        <ele>564</ele>
        <time>2019-05-24T11:30:56.080Z</time>
      </trkpt>
      <trkpt lat="45.14974" lon="5.77629">
        <ele>564</ele>
        <time>2019-05-24T11:30:57.080Z</time>
      </trkpt>
      <trkpt lat="45.14972" lon="5.77631">
        <ele>564</ele>
        <time>2019-05-24T11:30:58.080Z</time>
      </trkpt>
      <trkpt lat="45.14969" lon="5.77633">
        <ele>564</ele>
        <time>2019-05-24T11:30:59.080Z</time>
      </trkpt>
      <trkpt lat="45.14967" lon="5.77636">
        <ele>564</ele>
        <time>2019-05-24T11:31:00.080Z</time>
      </trkpt>
      <trkpt lat="45.14966" lon="5.77638">
        <ele>565</ele>
        <time>2019-05-24T11:31:01.080Z</time>
      </trkpt>
      <trkpt lat="45.14964" lon="5.7764">
        <ele>565</ele>
        <time>2019-05-24T11:31:02.080Z</time>
      </trkpt>
      <trkpt lat="45.14961" lon="5.77642">
        <ele>564</ele>
        <time>2019-05-24T11:31:03.080Z</time>
      </trkpt>
      <trkpt lat="45.14958" lon="5.77645">
        <ele>560</ele>
        <time>2019-05-24T11:31:04.080Z</time>
      </trkpt>
      <trkpt lat="45.14956" lon="5.77647">
        <ele>558</ele>
        <time>2019-05-24T11:31:05.080Z</time>
      </trkpt>
      <trkpt lat="45.14953" lon="5.7765">
        <ele>558</ele>
        <time>2019-05-24T11:31:06.080Z</time>
      </trkpt>
      <trkpt lat="45.14951" lon="5.77653">
        <ele>559</ele>
        <time>2019-05-24T11:31:07.080Z</time>
      </trkpt>
      <trkpt lat="45.14949" lon="5.77655">
        <ele>559</ele>
        <time>2019-05-24T11:31:08.080Z</time>
      </trkpt>
      <trkpt lat="45.14947" lon="5.77658">
        <ele>560</ele>
        <time>2019-05-24T11:31:09.080Z</time>
      </trkpt>
      <trkpt lat="45.14945" lon="5.77661">
        <ele>562</ele>
        <time>2019-05-24T11:31:10.080Z</time>
      </trkpt>
      <trkpt lat="45.14945" lon="5.77664">
        <ele>563</ele>
        <time>2019-05-24T11:31:11.080Z</time>
      </trkpt>
      <trkpt lat="45.14945" lon="5.77668">
        <ele>564</ele>
        <time>2019-05-24T11:31:12.080Z</time>
      </trkpt>
      <trkpt lat="45.14945" lon="5.7767">
        <ele>568</ele>
        <time>2019-05-24T11:31:13.080Z</time>
      </trkpt>
      <trkpt lat="45.14944" lon="5.77673">
        <ele>574</ele>
        <time>2019-05-24T11:31:14.080Z</time>
      </trkpt>
      <trkpt lat="45.14943" lon="5.77676">
        <ele>573</ele>
        <time>2019-05-24T11:31:15.080Z</time>
      </trkpt>
      <trkpt lat="45.14942" lon="5.77678">
        <ele>574</ele>
        <time>2019-05-24T11:31:16.080Z</time>
      </trkpt>
      <trkpt lat="45.14942" lon="5.7768">
        <ele>575</ele>
        <time>2019-05-24T11:31:17.080Z</time>
      </trkpt>
      <trkpt lat="45.14941" lon="5.77682">
        <ele>574</ele>
        <time>2019-05-24T11:31:18.080Z</time>
      </trkpt>
      <trkpt lat="45.14939" lon="5.77683">
        <ele>573</ele>
        <time>2019-05-24T11:31:19.080Z</time>
      </trkpt>
      <trkpt lat="45.14937" lon="5.77683">
        <ele>575</ele>
        <time>2019-05-24T11:31:20.080Z</time>
      </trkpt>
      <trkpt lat="45.14934" lon="5.77684">
        <ele>575</ele>
        <time>2019-05-24T11:31:21.080Z</time>
      </trkpt>
      <trkpt lat="45.14932" lon="5.77684">
        <ele>575</ele>
        <time>2019-05-24T11:31:22.080Z</time>
      </trkpt>
      <trkpt lat="45.14929" lon="5.77683">
        <ele>575</ele>
        <time>2019-05-24T11:31:23.080Z</time>
      </trkpt>
      <trkpt lat="45.14926" lon="5.77681">
        <ele>573</ele>
        <time>2019-05-24T11:31:24.080Z</time>
      </trkpt>
      <trkpt lat="45.14923" lon="5.77679">
        <ele>572</ele>
        <time>2019-05-24T11:31:25.080Z</time>
      </trkpt>
      <trkpt lat="45.1492" lon="5.77677">
        <ele>571</ele>
        <time>2019-05-24T11:31:26.080Z</time>
      </trkpt>
      <trkpt lat="45.14917" lon="5.77675">
        <ele>570</ele>
        <time>2019-05-24T11:31:27.080Z</time>
      </trkpt>
      <trkpt lat="45.14915" lon="5.77673">
        <ele>571</ele>
        <time>2019-05-24T11:31:28.080Z</time>
      </trkpt>
      <trkpt lat="45.14912" lon="5.7767">
        <ele>568</ele>
        <time>2019-05-24T11:31:29.080Z</time>
      </trkpt>
      <trkpt lat="45.1491" lon="5.77666">
        <ele>566</ele>
        <time>2019-05-24T11:31:30.080Z</time>
      </trkpt>
      <trkpt lat="45.14907" lon="5.77663">
        <ele>564</ele>
        <time>2019-05-24T11:31:31.080Z</time>
      </trkpt>
      <trkpt lat="45.14905" lon="5.77659">
        <ele>562</ele>
        <time>2019-05-24T11:31:32.080Z</time>
      </trkpt>
      <trkpt lat="45.14903" lon="5.77656">
        <ele>560</ele>
        <time>2019-05-24T11:31:33.080Z</time>
      </trkpt>
      <trkpt lat="45.149" lon="5.77652">
        <ele>559</ele>
        <time>2019-05-24T11:31:34.080Z</time>
      </trkpt>
      <trkpt lat="45.14897" lon="5.7765">
        <ele>558</ele>
        <time>2019-05-24T11:31:35.080Z</time>
      </trkpt>
      <trkpt lat="45.14895" lon="5.77647">
        <ele>555</ele>
        <time>2019-05-24T11:31:36.080Z</time>
      </trkpt>
      <trkpt lat="45.14892" lon="5.77644">
        <ele>554</ele>
        <time>2019-05-24T11:31:37.080Z</time>
      </trkpt>
      <trkpt lat="45.1489" lon="5.77641">
        <ele>553</ele>
        <time>2019-05-24T11:31:38.080Z</time>
      </trkpt>
      <trkpt lat="45.14888" lon="5.77638">
        <ele>550</ele>
        <time>2019-05-24T11:31:39.080Z</time>
      </trkpt>
      <trkpt lat="45.14887" lon="5.77634">
        <ele>550</ele>
        <time>2019-05-24T11:31:40.080Z</time>
      </trkpt>
      <trkpt lat="45.14884" lon="5.77632">
        <ele>550</ele>
        <time>2019-05-24T11:31:41.080Z</time>
      </trkpt>
      <trkpt lat="45.14882" lon="5.77629">
        <ele>551</ele>
        <time>2019-05-24T11:31:42.080Z</time>
      </trkpt>
      <trkpt lat="45.1488" lon="5.77626">
        <ele>551</ele>
        <time>2019-05-24T11:31:43.080Z</time>
      </trkpt>
      <trkpt lat="45.14878" lon="5.77622">
        <ele>551</ele>
        <time>2019-05-24T11:31:44.080Z</time>
      </trkpt>
      <trkpt lat="45.14877" lon="5.77619">
        <ele>552</ele>
        <time>2019-05-24T11:31:45.080Z</time>
      </trkpt>
      <trkpt lat="45.14875" lon="5.77616">
        <ele>552</ele>
        <time>2019-05-24T11:31:46.080Z</time>
      </trkpt>
      <trkpt lat="45.14873" lon="5.77613">
        <ele>553</ele>
        <time>2019-05-24T11:31:47.080Z</time>
      </trkpt>
      <trkpt lat="45.14871" lon="5.7761">
        <ele>553</ele>
        <time>2019-05-24T11:31:48.080Z</time>
      </trkpt>
      <trkpt lat="45.14869" lon="5.77607">
        <ele>554</ele>
        <time>2019-05-24T11:31:49.080Z</time>
      </trkpt>
      <trkpt lat="45.14867" lon="5.77604">
        <ele>553</ele>
        <time>2019-05-24T11:31:50.080Z</time>
      </trkpt>
      <trkpt lat="45.14865" lon="5.77601">
        <ele>554</ele>
        <time>2019-05-24T11:31:51.080Z</time>
      </trkpt>
      <trkpt lat="45.14864" lon="5.77599">
        <ele>555</ele>
        <time>2019-05-24T11:31:52.080Z</time>
      </trkpt>
      <trkpt lat="45.14862" lon="5.77596">
        <ele>554</ele>
        <time>2019-05-24T11:31:53.080Z</time>
      </trkpt>
      <trkpt lat="45.1486" lon="5.77593">
        <ele>554</ele>
        <time>2019-05-24T11:31:54.080Z</time>
      </trkpt>
      <trkpt lat="45.14858" lon="5.77591">
        <ele>553</ele>
        <time>2019-05-24T11:31:55.080Z</time>
      </trkpt>
      <trkpt lat="45.14857" lon="5.77588">
        <ele>553</ele>
        <time>2019-05-24T11:31:56.080Z</time>
      </trkpt>
      <trkpt lat="45.14855" lon="5.77585">
        <ele>553</ele>
        <time>2019-05-24T11:31:57.080Z</time>
      </trkpt>
      <trkpt lat="45.14853" lon="5.77581">
        <ele>553</ele>
        <time>2019-05-24T11:31:58.080Z</time>
      </trkpt>
      <trkpt lat="45.14851" lon="5.77578">
        <ele>553</ele>
        <time>2019-05-24T11:31:59.080Z</time>
      </trkpt>
      <trkpt lat="45.14849" lon="5.77576">
        <ele>552</ele>
        <time>2019-05-24T11:32:00.080Z</time>
      </trkpt>
      <trkpt lat="45.14848" lon="5.77573">
        <ele>550</ele>
        <time>2019-05-24T11:32:01.080Z</time>
      </trkpt>
      <trkpt lat="45.14846" lon="5.77569">
        <ele>550</ele>
        <time>2019-05-24T11:32:02.080Z</time>
      </trkpt>
      <trkpt lat="45.14845" lon="5.77567">
        <ele>549</ele>
        <time>2019-05-24T11:32:03.080Z</time>
      </trkpt>
      <trkpt lat="45.14844" lon="5.77565">
        <ele>549</ele>
        <time>2019-05-24T11:32:04.080Z</time>
      </trkpt>
      <trkpt lat="45.14843" lon="5.77563">
        <ele>550</ele>
        <time>2019-05-24T11:32:05.080Z</time>
      </trkpt>
      <trkpt lat="45.14843" lon="5.77562">
        <ele>549</ele>
        <time>2019-05-24T11:32:06.080Z</time>
      </trkpt>
      <trkpt lat="45.14842" lon="5.77561">
        <ele>549</ele>
        <time>2019-05-24T11:32:07.080Z</time>
      </trkpt>
      <trkpt lat="45.14841" lon="5.77559">
        <ele>548</ele>
        <time>2019-05-24T11:32:08.080Z</time>
      </trkpt>
      <trkpt lat="45.1484" lon="5.77556">
        <ele>549</ele>
        <time>2019-05-24T11:32:09.080Z</time>
      </trkpt>
      <trkpt lat="45.14838" lon="5.77554">
        <ele>549</ele>
        <time>2019-05-24T11:32:10.080Z</time>
      </trkpt>
      <trkpt lat="45.14837" lon="5.77551">
        <ele>548</ele>
        <time>2019-05-24T11:32:11.080Z</time>
      </trkpt>
      <trkpt lat="45.14835" lon="5.77548">
        <ele>547</ele>
        <time>2019-05-24T11:32:12.080Z</time>
      </trkpt>
      <trkpt lat="45.14835" lon="5.77545">
        <ele>546</ele>
        <time>2019-05-24T11:32:13.080Z</time>
      </trkpt>
      <trkpt lat="45.14834" lon="5.77543">
        <ele>538</ele>
        <time>2019-05-24T11:32:14.080Z</time>
      </trkpt>
      <trkpt lat="45.14833" lon="5.77541">
        <ele>538</ele>
        <time>2019-05-24T11:32:15.080Z</time>
      </trkpt>
      <trkpt lat="45.14832" lon="5.77538">
        <ele>538</ele>
        <time>2019-05-24T11:32:16.080Z</time>
      </trkpt>
      <trkpt lat="45.1483" lon="5.77537">
        <ele>538</ele>
        <time>2019-05-24T11:32:17.080Z</time>
      </trkpt>
      <trkpt lat="45.14828" lon="5.77534">
        <ele>538</ele>
        <time>2019-05-24T11:32:18.080Z</time>
      </trkpt>
      <trkpt lat="45.14827" lon="5.77531">
        <ele>540</ele>
        <time>2019-05-24T11:32:19.080Z</time>
      </trkpt>
      <trkpt lat="45.14825" lon="5.77528">
        <ele>540</ele>
        <time>2019-05-24T11:32:20.080Z</time>
      </trkpt>
      <trkpt lat="45.14824" lon="5.77525">
        <ele>541</ele>
        <time>2019-05-24T11:32:21.080Z</time>
      </trkpt>
      <trkpt lat="45.14822" lon="5.77522">
        <ele>540</ele>
        <time>2019-05-24T11:32:22.080Z</time>
      </trkpt>
      <trkpt lat="45.1482" lon="5.77518">
        <ele>541</ele>
        <time>2019-05-24T11:32:23.080Z</time>
      </trkpt>
      <trkpt lat="45.14819" lon="5.77515">
        <ele>542</ele>
        <time>2019-05-24T11:32:24.080Z</time>
      </trkpt>
      <trkpt lat="45.14817" lon="5.77511">
        <ele>542</ele>
        <time>2019-05-24T11:32:25.080Z</time>
      </trkpt>
      <trkpt lat="45.14815" lon="5.77508">
        <ele>542</ele>
        <time>2019-05-24T11:32:26.080Z</time>
      </trkpt>
      <trkpt lat="45.14814" lon="5.77504">
        <ele>541</ele>
        <time>2019-05-24T11:32:27.080Z</time>
      </trkpt>
      <trkpt lat="45.14813" lon="5.775">
        <ele>540</ele>
        <time>2019-05-24T11:32:28.080Z</time>
      </trkpt>
      <trkpt lat="45.14813" lon="5.77497">
        <ele>539</ele>
        <time>2019-05-24T11:32:29.080Z</time>
      </trkpt>
      <trkpt lat="45.14812" lon="5.77492">
        <ele>539</ele>
        <time>2019-05-24T11:32:30.080Z</time>
      </trkpt>
      <trkpt lat="45.1481" lon="5.77489">
        <ele>540</ele>
        <time>2019-05-24T11:32:31.080Z</time>
      </trkpt>
      <trkpt lat="45.14808" lon="5.77485">
        <ele>540</ele>
        <time>2019-05-24T11:32:32.080Z</time>
      </trkpt>
      <trkpt lat="45.14806" lon="5.77481">
        <ele>541</ele>
        <time>2019-05-24T11:32:33.080Z</time>
      </trkpt>
      <trkpt lat="45.14805" lon="5.77478">
        <ele>538</ele>
        <time>2019-05-24T11:32:34.080Z</time>
      </trkpt>
      <trkpt lat="45.14804" lon="5.77475">
        <ele>537</ele>
        <time>2019-05-24T11:32:35.080Z</time>
      </trkpt>
      <trkpt lat="45.14802" lon="5.77471">
        <ele>537</ele>
        <time>2019-05-24T11:32:36.080Z</time>
      </trkpt>
      <trkpt lat="45.148" lon="5.77468">
        <ele>538</ele>
        <time>2019-05-24T11:32:37.080Z</time>
      </trkpt>
      <trkpt lat="45.14798" lon="5.77464">
        <ele>539</ele>
        <time>2019-05-24T11:32:38.080Z</time>
      </trkpt>
      <trkpt lat="45.14796" lon="5.77461">
        <ele>539</ele>
        <time>2019-05-24T11:32:39.080Z</time>
      </trkpt>
      <trkpt lat="45.14794" lon="5.77457">
        <ele>539</ele>
        <time>2019-05-24T11:32:40.080Z</time>
      </trkpt>
      <trkpt lat="45.14793" lon="5.77453">
        <ele>540</ele>
        <time>2019-05-24T11:32:41.080Z</time>
      </trkpt>
      <trkpt lat="45.14791" lon="5.7745">
        <ele>540</ele>
        <time>2019-05-24T11:32:42.080Z</time>
      </trkpt>
      <trkpt lat="45.14789" lon="5.77446">
        <ele>540</ele>
        <time>2019-05-24T11:32:43.080Z</time>
      </trkpt>
      <trkpt lat="45.14787" lon="5.77443">
        <ele>540</ele>
        <time>2019-05-24T11:32:44.080Z</time>
      </trkpt>
      <trkpt lat="45.14786" lon="5.77439">
        <ele>538</ele>
        <time>2019-05-24T11:32:45.080Z</time>
      </trkpt>
      <trkpt lat="45.14784" lon="5.77435">
        <ele>538</ele>
        <time>2019-05-24T11:32:46.080Z</time>
      </trkpt>
      <trkpt lat="45.14782" lon="5.77431">
        <ele>537</ele>
        <time>2019-05-24T11:32:47.080Z</time>
      </trkpt>
      <trkpt lat="45.1478" lon="5.77428">
        <ele>535</ele>
        <time>2019-05-24T11:32:48.080Z</time>
      </trkpt>
      <trkpt lat="45.14779" lon="5.77424">
        <ele>531</ele>
        <time>2019-05-24T11:32:49.080Z</time>
      </trkpt>
      <trkpt lat="45.14777" lon="5.77421">
        <ele>530</ele>
        <time>2019-05-24T11:32:50.080Z</time>
      </trkpt>
      <trkpt lat="45.14776" lon="5.77417">
        <ele>529</ele>
        <time>2019-05-24T11:32:51.080Z</time>
      </trkpt>
      <trkpt lat="45.14774" lon="5.77413">
        <ele>529</ele>
        <time>2019-05-24T11:32:52.080Z</time>
      </trkpt>
      <trkpt lat="45.14772" lon="5.77409">
        <ele>530</ele>
        <time>2019-05-24T11:32:53.080Z</time>
      </trkpt>
      <trkpt lat="45.14772" lon="5.77406">
        <ele>529</ele>
        <time>2019-05-24T11:32:54.080Z</time>
      </trkpt>
      <trkpt lat="45.14771" lon="5.77402">
        <ele>528</ele>
        <time>2019-05-24T11:32:55.080Z</time>
      </trkpt>
      <trkpt lat="45.14772" lon="5.77398">
        <ele>527</ele>
        <time>2019-05-24T11:32:56.080Z</time>
      </trkpt>
      <trkpt lat="45.14772" lon="5.77394">
        <ele>526</ele>
        <time>2019-05-24T11:32:57.080Z</time>
      </trkpt>
      <trkpt lat="45.14773" lon="5.77391">
        <ele>525</ele>
        <time>2019-05-24T11:32:58.080Z</time>
      </trkpt>
      <trkpt lat="45.14773" lon="5.77389">
        <ele>523</ele>
        <time>2019-05-24T11:32:59.080Z</time>
      </trkpt>
      <trkpt lat="45.14774" lon="5.77384">
        <ele>522</ele>
        <time>2019-05-24T11:33:00.080Z</time>
      </trkpt>
      <trkpt lat="45.14775" lon="5.77381">
        <ele>521</ele>
        <time>2019-05-24T11:33:01.080Z</time>
      </trkpt>
      <trkpt lat="45.14777" lon="5.77376">
        <ele>520</ele>
        <time>2019-05-24T11:33:02.080Z</time>
      </trkpt>
      <trkpt lat="45.14779" lon="5.77371">
        <ele>514</ele>
        <time>2019-05-24T11:33:03.080Z</time>
      </trkpt>
      <trkpt lat="45.14781" lon="5.77367">
        <ele>513</ele>
        <time>2019-05-24T11:33:04.080Z</time>
      </trkpt>
      <trkpt lat="45.14783" lon="5.77364">
        <ele>514</ele>
        <time>2019-05-24T11:33:05.080Z</time>
      </trkpt>
      <trkpt lat="45.14786" lon="5.77359">
        <ele>512</ele>
        <time>2019-05-24T11:33:06.080Z</time>
      </trkpt>
      <trkpt lat="45.14788" lon="5.77355">
        <ele>511</ele>
        <time>2019-05-24T11:33:07.080Z</time>
      </trkpt>
      <trkpt lat="45.1479" lon="5.77352">
        <ele>511</ele>
        <time>2019-05-24T11:33:08.080Z</time>
      </trkpt>
      <trkpt lat="45.14792" lon="5.77348">
        <ele>512</ele>
        <time>2019-05-24T11:33:09.080Z</time>
      </trkpt>
      <trkpt lat="45.14794" lon="5.77345">
        <ele>511</ele>
        <time>2019-05-24T11:33:10.080Z</time>
      </trkpt>
      <trkpt lat="45.14795" lon="5.77341">
        <ele>511</ele>
        <time>2019-05-24T11:33:11.080Z</time>
      </trkpt>
      <trkpt lat="45.14797" lon="5.77338">
        <ele>510</ele>
        <time>2019-05-24T11:33:12.080Z</time>
      </trkpt>
      <trkpt lat="45.14798" lon="5.77334">
        <ele>510</ele>
        <time>2019-05-24T11:33:13.080Z</time>
      </trkpt>
      <trkpt lat="45.148" lon="5.7733">
        <ele>509</ele>
        <time>2019-05-24T11:33:14.080Z</time>
      </trkpt>
      <trkpt lat="45.14801" lon="5.77325">
        <ele>509</ele>
        <time>2019-05-24T11:33:15.080Z</time>
      </trkpt>
      <trkpt lat="45.14803" lon="5.77321">
        <ele>514</ele>
        <time>2019-05-24T11:33:16.080Z</time>
      </trkpt>
      <trkpt lat="45.14804" lon="5.77317">
        <ele>516</ele>
        <time>2019-05-24T11:33:17.080Z</time>
      </trkpt>
      <trkpt lat="45.14805" lon="5.77312">
        <ele>517</ele>
        <time>2019-05-24T11:33:18.080Z</time>
      </trkpt>
      <trkpt lat="45.14807" lon="5.77308">
        <ele>518</ele>
        <time>2019-05-24T11:33:19.080Z</time>
      </trkpt>
      <trkpt lat="45.14809" lon="5.77304">
        <ele>516</ele>
        <time>2019-05-24T11:33:20.080Z</time>
      </trkpt>
      <trkpt lat="45.14811" lon="5.773">
        <ele>510</ele>
        <time>2019-05-24T11:33:21.080Z</time>
      </trkpt>
      <trkpt lat="45.14813" lon="5.77296">
        <ele>507</ele>
        <time>2019-05-24T11:33:22.080Z</time>
      </trkpt>
      <trkpt lat="45.14815" lon="5.77292">
        <ele>507</ele>
        <time>2019-05-24T11:33:23.080Z</time>
      </trkpt>
      <trkpt lat="45.14818" lon="5.77289">
        <ele>506</ele>
        <time>2019-05-24T11:33:24.080Z</time>
      </trkpt>
      <trkpt lat="45.1482" lon="5.77285">
        <ele>506</ele>
        <time>2019-05-24T11:33:25.080Z</time>
      </trkpt>
      <trkpt lat="45.14822" lon="5.7728">
        <ele>506</ele>
        <time>2019-05-24T11:33:26.080Z</time>
      </trkpt>
      <trkpt lat="45.14824" lon="5.77277">
        <ele>511</ele>
        <time>2019-05-24T11:33:27.080Z</time>
      </trkpt>
      <trkpt lat="45.14826" lon="5.77273">
        <ele>510</ele>
        <time>2019-05-24T11:33:28.080Z</time>
      </trkpt>
      <trkpt lat="45.14829" lon="5.77269">
        <ele>510</ele>
        <time>2019-05-24T11:33:29.080Z</time>
      </trkpt>
      <trkpt lat="45.14831" lon="5.77265">
        <ele>510</ele>
        <time>2019-05-24T11:33:30.080Z</time>
      </trkpt>
      <trkpt lat="45.14833" lon="5.77262">
        <ele>510</ele>
        <time>2019-05-24T11:33:31.080Z</time>
      </trkpt>
      <trkpt lat="45.14835" lon="5.77258">
        <ele>508</ele>
        <time>2019-05-24T11:33:32.080Z</time>
      </trkpt>
      <trkpt lat="45.14838" lon="5.77255">
        <ele>509</ele>
        <time>2019-05-24T11:33:33.080Z</time>
      </trkpt>
      <trkpt lat="45.14841" lon="5.77252">
        <ele>508</ele>
        <time>2019-05-24T11:33:34.080Z</time>
      </trkpt>
      <trkpt lat="45.14844" lon="5.77249">
        <ele>510</ele>
        <time>2019-05-24T11:33:35.080Z</time>
      </trkpt>
      <trkpt lat="45.14846" lon="5.77247">
        <ele>512</ele>
        <time>2019-05-24T11:33:36.080Z</time>
      </trkpt>
      <trkpt lat="45.14849" lon="5.77244">
        <ele>512</ele>
        <time>2019-05-24T11:33:37.080Z</time>
      </trkpt>
      <trkpt lat="45.14851" lon="5.77242">
        <ele>511</ele>
        <time>2019-05-24T11:33:38.080Z</time>
      </trkpt>
      <trkpt lat="45.14853" lon="5.77239">
        <ele>511</ele>
        <time>2019-05-24T11:33:39.080Z</time>
      </trkpt>
      <trkpt lat="45.14855" lon="5.77237">
        <ele>511</ele>
        <time>2019-05-24T11:33:40.080Z</time>
      </trkpt>
      <trkpt lat="45.14858" lon="5.77234">
        <ele>508</ele>
        <time>2019-05-24T11:33:41.080Z</time>
      </trkpt>
      <trkpt lat="45.14861" lon="5.77231">
        <ele>506</ele>
        <time>2019-05-24T11:33:42.080Z</time>
      </trkpt>
      <trkpt lat="45.14864" lon="5.77228">
        <ele>506</ele>
        <time>2019-05-24T11:33:43.080Z</time>
      </trkpt>
      <trkpt lat="45.14866" lon="5.77226">
        <ele>508</ele>
        <time>2019-05-24T11:33:44.080Z</time>
      </trkpt>
      <trkpt lat="45.14868" lon="5.77223">
        <ele>508</ele>
        <time>2019-05-24T11:33:45.080Z</time>
      </trkpt>
      <trkpt lat="45.14871" lon="5.77221">
        <ele>507</ele>
        <time>2019-05-24T11:33:46.080Z</time>
      </trkpt>
      <trkpt lat="45.14873" lon="5.77218">
        <ele>507</ele>
        <time>2019-05-24T11:33:47.080Z</time>
      </trkpt>
      <trkpt lat="45.14875" lon="5.77215">
        <ele>505</ele>
        <time>2019-05-24T11:33:48.080Z</time>
      </trkpt>
      <trkpt lat="45.14876" lon="5.77212">
        <ele>506</ele>
        <time>2019-05-24T11:33:49.080Z</time>
      </trkpt>
      <trkpt lat="45.14878" lon="5.77209">
        <ele>506</ele>
        <time>2019-05-24T11:33:50.080Z</time>
      </trkpt>
      <trkpt lat="45.1488" lon="5.77207">
        <ele>506</ele>
        <time>2019-05-24T11:33:51.080Z</time>
      </trkpt>
      <trkpt lat="45.14881" lon="5.77204">
        <ele>506</ele>
        <time>2019-05-24T11:33:52.080Z</time>
      </trkpt>
      <trkpt lat="45.14882" lon="5.77202">
        <ele>505</ele>
        <time>2019-05-24T11:33:53.080Z</time>
      </trkpt>
      <trkpt lat="45.14883" lon="5.772">
        <ele>504</ele>
        <time>2019-05-24T11:33:54.080Z</time>
      </trkpt>
      <trkpt lat="45.14884" lon="5.77197">
        <ele>505</ele>
        <time>2019-05-24T11:33:55.080Z</time>
      </trkpt>
      <trkpt lat="45.14885" lon="5.77194">
        <ele>505</ele>
        <time>2019-05-24T11:33:56.080Z</time>
      </trkpt>
      <trkpt lat="45.14886" lon="5.77192">
        <ele>503</ele>
        <time>2019-05-24T11:33:57.080Z</time>
      </trkpt>
      <trkpt lat="45.14886" lon="5.77189">
        <ele>504</ele>
        <time>2019-05-24T11:33:58.080Z</time>
      </trkpt>
      <trkpt lat="45.14887" lon="5.77186">
        <ele>504</ele>
        <time>2019-05-24T11:33:59.080Z</time>
      </trkpt>
      <trkpt lat="45.14888" lon="5.77184">
        <ele>503</ele>
        <time>2019-05-24T11:34:00.080Z</time>
      </trkpt>
      <trkpt lat="45.14889" lon="5.77181">
        <ele>502</ele>
        <time>2019-05-24T11:34:01.080Z</time>
      </trkpt>
      <trkpt lat="45.14889" lon="5.77179">
        <ele>502</ele>
        <time>2019-05-24T11:34:02.080Z</time>
      </trkpt>
      <trkpt lat="45.1489" lon="5.77176">
        <ele>502</ele>
        <time>2019-05-24T11:34:03.080Z</time>
      </trkpt>
      <trkpt lat="45.14891" lon="5.77173">
        <ele>501</ele>
        <time>2019-05-24T11:34:04.080Z</time>
      </trkpt>
      <trkpt lat="45.14891" lon="5.7717">
        <ele>501</ele>
        <time>2019-05-24T11:34:05.080Z</time>
      </trkpt>
      <trkpt lat="45.14891" lon="5.77167">
        <ele>506</ele>
        <time>2019-05-24T11:34:06.080Z</time>
      </trkpt>
      <trkpt lat="45.14892" lon="5.77164">
        <ele>507</ele>
        <time>2019-05-24T11:34:07.080Z</time>
      </trkpt>
      <trkpt lat="45.14893" lon="5.77162">
        <ele>506</ele>
        <time>2019-05-24T11:34:08.080Z</time>
      </trkpt>
      <trkpt lat="45.14894" lon="5.77159">
        <ele>506</ele>
        <time>2019-05-24T11:34:09.080Z</time>
      </trkpt>
      <trkpt lat="45.14894" lon="5.77157">
        <ele>503</ele>
        <time>2019-05-24T11:34:10.080Z</time>
      </trkpt>
      <trkpt lat="45.14895" lon="5.77155">
        <ele>502</ele>
        <time>2019-05-24T11:34:11.080Z</time>
      </trkpt>
      <trkpt lat="45.14897" lon="5.77152">
        <ele>501</ele>
        <time>2019-05-24T11:34:12.080Z</time>
      </trkpt>
      <trkpt lat="45.14898" lon="5.7715">
        <ele>500</ele>
        <time>2019-05-24T11:34:13.080Z</time>
      </trkpt>
      <trkpt lat="45.14899" lon="5.77147">
        <ele>501</ele>
        <time>2019-05-24T11:34:14.080Z</time>
      </trkpt>
      <trkpt lat="45.149" lon="5.77145">
        <ele>502</ele>
        <time>2019-05-24T11:34:15.080Z</time>
      </trkpt>
      <trkpt lat="45.14901" lon="5.77142">
        <ele>502</ele>
        <time>2019-05-24T11:34:16.080Z</time>
      </trkpt>
      <trkpt lat="45.14903" lon="5.7714">
        <ele>500</ele>
        <time>2019-05-24T11:34:17.080Z</time>
      </trkpt>
      <trkpt lat="45.14904" lon="5.77138">
        <ele>499</ele>
        <time>2019-05-24T11:34:18.080Z</time>
      </trkpt>
      <trkpt lat="45.14905" lon="5.77135">
        <ele>498</ele>
        <time>2019-05-24T11:34:19.080Z</time>
      </trkpt>
      <trkpt lat="45.14906" lon="5.77133">
        <ele>498</ele>
        <time>2019-05-24T11:34:20.080Z</time>
      </trkpt>
      <trkpt lat="45.14907" lon="5.77131">
        <ele>497</ele>
        <time>2019-05-24T11:34:21.080Z</time>
      </trkpt>
      <trkpt lat="45.14908" lon="5.77128">
        <ele>493</ele>
        <time>2019-05-24T11:34:22.080Z</time>
      </trkpt>
      <trkpt lat="45.1491" lon="5.77126">
        <ele>491</ele>
        <time>2019-05-24T11:34:23.080Z</time>
      </trkpt>
      <trkpt lat="45.14911" lon="5.77124">
        <ele>487</ele>
        <time>2019-05-24T11:34:24.080Z</time>
      </trkpt>
      <trkpt lat="45.14913" lon="5.77123">
        <ele>486</ele>
        <time>2019-05-24T11:34:25.080Z</time>
      </trkpt>
      <trkpt lat="45.14914" lon="5.77121">
        <ele>487</ele>
        <time>2019-05-24T11:34:26.080Z</time>
      </trkpt>
      <trkpt lat="45.14915" lon="5.77119">
        <ele>488</ele>
        <time>2019-05-24T11:34:27.080Z</time>
      </trkpt>
      <trkpt lat="45.14916" lon="5.77117">
        <ele>488</ele>
        <time>2019-05-24T11:34:28.080Z</time>
      </trkpt>
      <trkpt lat="45.14917" lon="5.77114">
        <ele>488</ele>
        <time>2019-05-24T11:34:29.080Z</time>
      </trkpt>
      <trkpt lat="45.14918" lon="5.77111">
        <ele>488</ele>
        <time>2019-05-24T11:34:30.080Z</time>
      </trkpt>
      <trkpt lat="45.14918" lon="5.77108">
        <ele>487</ele>
        <time>2019-05-24T11:34:31.080Z</time>
      </trkpt>
      <trkpt lat="45.14919" lon="5.77104">
        <ele>485</ele>
        <time>2019-05-24T11:34:32.080Z</time>
      </trkpt>
      <trkpt lat="45.14918" lon="5.771">
        <ele>485</ele>
        <time>2019-05-24T11:34:33.080Z</time>
      </trkpt>
      <trkpt lat="45.14918" lon="5.77096">
        <ele>488</ele>
        <time>2019-05-24T11:34:34.080Z</time>
      </trkpt>
      <trkpt lat="45.14918" lon="5.77092">
        <ele>487</ele>
        <time>2019-05-24T11:34:35.080Z</time>
      </trkpt>
      <trkpt lat="45.14918" lon="5.77088">
        <ele>487</ele>
        <time>2019-05-24T11:34:36.080Z</time>
      </trkpt>
      <trkpt lat="45.14917" lon="5.77084">
        <ele>487</ele>
        <time>2019-05-24T11:34:37.080Z</time>
      </trkpt>
      <trkpt lat="45.14916" lon="5.77079">
        <ele>487</ele>
        <time>2019-05-24T11:34:38.080Z</time>
      </trkpt>
      <trkpt lat="45.14916" lon="5.77075">
        <ele>486</ele>
        <time>2019-05-24T11:34:39.080Z</time>
      </trkpt>
      <trkpt lat="45.14916" lon="5.77071">
        <ele>485</ele>
        <time>2019-05-24T11:34:40.080Z</time>
      </trkpt>
      <trkpt lat="45.14917" lon="5.77068">
        <ele>485</ele>
        <time>2019-05-24T11:34:41.080Z</time>
      </trkpt>
      <trkpt lat="45.14918" lon="5.77064">
        <ele>485</ele>
        <time>2019-05-24T11:34:42.080Z</time>
      </trkpt>
      <trkpt lat="45.1492" lon="5.7706">
        <ele>481</ele>
        <time>2019-05-24T11:34:43.080Z</time>
      </trkpt>
      <trkpt lat="45.14922" lon="5.77056">
        <ele>480</ele>
        <time>2019-05-24T11:34:44.080Z</time>
      </trkpt>
      <trkpt lat="45.14924" lon="5.77052">
        <ele>480</ele>
        <time>2019-05-24T11:34:45.080Z</time>
      </trkpt>
      <trkpt lat="45.14925" lon="5.77048">
        <ele>479</ele>
        <time>2019-05-24T11:34:46.080Z</time>
      </trkpt>
      <trkpt lat="45.14927" lon="5.77044">
        <ele>478</ele>
        <time>2019-05-24T11:34:47.080Z</time>
      </trkpt>
      <trkpt lat="45.1493" lon="5.7704">
        <ele>478</ele>
        <time>2019-05-24T11:34:48.080Z</time>
      </trkpt>
      <trkpt lat="45.14932" lon="5.77037">
        <ele>478</ele>
        <time>2019-05-24T11:34:49.080Z</time>
      </trkpt>
      <trkpt lat="45.14934" lon="5.77033">
        <ele>476</ele>
        <time>2019-05-24T11:34:50.080Z</time>
      </trkpt>
      <trkpt lat="45.14937" lon="5.7703">
        <ele>474</ele>
        <time>2019-05-24T11:34:51.080Z</time>
      </trkpt>
      <trkpt lat="45.14938" lon="5.77025">
        <ele>474</ele>
        <time>2019-05-24T11:34:52.080Z</time>
      </trkpt>
      <trkpt lat="45.1494" lon="5.77022">
        <ele>474</ele>
        <time>2019-05-24T11:34:53.080Z</time>
      </trkpt>
      <trkpt lat="45.14941" lon="5.77017">
        <ele>475</ele>
        <time>2019-05-24T11:34:54.080Z</time>
      </trkpt>
      <trkpt lat="45.14943" lon="5.77014">
        <ele>476</ele>
        <time>2019-05-24T11:34:55.080Z</time>
      </trkpt>
      <trkpt lat="45.14944" lon="5.7701">
        <ele>477</ele>
        <time>2019-05-24T11:34:56.080Z</time>
      </trkpt>
      <trkpt lat="45.14946" lon="5.77005">
        <ele>477</ele>
        <time>2019-05-24T11:34:57.080Z</time>
      </trkpt>
      <trkpt lat="45.14947" lon="5.77001">
        <ele>476</ele>
        <time>2019-05-24T11:34:58.080Z</time>
      </trkpt>
      <trkpt lat="45.14949" lon="5.76997">
        <ele>476</ele>
        <time>2019-05-24T11:34:59.080Z</time>
      </trkpt>
      <trkpt lat="45.1495" lon="5.76993">
        <ele>475</ele>
        <time>2019-05-24T11:35:00.080Z</time>
      </trkpt>
      <trkpt lat="45.14952" lon="5.76988">
        <ele>475</ele>
        <time>2019-05-24T11:35:01.080Z</time>
      </trkpt>
      <trkpt lat="45.14953" lon="5.76984">
        <ele>474</ele>
        <time>2019-05-24T11:35:02.080Z</time>
      </trkpt>
      <trkpt lat="45.14955" lon="5.7698">
        <ele>474</ele>
        <time>2019-05-24T11:35:03.080Z</time>
      </trkpt>
      <trkpt lat="45.14956" lon="5.76977">
        <ele>474</ele>
        <time>2019-05-24T11:35:04.080Z</time>
      </trkpt>
      <trkpt lat="45.14958" lon="5.76973">
        <ele>471</ele>
        <time>2019-05-24T11:35:05.080Z</time>
      </trkpt>
      <trkpt lat="45.1496" lon="5.76969">
        <ele>468</ele>
        <time>2019-05-24T11:35:06.080Z</time>
      </trkpt>
      <trkpt lat="45.14961" lon="5.76965">
        <ele>470</ele>
        <time>2019-05-24T11:35:07.080Z</time>
      </trkpt>
      <trkpt lat="45.14962" lon="5.76961">
        <ele>471</ele>
        <time>2019-05-24T11:35:08.080Z</time>
      </trkpt>
      <trkpt lat="45.14964" lon="5.76958">
        <ele>472</ele>
        <time>2019-05-24T11:35:09.080Z</time>
      </trkpt>
      <trkpt lat="45.14965" lon="5.76955">
        <ele>472</ele>
        <time>2019-05-24T11:35:10.080Z</time>
      </trkpt>
      <trkpt lat="45.14967" lon="5.76952">
        <ele>473</ele>
        <time>2019-05-24T11:35:11.080Z</time>
      </trkpt>
      <trkpt lat="45.14968" lon="5.76948">
        <ele>473</ele>
        <time>2019-05-24T11:35:12.080Z</time>
      </trkpt>
      <trkpt lat="45.1497" lon="5.76945">
        <ele>473</ele>
        <time>2019-05-24T11:35:13.080Z</time>
      </trkpt>
      <trkpt lat="45.14971" lon="5.76942">
        <ele>476</ele>
        <time>2019-05-24T11:35:14.080Z</time>
      </trkpt>
      <trkpt lat="45.14972" lon="5.76938">
        <ele>477</ele>
        <time>2019-05-24T11:35:15.080Z</time>
      </trkpt>
      <trkpt lat="45.14973" lon="5.76934">
        <ele>478</ele>
        <time>2019-05-24T11:35:16.080Z</time>
      </trkpt>
      <trkpt lat="45.14973" lon="5.76932">
        <ele>478</ele>
        <time>2019-05-24T11:35:17.080Z</time>
      </trkpt>
      <trkpt lat="45.14974" lon="5.76929">
        <ele>479</ele>
        <time>2019-05-24T11:35:18.080Z</time>
      </trkpt>
      <trkpt lat="45.14975" lon="5.76927">
        <ele>479</ele>
        <time>2019-05-24T11:35:19.080Z</time>
      </trkpt>
      <trkpt lat="45.14974" lon="5.76925">
        <ele>479</ele>
        <time>2019-05-24T11:35:20.080Z</time>
      </trkpt>
      <trkpt lat="45.14974" lon="5.76922">
        <ele>480</ele>
        <time>2019-05-24T11:35:21.080Z</time>
      </trkpt>
      <trkpt lat="45.14974" lon="5.7692">
        <ele>479</ele>
        <time>2019-05-24T11:35:22.080Z</time>
      </trkpt>
      <trkpt lat="45.14973" lon="5.76918">
        <ele>478</ele>
        <time>2019-05-24T11:35:23.080Z</time>
      </trkpt>
      <trkpt lat="45.14972" lon="5.76916">
        <ele>478</ele>
        <time>2019-05-24T11:35:24.080Z</time>
      </trkpt>
      <trkpt lat="45.14972" lon="5.76914">
        <ele>479</ele>
        <time>2019-05-24T11:35:25.080Z</time>
      </trkpt>
      <trkpt lat="45.14971" lon="5.76911">
        <ele>479</ele>
        <time>2019-05-24T11:35:26.080Z</time>
      </trkpt>
      <trkpt lat="45.1497" lon="5.76909">
        <ele>482</ele>
        <time>2019-05-24T11:35:27.080Z</time>
      </trkpt>
      <trkpt lat="45.1497" lon="5.76907">
        <ele>485</ele>
        <time>2019-05-24T11:35:28.080Z</time>
      </trkpt>
      <trkpt lat="45.1497" lon="5.76904">
        <ele>486</ele>
        <time>2019-05-24T11:35:29.080Z</time>
      </trkpt>
      <trkpt lat="45.14968" lon="5.76901">
        <ele>486</ele>
        <time>2019-05-24T11:35:30.080Z</time>
      </trkpt>
      <trkpt lat="45.14967" lon="5.76898">
        <ele>483</ele>
        <time>2019-05-24T11:35:31.080Z</time>
      </trkpt>
      <trkpt lat="45.14965" lon="5.76895">
        <ele>484</ele>
        <time>2019-05-24T11:35:32.080Z</time>
      </trkpt>
      <trkpt lat="45.14964" lon="5.76893">
        <ele>481</ele>
        <time>2019-05-24T11:35:33.080Z</time>
      </trkpt>
      <trkpt lat="45.14963" lon="5.7689">
        <ele>479</ele>
        <time>2019-05-24T11:35:34.080Z</time>
      </trkpt>
      <trkpt lat="45.14963" lon="5.76888">
        <ele>478</ele>
        <time>2019-05-24T11:35:35.080Z</time>
      </trkpt>
      <trkpt lat="45.14962" lon="5.76885">
        <ele>478</ele>
        <time>2019-05-24T11:35:36.080Z</time>
      </trkpt>
      <trkpt lat="45.14961" lon="5.76882">
        <ele>478</ele>
        <time>2019-05-24T11:35:37.080Z</time>
      </trkpt>
      <trkpt lat="45.14961" lon="5.7688">
        <ele>477</ele>
        <time>2019-05-24T11:35:38.080Z</time>
      </trkpt>
      <trkpt lat="45.14961" lon="5.76877">
        <ele>476</ele>
        <time>2019-05-24T11:35:39.080Z</time>
      </trkpt>
      <trkpt lat="45.1496" lon="5.76875">
        <ele>474</ele>
        <time>2019-05-24T11:35:40.080Z</time>
      </trkpt>
      <trkpt lat="45.14961" lon="5.76872">
        <ele>472</ele>
        <time>2019-05-24T11:35:41.080Z</time>
      </trkpt>
      <trkpt lat="45.1496" lon="5.76869">
        <ele>471</ele>
        <time>2019-05-24T11:35:42.080Z</time>
      </trkpt>
      <trkpt lat="45.1496" lon="5.76867">
        <ele>470</ele>
        <time>2019-05-24T11:35:43.080Z</time>
      </trkpt>
      <trkpt lat="45.14959" lon="5.76865">
        <ele>469</ele>
        <time>2019-05-24T11:35:44.080Z</time>
      </trkpt>
      <trkpt lat="45.14959" lon="5.76863">
        <ele>469</ele>
        <time>2019-05-24T11:35:45.080Z</time>
      </trkpt>
      <trkpt lat="45.14958" lon="5.76862">
        <ele>468</ele>
        <time>2019-05-24T11:35:46.080Z</time>
      </trkpt>
      <trkpt lat="45.14958" lon="5.7686">
        <ele>468</ele>
        <time>2019-05-24T11:35:47.080Z</time>
      </trkpt>
      <trkpt lat="45.14956" lon="5.76858">
        <ele>467</ele>
        <time>2019-05-24T11:35:48.080Z</time>
      </trkpt>
      <trkpt lat="45.14954" lon="5.76855">
        <ele>466</ele>
        <time>2019-05-24T11:35:49.080Z</time>
      </trkpt>
      <trkpt lat="45.14952" lon="5.76852">
        <ele>464</ele>
        <time>2019-05-24T11:35:50.080Z</time>
      </trkpt>
      <trkpt lat="45.1495" lon="5.7685">
        <ele>465</ele>
        <time>2019-05-24T11:35:51.080Z</time>
      </trkpt>
      <trkpt lat="45.14947" lon="5.76848">
        <ele>464</ele>
        <time>2019-05-24T11:35:52.080Z</time>
      </trkpt>
      <trkpt lat="45.14945" lon="5.76846">
        <ele>464</ele>
        <time>2019-05-24T11:35:53.080Z</time>
      </trkpt>
      <trkpt lat="45.14943" lon="5.76844">
        <ele>464</ele>
        <time>2019-05-24T11:35:54.080Z</time>
      </trkpt>
      <trkpt lat="45.14941" lon="5.76842">
        <ele>463</ele>
        <time>2019-05-24T11:35:55.080Z</time>
      </trkpt>
      <trkpt lat="45.1494" lon="5.7684">
        <ele>462</ele>
        <time>2019-05-24T11:35:56.080Z</time>
      </trkpt>
      <trkpt lat="45.14939" lon="5.76838">
        <ele>462</ele>
        <time>2019-05-24T11:35:57.080Z</time>
      </trkpt>
      <trkpt lat="45.14937" lon="5.76836">
        <ele>460</ele>
        <time>2019-05-24T11:35:58.080Z</time>
      </trkpt>
      <trkpt lat="45.14936" lon="5.76834">
        <ele>459</ele>
        <time>2019-05-24T11:35:59.080Z</time>
      </trkpt>
      <trkpt lat="45.14935" lon="5.76833">
        <ele>457</ele>
        <time>2019-05-24T11:36:00.080Z</time>
      </trkpt>
      <trkpt lat="45.14933" lon="5.76831">
        <ele>454</ele>
        <time>2019-05-24T11:36:01.080Z</time>
      </trkpt>
      <trkpt lat="45.14931" lon="5.76829">
        <ele>452</ele>
        <time>2019-05-24T11:36:02.080Z</time>
      </trkpt>
      <trkpt lat="45.1493" lon="5.76827">
        <ele>451</ele>
        <time>2019-05-24T11:36:03.080Z</time>
      </trkpt>
      <trkpt lat="45.14929" lon="5.76825">
        <ele>450</ele>
        <time>2019-05-24T11:36:04.080Z</time>
      </trkpt>
      <trkpt lat="45.14927" lon="5.76824">
        <ele>450</ele>
        <time>2019-05-24T11:36:05.080Z</time>
      </trkpt>
      <trkpt lat="45.14926" lon="5.76822">
        <ele>449</ele>
        <time>2019-05-24T11:36:06.080Z</time>
      </trkpt>
      <trkpt lat="45.14925" lon="5.76821">
        <ele>450</ele>
        <time>2019-05-24T11:36:07.080Z</time>
      </trkpt>
      <trkpt lat="45.14923" lon="5.76819">
        <ele>450</ele>
        <time>2019-05-24T11:36:08.080Z</time>
      </trkpt>
      <trkpt lat="45.14921" lon="5.76817">
        <ele>450</ele>
        <time>2019-05-24T11:36:09.080Z</time>
      </trkpt>
      <trkpt lat="45.14919" lon="5.76815">
        <ele>450</ele>
        <time>2019-05-24T11:36:10.080Z</time>
      </trkpt>
      <trkpt lat="45.14917" lon="5.76813">
        <ele>451</ele>
        <time>2019-05-24T11:36:11.080Z</time>
      </trkpt>
      <trkpt lat="45.14915" lon="5.76811">
        <ele>451</ele>
        <time>2019-05-24T11:36:12.080Z</time>
      </trkpt>
      <trkpt lat="45.14913" lon="5.7681">
        <ele>452</ele>
        <time>2019-05-24T11:36:13.080Z</time>
      </trkpt>
      <trkpt lat="45.14911" lon="5.76808">
        <ele>451</ele>
        <time>2019-05-24T11:36:14.080Z</time>
      </trkpt>
      <trkpt lat="45.14909" lon="5.76806">
        <ele>451</ele>
        <time>2019-05-24T11:36:15.080Z</time>
      </trkpt>
      <trkpt lat="45.14907" lon="5.76804">
        <ele>448</ele>
        <time>2019-05-24T11:36:16.080Z</time>
      </trkpt>
      <trkpt lat="45.14906" lon="5.76802">
        <ele>447</ele>
        <time>2019-05-24T11:36:17.080Z</time>
      </trkpt>
      <trkpt lat="45.14906" lon="5.768">
        <ele>446</ele>
        <time>2019-05-24T11:36:18.080Z</time>
      </trkpt>
      <trkpt lat="45.14905" lon="5.76797">
        <ele>445</ele>
        <time>2019-05-24T11:36:19.080Z</time>
      </trkpt>
      <trkpt lat="45.14905" lon="5.76795">
        <ele>444</ele>
        <time>2019-05-24T11:36:20.080Z</time>
      </trkpt>
      <trkpt lat="45.14906" lon="5.76792">
        <ele>444</ele>
        <time>2019-05-24T11:36:21.080Z</time>
      </trkpt>
      <trkpt lat="45.14906" lon="5.76789">
        <ele>443</ele>
        <time>2019-05-24T11:36:22.080Z</time>
      </trkpt>
      <trkpt lat="45.14907" lon="5.76787">
        <ele>440</ele>
        <time>2019-05-24T11:36:23.080Z</time>
      </trkpt>
      <trkpt lat="45.14908" lon="5.76785">
        <ele>436</ele>
        <time>2019-05-24T11:36:24.080Z</time>
      </trkpt>
      <trkpt lat="45.14909" lon="5.76782">
        <ele>435</ele>
        <time>2019-05-24T11:36:25.080Z</time>
      </trkpt>
      <trkpt lat="45.1491" lon="5.7678">
        <ele>433</ele>
        <time>2019-05-24T11:36:26.080Z</time>
      </trkpt>
      <trkpt lat="45.14911" lon="5.76778">
        <ele>432</ele>
        <time>2019-05-24T11:36:27.080Z</time>
      </trkpt>
      <trkpt lat="45.14911" lon="5.76776">
        <ele>431</ele>
        <time>2019-05-24T11:36:28.080Z</time>
      </trkpt>
      <trkpt lat="45.14912" lon="5.76774">
        <ele>429</ele>
        <time>2019-05-24T11:36:29.080Z</time>
      </trkpt>
      <trkpt lat="45.14912" lon="5.76772">
        <ele>429</ele>
        <time>2019-05-24T11:36:30.080Z</time>
      </trkpt>
      <trkpt lat="45.14912" lon="5.7677">
        <ele>429</ele>
        <time>2019-05-24T11:36:31.080Z</time>
      </trkpt>
      <trkpt lat="45.14913" lon="5.76768">
        <ele>429</ele>
        <time>2019-05-24T11:36:32.080Z</time>
      </trkpt>
      <trkpt lat="45.14912" lon="5.76767">
        <ele>430</ele>
        <time>2019-05-24T11:36:33.080Z</time>
      </trkpt>
      <trkpt lat="45.14912" lon="5.76765">
        <ele>429</ele>
        <time>2019-05-24T11:36:34.080Z</time>
      </trkpt>
      <trkpt lat="45.14912" lon="5.76763">
        <ele>427</ele>
        <time>2019-05-24T11:36:35.080Z</time>
      </trkpt>
      <trkpt lat="45.14912" lon="5.76761">
        <ele>426</ele>
        <time>2019-05-24T11:36:36.080Z</time>
      </trkpt>
      <trkpt lat="45.14912" lon="5.76759">
        <ele>426</ele>
        <time>2019-05-24T11:36:37.080Z</time>
      </trkpt>
      <trkpt lat="45.14912" lon="5.76756">
        <ele>427</ele>
        <time>2019-05-24T11:36:38.080Z</time>
      </trkpt>
      <trkpt lat="45.14911" lon="5.76754">
        <ele>427</ele>
        <time>2019-05-24T11:36:39.080Z</time>
      </trkpt>
      <trkpt lat="45.1491" lon="5.76752">
        <ele>427</ele>
        <time>2019-05-24T11:36:40.080Z</time>
      </trkpt>
      <trkpt lat="45.1491" lon="5.76749">
        <ele>426</ele>
        <time>2019-05-24T11:36:41.080Z</time>
      </trkpt>
      <trkpt lat="45.14909" lon="5.76747">
        <ele>427</ele>
        <time>2019-05-24T11:36:42.080Z</time>
      </trkpt>
      <trkpt lat="45.14909" lon="5.76745">
        <ele>427</ele>
        <time>2019-05-24T11:36:43.080Z</time>
      </trkpt>
      <trkpt lat="45.14908" lon="5.76743">
        <ele>426</ele>
        <time>2019-05-24T11:36:44.080Z</time>
      </trkpt>
      <trkpt lat="45.14908" lon="5.7674">
        <ele>424</ele>
        <time>2019-05-24T11:36:45.080Z</time>
      </trkpt>
      <trkpt lat="45.14908" lon="5.76739">
        <ele>424</ele>
        <time>2019-05-24T11:36:46.080Z</time>
      </trkpt>
      <trkpt lat="45.14908" lon="5.76736">
        <ele>424</ele>
        <time>2019-05-24T11:36:47.080Z</time>
      </trkpt>
      <trkpt lat="45.14907" lon="5.76734">
        <ele>423</ele>
        <time>2019-05-24T11:36:48.080Z</time>
      </trkpt>
      <trkpt lat="45.14906" lon="5.76731">
        <ele>422</ele>
        <time>2019-05-24T11:36:49.080Z</time>
      </trkpt>
      <trkpt lat="45.14906" lon="5.76728">
        <ele>421</ele>
        <time>2019-05-24T11:36:50.080Z</time>
      </trkpt>
      <trkpt lat="45.14905" lon="5.76725">
        <ele>420</ele>
        <time>2019-05-24T11:36:51.080Z</time>
      </trkpt>
      <trkpt lat="45.14905" lon="5.76722">
        <ele>417</ele>
        <time>2019-05-24T11:36:52.080Z</time>
      </trkpt>
      <trkpt lat="45.14905" lon="5.76718">
        <ele>416</ele>
        <time>2019-05-24T11:36:53.080Z</time>
      </trkpt>
      <trkpt lat="45.14905" lon="5.76714">
        <ele>416</ele>
        <time>2019-05-24T11:36:54.080Z</time>
      </trkpt>
      <trkpt lat="45.14905" lon="5.76711">
        <ele>416</ele>
        <time>2019-05-24T11:36:55.080Z</time>
      </trkpt>
      <trkpt lat="45.14905" lon="5.76707">
        <ele>416</ele>
        <time>2019-05-24T11:36:56.080Z</time>
      </trkpt>
      <trkpt lat="45.14905" lon="5.76704">
        <ele>415</ele>
        <time>2019-05-24T11:36:57.080Z</time>
      </trkpt>
      <trkpt lat="45.14905" lon="5.767">
        <ele>415</ele>
        <time>2019-05-24T11:36:58.080Z</time>
      </trkpt>
      <trkpt lat="45.14905" lon="5.76696">
        <ele>414</ele>
        <time>2019-05-24T11:36:59.080Z</time>
      </trkpt>
      <trkpt lat="45.14905" lon="5.76693">
        <ele>414</ele>
        <time>2019-05-24T11:37:00.080Z</time>
      </trkpt>
      <trkpt lat="45.14905" lon="5.7669">
        <ele>414</ele>
        <time>2019-05-24T11:37:01.080Z</time>
      </trkpt>
      <trkpt lat="45.14905" lon="5.76687">
        <ele>413</ele>
        <time>2019-05-24T11:37:02.080Z</time>
      </trkpt>
      <trkpt lat="45.14904" lon="5.76682">
        <ele>413</ele>
        <time>2019-05-24T11:37:03.080Z</time>
      </trkpt>
      <trkpt lat="45.14905" lon="5.76679">
        <ele>413</ele>
        <time>2019-05-24T11:37:04.080Z</time>
      </trkpt>
      <trkpt lat="45.14905" lon="5.76676">
        <ele>413</ele>
        <time>2019-05-24T11:37:05.080Z</time>
      </trkpt>
      <trkpt lat="45.14907" lon="5.76673">
        <ele>412</ele>
        <time>2019-05-24T11:37:06.080Z</time>
      </trkpt>
      <trkpt lat="45.14908" lon="5.76669">
        <ele>411</ele>
        <time>2019-05-24T11:37:07.080Z</time>
      </trkpt>
      <trkpt lat="45.14909" lon="5.76666">
        <ele>411</ele>
        <time>2019-05-24T11:37:08.080Z</time>
      </trkpt>
      <trkpt lat="45.1491" lon="5.76663">
        <ele>410</ele>
        <time>2019-05-24T11:37:09.080Z</time>
      </trkpt>
      <trkpt lat="45.14911" lon="5.7666">
        <ele>410</ele>
        <time>2019-05-24T11:37:10.080Z</time>
      </trkpt>
      <trkpt lat="45.14912" lon="5.76657">
        <ele>409</ele>
        <time>2019-05-24T11:37:11.080Z</time>
      </trkpt>
      <trkpt lat="45.14911" lon="5.76653">
        <ele>409</ele>
        <time>2019-05-24T11:37:12.080Z</time>
      </trkpt>
      <trkpt lat="45.1491" lon="5.76649">
        <ele>408</ele>
        <time>2019-05-24T11:37:13.080Z</time>
      </trkpt>
      <trkpt lat="45.1491" lon="5.76646">
        <ele>407</ele>
        <time>2019-05-24T11:37:14.080Z</time>
      </trkpt>
      <trkpt lat="45.1491" lon="5.76643">
        <ele>405</ele>
        <time>2019-05-24T11:37:15.080Z</time>
      </trkpt>
      <trkpt lat="45.1491" lon="5.7664">
        <ele>403</ele>
        <time>2019-05-24T11:37:16.080Z</time>
      </trkpt>
      <trkpt lat="45.1491" lon="5.76636">
        <ele>401</ele>
        <time>2019-05-24T11:37:17.080Z</time>
      </trkpt>
      <trkpt lat="45.14911" lon="5.76633">
        <ele>400</ele>
        <time>2019-05-24T11:37:18.080Z</time>
      </trkpt>
      <trkpt lat="45.14911" lon="5.7663">
        <ele>399</ele>
        <time>2019-05-24T11:37:19.080Z</time>
      </trkpt>
      <trkpt lat="45.14912" lon="5.76626">
        <ele>398</ele>
        <time>2019-05-24T11:37:20.080Z</time>
      </trkpt>
      <trkpt lat="45.14912" lon="5.76622">
        <ele>397</ele>
        <time>2019-05-24T11:37:21.080Z</time>
      </trkpt>
      <trkpt lat="45.14912" lon="5.76618">
        <ele>396</ele>
        <time>2019-05-24T11:37:22.080Z</time>
      </trkpt>
      <trkpt lat="45.14913" lon="5.76614">
        <ele>395</ele>
        <time>2019-05-24T11:37:23.080Z</time>
      </trkpt>
      <trkpt lat="45.14913" lon="5.76611">
        <ele>395</ele>
        <time>2019-05-24T11:37:24.080Z</time>
      </trkpt>
      <trkpt lat="45.14914" lon="5.76608">
        <ele>395</ele>
        <time>2019-05-24T11:37:25.080Z</time>
      </trkpt>
      <trkpt lat="45.14915" lon="5.76605">
        <ele>395</ele>
        <time>2019-05-24T11:37:26.080Z</time>
      </trkpt>
      <trkpt lat="45.14916" lon="5.76602">
        <ele>395</ele>
        <time>2019-05-24T11:37:27.080Z</time>
      </trkpt>
      <trkpt lat="45.14916" lon="5.76599">
        <ele>395</ele>
        <time>2019-05-24T11:37:28.080Z</time>
      </trkpt>
      <trkpt lat="45.14917" lon="5.76595">
        <ele>394</ele>
        <time>2019-05-24T11:37:29.080Z</time>
      </trkpt>
      <trkpt lat="45.14918" lon="5.76591">
        <ele>394</ele>
        <time>2019-05-24T11:37:30.080Z</time>
      </trkpt>
      <trkpt lat="45.14918" lon="5.76588">
        <ele>393</ele>
        <time>2019-05-24T11:37:31.080Z</time>
      </trkpt>
      <trkpt lat="45.14919" lon="5.76585">
        <ele>392</ele>
        <time>2019-05-24T11:37:32.080Z</time>
      </trkpt>
      <trkpt lat="45.14921" lon="5.76582">
        <ele>392</ele>
        <time>2019-05-24T11:37:33.080Z</time>
      </trkpt>
      <trkpt lat="45.14922" lon="5.7658">
        <ele>392</ele>
        <time>2019-05-24T11:37:34.080Z</time>
      </trkpt>
      <trkpt lat="45.14923" lon="5.76577">
        <ele>392</ele>
        <time>2019-05-24T11:37:35.080Z</time>
      </trkpt>
      <trkpt lat="45.14924" lon="5.76574">
        <ele>392</ele>
        <time>2019-05-24T11:37:36.080Z</time>
      </trkpt>
      <trkpt lat="45.14924" lon="5.7657">
        <ele>390</ele>
        <time>2019-05-24T11:37:37.080Z</time>
      </trkpt>
      <trkpt lat="45.14925" lon="5.76568">
        <ele>387</ele>
        <time>2019-05-24T11:37:38.080Z</time>
      </trkpt>
      <trkpt lat="45.14926" lon="5.76565">
        <ele>383</ele>
        <time>2019-05-24T11:37:39.080Z</time>
      </trkpt>
      <trkpt lat="45.14927" lon="5.76561">
        <ele>380</ele>
        <time>2019-05-24T11:37:40.080Z</time>
      </trkpt>
      <trkpt lat="45.14927" lon="5.76557">
        <ele>380</ele>
        <time>2019-05-24T11:37:41.080Z</time>
      </trkpt>
      <trkpt lat="45.14928" lon="5.76554">
        <ele>379</ele>
        <time>2019-05-24T11:37:42.080Z</time>
      </trkpt>
      <trkpt lat="45.14928" lon="5.76551">
        <ele>380</ele>
        <time>2019-05-24T11:37:43.080Z</time>
      </trkpt>
      <trkpt lat="45.14927" lon="5.76548">
        <ele>379</ele>
        <time>2019-05-24T11:37:44.080Z</time>
      </trkpt>
      <trkpt lat="45.14927" lon="5.76545">
        <ele>379</ele>
        <time>2019-05-24T11:37:45.080Z</time>
      </trkpt>
      <trkpt lat="45.14927" lon="5.76541">
        <ele>380</ele>
        <time>2019-05-24T11:37:46.080Z</time>
      </trkpt>
      <trkpt lat="45.14926" lon="5.76537">
        <ele>380</ele>
        <time>2019-05-24T11:37:47.080Z</time>
      </trkpt>
      <trkpt lat="45.14926" lon="5.76533">
        <ele>380</ele>
        <time>2019-05-24T11:37:48.080Z</time>
      </trkpt>
      <trkpt lat="45.14925" lon="5.76529">
        <ele>379</ele>
        <time>2019-05-24T11:37:49.080Z</time>
      </trkpt>
      <trkpt lat="45.14925" lon="5.76525">
        <ele>377</ele>
        <time>2019-05-24T11:37:50.080Z</time>
      </trkpt>
      <trkpt lat="45.14924" lon="5.76521">
        <ele>376</ele>
        <time>2019-05-24T11:37:51.080Z</time>
      </trkpt>
      <trkpt lat="45.14924" lon="5.76518">
        <ele>373</ele>
        <time>2019-05-24T11:37:52.080Z</time>
      </trkpt>
      <trkpt lat="45.14924" lon="5.76515">
        <ele>372</ele>
        <time>2019-05-24T11:37:53.080Z</time>
      </trkpt>
      <trkpt lat="45.14924" lon="5.76512">
        <ele>371</ele>
        <time>2019-05-24T11:37:54.080Z</time>
      </trkpt>
      <trkpt lat="45.14923" lon="5.76508">
        <ele>371</ele>
        <time>2019-05-24T11:37:55.080Z</time>
      </trkpt>
      <trkpt lat="45.14923" lon="5.76504">
        <ele>371</ele>
        <time>2019-05-24T11:37:56.080Z</time>
      </trkpt>
      <trkpt lat="45.14923" lon="5.76501">
        <ele>371</ele>
        <time>2019-05-24T11:37:57.080Z</time>
      </trkpt>
      <trkpt lat="45.14923" lon="5.76498">
        <ele>370</ele>
        <time>2019-05-24T11:37:58.080Z</time>
      </trkpt>
      <trkpt lat="45.14923" lon="5.76495">
        <ele>370</ele>
        <time>2019-05-24T11:37:59.080Z</time>
      </trkpt>
      <trkpt lat="45.14924" lon="5.76492">
        <ele>372</ele>
        <time>2019-05-24T11:38:00.080Z</time>
      </trkpt>
      <trkpt lat="45.14924" lon="5.76489">
        <ele>372</ele>
        <time>2019-05-24T11:38:01.080Z</time>
      </trkpt>
      <trkpt lat="45.14923" lon="5.76486">
        <ele>373</ele>
        <time>2019-05-24T11:38:02.080Z</time>
      </trkpt>
      <trkpt lat="45.14923" lon="5.76484">
        <ele>373</ele>
        <time>2019-05-24T11:38:03.080Z</time>
      </trkpt>
      <trkpt lat="45.14923" lon="5.76482">
        <ele>374</ele>
        <time>2019-05-24T11:38:04.080Z</time>
      </trkpt>
      <trkpt lat="45.14923" lon="5.76478">
        <ele>374</ele>
        <time>2019-05-24T11:38:05.080Z</time>
      </trkpt>
      <trkpt lat="45.14922" lon="5.76474">
        <ele>373</ele>
        <time>2019-05-24T11:38:06.080Z</time>
      </trkpt>
      <trkpt lat="45.14922" lon="5.76471">
        <ele>373</ele>
        <time>2019-05-24T11:38:07.080Z</time>
      </trkpt>
      <trkpt lat="45.14921" lon="5.76467">
        <ele>373</ele>
        <time>2019-05-24T11:38:08.080Z</time>
      </trkpt>
      <trkpt lat="45.14921" lon="5.76464">
        <ele>372</ele>
        <time>2019-05-24T11:38:09.080Z</time>
      </trkpt>
      <trkpt lat="45.1492" lon="5.7646">
        <ele>372</ele>
        <time>2019-05-24T11:38:10.080Z</time>
      </trkpt>
      <trkpt lat="45.14919" lon="5.76456">
        <ele>372</ele>
        <time>2019-05-24T11:38:11.080Z</time>
      </trkpt>
      <trkpt lat="45.14919" lon="5.76452">
        <ele>372</ele>
        <time>2019-05-24T11:38:12.080Z</time>
      </trkpt>
      <trkpt lat="45.14918" lon="5.76449">
        <ele>372</ele>
        <time>2019-05-24T11:38:13.080Z</time>
      </trkpt>
      <trkpt lat="45.14917" lon="5.76446">
        <ele>373</ele>
        <time>2019-05-24T11:38:14.080Z</time>
      </trkpt>
      <trkpt lat="45.14917" lon="5.76442">
        <ele>372</ele>
        <time>2019-05-24T11:38:15.080Z</time>
      </trkpt>
      <trkpt lat="45.14917" lon="5.76438">
        <ele>364</ele>
        <time>2019-05-24T11:38:16.080Z</time>
      </trkpt>
      <trkpt lat="45.14916" lon="5.76435">
        <ele>363</ele>
        <time>2019-05-24T11:38:17.080Z</time>
      </trkpt>
      <trkpt lat="45.14916" lon="5.76431">
        <ele>362</ele>
        <time>2019-05-24T11:38:18.080Z</time>
      </trkpt>
      <trkpt lat="45.14915" lon="5.76429">
        <ele>363</ele>
        <time>2019-05-24T11:38:19.080Z</time>
      </trkpt>
      <trkpt lat="45.14915" lon="5.76426">
        <ele>364</ele>
        <time>2019-05-24T11:38:20.080Z</time>
      </trkpt>
      <trkpt lat="45.14915" lon="5.76424">
        <ele>365</ele>
        <time>2019-05-24T11:38:21.080Z</time>
      </trkpt>
      <trkpt lat="45.14915" lon="5.76422">
        <ele>363</ele>
        <time>2019-05-24T11:38:22.080Z</time>
      </trkpt>
      <trkpt lat="45.14914" lon="5.76419">
        <ele>360</ele>
        <time>2019-05-24T11:38:23.080Z</time>
      </trkpt>
      <trkpt lat="45.14915" lon="5.76416">
        <ele>359</ele>
        <time>2019-05-24T11:38:24.080Z</time>
      </trkpt>
      <trkpt lat="45.14915" lon="5.76414">
        <ele>360</ele>
        <time>2019-05-24T11:38:25.080Z</time>
      </trkpt>
      <trkpt lat="45.14915" lon="5.76411">
        <ele>361</ele>
        <time>2019-05-24T11:38:26.080Z</time>
      </trkpt>
      <trkpt lat="45.14914" lon="5.76408">
        <ele>362</ele>
        <time>2019-05-24T11:38:27.080Z</time>
      </trkpt>
      <trkpt lat="45.14913" lon="5.76405">
        <ele>364</ele>
        <time>2019-05-24T11:38:28.080Z</time>
      </trkpt>
      <trkpt lat="45.14913" lon="5.76402">
        <ele>365</ele>
        <time>2019-05-24T11:38:29.080Z</time>
      </trkpt>
      <trkpt lat="45.14912" lon="5.76398">
        <ele>364</ele>
        <time>2019-05-24T11:38:30.080Z</time>
      </trkpt>
      <trkpt lat="45.14912" lon="5.76395">
        <ele>361</ele>
        <time>2019-05-24T11:38:31.080Z</time>
      </trkpt>
      <trkpt lat="45.14912" lon="5.76391">
        <ele>359</ele>
        <time>2019-05-24T11:38:32.080Z</time>
      </trkpt>
      <trkpt lat="45.14912" lon="5.76387">
        <ele>355</ele>
        <time>2019-05-24T11:38:33.080Z</time>
      </trkpt>
      <trkpt lat="45.14911" lon="5.76384">
        <ele>355</ele>
        <time>2019-05-24T11:38:34.080Z</time>
      </trkpt>
      <trkpt lat="45.14911" lon="5.7638">
        <ele>355</ele>
        <time>2019-05-24T11:38:35.080Z</time>
      </trkpt>
      <trkpt lat="45.14911" lon="5.76376">
        <ele>356</ele>
        <time>2019-05-24T11:38:36.080Z</time>
      </trkpt>
      <trkpt lat="45.14911" lon="5.76372">
        <ele>355</ele>
        <time>2019-05-24T11:38:37.080Z</time>
      </trkpt>
      <trkpt lat="45.14911" lon="5.76367">
        <ele>354</ele>
        <time>2019-05-24T11:38:38.080Z</time>
      </trkpt>
      <trkpt lat="45.14911" lon="5.76363">
        <ele>352</ele>
        <time>2019-05-24T11:38:39.080Z</time>
      </trkpt>
      <trkpt lat="45.14911" lon="5.76358">
        <ele>352</ele>
        <time>2019-05-24T11:38:40.080Z</time>
      </trkpt>
      <trkpt lat="45.14911" lon="5.76354">
        <ele>351</ele>
        <time>2019-05-24T11:38:41.080Z</time>
      </trkpt>
      <trkpt lat="45.1491" lon="5.76349">
        <ele>351</ele>
        <time>2019-05-24T11:38:42.080Z</time>
      </trkpt>
      <trkpt lat="45.1491" lon="5.76345">
        <ele>349</ele>
        <time>2019-05-24T11:38:43.080Z</time>
      </trkpt>
      <trkpt lat="45.14909" lon="5.76341">
        <ele>349</ele>
        <time>2019-05-24T11:38:44.080Z</time>
      </trkpt>
      <trkpt lat="45.14909" lon="5.76337">
        <ele>349</ele>
        <time>2019-05-24T11:38:45.080Z</time>
      </trkpt>
      <trkpt lat="45.14908" lon="5.76332">
        <ele>349</ele>
        <time>2019-05-24T11:38:46.080Z</time>
      </trkpt>
      <trkpt lat="45.14908" lon="5.76328">
        <ele>349</ele>
        <time>2019-05-24T11:38:47.080Z</time>
      </trkpt>
      <trkpt lat="45.14907" lon="5.76324">
        <ele>348</ele>
        <time>2019-05-24T11:38:48.080Z</time>
      </trkpt>
      <trkpt lat="45.14906" lon="5.76319">
        <ele>351</ele>
        <time>2019-05-24T11:38:49.080Z</time>
      </trkpt>
      <trkpt lat="45.14905" lon="5.76315">
        <ele>351</ele>
        <time>2019-05-24T11:38:50.080Z</time>
      </trkpt>
      <trkpt lat="45.14904" lon="5.76311">
        <ele>350</ele>
        <time>2019-05-24T11:38:51.080Z</time>
      </trkpt>
      <trkpt lat="45.14904" lon="5.76308">
        <ele>348</ele>
        <time>2019-05-24T11:38:52.080Z</time>
      </trkpt>
      <trkpt lat="45.14904" lon="5.76304">
        <ele>347</ele>
        <time>2019-05-24T11:38:53.080Z</time>
      </trkpt>
      <trkpt lat="45.14904" lon="5.76299">
        <ele>347</ele>
        <time>2019-05-24T11:38:54.080Z</time>
      </trkpt>
      <trkpt lat="45.14904" lon="5.76295">
        <ele>347</ele>
        <time>2019-05-24T11:38:55.080Z</time>
      </trkpt>
      <trkpt lat="45.14904" lon="5.76292">
        <ele>346</ele>
        <time>2019-05-24T11:38:56.080Z</time>
      </trkpt>
      <trkpt lat="45.14903" lon="5.76289">
        <ele>346</ele>
        <time>2019-05-24T11:38:57.080Z</time>
      </trkpt>
      <trkpt lat="45.14903" lon="5.76286">
        <ele>345</ele>
        <time>2019-05-24T11:38:58.080Z</time>
      </trkpt>
      <trkpt lat="45.14903" lon="5.76283">
        <ele>346</ele>
        <time>2019-05-24T11:38:59.080Z</time>
      </trkpt>
      <trkpt lat="45.14902" lon="5.7628">
        <ele>344</ele>
        <time>2019-05-24T11:39:00.080Z</time>
      </trkpt>
      <trkpt lat="45.14902" lon="5.76276">
        <ele>340</ele>
        <time>2019-05-24T11:39:01.080Z</time>
      </trkpt>
      <trkpt lat="45.14903" lon="5.76273">
        <ele>336</ele>
        <time>2019-05-24T11:39:02.080Z</time>
      </trkpt>
      <trkpt lat="45.14903" lon="5.76269">
        <ele>334</ele>
        <time>2019-05-24T11:39:03.080Z</time>
      </trkpt>
      <trkpt lat="45.14903" lon="5.76265">
        <ele>335</ele>
        <time>2019-05-24T11:39:04.080Z</time>
      </trkpt>
      <trkpt lat="45.14903" lon="5.76261">
        <ele>336</ele>
        <time>2019-05-24T11:39:05.080Z</time>
      </trkpt>
      <trkpt lat="45.14903" lon="5.76258">
        <ele>333</ele>
        <time>2019-05-24T11:39:06.080Z</time>
      </trkpt>
      <trkpt lat="45.14903" lon="5.76254">
        <ele>334</ele>
        <time>2019-05-24T11:39:07.080Z</time>
      </trkpt>
      <trkpt lat="45.14903" lon="5.76249">
        <ele>333</ele>
        <time>2019-05-24T11:39:08.080Z</time>
      </trkpt>
      <trkpt lat="45.14903" lon="5.76245">
        <ele>333</ele>
        <time>2019-05-24T11:39:09.080Z</time>
      </trkpt>
      <trkpt lat="45.14903" lon="5.7624">
        <ele>331</ele>
        <time>2019-05-24T11:39:10.080Z</time>
      </trkpt>
      <trkpt lat="45.14903" lon="5.76235">
        <ele>329</ele>
        <time>2019-05-24T11:39:11.080Z</time>
      </trkpt>
      <trkpt lat="45.14903" lon="5.76231">
        <ele>327</ele>
        <time>2019-05-24T11:39:12.080Z</time>
      </trkpt>
      <trkpt lat="45.14903" lon="5.76227">
        <ele>329</ele>
        <time>2019-05-24T11:39:13.080Z</time>
      </trkpt>
      <trkpt lat="45.14903" lon="5.76222">
        <ele>333</ele>
        <time>2019-05-24T11:39:14.080Z</time>
      </trkpt>
      <trkpt lat="45.14902" lon="5.76218">
        <ele>333</ele>
        <time>2019-05-24T11:39:15.080Z</time>
      </trkpt>
      <trkpt lat="45.14902" lon="5.76213">
        <ele>332</ele>
        <time>2019-05-24T11:39:16.080Z</time>
      </trkpt>
      <trkpt lat="45.14903" lon="5.76208">
        <ele>331</ele>
        <time>2019-05-24T11:39:17.080Z</time>
      </trkpt>
      <trkpt lat="45.14904" lon="5.76204">
        <ele>331</ele>
        <time>2019-05-24T11:39:18.080Z</time>
      </trkpt>
      <trkpt lat="45.14905" lon="5.76199">
        <ele>330</ele>
        <time>2019-05-24T11:39:19.080Z</time>
      </trkpt>
      <trkpt lat="45.14906" lon="5.76194">
        <ele>329</ele>
        <time>2019-05-24T11:39:20.080Z</time>
      </trkpt>
      <trkpt lat="45.14907" lon="5.76191">
        <ele>327</ele>
        <time>2019-05-24T11:39:21.080Z</time>
      </trkpt>
      <trkpt lat="45.14908" lon="5.76187">
        <ele>327</ele>
        <time>2019-05-24T11:39:22.080Z</time>
      </trkpt>
      <trkpt lat="45.1491" lon="5.76183">
        <ele>327</ele>
        <time>2019-05-24T11:39:23.080Z</time>
      </trkpt>
      <trkpt lat="45.14911" lon="5.7618">
        <ele>327</ele>
        <time>2019-05-24T11:39:24.080Z</time>
      </trkpt>
      <trkpt lat="45.14913" lon="5.76178">
        <ele>328</ele>
        <time>2019-05-24T11:39:25.080Z</time>
      </trkpt>
      <trkpt lat="45.14915" lon="5.76175">
        <ele>328</ele>
        <time>2019-05-24T11:39:26.080Z</time>
      </trkpt>
      <trkpt lat="45.14916" lon="5.76172">
        <ele>329</ele>
        <time>2019-05-24T11:39:27.080Z</time>
      </trkpt>
      <trkpt lat="45.14918" lon="5.7617">
        <ele>328</ele>
        <time>2019-05-24T11:39:28.080Z</time>
      </trkpt>
      <trkpt lat="45.1492" lon="5.76167">
        <ele>328</ele>
        <time>2019-05-24T11:39:29.080Z</time>
      </trkpt>
      <trkpt lat="45.14921" lon="5.76164">
        <ele>326</ele>
        <time>2019-05-24T11:39:30.080Z</time>
      </trkpt>
      <trkpt lat="45.14923" lon="5.76161">
        <ele>326</ele>
        <time>2019-05-24T11:39:31.080Z</time>
      </trkpt>
      <trkpt lat="45.14924" lon="5.76157">
        <ele>326</ele>
        <time>2019-05-24T11:39:32.080Z</time>
      </trkpt>
      <trkpt lat="45.14925" lon="5.76153">
        <ele>325</ele>
        <time>2019-05-24T11:39:33.080Z</time>
      </trkpt>
      <trkpt lat="45.14927" lon="5.7615">
        <ele>326</ele>
        <time>2019-05-24T11:39:34.080Z</time>
      </trkpt>
      <trkpt lat="45.14928" lon="5.76146">
        <ele>326</ele>
        <time>2019-05-24T11:39:35.080Z</time>
      </trkpt>
      <trkpt lat="45.1493" lon="5.76142">
        <ele>326</ele>
        <time>2019-05-24T11:39:36.080Z</time>
      </trkpt>
      <trkpt lat="45.14931" lon="5.76138">
        <ele>326</ele>
        <time>2019-05-24T11:39:37.080Z</time>
      </trkpt>
      <trkpt lat="45.14932" lon="5.76135">
        <ele>326</ele>
        <time>2019-05-24T11:39:38.080Z</time>
      </trkpt>
      <trkpt lat="45.14933" lon="5.76131">
        <ele>325</ele>
        <time>2019-05-24T11:39:39.080Z</time>
      </trkpt>
      <trkpt lat="45.14934" lon="5.76128">
        <ele>325</ele>
        <time>2019-05-24T11:39:40.080Z</time>
      </trkpt>
      <trkpt lat="45.14935" lon="5.76124">
        <ele>326</ele>
        <time>2019-05-24T11:39:41.080Z</time>
      </trkpt>
      <trkpt lat="45.14936" lon="5.76121">
        <ele>324</ele>
        <time>2019-05-24T11:39:42.080Z</time>
      </trkpt>
      <trkpt lat="45.14937" lon="5.76117">
        <ele>321</ele>
        <time>2019-05-24T11:39:43.080Z</time>
      </trkpt>
      <trkpt lat="45.14937" lon="5.76113">
        <ele>322</ele>
        <time>2019-05-24T11:39:44.080Z</time>
      </trkpt>
      <trkpt lat="45.14937" lon="5.76109">
        <ele>322</ele>
        <time>2019-05-24T11:39:45.080Z</time>
      </trkpt>
      <trkpt lat="45.14937" lon="5.76105">
        <ele>324</ele>
        <time>2019-05-24T11:39:46.080Z</time>
      </trkpt>
      <trkpt lat="45.14938" lon="5.761">
        <ele>324</ele>
        <time>2019-05-24T11:39:47.080Z</time>
      </trkpt>
      <trkpt lat="45.14938" lon="5.76096">
        <ele>323</ele>
        <time>2019-05-24T11:39:48.080Z</time>
      </trkpt>
      <trkpt lat="45.14938" lon="5.76091">
        <ele>322</ele>
        <time>2019-05-24T11:39:49.080Z</time>
      </trkpt>
      <trkpt lat="45.14939" lon="5.76087">
        <ele>321</ele>
        <time>2019-05-24T11:39:50.080Z</time>
      </trkpt>
      <trkpt lat="45.14939" lon="5.76083">
        <ele>321</ele>
        <time>2019-05-24T11:39:51.080Z</time>
      </trkpt>
      <trkpt lat="45.14939" lon="5.76078">
        <ele>320</ele>
        <time>2019-05-24T11:39:52.080Z</time>
      </trkpt>
      <trkpt lat="45.14941" lon="5.76075">
        <ele>321</ele>
        <time>2019-05-24T11:39:53.080Z</time>
      </trkpt>
      <trkpt lat="45.14942" lon="5.76071">
        <ele>320</ele>
        <time>2019-05-24T11:39:54.080Z</time>
      </trkpt>
      <trkpt lat="45.14944" lon="5.76067">
        <ele>321</ele>
        <time>2019-05-24T11:39:55.080Z</time>
      </trkpt>
      <trkpt lat="45.14944" lon="5.76062">
        <ele>321</ele>
        <time>2019-05-24T11:39:56.080Z</time>
      </trkpt>
      <trkpt lat="45.14944" lon="5.76057">
        <ele>322</ele>
        <time>2019-05-24T11:39:57.080Z</time>
      </trkpt>
      <trkpt lat="45.14942" lon="5.76051">
        <ele>321</ele>
        <time>2019-05-24T11:39:58.080Z</time>
      </trkpt>
      <trkpt lat="45.14942" lon="5.76046">
        <ele>320</ele>
        <time>2019-05-24T11:39:59.080Z</time>
      </trkpt>
      <trkpt lat="45.14941" lon="5.76042">
        <ele>319</ele>
        <time>2019-05-24T11:40:00.080Z</time>
      </trkpt>
      <trkpt lat="45.1494" lon="5.76037">
        <ele>319</ele>
        <time>2019-05-24T11:40:01.080Z</time>
      </trkpt>
      <trkpt lat="45.1494" lon="5.76034">
        <ele>319</ele>
        <time>2019-05-24T11:40:02.080Z</time>
      </trkpt>
      <trkpt lat="45.14939" lon="5.7603">
        <ele>318</ele>
        <time>2019-05-24T11:40:03.080Z</time>
      </trkpt>
      <trkpt lat="45.14938" lon="5.76027">
        <ele>318</ele>
        <time>2019-05-24T11:40:04.080Z</time>
      </trkpt>
      <trkpt lat="45.14937" lon="5.76022">
        <ele>318</ele>
        <time>2019-05-24T11:40:05.080Z</time>
      </trkpt>
      <trkpt lat="45.14936" lon="5.76019">
        <ele>318</ele>
        <time>2019-05-24T11:40:06.080Z</time>
      </trkpt>
      <trkpt lat="45.14935" lon="5.76015">
        <ele>318</ele>
        <time>2019-05-24T11:40:07.080Z</time>
      </trkpt>
      <trkpt lat="45.14935" lon="5.76011">
        <ele>316</ele>
        <time>2019-05-24T11:40:08.080Z</time>
      </trkpt>
      <trkpt lat="45.14935" lon="5.76007">
        <ele>315</ele>
        <time>2019-05-24T11:40:09.080Z</time>
      </trkpt>
      <trkpt lat="45.14936" lon="5.76003">
        <ele>314</ele>
        <time>2019-05-24T11:40:10.080Z</time>
      </trkpt>
      <trkpt lat="45.14936" lon="5.75999">
        <ele>315</ele>
        <time>2019-05-24T11:40:11.080Z</time>
      </trkpt>
      <trkpt lat="45.14936" lon="5.75993">
        <ele>316</ele>
        <time>2019-05-24T11:40:12.080Z</time>
      </trkpt>
      <trkpt lat="45.14935" lon="5.75989">
        <ele>316</ele>
        <time>2019-05-24T11:40:13.080Z</time>
      </trkpt>
      <trkpt lat="45.14934" lon="5.75984">
        <ele>316</ele>
        <time>2019-05-24T11:40:14.080Z</time>
      </trkpt>
      <trkpt lat="45.14933" lon="5.7598">
        <ele>316</ele>
        <time>2019-05-24T11:40:15.080Z</time>
      </trkpt>
      <trkpt lat="45.14932" lon="5.75975">
        <ele>316</ele>
        <time>2019-05-24T11:40:16.080Z</time>
      </trkpt>
      <trkpt lat="45.14931" lon="5.75971">
        <ele>316</ele>
        <time>2019-05-24T11:40:17.080Z</time>
      </trkpt>
      <trkpt lat="45.14931" lon="5.75967">
        <ele>316</ele>
        <time>2019-05-24T11:40:18.080Z</time>
      </trkpt>
      <trkpt lat="45.14933" lon="5.75963">
        <ele>316</ele>
        <time>2019-05-24T11:40:19.080Z</time>
      </trkpt>
      <trkpt lat="45.14933" lon="5.75959">
        <ele>316</ele>
        <time>2019-05-24T11:40:20.080Z</time>
      </trkpt>
      <trkpt lat="45.14935" lon="5.75955">
        <ele>315</ele>
        <time>2019-05-24T11:40:21.080Z</time>
      </trkpt>
      <trkpt lat="45.14936" lon="5.75951">
        <ele>314</ele>
        <time>2019-05-24T11:40:22.080Z</time>
      </trkpt>
      <trkpt lat="45.14937" lon="5.75947">
        <ele>314</ele>
        <time>2019-05-24T11:40:23.080Z</time>
      </trkpt>
      <trkpt lat="45.14939" lon="5.75944">
        <ele>313</ele>
        <time>2019-05-24T11:40:24.080Z</time>
      </trkpt>
      <trkpt lat="45.14941" lon="5.7594">
        <ele>313</ele>
        <time>2019-05-24T11:40:25.080Z</time>
      </trkpt>
      <trkpt lat="45.14942" lon="5.75937">
        <ele>312</ele>
        <time>2019-05-24T11:40:26.080Z</time>
      </trkpt>
      <trkpt lat="45.14943" lon="5.75933">
        <ele>311</ele>
        <time>2019-05-24T11:40:27.080Z</time>
      </trkpt>
      <trkpt lat="45.14945" lon="5.75928">
        <ele>310</ele>
        <time>2019-05-24T11:40:28.080Z</time>
      </trkpt>
      <trkpt lat="45.14946" lon="5.75923">
        <ele>311</ele>
        <time>2019-05-24T11:40:29.080Z</time>
      </trkpt>
      <trkpt lat="45.14947" lon="5.75919">
        <ele>312</ele>
        <time>2019-05-24T11:40:30.080Z</time>
      </trkpt>
      <trkpt lat="45.14947" lon="5.75915">
        <ele>312</ele>
        <time>2019-05-24T11:40:31.080Z</time>
      </trkpt>
      <trkpt lat="45.14947" lon="5.75911">
        <ele>311</ele>
        <time>2019-05-24T11:40:32.080Z</time>
      </trkpt>
      <trkpt lat="45.14949" lon="5.75908">
        <ele>311</ele>
        <time>2019-05-24T11:40:33.080Z</time>
      </trkpt>
      <trkpt lat="45.1495" lon="5.75904">
        <ele>310</ele>
        <time>2019-05-24T11:40:34.080Z</time>
      </trkpt>
      <trkpt lat="45.14952" lon="5.75901">
        <ele>310</ele>
        <time>2019-05-24T11:40:35.080Z</time>
      </trkpt>
      <trkpt lat="45.14954" lon="5.75896">
        <ele>310</ele>
        <time>2019-05-24T11:40:36.080Z</time>
      </trkpt>
      <trkpt lat="45.14952" lon="5.75892">
        <ele>310</ele>
        <time>2019-05-24T11:40:37.080Z</time>
      </trkpt>
      <trkpt lat="45.14953" lon="5.75888">
        <ele>307</ele>
        <time>2019-05-24T11:40:38.080Z</time>
      </trkpt>
      <trkpt lat="45.14952" lon="5.75884">
        <ele>305</ele>
        <time>2019-05-24T11:40:39.080Z</time>
      </trkpt>
      <trkpt lat="45.14952" lon="5.7588">
        <ele>304</ele>
        <time>2019-05-24T11:40:40.080Z</time>
      </trkpt>
      <trkpt lat="45.14951" lon="5.75877">
        <ele>304</ele>
        <time>2019-05-24T11:40:41.080Z</time>
      </trkpt>
      <trkpt lat="45.1495" lon="5.75873">
        <ele>303</ele>
        <time>2019-05-24T11:40:42.080Z</time>
      </trkpt>
      <trkpt lat="45.14949" lon="5.75869">
        <ele>304</ele>
        <time>2019-05-24T11:40:43.080Z</time>
      </trkpt>
      <trkpt lat="45.14949" lon="5.75866">
        <ele>303</ele>
        <time>2019-05-24T11:40:44.080Z</time>
      </trkpt>
      <trkpt lat="45.14948" lon="5.75863">
        <ele>301</ele>
        <time>2019-05-24T11:40:45.080Z</time>
      </trkpt>
      <trkpt lat="45.14947" lon="5.75861">
        <ele>301</ele>
        <time>2019-05-24T11:40:46.080Z</time>
      </trkpt>
      <trkpt lat="45.14946" lon="5.75858">
        <ele>300</ele>
        <time>2019-05-24T11:40:47.080Z</time>
      </trkpt>
      <trkpt lat="45.14946" lon="5.75855">
        <ele>301</ele>
        <time>2019-05-24T11:40:48.080Z</time>
      </trkpt>
      <trkpt lat="45.14946" lon="5.75851">
        <ele>301</ele>
        <time>2019-05-24T11:40:49.080Z</time>
      </trkpt>
      <trkpt lat="45.14946" lon="5.75846">
        <ele>302</ele>
        <time>2019-05-24T11:40:50.080Z</time>
      </trkpt>
      <trkpt lat="45.14946" lon="5.75843">
        <ele>302</ele>
        <time>2019-05-24T11:40:51.080Z</time>
      </trkpt>
      <trkpt lat="45.14946" lon="5.75839">
        <ele>298</ele>
        <time>2019-05-24T11:40:52.080Z</time>
      </trkpt>
      <trkpt lat="45.14947" lon="5.75835">
        <ele>297</ele>
        <time>2019-05-24T11:40:53.080Z</time>
      </trkpt>
      <trkpt lat="45.14948" lon="5.75831">
        <ele>297</ele>
        <time>2019-05-24T11:40:54.080Z</time>
      </trkpt>
      <trkpt lat="45.14949" lon="5.75828">
        <ele>297</ele>
        <time>2019-05-24T11:40:55.080Z</time>
      </trkpt>
      <trkpt lat="45.1495" lon="5.75824">
        <ele>297</ele>
        <time>2019-05-24T11:40:56.080Z</time>
      </trkpt>
      <trkpt lat="45.14949" lon="5.7582">
        <ele>297</ele>
        <time>2019-05-24T11:40:57.080Z</time>
      </trkpt>
      <trkpt lat="45.14948" lon="5.75816">
        <ele>296</ele>
        <time>2019-05-24T11:40:58.080Z</time>
      </trkpt>
      <trkpt lat="45.14948" lon="5.75811">
        <ele>296</ele>
        <time>2019-05-24T11:40:59.080Z</time>
      </trkpt>
      <trkpt lat="45.14947" lon="5.75807">
        <ele>296</ele>
        <time>2019-05-24T11:41:00.080Z</time>
      </trkpt>
      <trkpt lat="45.14947" lon="5.75802">
        <ele>296</ele>
        <time>2019-05-24T11:41:01.080Z</time>
      </trkpt>
      <trkpt lat="45.14948" lon="5.75797">
        <ele>295</ele>
        <time>2019-05-24T11:41:02.080Z</time>
      </trkpt>
      <trkpt lat="45.14948" lon="5.75792">
        <ele>295</ele>
        <time>2019-05-24T11:41:03.080Z</time>
      </trkpt>
      <trkpt lat="45.14948" lon="5.75788">
        <ele>296</ele>
        <time>2019-05-24T11:41:04.080Z</time>
      </trkpt>
      <trkpt lat="45.14948" lon="5.75784">
        <ele>296</ele>
        <time>2019-05-24T11:41:05.080Z</time>
      </trkpt>
      <trkpt lat="45.14946" lon="5.75781">
        <ele>296</ele>
        <time>2019-05-24T11:41:06.080Z</time>
      </trkpt>
      <trkpt lat="45.14945" lon="5.75776">
        <ele>296</ele>
        <time>2019-05-24T11:41:07.080Z</time>
      </trkpt>
      <trkpt lat="45.14945" lon="5.75771">
        <ele>297</ele>
        <time>2019-05-24T11:41:08.080Z</time>
      </trkpt>
      <trkpt lat="45.14945" lon="5.75767">
        <ele>299</ele>
        <time>2019-05-24T11:41:09.080Z</time>
      </trkpt>
      <trkpt lat="45.14945" lon="5.75762">
        <ele>298</ele>
        <time>2019-05-24T11:41:10.080Z</time>
      </trkpt>
      <trkpt lat="45.14946" lon="5.75757">
        <ele>298</ele>
        <time>2019-05-24T11:41:11.080Z</time>
      </trkpt>
      <trkpt lat="45.14946" lon="5.75753">
        <ele>300</ele>
        <time>2019-05-24T11:41:12.080Z</time>
      </trkpt>
      <trkpt lat="45.14946" lon="5.75749">
        <ele>299</ele>
        <time>2019-05-24T11:41:13.080Z</time>
      </trkpt>
      <trkpt lat="45.14945" lon="5.75745">
        <ele>299</ele>
        <time>2019-05-24T11:41:14.080Z</time>
      </trkpt>
      <trkpt lat="45.14944" lon="5.7574">
        <ele>299</ele>
        <time>2019-05-24T11:41:15.080Z</time>
      </trkpt>
      <trkpt lat="45.14944" lon="5.75736">
        <ele>299</ele>
        <time>2019-05-24T11:41:16.080Z</time>
      </trkpt>
      <trkpt lat="45.14944" lon="5.75731">
        <ele>300</ele>
        <time>2019-05-24T11:41:17.080Z</time>
      </trkpt>
      <trkpt lat="45.14942" lon="5.75726">
        <ele>300</ele>
        <time>2019-05-24T11:41:18.080Z</time>
      </trkpt>
      <trkpt lat="45.14941" lon="5.75722">
        <ele>299</ele>
        <time>2019-05-24T11:41:19.080Z</time>
      </trkpt>
      <trkpt lat="45.1494" lon="5.75717">
        <ele>299</ele>
        <time>2019-05-24T11:41:20.080Z</time>
      </trkpt>
      <trkpt lat="45.14939" lon="5.75713">
        <ele>298</ele>
        <time>2019-05-24T11:41:21.080Z</time>
      </trkpt>
      <trkpt lat="45.14938" lon="5.75708">
        <ele>299</ele>
        <time>2019-05-24T11:41:22.080Z</time>
      </trkpt>
      <trkpt lat="45.14938" lon="5.75704">
        <ele>299</ele>
        <time>2019-05-24T11:41:23.080Z</time>
      </trkpt>
      <trkpt lat="45.14937" lon="5.75702">
        <ele>299</ele>
        <time>2019-05-24T11:41:24.080Z</time>
      </trkpt>
      <trkpt lat="45.14934" lon="5.75698">
        <ele>299</ele>
        <time>2019-05-24T11:41:25.080Z</time>
      </trkpt>
      <trkpt lat="45.14931" lon="5.75695">
        <ele>300</ele>
        <time>2019-05-24T11:41:26.080Z</time>
      </trkpt>
      <trkpt lat="45.14928" lon="5.7569">
        <ele>300</ele>
        <time>2019-05-24T11:41:27.080Z</time>
      </trkpt>
      <trkpt lat="45.14927" lon="5.75686">
        <ele>300</ele>
        <time>2019-05-24T11:41:28.080Z</time>
      </trkpt>
      <trkpt lat="45.14926" lon="5.75681">
        <ele>298</ele>
        <time>2019-05-24T11:41:29.080Z</time>
      </trkpt>
      <trkpt lat="45.14926" lon="5.75677">
        <ele>291</ele>
        <time>2019-05-24T11:41:30.080Z</time>
      </trkpt>
      <trkpt lat="45.14925" lon="5.75673">
        <ele>290</ele>
        <time>2019-05-24T11:41:31.080Z</time>
      </trkpt>
      <trkpt lat="45.14924" lon="5.75668">
        <ele>289</ele>
        <time>2019-05-24T11:41:32.080Z</time>
      </trkpt>
      <trkpt lat="45.14925" lon="5.75664">
        <ele>289</ele>
        <time>2019-05-24T11:41:33.080Z</time>
      </trkpt>
      <trkpt lat="45.14925" lon="5.7566">
        <ele>290</ele>
        <time>2019-05-24T11:41:34.080Z</time>
      </trkpt>
      <trkpt lat="45.14925" lon="5.75656">
        <ele>291</ele>
        <time>2019-05-24T11:41:35.080Z</time>
      </trkpt>
      <trkpt lat="45.14925" lon="5.75651">
        <ele>293</ele>
        <time>2019-05-24T11:41:36.080Z</time>
      </trkpt>
      <trkpt lat="45.14925" lon="5.75648">
        <ele>292</ele>
        <time>2019-05-24T11:41:37.080Z</time>
      </trkpt>
      <trkpt lat="45.14925" lon="5.75644">
        <ele>292</ele>
        <time>2019-05-24T11:41:38.080Z</time>
      </trkpt>
      <trkpt lat="45.14925" lon="5.7564">
        <ele>290</ele>
        <time>2019-05-24T11:41:39.080Z</time>
      </trkpt>
      <trkpt lat="45.14926" lon="5.75636">
        <ele>288</ele>
        <time>2019-05-24T11:41:40.080Z</time>
      </trkpt>
      <trkpt lat="45.14927" lon="5.75631">
        <ele>286</ele>
        <time>2019-05-24T11:41:41.080Z</time>
      </trkpt>
      <trkpt lat="45.14927" lon="5.75626">
        <ele>285</ele>
        <time>2019-05-24T11:41:42.080Z</time>
      </trkpt>
      <trkpt lat="45.14928" lon="5.75621">
        <ele>285</ele>
        <time>2019-05-24T11:41:43.080Z</time>
      </trkpt>
      <trkpt lat="45.14928" lon="5.75617">
        <ele>286</ele>
        <time>2019-05-24T11:41:44.080Z</time>
      </trkpt>
      <trkpt lat="45.14928" lon="5.75613">
        <ele>285</ele>
        <time>2019-05-24T11:41:45.080Z</time>
      </trkpt>
      <trkpt lat="45.14929" lon="5.75609">
        <ele>284</ele>
        <time>2019-05-24T11:41:46.080Z</time>
      </trkpt>
      <trkpt lat="45.1493" lon="5.75604">
        <ele>283</ele>
        <time>2019-05-24T11:41:47.080Z</time>
      </trkpt>
      <trkpt lat="45.14931" lon="5.756">
        <ele>283</ele>
        <time>2019-05-24T11:41:48.080Z</time>
      </trkpt>
      <trkpt lat="45.14932" lon="5.75597">
        <ele>282</ele>
        <time>2019-05-24T11:41:49.080Z</time>
      </trkpt>
      <trkpt lat="45.14933" lon="5.75593">
        <ele>283</ele>
        <time>2019-05-24T11:41:50.080Z</time>
      </trkpt>
      <trkpt lat="45.14935" lon="5.7559">
        <ele>283</ele>
        <time>2019-05-24T11:41:51.080Z</time>
      </trkpt>
      <trkpt lat="45.14936" lon="5.75586">
        <ele>284</ele>
        <time>2019-05-24T11:41:52.080Z</time>
      </trkpt>
      <trkpt lat="45.14938" lon="5.75583">
        <ele>284</ele>
        <time>2019-05-24T11:41:53.080Z</time>
      </trkpt>
      <trkpt lat="45.14939" lon="5.75579">
        <ele>286</ele>
        <time>2019-05-24T11:41:54.080Z</time>
      </trkpt>
      <trkpt lat="45.1494" lon="5.75576">
        <ele>284</ele>
        <time>2019-05-24T11:41:55.080Z</time>
      </trkpt>
      <trkpt lat="45.14942" lon="5.75573">
        <ele>281</ele>
        <time>2019-05-24T11:41:56.080Z</time>
      </trkpt>
      <trkpt lat="45.14944" lon="5.7557">
        <ele>281</ele>
        <time>2019-05-24T11:41:57.080Z</time>
      </trkpt>
      <trkpt lat="45.14945" lon="5.75567">
        <ele>282</ele>
        <time>2019-05-24T11:41:58.080Z</time>
      </trkpt>
      <trkpt lat="45.14947" lon="5.75565">
        <ele>282</ele>
        <time>2019-05-24T11:41:59.080Z</time>
      </trkpt>
      <trkpt lat="45.14949" lon="5.75563">
        <ele>281</ele>
        <time>2019-05-24T11:42:00.080Z</time>
      </trkpt>
      <trkpt lat="45.14951" lon="5.75562">
        <ele>280</ele>
        <time>2019-05-24T11:42:01.080Z</time>
      </trkpt>
      <trkpt lat="45.14953" lon="5.75561">
        <ele>279</ele>
        <time>2019-05-24T11:42:02.080Z</time>
      </trkpt>
      <trkpt lat="45.14955" lon="5.75559">
        <ele>277</ele>
        <time>2019-05-24T11:42:03.080Z</time>
      </trkpt>
      <trkpt lat="45.14958" lon="5.75557">
        <ele>277</ele>
        <time>2019-05-24T11:42:04.080Z</time>
      </trkpt>
      <trkpt lat="45.1496" lon="5.75555">
        <ele>277</ele>
        <time>2019-05-24T11:42:05.080Z</time>
      </trkpt>
      <trkpt lat="45.14962" lon="5.75552">
        <ele>276</ele>
        <time>2019-05-24T11:42:06.080Z</time>
      </trkpt>
      <trkpt lat="45.14964" lon="5.75548">
        <ele>276</ele>
        <time>2019-05-24T11:42:07.080Z</time>
      </trkpt>
      <trkpt lat="45.14967" lon="5.75545">
        <ele>275</ele>
        <time>2019-05-24T11:42:08.080Z</time>
      </trkpt>
      <trkpt lat="45.14969" lon="5.75542">
        <ele>272</ele>
        <time>2019-05-24T11:42:09.080Z</time>
      </trkpt>
      <trkpt lat="45.14971" lon="5.75539">
        <ele>273</ele>
        <time>2019-05-24T11:42:10.080Z</time>
      </trkpt>
      <trkpt lat="45.14972" lon="5.75537">
        <ele>271</ele>
        <time>2019-05-24T11:42:11.080Z</time>
      </trkpt>
      <trkpt lat="45.14974" lon="5.75533">
        <ele>271</ele>
        <time>2019-05-24T11:42:12.080Z</time>
      </trkpt>
      <trkpt lat="45.14976" lon="5.7553">
        <ele>272</ele>
        <time>2019-05-24T11:42:13.080Z</time>
      </trkpt>
      <trkpt lat="45.14977" lon="5.75528">
        <ele>271</ele>
        <time>2019-05-24T11:42:14.080Z</time>
      </trkpt>
      <trkpt lat="45.14978" lon="5.75524">
        <ele>269</ele>
        <time>2019-05-24T11:42:15.080Z</time>
      </trkpt>
      <trkpt lat="45.14978" lon="5.75522">
        <ele>269</ele>
        <time>2019-05-24T11:42:16.080Z</time>
      </trkpt>
      <trkpt lat="45.14977" lon="5.75521">
        <ele>269</ele>
        <time>2019-05-24T11:42:17.080Z</time>
      </trkpt>
      <trkpt lat="45.14976" lon="5.75519">
        <ele>268</ele>
        <time>2019-05-24T11:42:18.080Z</time>
      </trkpt>
      <trkpt lat="45.14974" lon="5.75519">
        <ele>266</ele>
        <time>2019-05-24T11:42:19.080Z</time>
      </trkpt>
      <trkpt lat="45.14972" lon="5.75518">
        <ele>266</ele>
        <time>2019-05-24T11:42:20.080Z</time>
      </trkpt>
      <trkpt lat="45.1497" lon="5.75518">
        <ele>267</ele>
        <time>2019-05-24T11:42:21.080Z</time>
      </trkpt>
      <trkpt lat="45.14969" lon="5.75518">
        <ele>268</ele>
        <time>2019-05-24T11:42:22.080Z</time>
      </trkpt>
      <trkpt lat="45.14967" lon="5.75519">
        <ele>270</ele>
        <time>2019-05-24T11:42:23.080Z</time>
      </trkpt>
      <trkpt lat="45.14966" lon="5.75519">
        <ele>269</ele>
        <time>2019-05-24T11:42:24.080Z</time>
      </trkpt>
      <trkpt lat="45.14963" lon="5.75519">
        <ele>269</ele>
        <time>2019-05-24T11:42:25.080Z</time>
      </trkpt>
      <trkpt lat="45.14961" lon="5.7552">
        <ele>269</ele>
        <time>2019-05-24T11:42:26.080Z</time>
      </trkpt>
      <trkpt lat="45.14958" lon="5.7552">
        <ele>269</ele>
        <time>2019-05-24T11:42:27.080Z</time>
      </trkpt>
      <trkpt lat="45.14956" lon="5.75519">
        <ele>270</ele>
        <time>2019-05-24T11:42:28.080Z</time>
      </trkpt>
      <trkpt lat="45.14953" lon="5.75518">
        <ele>270</ele>
        <time>2019-05-24T11:42:29.080Z</time>
      </trkpt>
      <trkpt lat="45.14951" lon="5.75517">
        <ele>269</ele>
        <time>2019-05-24T11:42:30.080Z</time>
      </trkpt>
      <trkpt lat="45.1495" lon="5.75516">
        <ele>270</ele>
        <time>2019-05-24T11:42:31.080Z</time>
      </trkpt>
      <trkpt lat="45.14948" lon="5.75515">
        <ele>272</ele>
        <time>2019-05-24T11:42:32.080Z</time>
      </trkpt>
      <trkpt lat="45.14946" lon="5.75513">
        <ele>273</ele>
        <time>2019-05-24T11:42:33.080Z</time>
      </trkpt>
      <trkpt lat="45.14945" lon="5.75511">
        <ele>271</ele>
        <time>2019-05-24T11:42:34.080Z</time>
      </trkpt>
      <trkpt lat="45.14943" lon="5.75507">
        <ele>269</ele>
        <time>2019-05-24T11:42:35.080Z</time>
      </trkpt>
      <trkpt lat="45.14942" lon="5.75503">
        <ele>267</ele>
        <time>2019-05-24T11:42:36.080Z</time>
      </trkpt>
      <trkpt lat="45.14941" lon="5.75499">
        <ele>267</ele>
        <time>2019-05-24T11:42:37.080Z</time>
      </trkpt>
      <trkpt lat="45.14941" lon="5.75496">
        <ele>265</ele>
        <time>2019-05-24T11:42:38.080Z</time>
      </trkpt>
      <trkpt lat="45.14942" lon="5.75493">
        <ele>263</ele>
        <time>2019-05-24T11:42:39.080Z</time>
      </trkpt>
      <trkpt lat="45.14942" lon="5.75489">
        <ele>261</ele>
        <time>2019-05-24T11:42:40.080Z</time>
      </trkpt>
      <trkpt lat="45.14942" lon="5.75485">
        <ele>260</ele>
        <time>2019-05-24T11:42:41.080Z</time>
      </trkpt>
      <trkpt lat="45.14942" lon="5.75481">
        <ele>260</ele>
        <time>2019-05-24T11:42:42.080Z</time>
      </trkpt>
      <trkpt lat="45.14943" lon="5.75476">
        <ele>260</ele>
        <time>2019-05-24T11:42:43.080Z</time>
      </trkpt>
      <trkpt lat="45.14944" lon="5.75472">
        <ele>260</ele>
        <time>2019-05-24T11:42:44.080Z</time>
      </trkpt>
      <trkpt lat="45.14944" lon="5.75468">
        <ele>260</ele>
        <time>2019-05-24T11:42:45.080Z</time>
      </trkpt>
      <trkpt lat="45.14945" lon="5.75465">
        <ele>259</ele>
        <time>2019-05-24T11:42:46.080Z</time>
      </trkpt>
      <trkpt lat="45.14947" lon="5.75461">
        <ele>259</ele>
        <time>2019-05-24T11:42:47.080Z</time>
      </trkpt>
      <trkpt lat="45.14949" lon="5.75458">
        <ele>258</ele>
        <time>2019-05-24T11:42:48.080Z</time>
      </trkpt>
      <trkpt lat="45.14949" lon="5.75455">
        <ele>258</ele>
        <time>2019-05-24T11:42:49.080Z</time>
      </trkpt>
      <trkpt lat="45.14949" lon="5.75451">
        <ele>259</ele>
        <time>2019-05-24T11:42:50.080Z</time>
      </trkpt>
      <trkpt lat="45.14947" lon="5.75447">
        <ele>258</ele>
        <time>2019-05-24T11:42:51.080Z</time>
      </trkpt>
      <trkpt lat="45.14946" lon="5.75444">
        <ele>259</ele>
        <time>2019-05-24T11:42:52.080Z</time>
      </trkpt>
      <trkpt lat="45.14946" lon="5.7544">
        <ele>259</ele>
        <time>2019-05-24T11:42:53.080Z</time>
      </trkpt>
      <trkpt lat="45.14945" lon="5.75435">
        <ele>258</ele>
        <time>2019-05-24T11:42:54.080Z</time>
      </trkpt>
    </trkseg>
  </trk>
</gpx>